<?xml version="1.0" encoding="UTF-8" standalone="no" ?>
<gpx xmlns="http://www.topografix.com/GPX/1/1" xmlns:xsi="http://www.w3.org/2001/XMLSchema-instance" xsi:schemaLocation="http://www.topografix.com/GPX/1/1 http://www.topografix.com/GPX/1/1/gpx.xsd" version="1.1" creator="VisuGPX - https://www.visugpx.com">
  <metadata>
    <name>Mountain Biking 9/25/11 8:13 am</name>
  </metadata>
  <trk>
    <name><![CDATA[Mountain Biking 9/25/11 8:13 am]]></name>
    <trkseg>
      <trkpt lat="45.73103" lon="3.10392">
        <ele>469</ele>
        <time>2011-09-25T08:13:26Z</time>
      </trkpt>
      <trkpt lat="45.731" lon="3.10409">
        <ele>469</ele>
        <time>2011-09-25T08:13:29Z</time>
      </trkpt>
      <trkpt lat="45.73093" lon="3.10418">
        <ele>469.1</ele>
        <time>2011-09-25T08:13:32Z</time>
      </trkpt>
      <trkpt lat="45.73086" lon="3.10411">
        <ele>469.2</ele>
        <time>2011-09-25T08:13:36Z</time>
      </trkpt>
      <trkpt lat="45.73079" lon="3.10401">
        <ele>469.3</ele>
        <time>2011-09-25T08:13:40Z</time>
      </trkpt>
      <trkpt lat="45.73074" lon="3.10389">
        <ele>469.4</ele>
        <time>2011-09-25T08:13:44Z</time>
      </trkpt>
      <trkpt lat="45.7307" lon="3.10375">
        <ele>470</ele>
        <time>2011-09-25T08:13:48Z</time>
      </trkpt>
      <trkpt lat="45.73069" lon="3.10364">
        <ele>470.6</ele>
        <time>2011-09-25T08:13:51Z</time>
      </trkpt>
      <trkpt lat="45.73068" lon="3.10351">
        <ele>471.3</ele>
        <time>2011-09-25T08:13:55Z</time>
      </trkpt>
      <trkpt lat="45.7306" lon="3.10343">
        <ele>472.1</ele>
        <time>2011-09-25T08:13:58Z</time>
      </trkpt>
      <trkpt lat="45.7305" lon="3.10348">
        <ele>472.9</ele>
        <time>2011-09-25T08:14:02Z</time>
      </trkpt>
      <trkpt lat="45.73042" lon="3.10356">
        <ele>473.7</ele>
        <time>2011-09-25T08:14:07Z</time>
      </trkpt>
      <trkpt lat="45.73034" lon="3.10366">
        <ele>474.5</ele>
        <time>2011-09-25T08:14:11Z</time>
      </trkpt>
      <trkpt lat="45.73027" lon="3.10374">
        <ele>475.3</ele>
        <time>2011-09-25T08:14:13Z</time>
      </trkpt>
      <trkpt lat="45.73021" lon="3.10381">
        <ele>476</ele>
        <time>2011-09-25T08:14:16Z</time>
      </trkpt>
      <trkpt lat="45.73015" lon="3.10389">
        <ele>476.7</ele>
        <time>2011-09-25T08:14:19Z</time>
      </trkpt>
      <trkpt lat="45.73007" lon="3.10398">
        <ele>477.5</ele>
        <time>2011-09-25T08:14:23Z</time>
      </trkpt>
      <trkpt lat="45.73001" lon="3.10406">
        <ele>478.5</ele>
        <time>2011-09-25T08:14:26Z</time>
      </trkpt>
      <trkpt lat="45.72994" lon="3.10417">
        <ele>478.6</ele>
        <time>2011-09-25T08:14:30Z</time>
      </trkpt>
      <trkpt lat="45.72986" lon="3.10426">
        <ele>479</ele>
        <time>2011-09-25T08:14:34Z</time>
      </trkpt>
      <trkpt lat="45.72979" lon="3.10436">
        <ele>479.2</ele>
        <time>2011-09-25T08:14:38Z</time>
      </trkpt>
      <trkpt lat="45.72971" lon="3.10445">
        <ele>479.4</ele>
        <time>2011-09-25T08:14:42Z</time>
      </trkpt>
      <trkpt lat="45.72964" lon="3.10449">
        <ele>479.5</ele>
        <time>2011-09-25T08:14:46Z</time>
      </trkpt>
      <trkpt lat="45.72965" lon="3.10464">
        <ele>479.7</ele>
        <time>2011-09-25T08:14:52Z</time>
      </trkpt>
      <trkpt lat="45.72971" lon="3.10477">
        <ele>479.9</ele>
        <time>2011-09-25T08:14:55Z</time>
      </trkpt>
      <trkpt lat="45.72976" lon="3.10489">
        <ele>480.6</ele>
        <time>2011-09-25T08:14:57Z</time>
      </trkpt>
      <trkpt lat="45.72981" lon="3.10502">
        <ele>481.4</ele>
        <time>2011-09-25T08:14:59Z</time>
      </trkpt>
      <trkpt lat="45.72985" lon="3.10516">
        <ele>482.1</ele>
        <time>2011-09-25T08:15:01Z</time>
      </trkpt>
      <trkpt lat="45.72989" lon="3.1053">
        <ele>482</ele>
        <time>2011-09-25T08:15:03Z</time>
      </trkpt>
      <trkpt lat="45.72992" lon="3.10546">
        <ele>482.7</ele>
        <time>2011-09-25T08:15:05Z</time>
      </trkpt>
      <trkpt lat="45.72996" lon="3.10561">
        <ele>483.3</ele>
        <time>2011-09-25T08:15:07Z</time>
      </trkpt>
      <trkpt lat="45.73" lon="3.10576">
        <ele>483.8</ele>
        <time>2011-09-25T08:15:10Z</time>
      </trkpt>
      <trkpt lat="45.73005" lon="3.10588">
        <ele>483.4</ele>
        <time>2011-09-25T08:15:12Z</time>
      </trkpt>
      <trkpt lat="45.73015" lon="3.10594">
        <ele>482.9</ele>
        <time>2011-09-25T08:15:13Z</time>
      </trkpt>
      <trkpt lat="45.73025" lon="3.10599">
        <ele>482.5</ele>
        <time>2011-09-25T08:15:15Z</time>
      </trkpt>
      <trkpt lat="45.73034" lon="3.10603">
        <ele>482</ele>
        <time>2011-09-25T08:15:17Z</time>
      </trkpt>
      <trkpt lat="45.73043" lon="3.10606">
        <ele>482.2</ele>
        <time>2011-09-25T08:15:19Z</time>
      </trkpt>
      <trkpt lat="45.73052" lon="3.10611">
        <ele>482.4</ele>
        <time>2011-09-25T08:15:21Z</time>
      </trkpt>
      <trkpt lat="45.73061" lon="3.10616">
        <ele>482.5</ele>
        <time>2011-09-25T08:15:23Z</time>
      </trkpt>
      <trkpt lat="45.73071" lon="3.10623">
        <ele>482.7</ele>
        <time>2011-09-25T08:15:24Z</time>
      </trkpt>
      <trkpt lat="45.73079" lon="3.1063">
        <ele>482.9</ele>
        <time>2011-09-25T08:15:26Z</time>
      </trkpt>
      <trkpt lat="45.73086" lon="3.10642">
        <ele>483.1</ele>
        <time>2011-09-25T08:15:28Z</time>
      </trkpt>
      <trkpt lat="45.7309" lon="3.10656">
        <ele>484.3</ele>
        <time>2011-09-25T08:15:30Z</time>
      </trkpt>
      <trkpt lat="45.73094" lon="3.10667">
        <ele>486.5</ele>
        <time>2011-09-25T08:15:32Z</time>
      </trkpt>
      <trkpt lat="45.73099" lon="3.10681">
        <ele>488.6</ele>
        <time>2011-09-25T08:16:24Z</time>
      </trkpt>
      <trkpt lat="45.73101" lon="3.10695">
        <ele>490.4</ele>
        <time>2011-09-25T08:16:28Z</time>
      </trkpt>
      <trkpt lat="45.73106" lon="3.10707">
        <ele>492.1</ele>
        <time>2011-09-25T08:16:32Z</time>
      </trkpt>
      <trkpt lat="45.73114" lon="3.10718">
        <ele>492.6</ele>
        <time>2011-09-25T08:16:35Z</time>
      </trkpt>
      <trkpt lat="45.73121" lon="3.10726">
        <ele>493.2</ele>
        <time>2011-09-25T08:16:38Z</time>
      </trkpt>
      <trkpt lat="45.73128" lon="3.10736">
        <ele>493.7</ele>
        <time>2011-09-25T08:16:41Z</time>
      </trkpt>
      <trkpt lat="45.73134" lon="3.10744">
        <ele>494.3</ele>
        <time>2011-09-25T08:16:44Z</time>
      </trkpt>
      <trkpt lat="45.7314" lon="3.10751">
        <ele>494.8</ele>
        <time>2011-09-25T08:16:47Z</time>
      </trkpt>
      <trkpt lat="45.73148" lon="3.1076">
        <ele>495.4</ele>
        <time>2011-09-25T08:16:51Z</time>
      </trkpt>
      <trkpt lat="45.73155" lon="3.10767">
        <ele>495.8</ele>
        <time>2011-09-25T08:16:55Z</time>
      </trkpt>
      <trkpt lat="45.73163" lon="3.10774">
        <ele>496.3</ele>
        <time>2011-09-25T08:16:59Z</time>
      </trkpt>
      <trkpt lat="45.73171" lon="3.1078">
        <ele>496.7</ele>
        <time>2011-09-25T08:17:03Z</time>
      </trkpt>
      <trkpt lat="45.73181" lon="3.10788">
        <ele>497.6</ele>
        <time>2011-09-25T08:17:07Z</time>
      </trkpt>
      <trkpt lat="45.73188" lon="3.10793">
        <ele>498.5</ele>
        <time>2011-09-25T08:17:11Z</time>
      </trkpt>
      <trkpt lat="45.73195" lon="3.108">
        <ele>499.5</ele>
        <time>2011-09-25T08:17:15Z</time>
      </trkpt>
      <trkpt lat="45.732" lon="3.10811">
        <ele>500</ele>
        <time>2011-09-25T08:17:20Z</time>
      </trkpt>
      <trkpt lat="45.73203" lon="3.10822">
        <ele>501.4</ele>
        <time>2011-09-25T08:17:24Z</time>
      </trkpt>
      <trkpt lat="45.73206" lon="3.10834">
        <ele>502.7</ele>
        <time>2011-09-25T08:17:28Z</time>
      </trkpt>
      <trkpt lat="45.73207" lon="3.10847">
        <ele>504.1</ele>
        <time>2011-09-25T08:17:32Z</time>
      </trkpt>
      <trkpt lat="45.73209" lon="3.10858">
        <ele>505.5</ele>
        <time>2011-09-25T08:17:36Z</time>
      </trkpt>
      <trkpt lat="45.73212" lon="3.1087">
        <ele>505.9</ele>
        <time>2011-09-25T08:17:40Z</time>
      </trkpt>
      <trkpt lat="45.73214" lon="3.10882">
        <ele>506.4</ele>
        <time>2011-09-25T08:17:44Z</time>
      </trkpt>
      <trkpt lat="45.73216" lon="3.10895">
        <ele>506.8</ele>
        <time>2011-09-25T08:17:48Z</time>
      </trkpt>
      <trkpt lat="45.73217" lon="3.10908">
        <ele>507.7</ele>
        <time>2011-09-25T08:17:52Z</time>
      </trkpt>
      <trkpt lat="45.73217" lon="3.1092">
        <ele>508.6</ele>
        <time>2011-09-25T08:17:58Z</time>
      </trkpt>
      <trkpt lat="45.73217" lon="3.10932">
        <ele>509.5</ele>
        <time>2011-09-25T08:18:02Z</time>
      </trkpt>
      <trkpt lat="45.73217" lon="3.10945">
        <ele>510.8</ele>
        <time>2011-09-25T08:18:07Z</time>
      </trkpt>
      <trkpt lat="45.73216" lon="3.10956">
        <ele>511.3</ele>
        <time>2011-09-25T08:18:12Z</time>
      </trkpt>
      <trkpt lat="45.73215" lon="3.10969">
        <ele>511.7</ele>
        <time>2011-09-25T08:18:17Z</time>
      </trkpt>
      <trkpt lat="45.73215" lon="3.10982">
        <ele>512.5</ele>
        <time>2011-09-25T08:18:22Z</time>
      </trkpt>
      <trkpt lat="45.73217" lon="3.10995">
        <ele>513.4</ele>
        <time>2011-09-25T08:18:27Z</time>
      </trkpt>
      <trkpt lat="45.73218" lon="3.11008">
        <ele>514.2</ele>
        <time>2011-09-25T08:18:32Z</time>
      </trkpt>
      <trkpt lat="45.73218" lon="3.11022">
        <ele>515.9</ele>
        <time>2011-09-25T08:18:37Z</time>
      </trkpt>
      <trkpt lat="45.73218" lon="3.11035">
        <ele>517.6</ele>
        <time>2011-09-25T08:18:42Z</time>
      </trkpt>
      <trkpt lat="45.73217" lon="3.11049">
        <ele>518.9</ele>
        <time>2011-09-25T08:18:47Z</time>
      </trkpt>
      <trkpt lat="45.73215" lon="3.11061">
        <ele>520</ele>
        <time>2011-09-25T08:18:50Z</time>
      </trkpt>
      <trkpt lat="45.73213" lon="3.11074">
        <ele>521.1</ele>
        <time>2011-09-25T08:18:53Z</time>
      </trkpt>
      <trkpt lat="45.7321" lon="3.11087">
        <ele>522.2</ele>
        <time>2011-09-25T08:18:56Z</time>
      </trkpt>
      <trkpt lat="45.73209" lon="3.11099">
        <ele>523.3</ele>
        <time>2011-09-25T08:18:59Z</time>
      </trkpt>
      <trkpt lat="45.73208" lon="3.11115">
        <ele>524.4</ele>
        <time>2011-09-25T08:19:02Z</time>
      </trkpt>
      <trkpt lat="45.73208" lon="3.11131">
        <ele>525.1</ele>
        <time>2011-09-25T08:19:05Z</time>
      </trkpt>
      <trkpt lat="45.73206" lon="3.11148">
        <ele>525.7</ele>
        <time>2011-09-25T08:19:08Z</time>
      </trkpt>
      <trkpt lat="45.73205" lon="3.11161">
        <ele>526.4</ele>
        <time>2011-09-25T08:19:10Z</time>
      </trkpt>
      <trkpt lat="45.73203" lon="3.11172">
        <ele>526.1</ele>
        <time>2011-09-25T08:19:12Z</time>
      </trkpt>
      <trkpt lat="45.73201" lon="3.11184">
        <ele>525.8</ele>
        <time>2011-09-25T08:19:13Z</time>
      </trkpt>
      <trkpt lat="45.73197" lon="3.11201">
        <ele>525.5</ele>
        <time>2011-09-25T08:19:16Z</time>
      </trkpt>
      <trkpt lat="45.73194" lon="3.11212">
        <ele>525.5</ele>
        <time>2011-09-25T08:19:18Z</time>
      </trkpt>
      <trkpt lat="45.73192" lon="3.11223">
        <ele>525.4</ele>
        <time>2011-09-25T08:19:20Z</time>
      </trkpt>
      <trkpt lat="45.73189" lon="3.11235">
        <ele>525.4</ele>
        <time>2011-09-25T08:19:22Z</time>
      </trkpt>
      <trkpt lat="45.73186" lon="3.11247">
        <ele>525.4</ele>
        <time>2011-09-25T08:19:24Z</time>
      </trkpt>
      <trkpt lat="45.73182" lon="3.11258">
        <ele>525.4</ele>
        <time>2011-09-25T08:19:26Z</time>
      </trkpt>
      <trkpt lat="45.73178" lon="3.11269">
        <ele>525.4</ele>
        <time>2011-09-25T08:19:28Z</time>
      </trkpt>
      <trkpt lat="45.73173" lon="3.11281">
        <ele>525.5</ele>
        <time>2011-09-25T08:19:30Z</time>
      </trkpt>
      <trkpt lat="45.73169" lon="3.11293">
        <ele>525.5</ele>
        <time>2011-09-25T08:19:32Z</time>
      </trkpt>
      <trkpt lat="45.73165" lon="3.11305">
        <ele>525.6</ele>
        <time>2011-09-25T08:19:34Z</time>
      </trkpt>
      <trkpt lat="45.73161" lon="3.11317">
        <ele>525.9</ele>
        <time>2011-09-25T08:19:36Z</time>
      </trkpt>
      <trkpt lat="45.73156" lon="3.11329">
        <ele>526.2</ele>
        <time>2011-09-25T08:19:39Z</time>
      </trkpt>
      <trkpt lat="45.7315" lon="3.11341">
        <ele>527.6</ele>
        <time>2011-09-25T08:19:42Z</time>
      </trkpt>
      <trkpt lat="45.73145" lon="3.11352">
        <ele>529.1</ele>
        <time>2011-09-25T08:19:45Z</time>
      </trkpt>
      <trkpt lat="45.7314" lon="3.11365">
        <ele>530.5</ele>
        <time>2011-09-25T08:19:49Z</time>
      </trkpt>
      <trkpt lat="45.73135" lon="3.11378">
        <ele>531.8</ele>
        <time>2011-09-25T08:19:53Z</time>
      </trkpt>
      <trkpt lat="45.73129" lon="3.11387">
        <ele>533.2</ele>
        <time>2011-09-25T08:19:56Z</time>
      </trkpt>
      <trkpt lat="45.73123" lon="3.114">
        <ele>534.5</ele>
        <time>2011-09-25T08:20:00Z</time>
      </trkpt>
      <trkpt lat="45.7312" lon="3.11414">
        <ele>535.9</ele>
        <time>2011-09-25T08:20:04Z</time>
      </trkpt>
      <trkpt lat="45.73117" lon="3.11428">
        <ele>537.3</ele>
        <time>2011-09-25T08:20:08Z</time>
      </trkpt>
      <trkpt lat="45.73113" lon="3.11441">
        <ele>538.6</ele>
        <time>2011-09-25T08:20:11Z</time>
      </trkpt>
      <trkpt lat="45.7311" lon="3.11454">
        <ele>539.8</ele>
        <time>2011-09-25T08:20:14Z</time>
      </trkpt>
      <trkpt lat="45.73104" lon="3.11465">
        <ele>541</ele>
        <time>2011-09-25T08:20:17Z</time>
      </trkpt>
      <trkpt lat="45.73098" lon="3.11475">
        <ele>541</ele>
        <time>2011-09-25T08:20:20Z</time>
      </trkpt>
      <trkpt lat="45.73094" lon="3.11487">
        <ele>540.8</ele>
        <time>2011-09-25T08:20:24Z</time>
      </trkpt>
      <trkpt lat="45.73089" lon="3.115">
        <ele>540.6</ele>
        <time>2011-09-25T08:20:28Z</time>
      </trkpt>
      <trkpt lat="45.73085" lon="3.1151">
        <ele>540.5</ele>
        <time>2011-09-25T08:20:32Z</time>
      </trkpt>
      <trkpt lat="45.73082" lon="3.11524">
        <ele>540.3</ele>
        <time>2011-09-25T08:20:35Z</time>
      </trkpt>
      <trkpt lat="45.73078" lon="3.11539">
        <ele>540.1</ele>
        <time>2011-09-25T08:20:39Z</time>
      </trkpt>
      <trkpt lat="45.73078" lon="3.11554">
        <ele>539.9</ele>
        <time>2011-09-25T08:20:41Z</time>
      </trkpt>
      <trkpt lat="45.73077" lon="3.11569">
        <ele>540.2</ele>
        <time>2011-09-25T08:20:43Z</time>
      </trkpt>
      <trkpt lat="45.73076" lon="3.11586">
        <ele>540.5</ele>
        <time>2011-09-25T08:20:46Z</time>
      </trkpt>
      <trkpt lat="45.73073" lon="3.11599">
        <ele>540.7</ele>
        <time>2011-09-25T08:20:49Z</time>
      </trkpt>
      <trkpt lat="45.73068" lon="3.11609">
        <ele>541</ele>
        <time>2011-09-25T08:20:51Z</time>
      </trkpt>
      <trkpt lat="45.73062" lon="3.11625">
        <ele>541.3</ele>
        <time>2011-09-25T08:20:53Z</time>
      </trkpt>
      <trkpt lat="45.73056" lon="3.1164">
        <ele>541.7</ele>
        <time>2011-09-25T08:20:55Z</time>
      </trkpt>
      <trkpt lat="45.73051" lon="3.11654">
        <ele>542.7</ele>
        <time>2011-09-25T08:20:58Z</time>
      </trkpt>
      <trkpt lat="45.7305" lon="3.11669">
        <ele>543.7</ele>
        <time>2011-09-25T08:21:01Z</time>
      </trkpt>
      <trkpt lat="45.73052" lon="3.11684">
        <ele>544.7</ele>
        <time>2011-09-25T08:21:05Z</time>
      </trkpt>
      <trkpt lat="45.73059" lon="3.11696">
        <ele>545.7</ele>
        <time>2011-09-25T08:21:08Z</time>
      </trkpt>
      <trkpt lat="45.73064" lon="3.11708">
        <ele>546.7</ele>
        <time>2011-09-25T08:21:11Z</time>
      </trkpt>
      <trkpt lat="45.73068" lon="3.11721">
        <ele>547.3</ele>
        <time>2011-09-25T08:21:15Z</time>
      </trkpt>
      <trkpt lat="45.73067" lon="3.11735">
        <ele>548.5</ele>
        <time>2011-09-25T08:21:18Z</time>
      </trkpt>
      <trkpt lat="45.73064" lon="3.11748">
        <ele>550.1</ele>
        <time>2011-09-25T08:21:25Z</time>
      </trkpt>
      <trkpt lat="45.73061" lon="3.11759">
        <ele>551.6</ele>
        <time>2011-09-25T08:21:33Z</time>
      </trkpt>
      <trkpt lat="45.73057" lon="3.1177">
        <ele>553.2</ele>
        <time>2011-09-25T08:21:41Z</time>
      </trkpt>
      <trkpt lat="45.73051" lon="3.1178">
        <ele>554.7</ele>
        <time>2011-09-25T08:21:49Z</time>
      </trkpt>
      <trkpt lat="45.73045" lon="3.11788">
        <ele>555.7</ele>
        <time>2011-09-25T08:21:57Z</time>
      </trkpt>
      <trkpt lat="45.73043" lon="3.11801">
        <ele>556.7</ele>
        <time>2011-09-25T08:22:02Z</time>
      </trkpt>
      <trkpt lat="45.73038" lon="3.11813">
        <ele>557.7</ele>
        <time>2011-09-25T08:22:07Z</time>
      </trkpt>
      <trkpt lat="45.73035" lon="3.11824">
        <ele>558.7</ele>
        <time>2011-09-25T08:22:12Z</time>
      </trkpt>
      <trkpt lat="45.7303" lon="3.11835">
        <ele>559.7</ele>
        <time>2011-09-25T08:22:17Z</time>
      </trkpt>
      <trkpt lat="45.73023" lon="3.11843">
        <ele>560.7</ele>
        <time>2011-09-25T08:22:22Z</time>
      </trkpt>
      <trkpt lat="45.73016" lon="3.1185">
        <ele>561</ele>
        <time>2011-09-25T08:22:27Z</time>
      </trkpt>
      <trkpt lat="45.73009" lon="3.1186">
        <ele>561</ele>
        <time>2011-09-25T08:22:32Z</time>
      </trkpt>
      <trkpt lat="45.73003" lon="3.11868">
        <ele>561</ele>
        <time>2011-09-25T08:22:36Z</time>
      </trkpt>
      <trkpt lat="45.72995" lon="3.11877">
        <ele>561.1</ele>
        <time>2011-09-25T08:22:41Z</time>
      </trkpt>
      <trkpt lat="45.72987" lon="3.11887">
        <ele>561.1</ele>
        <time>2011-09-25T08:22:44Z</time>
      </trkpt>
      <trkpt lat="45.72978" lon="3.11895">
        <ele>561.1</ele>
        <time>2011-09-25T08:22:47Z</time>
      </trkpt>
      <trkpt lat="45.7297" lon="3.11901">
        <ele>560.8</ele>
        <time>2011-09-25T08:22:49Z</time>
      </trkpt>
      <trkpt lat="45.72965" lon="3.11911">
        <ele>560.5</ele>
        <time>2011-09-25T08:22:51Z</time>
      </trkpt>
      <trkpt lat="45.72962" lon="3.11922">
        <ele>560.3</ele>
        <time>2011-09-25T08:22:53Z</time>
      </trkpt>
      <trkpt lat="45.72966" lon="3.11937">
        <ele>560</ele>
        <time>2011-09-25T08:22:55Z</time>
      </trkpt>
      <trkpt lat="45.72968" lon="3.11954">
        <ele>559.7</ele>
        <time>2011-09-25T08:22:57Z</time>
      </trkpt>
      <trkpt lat="45.72971" lon="3.11968">
        <ele>559.5</ele>
        <time>2011-09-25T08:22:59Z</time>
      </trkpt>
      <trkpt lat="45.72976" lon="3.11981">
        <ele>558.8</ele>
        <time>2011-09-25T08:23:01Z</time>
      </trkpt>
      <trkpt lat="45.72981" lon="3.11996">
        <ele>558.2</ele>
        <time>2011-09-25T08:23:03Z</time>
      </trkpt>
      <trkpt lat="45.72984" lon="3.12009">
        <ele>557.5</ele>
        <time>2011-09-25T08:23:05Z</time>
      </trkpt>
      <trkpt lat="45.72986" lon="3.12024">
        <ele>556.8</ele>
        <time>2011-09-25T08:23:07Z</time>
      </trkpt>
      <trkpt lat="45.72988" lon="3.12044">
        <ele>556.1</ele>
        <time>2011-09-25T08:23:10Z</time>
      </trkpt>
      <trkpt lat="45.7299" lon="3.12065">
        <ele>555.6</ele>
        <time>2011-09-25T08:23:12Z</time>
      </trkpt>
      <trkpt lat="45.72992" lon="3.12084">
        <ele>555.2</ele>
        <time>2011-09-25T08:23:13Z</time>
      </trkpt>
      <trkpt lat="45.72991" lon="3.12102">
        <ele>554.7</ele>
        <time>2011-09-25T08:23:16Z</time>
      </trkpt>
      <trkpt lat="45.72991" lon="3.12118">
        <ele>554.3</ele>
        <time>2011-09-25T08:23:17Z</time>
      </trkpt>
      <trkpt lat="45.72991" lon="3.12132">
        <ele>553.8</ele>
        <time>2011-09-25T08:23:18Z</time>
      </trkpt>
      <trkpt lat="45.72991" lon="3.12147">
        <ele>553.2</ele>
        <time>2011-09-25T08:23:21Z</time>
      </trkpt>
      <trkpt lat="45.72989" lon="3.12159">
        <ele>552.9</ele>
        <time>2011-09-25T08:23:22Z</time>
      </trkpt>
      <trkpt lat="45.72989" lon="3.12176">
        <ele>552.6</ele>
        <time>2011-09-25T08:23:25Z</time>
      </trkpt>
      <trkpt lat="45.72988" lon="3.12189">
        <ele>552.4</ele>
        <time>2011-09-25T08:23:27Z</time>
      </trkpt>
      <trkpt lat="45.72988" lon="3.12203">
        <ele>551.3</ele>
        <time>2011-09-25T08:23:29Z</time>
      </trkpt>
      <trkpt lat="45.72991" lon="3.12224">
        <ele>550.3</ele>
        <time>2011-09-25T08:23:31Z</time>
      </trkpt>
      <trkpt lat="45.72991" lon="3.12241">
        <ele>549.3</ele>
        <time>2011-09-25T08:23:33Z</time>
      </trkpt>
      <trkpt lat="45.72996" lon="3.1226">
        <ele>548.3</ele>
        <time>2011-09-25T08:23:35Z</time>
      </trkpt>
      <trkpt lat="45.72999" lon="3.12278">
        <ele>546.5</ele>
        <time>2011-09-25T08:23:37Z</time>
      </trkpt>
      <trkpt lat="45.72999" lon="3.12298">
        <ele>544.8</ele>
        <time>2011-09-25T08:23:38Z</time>
      </trkpt>
      <trkpt lat="45.72996" lon="3.12318">
        <ele>543.1</ele>
        <time>2011-09-25T08:23:40Z</time>
      </trkpt>
      <trkpt lat="45.72995" lon="3.12331">
        <ele>541.5</ele>
        <time>2011-09-25T08:23:42Z</time>
      </trkpt>
      <trkpt lat="45.72994" lon="3.12343">
        <ele>540</ele>
        <time>2011-09-25T08:23:43Z</time>
      </trkpt>
      <trkpt lat="45.72987" lon="3.12382">
        <ele>537.8</ele>
        <time>2011-09-25T08:23:46Z</time>
      </trkpt>
      <trkpt lat="45.72984" lon="3.12405">
        <ele>535.6</ele>
        <time>2011-09-25T08:23:48Z</time>
      </trkpt>
      <trkpt lat="45.72983" lon="3.12418">
        <ele>534.3</ele>
        <time>2011-09-25T08:23:49Z</time>
      </trkpt>
      <trkpt lat="45.72983" lon="3.12437">
        <ele>532.9</ele>
        <time>2011-09-25T08:23:51Z</time>
      </trkpt>
      <trkpt lat="45.72983" lon="3.12457">
        <ele>531.5</ele>
        <time>2011-09-25T08:23:53Z</time>
      </trkpt>
      <trkpt lat="45.72983" lon="3.12475">
        <ele>530.8</ele>
        <time>2011-09-25T08:23:55Z</time>
      </trkpt>
      <trkpt lat="45.7298" lon="3.12492">
        <ele>530.8</ele>
        <time>2011-09-25T08:23:57Z</time>
      </trkpt>
      <trkpt lat="45.72977" lon="3.12514">
        <ele>530.5</ele>
        <time>2011-09-25T08:23:59Z</time>
      </trkpt>
      <trkpt lat="45.72973" lon="3.12527">
        <ele>530.1</ele>
        <time>2011-09-25T08:24:01Z</time>
      </trkpt>
      <trkpt lat="45.72965" lon="3.12535">
        <ele>529.7</ele>
        <time>2011-09-25T08:24:03Z</time>
      </trkpt>
      <trkpt lat="45.72951" lon="3.12542">
        <ele>529.4</ele>
        <time>2011-09-25T08:24:05Z</time>
      </trkpt>
      <trkpt lat="45.72944" lon="3.12551">
        <ele>529.6</ele>
        <time>2011-09-25T08:24:07Z</time>
      </trkpt>
      <trkpt lat="45.72945" lon="3.12564">
        <ele>529.9</ele>
        <time>2011-09-25T08:24:09Z</time>
      </trkpt>
      <trkpt lat="45.7295" lon="3.12575">
        <ele>530.2</ele>
        <time>2011-09-25T08:24:11Z</time>
      </trkpt>
      <trkpt lat="45.72948" lon="3.12589">
        <ele>530.5</ele>
        <time>2011-09-25T08:24:14Z</time>
      </trkpt>
      <trkpt lat="45.72938" lon="3.12592">
        <ele>530.7</ele>
        <time>2011-09-25T08:24:17Z</time>
      </trkpt>
      <trkpt lat="45.72928" lon="3.12595">
        <ele>529.7</ele>
        <time>2011-09-25T08:24:20Z</time>
      </trkpt>
      <trkpt lat="45.72921" lon="3.12603">
        <ele>528.7</ele>
        <time>2011-09-25T08:24:23Z</time>
      </trkpt>
      <trkpt lat="45.72915" lon="3.12613">
        <ele>528.1</ele>
        <time>2011-09-25T08:24:27Z</time>
      </trkpt>
      <trkpt lat="45.72907" lon="3.12621">
        <ele>527.5</ele>
        <time>2011-09-25T08:24:32Z</time>
      </trkpt>
      <trkpt lat="45.72903" lon="3.12633">
        <ele>526.8</ele>
        <time>2011-09-25T08:24:38Z</time>
      </trkpt>
      <trkpt lat="45.72898" lon="3.12643">
        <ele>529</ele>
        <time>2011-09-25T08:24:41Z</time>
      </trkpt>
      <trkpt lat="45.7289" lon="3.12651">
        <ele>531.2</ele>
        <time>2011-09-25T08:24:45Z</time>
      </trkpt>
      <trkpt lat="45.72887" lon="3.12665">
        <ele>532.6</ele>
        <time>2011-09-25T08:24:52Z</time>
      </trkpt>
      <trkpt lat="45.72884" lon="3.12676">
        <ele>534.1</ele>
        <time>2011-09-25T08:24:55Z</time>
      </trkpt>
      <trkpt lat="45.72882" lon="3.12689">
        <ele>535.5</ele>
        <time>2011-09-25T08:24:59Z</time>
      </trkpt>
      <trkpt lat="45.72879" lon="3.127">
        <ele>537</ele>
        <time>2011-09-25T08:25:03Z</time>
      </trkpt>
      <trkpt lat="45.72873" lon="3.12713">
        <ele>539.1</ele>
        <time>2011-09-25T08:25:08Z</time>
      </trkpt>
      <trkpt lat="45.72867" lon="3.12723">
        <ele>541.2</ele>
        <time>2011-09-25T08:25:14Z</time>
      </trkpt>
      <trkpt lat="45.72861" lon="3.12733">
        <ele>543.3</ele>
        <time>2011-09-25T08:25:18Z</time>
      </trkpt>
      <trkpt lat="45.72855" lon="3.12741">
        <ele>545.4</ele>
        <time>2011-09-25T08:25:21Z</time>
      </trkpt>
      <trkpt lat="45.72847" lon="3.12748">
        <ele>547.5</ele>
        <time>2011-09-25T08:25:28Z</time>
      </trkpt>
      <trkpt lat="45.7284" lon="3.12758">
        <ele>546.7</ele>
        <time>2011-09-25T08:25:33Z</time>
      </trkpt>
      <trkpt lat="45.72833" lon="3.12766">
        <ele>546</ele>
        <time>2011-09-25T08:25:40Z</time>
      </trkpt>
      <trkpt lat="45.72825" lon="3.12772">
        <ele>547.5</ele>
        <time>2011-09-25T08:25:45Z</time>
      </trkpt>
      <trkpt lat="45.72815" lon="3.12772">
        <ele>548.9</ele>
        <time>2011-09-25T08:25:52Z</time>
      </trkpt>
      <trkpt lat="45.72807" lon="3.1278">
        <ele>550.4</ele>
        <time>2011-09-25T08:25:59Z</time>
      </trkpt>
      <trkpt lat="45.72799" lon="3.12787">
        <ele>551.8</ele>
        <time>2011-09-25T08:26:06Z</time>
      </trkpt>
      <trkpt lat="45.72794" lon="3.12797">
        <ele>553.3</ele>
        <time>2011-09-25T08:26:12Z</time>
      </trkpt>
      <trkpt lat="45.72786" lon="3.1281">
        <ele>554.7</ele>
        <time>2011-09-25T08:26:15Z</time>
      </trkpt>
      <trkpt lat="45.72779" lon="3.12815">
        <ele>556.2</ele>
        <time>2011-09-25T08:26:18Z</time>
      </trkpt>
      <trkpt lat="45.72773" lon="3.12824">
        <ele>557.6</ele>
        <time>2011-09-25T08:26:22Z</time>
      </trkpt>
      <trkpt lat="45.72765" lon="3.12832">
        <ele>559.1</ele>
        <time>2011-09-25T08:26:25Z</time>
      </trkpt>
      <trkpt lat="45.72759" lon="3.12841">
        <ele>560.5</ele>
        <time>2011-09-25T08:26:29Z</time>
      </trkpt>
      <trkpt lat="45.72752" lon="3.12851">
        <ele>562</ele>
        <time>2011-09-25T08:26:33Z</time>
      </trkpt>
      <trkpt lat="45.72744" lon="3.12854">
        <ele>561.7</ele>
        <time>2011-09-25T08:26:36Z</time>
      </trkpt>
      <trkpt lat="45.72736" lon="3.12861">
        <ele>561.5</ele>
        <time>2011-09-25T08:26:40Z</time>
      </trkpt>
      <trkpt lat="45.72731" lon="3.12872">
        <ele>561.2</ele>
        <time>2011-09-25T08:26:44Z</time>
      </trkpt>
      <trkpt lat="45.72721" lon="3.12875">
        <ele>560.9</ele>
        <time>2011-09-25T08:26:50Z</time>
      </trkpt>
      <trkpt lat="45.72713" lon="3.12878">
        <ele>560.6</ele>
        <time>2011-09-25T08:26:54Z</time>
      </trkpt>
      <trkpt lat="45.72703" lon="3.12882">
        <ele>560.4</ele>
        <time>2011-09-25T08:26:59Z</time>
      </trkpt>
      <trkpt lat="45.72693" lon="3.12888">
        <ele>560.1</ele>
        <time>2011-09-25T08:27:03Z</time>
      </trkpt>
      <trkpt lat="45.72684" lon="3.1289">
        <ele>559.8</ele>
        <time>2011-09-25T08:27:06Z</time>
      </trkpt>
      <trkpt lat="45.72674" lon="3.12893">
        <ele>559.5</ele>
        <time>2011-09-25T08:27:12Z</time>
      </trkpt>
      <trkpt lat="45.72666" lon="3.12896">
        <ele>560.8</ele>
        <time>2011-09-25T08:27:17Z</time>
      </trkpt>
      <trkpt lat="45.72656" lon="3.12897">
        <ele>562.1</ele>
        <time>2011-09-25T08:27:22Z</time>
      </trkpt>
      <trkpt lat="45.72646" lon="3.12895">
        <ele>563.6</ele>
        <time>2011-09-25T08:27:27Z</time>
      </trkpt>
      <trkpt lat="45.72638" lon="3.12896">
        <ele>565.2</ele>
        <time>2011-09-25T08:27:29Z</time>
      </trkpt>
      <trkpt lat="45.72628" lon="3.129">
        <ele>566.7</ele>
        <time>2011-09-25T08:27:33Z</time>
      </trkpt>
      <trkpt lat="45.72619" lon="3.12902">
        <ele>568.3</ele>
        <time>2011-09-25T08:27:39Z</time>
      </trkpt>
      <trkpt lat="45.7261" lon="3.12905">
        <ele>569.8</ele>
        <time>2011-09-25T08:27:45Z</time>
      </trkpt>
      <trkpt lat="45.726" lon="3.12905">
        <ele>571.4</ele>
        <time>2011-09-25T08:27:48Z</time>
      </trkpt>
      <trkpt lat="45.7259" lon="3.12904">
        <ele>574.2</ele>
        <time>2011-09-25T08:27:51Z</time>
      </trkpt>
      <trkpt lat="45.72579" lon="3.12907">
        <ele>577</ele>
        <time>2011-09-25T08:27:55Z</time>
      </trkpt>
      <trkpt lat="45.7257" lon="3.12913">
        <ele>579.8</ele>
        <time>2011-09-25T08:27:59Z</time>
      </trkpt>
      <trkpt lat="45.72558" lon="3.12914">
        <ele>581.1</ele>
        <time>2011-09-25T08:28:04Z</time>
      </trkpt>
      <trkpt lat="45.72551" lon="3.12917">
        <ele>582.4</ele>
        <time>2011-09-25T08:28:07Z</time>
      </trkpt>
      <trkpt lat="45.72541" lon="3.12925">
        <ele>583.6</ele>
        <time>2011-09-25T08:28:10Z</time>
      </trkpt>
      <trkpt lat="45.72535" lon="3.12932">
        <ele>584.9</ele>
        <time>2011-09-25T08:28:14Z</time>
      </trkpt>
      <trkpt lat="45.72524" lon="3.12932">
        <ele>583.9</ele>
        <time>2011-09-25T08:28:19Z</time>
      </trkpt>
      <trkpt lat="45.72516" lon="3.12935">
        <ele>582.9</ele>
        <time>2011-09-25T08:28:25Z</time>
      </trkpt>
      <trkpt lat="45.72508" lon="3.12943">
        <ele>581.9</ele>
        <time>2011-09-25T08:28:28Z</time>
      </trkpt>
      <trkpt lat="45.72501" lon="3.12949">
        <ele>583</ele>
        <time>2011-09-25T08:28:31Z</time>
      </trkpt>
      <trkpt lat="45.72493" lon="3.12958">
        <ele>582.8</ele>
        <time>2011-09-25T08:28:35Z</time>
      </trkpt>
      <trkpt lat="45.72486" lon="3.12967">
        <ele>582.6</ele>
        <time>2011-09-25T08:28:39Z</time>
      </trkpt>
      <trkpt lat="45.72478" lon="3.12974">
        <ele>582.5</ele>
        <time>2011-09-25T08:28:42Z</time>
      </trkpt>
      <trkpt lat="45.72469" lon="3.12976">
        <ele>582.3</ele>
        <time>2011-09-25T08:28:45Z</time>
      </trkpt>
      <trkpt lat="45.72459" lon="3.12982">
        <ele>582.1</ele>
        <time>2011-09-25T08:28:49Z</time>
      </trkpt>
      <trkpt lat="45.72451" lon="3.12985">
        <ele>581.9</ele>
        <time>2011-09-25T08:28:52Z</time>
      </trkpt>
      <trkpt lat="45.72444" lon="3.1299">
        <ele>581.7</ele>
        <time>2011-09-25T08:28:55Z</time>
      </trkpt>
      <trkpt lat="45.72436" lon="3.12997">
        <ele>583.8</ele>
        <time>2011-09-25T08:28:58Z</time>
      </trkpt>
      <trkpt lat="45.72428" lon="3.13001">
        <ele>585.9</ele>
        <time>2011-09-25T08:29:02Z</time>
      </trkpt>
      <trkpt lat="45.7242" lon="3.13005">
        <ele>589.3</ele>
        <time>2011-09-25T08:29:07Z</time>
      </trkpt>
      <trkpt lat="45.72412" lon="3.1301">
        <ele>590.5</ele>
        <time>2011-09-25T08:29:10Z</time>
      </trkpt>
      <trkpt lat="45.72404" lon="3.13017">
        <ele>591.8</ele>
        <time>2011-09-25T08:29:13Z</time>
      </trkpt>
      <trkpt lat="45.72394" lon="3.1302">
        <ele>593.1</ele>
        <time>2011-09-25T08:29:17Z</time>
      </trkpt>
      <trkpt lat="45.72383" lon="3.13023">
        <ele>594.4</ele>
        <time>2011-09-25T08:29:21Z</time>
      </trkpt>
      <trkpt lat="45.72374" lon="3.13024">
        <ele>595.6</ele>
        <time>2011-09-25T08:29:24Z</time>
      </trkpt>
      <trkpt lat="45.72364" lon="3.13022">
        <ele>596.9</ele>
        <time>2011-09-25T08:29:27Z</time>
      </trkpt>
      <trkpt lat="45.72354" lon="3.13025">
        <ele>595.6</ele>
        <time>2011-09-25T08:29:30Z</time>
      </trkpt>
      <trkpt lat="45.72345" lon="3.13025">
        <ele>594.4</ele>
        <time>2011-09-25T08:29:33Z</time>
      </trkpt>
      <trkpt lat="45.72334" lon="3.13028">
        <ele>593.1</ele>
        <time>2011-09-25T08:29:36Z</time>
      </trkpt>
      <trkpt lat="45.72325" lon="3.13034">
        <ele>593.5</ele>
        <time>2011-09-25T08:29:38Z</time>
      </trkpt>
      <trkpt lat="45.72317" lon="3.13041">
        <ele>592.7</ele>
        <time>2011-09-25T08:29:40Z</time>
      </trkpt>
      <trkpt lat="45.72311" lon="3.1305">
        <ele>591.9</ele>
        <time>2011-09-25T08:29:43Z</time>
      </trkpt>
      <trkpt lat="45.72303" lon="3.13058">
        <ele>591.1</ele>
        <time>2011-09-25T08:29:44Z</time>
      </trkpt>
      <trkpt lat="45.72295" lon="3.13064">
        <ele>590.3</ele>
        <time>2011-09-25T08:29:47Z</time>
      </trkpt>
      <trkpt lat="45.72283" lon="3.1307">
        <ele>589.5</ele>
        <time>2011-09-25T08:29:49Z</time>
      </trkpt>
      <trkpt lat="45.72274" lon="3.13073">
        <ele>588.6</ele>
        <time>2011-09-25T08:29:52Z</time>
      </trkpt>
      <trkpt lat="45.72267" lon="3.13081">
        <ele>587.8</ele>
        <time>2011-09-25T08:29:55Z</time>
      </trkpt>
      <trkpt lat="45.72257" lon="3.13087">
        <ele>589.5</ele>
        <time>2011-09-25T08:29:59Z</time>
      </trkpt>
      <trkpt lat="45.72249" lon="3.1309">
        <ele>592.2</ele>
        <time>2011-09-25T08:30:01Z</time>
      </trkpt>
      <trkpt lat="45.72239" lon="3.13094">
        <ele>594.8</ele>
        <time>2011-09-25T08:30:04Z</time>
      </trkpt>
      <trkpt lat="45.72231" lon="3.13099">
        <ele>595.7</ele>
        <time>2011-09-25T08:30:06Z</time>
      </trkpt>
      <trkpt lat="45.72223" lon="3.13102">
        <ele>596.6</ele>
        <time>2011-09-25T08:30:08Z</time>
      </trkpt>
      <trkpt lat="45.72214" lon="3.13105">
        <ele>597.5</ele>
        <time>2011-09-25T08:30:11Z</time>
      </trkpt>
      <trkpt lat="45.72204" lon="3.13108">
        <ele>598.5</ele>
        <time>2011-09-25T08:30:16Z</time>
      </trkpt>
      <trkpt lat="45.72194" lon="3.13109">
        <ele>599.4</ele>
        <time>2011-09-25T08:30:20Z</time>
      </trkpt>
      <trkpt lat="45.72185" lon="3.13107">
        <ele>600.3</ele>
        <time>2011-09-25T08:30:23Z</time>
      </trkpt>
      <trkpt lat="45.72177" lon="3.13104">
        <ele>601.2</ele>
        <time>2011-09-25T08:30:27Z</time>
      </trkpt>
      <trkpt lat="45.72168" lon="3.131">
        <ele>602.1</ele>
        <time>2011-09-25T08:30:31Z</time>
      </trkpt>
      <trkpt lat="45.72161" lon="3.13095">
        <ele>603</ele>
        <time>2011-09-25T08:30:35Z</time>
      </trkpt>
      <trkpt lat="45.72153" lon="3.1309">
        <ele>603</ele>
        <time>2011-09-25T08:30:39Z</time>
      </trkpt>
      <trkpt lat="45.72144" lon="3.13086">
        <ele>603</ele>
        <time>2011-09-25T08:30:45Z</time>
      </trkpt>
      <trkpt lat="45.72136" lon="3.13082">
        <ele>603</ele>
        <time>2011-09-25T08:30:49Z</time>
      </trkpt>
      <trkpt lat="45.72143" lon="3.13073">
        <ele>603</ele>
        <time>2011-09-25T08:30:58Z</time>
      </trkpt>
      <trkpt lat="45.72152" lon="3.13076">
        <ele>603</ele>
        <time>2011-09-25T08:31:02Z</time>
      </trkpt>
      <trkpt lat="45.72161" lon="3.13076">
        <ele>603</ele>
        <time>2011-09-25T08:31:07Z</time>
      </trkpt>
      <trkpt lat="45.7217" lon="3.13075">
        <ele>602.1</ele>
        <time>2011-09-25T08:31:12Z</time>
      </trkpt>
      <trkpt lat="45.7218" lon="3.13071">
        <ele>603.5</ele>
        <time>2011-09-25T08:31:17Z</time>
      </trkpt>
      <trkpt lat="45.72189" lon="3.13067">
        <ele>604.8</ele>
        <time>2011-09-25T08:31:22Z</time>
      </trkpt>
      <trkpt lat="45.72198" lon="3.13062">
        <ele>606.2</ele>
        <time>2011-09-25T08:31:27Z</time>
      </trkpt>
      <trkpt lat="45.72207" lon="3.13056">
        <ele>607.5</ele>
        <time>2011-09-25T08:31:31Z</time>
      </trkpt>
      <trkpt lat="45.72215" lon="3.13048">
        <ele>608.9</ele>
        <time>2011-09-25T08:31:34Z</time>
      </trkpt>
      <trkpt lat="45.72223" lon="3.13043">
        <ele>610.3</ele>
        <time>2011-09-25T08:31:37Z</time>
      </trkpt>
      <trkpt lat="45.72231" lon="3.1304">
        <ele>611.6</ele>
        <time>2011-09-25T08:31:40Z</time>
      </trkpt>
      <trkpt lat="45.7224" lon="3.13034">
        <ele>613</ele>
        <time>2011-09-25T08:31:43Z</time>
      </trkpt>
      <trkpt lat="45.72248" lon="3.13027">
        <ele>614.4</ele>
        <time>2011-09-25T08:31:46Z</time>
      </trkpt>
      <trkpt lat="45.72256" lon="3.13018">
        <ele>615.7</ele>
        <time>2011-09-25T08:31:49Z</time>
      </trkpt>
      <trkpt lat="45.72263" lon="3.13009">
        <ele>618.9</ele>
        <time>2011-09-25T08:31:52Z</time>
      </trkpt>
      <trkpt lat="45.7227" lon="3.13">
        <ele>619.8</ele>
        <time>2011-09-25T08:31:55Z</time>
      </trkpt>
      <trkpt lat="45.72277" lon="3.1299">
        <ele>620.7</ele>
        <time>2011-09-25T08:31:58Z</time>
      </trkpt>
      <trkpt lat="45.72285" lon="3.12982">
        <ele>621.6</ele>
        <time>2011-09-25T08:32:01Z</time>
      </trkpt>
      <trkpt lat="45.72291" lon="3.12972">
        <ele>622.5</ele>
        <time>2011-09-25T08:32:03Z</time>
      </trkpt>
      <trkpt lat="45.72297" lon="3.12963">
        <ele>623.5</ele>
        <time>2011-09-25T08:32:06Z</time>
      </trkpt>
      <trkpt lat="45.72305" lon="3.12956">
        <ele>624.4</ele>
        <time>2011-09-25T08:32:09Z</time>
      </trkpt>
      <trkpt lat="45.72314" lon="3.12951">
        <ele>625.3</ele>
        <time>2011-09-25T08:32:14Z</time>
      </trkpt>
      <trkpt lat="45.72324" lon="3.12947">
        <ele>626.2</ele>
        <time>2011-09-25T08:32:18Z</time>
      </trkpt>
      <trkpt lat="45.72334" lon="3.12943">
        <ele>627.1</ele>
        <time>2011-09-25T08:32:23Z</time>
      </trkpt>
      <trkpt lat="45.72344" lon="3.12941">
        <ele>626.8</ele>
        <time>2011-09-25T08:32:27Z</time>
      </trkpt>
      <trkpt lat="45.72354" lon="3.12938">
        <ele>625.6</ele>
        <time>2011-09-25T08:32:31Z</time>
      </trkpt>
      <trkpt lat="45.72363" lon="3.12935">
        <ele>624.5</ele>
        <time>2011-09-25T08:32:34Z</time>
      </trkpt>
      <trkpt lat="45.72371" lon="3.12928">
        <ele>623.3</ele>
        <time>2011-09-25T08:32:38Z</time>
      </trkpt>
      <trkpt lat="45.7238" lon="3.12919">
        <ele>623.8</ele>
        <time>2011-09-25T08:32:41Z</time>
      </trkpt>
      <trkpt lat="45.72389" lon="3.12911">
        <ele>624.4</ele>
        <time>2011-09-25T08:32:44Z</time>
      </trkpt>
      <trkpt lat="45.72399" lon="3.12907">
        <ele>624.9</ele>
        <time>2011-09-25T08:32:48Z</time>
      </trkpt>
      <trkpt lat="45.72409" lon="3.129">
        <ele>625.5</ele>
        <time>2011-09-25T08:32:52Z</time>
      </trkpt>
      <trkpt lat="45.72418" lon="3.12888">
        <ele>626</ele>
        <time>2011-09-25T08:32:55Z</time>
      </trkpt>
      <trkpt lat="45.72425" lon="3.1288">
        <ele>626.5</ele>
        <time>2011-09-25T08:32:57Z</time>
      </trkpt>
      <trkpt lat="45.72432" lon="3.12868">
        <ele>627.1</ele>
        <time>2011-09-25T08:32:59Z</time>
      </trkpt>
      <trkpt lat="45.72439" lon="3.12856">
        <ele>627</ele>
        <time>2011-09-25T08:33:02Z</time>
      </trkpt>
      <trkpt lat="45.72442" lon="3.12844">
        <ele>628.7</ele>
        <time>2011-09-25T08:33:06Z</time>
      </trkpt>
      <trkpt lat="45.72444" lon="3.12832">
        <ele>630.5</ele>
        <time>2011-09-25T08:33:10Z</time>
      </trkpt>
      <trkpt lat="45.7245" lon="3.12823">
        <ele>632.2</ele>
        <time>2011-09-25T08:33:12Z</time>
      </trkpt>
      <trkpt lat="45.72457" lon="3.12814">
        <ele>632.2</ele>
        <time>2011-09-25T08:33:14Z</time>
      </trkpt>
      <trkpt lat="45.72465" lon="3.12804">
        <ele>632.2</ele>
        <time>2011-09-25T08:33:16Z</time>
      </trkpt>
      <trkpt lat="45.72474" lon="3.12796">
        <ele>632.2</ele>
        <time>2011-09-25T08:33:19Z</time>
      </trkpt>
      <trkpt lat="45.72481" lon="3.12789">
        <ele>632.2</ele>
        <time>2011-09-25T08:33:21Z</time>
      </trkpt>
      <trkpt lat="45.72489" lon="3.12782">
        <ele>632.2</ele>
        <time>2011-09-25T08:33:24Z</time>
      </trkpt>
      <trkpt lat="45.72495" lon="3.12775">
        <ele>632.2</ele>
        <time>2011-09-25T08:33:27Z</time>
      </trkpt>
      <trkpt lat="45.72503" lon="3.12766">
        <ele>632.8</ele>
        <time>2011-09-25T08:33:30Z</time>
      </trkpt>
      <trkpt lat="45.72511" lon="3.12755">
        <ele>635.3</ele>
        <time>2011-09-25T08:33:34Z</time>
      </trkpt>
      <trkpt lat="45.72516" lon="3.12746">
        <ele>635.1</ele>
        <time>2011-09-25T08:33:37Z</time>
      </trkpt>
      <trkpt lat="45.72524" lon="3.12736">
        <ele>634.9</ele>
        <time>2011-09-25T08:33:41Z</time>
      </trkpt>
      <trkpt lat="45.72532" lon="3.12726">
        <ele>634.7</ele>
        <time>2011-09-25T08:33:45Z</time>
      </trkpt>
      <trkpt lat="45.72538" lon="3.12715">
        <ele>634.5</ele>
        <time>2011-09-25T08:33:48Z</time>
      </trkpt>
      <trkpt lat="45.72545" lon="3.12704">
        <ele>634.4</ele>
        <time>2011-09-25T08:33:51Z</time>
      </trkpt>
      <trkpt lat="45.72551" lon="3.12693">
        <ele>634.2</ele>
        <time>2011-09-25T08:33:54Z</time>
      </trkpt>
      <trkpt lat="45.72557" lon="3.12681">
        <ele>634.1</ele>
        <time>2011-09-25T08:33:57Z</time>
      </trkpt>
      <trkpt lat="45.72564" lon="3.12671">
        <ele>634</ele>
        <time>2011-09-25T08:34:00Z</time>
      </trkpt>
      <trkpt lat="45.72568" lon="3.12661">
        <ele>633.9</ele>
        <time>2011-09-25T08:34:03Z</time>
      </trkpt>
      <trkpt lat="45.72573" lon="3.1265">
        <ele>633.9</ele>
        <time>2011-09-25T08:34:06Z</time>
      </trkpt>
      <trkpt lat="45.72575" lon="3.12638">
        <ele>634.5</ele>
        <time>2011-09-25T08:34:09Z</time>
      </trkpt>
      <trkpt lat="45.72568" lon="3.1263">
        <ele>635.8</ele>
        <time>2011-09-25T08:34:13Z</time>
      </trkpt>
      <trkpt lat="45.72559" lon="3.12632">
        <ele>637.2</ele>
        <time>2011-09-25T08:34:18Z</time>
      </trkpt>
      <trkpt lat="45.72551" lon="3.12635">
        <ele>638.5</ele>
        <time>2011-09-25T08:34:22Z</time>
      </trkpt>
      <trkpt lat="45.72543" lon="3.12638">
        <ele>639.9</ele>
        <time>2011-09-25T08:34:27Z</time>
      </trkpt>
      <trkpt lat="45.72533" lon="3.12634">
        <ele>641.3</ele>
        <time>2011-09-25T08:34:32Z</time>
      </trkpt>
      <trkpt lat="45.72525" lon="3.12631">
        <ele>642.6</ele>
        <time>2011-09-25T08:34:36Z</time>
      </trkpt>
      <trkpt lat="45.72518" lon="3.12626">
        <ele>643.4</ele>
        <time>2011-09-25T08:34:40Z</time>
      </trkpt>
      <trkpt lat="45.7251" lon="3.12625">
        <ele>644.1</ele>
        <time>2011-09-25T08:34:45Z</time>
      </trkpt>
      <trkpt lat="45.725" lon="3.12624">
        <ele>645.9</ele>
        <time>2011-09-25T08:34:50Z</time>
      </trkpt>
      <trkpt lat="45.72492" lon="3.12626">
        <ele>647</ele>
        <time>2011-09-25T08:34:54Z</time>
      </trkpt>
      <trkpt lat="45.72484" lon="3.12631">
        <ele>647.5</ele>
        <time>2011-09-25T08:34:59Z</time>
      </trkpt>
      <trkpt lat="45.72477" lon="3.12638">
        <ele>648.1</ele>
        <time>2011-09-25T08:35:04Z</time>
      </trkpt>
      <trkpt lat="45.72469" lon="3.12647">
        <ele>648.6</ele>
        <time>2011-09-25T08:35:09Z</time>
      </trkpt>
      <trkpt lat="45.72463" lon="3.12654">
        <ele>649.2</ele>
        <time>2011-09-25T08:35:12Z</time>
      </trkpt>
      <trkpt lat="45.72454" lon="3.12665">
        <ele>649.7</ele>
        <time>2011-09-25T08:35:16Z</time>
      </trkpt>
      <trkpt lat="45.72447" lon="3.12675">
        <ele>649.5</ele>
        <time>2011-09-25T08:35:19Z</time>
      </trkpt>
      <trkpt lat="45.72441" lon="3.12683">
        <ele>649.2</ele>
        <time>2011-09-25T08:35:20Z</time>
      </trkpt>
      <trkpt lat="45.72432" lon="3.12693">
        <ele>649.5</ele>
        <time>2011-09-25T08:35:22Z</time>
      </trkpt>
      <trkpt lat="45.72425" lon="3.12701">
        <ele>649.7</ele>
        <time>2011-09-25T08:35:24Z</time>
      </trkpt>
      <trkpt lat="45.72417" lon="3.1271">
        <ele>649.8</ele>
        <time>2011-09-25T08:35:26Z</time>
      </trkpt>
      <trkpt lat="45.72406" lon="3.1272">
        <ele>649.9</ele>
        <time>2011-09-25T08:35:28Z</time>
      </trkpt>
      <trkpt lat="45.72398" lon="3.12729">
        <ele>650</ele>
        <time>2011-09-25T08:35:30Z</time>
      </trkpt>
      <trkpt lat="45.72393" lon="3.12739">
        <ele>650.1</ele>
        <time>2011-09-25T08:35:32Z</time>
      </trkpt>
      <trkpt lat="45.72386" lon="3.12745">
        <ele>650.2</ele>
        <time>2011-09-25T08:35:33Z</time>
      </trkpt>
      <trkpt lat="45.72374" lon="3.12749">
        <ele>650.3</ele>
        <time>2011-09-25T08:35:36Z</time>
      </trkpt>
      <trkpt lat="45.72362" lon="3.12757">
        <ele>650.4</ele>
        <time>2011-09-25T08:35:39Z</time>
      </trkpt>
      <trkpt lat="45.72353" lon="3.12761">
        <ele>651.3</ele>
        <time>2011-09-25T08:35:41Z</time>
      </trkpt>
      <trkpt lat="45.72344" lon="3.12765">
        <ele>653.6</ele>
        <time>2011-09-25T08:35:43Z</time>
      </trkpt>
      <trkpt lat="45.72334" lon="3.12766">
        <ele>654.5</ele>
        <time>2011-09-25T08:35:46Z</time>
      </trkpt>
      <trkpt lat="45.72324" lon="3.12768">
        <ele>655.3</ele>
        <time>2011-09-25T08:35:47Z</time>
      </trkpt>
      <trkpt lat="45.7231" lon="3.12776">
        <ele>655.2</ele>
        <time>2011-09-25T08:35:49Z</time>
      </trkpt>
      <trkpt lat="45.72299" lon="3.12783">
        <ele>655.1</ele>
        <time>2011-09-25T08:35:51Z</time>
      </trkpt>
      <trkpt lat="45.72291" lon="3.12792">
        <ele>655</ele>
        <time>2011-09-25T08:35:53Z</time>
      </trkpt>
      <trkpt lat="45.72279" lon="3.12806">
        <ele>654.9</ele>
        <time>2011-09-25T08:35:57Z</time>
      </trkpt>
      <trkpt lat="45.72269" lon="3.12817">
        <ele>654.8</ele>
        <time>2011-09-25T08:35:59Z</time>
      </trkpt>
      <trkpt lat="45.72258" lon="3.1283">
        <ele>653.4</ele>
        <time>2011-09-25T08:36:01Z</time>
      </trkpt>
      <trkpt lat="45.7225" lon="3.12841">
        <ele>652.9</ele>
        <time>2011-09-25T08:36:04Z</time>
      </trkpt>
      <trkpt lat="45.72239" lon="3.12855">
        <ele>652.5</ele>
        <time>2011-09-25T08:36:06Z</time>
      </trkpt>
      <trkpt lat="45.72233" lon="3.12866">
        <ele>650.5</ele>
        <time>2011-09-25T08:36:08Z</time>
      </trkpt>
      <trkpt lat="45.72221" lon="3.12875">
        <ele>650.2</ele>
        <time>2011-09-25T08:36:10Z</time>
      </trkpt>
      <trkpt lat="45.72211" lon="3.12883">
        <ele>649.8</ele>
        <time>2011-09-25T08:36:12Z</time>
      </trkpt>
      <trkpt lat="45.72201" lon="3.12893">
        <ele>649.5</ele>
        <time>2011-09-25T08:36:15Z</time>
      </trkpt>
      <trkpt lat="45.72192" lon="3.12894">
        <ele>649.1</ele>
        <time>2011-09-25T08:36:16Z</time>
      </trkpt>
      <trkpt lat="45.72183" lon="3.129">
        <ele>648.7</ele>
        <time>2011-09-25T08:36:17Z</time>
      </trkpt>
      <trkpt lat="45.72174" lon="3.12907">
        <ele>648.9</ele>
        <time>2011-09-25T08:36:19Z</time>
      </trkpt>
      <trkpt lat="45.72166" lon="3.12911">
        <ele>649.1</ele>
        <time>2011-09-25T08:36:21Z</time>
      </trkpt>
      <trkpt lat="45.72157" lon="3.12914">
        <ele>650.6</ele>
        <time>2011-09-25T08:36:23Z</time>
      </trkpt>
      <trkpt lat="45.72144" lon="3.12916">
        <ele>651.2</ele>
        <time>2011-09-25T08:36:26Z</time>
      </trkpt>
      <trkpt lat="45.72132" lon="3.12915">
        <ele>651.7</ele>
        <time>2011-09-25T08:36:28Z</time>
      </trkpt>
      <trkpt lat="45.72121" lon="3.12913">
        <ele>652.3</ele>
        <time>2011-09-25T08:36:31Z</time>
      </trkpt>
      <trkpt lat="45.72109" lon="3.12914">
        <ele>652.8</ele>
        <time>2011-09-25T08:36:33Z</time>
      </trkpt>
      <trkpt lat="45.72097" lon="3.12915">
        <ele>654.2</ele>
        <time>2011-09-25T08:36:35Z</time>
      </trkpt>
      <trkpt lat="45.72087" lon="3.12914">
        <ele>655.5</ele>
        <time>2011-09-25T08:36:37Z</time>
      </trkpt>
      <trkpt lat="45.72076" lon="3.12912">
        <ele>656.9</ele>
        <time>2011-09-25T08:36:39Z</time>
      </trkpt>
      <trkpt lat="45.72066" lon="3.12912">
        <ele>658.3</ele>
        <time>2011-09-25T08:36:41Z</time>
      </trkpt>
      <trkpt lat="45.72056" lon="3.12915">
        <ele>659.1</ele>
        <time>2011-09-25T08:36:45Z</time>
      </trkpt>
      <trkpt lat="45.72045" lon="3.12915">
        <ele>659.9</ele>
        <time>2011-09-25T08:36:50Z</time>
      </trkpt>
      <trkpt lat="45.72037" lon="3.1292">
        <ele>660.7</ele>
        <time>2011-09-25T08:36:55Z</time>
      </trkpt>
      <trkpt lat="45.72026" lon="3.12919">
        <ele>661.5</ele>
        <time>2011-09-25T08:36:59Z</time>
      </trkpt>
      <trkpt lat="45.72017" lon="3.12923">
        <ele>662.4</ele>
        <time>2011-09-25T08:37:04Z</time>
      </trkpt>
      <trkpt lat="45.72008" lon="3.12929">
        <ele>663.2</ele>
        <time>2011-09-25T08:37:09Z</time>
      </trkpt>
      <trkpt lat="45.72001" lon="3.12934">
        <ele>664.5</ele>
        <time>2011-09-25T08:37:13Z</time>
      </trkpt>
      <trkpt lat="45.71993" lon="3.12939">
        <ele>664.9</ele>
        <time>2011-09-25T08:37:17Z</time>
      </trkpt>
      <trkpt lat="45.71984" lon="3.12945">
        <ele>665.4</ele>
        <time>2011-09-25T08:37:22Z</time>
      </trkpt>
      <trkpt lat="45.71976" lon="3.12949">
        <ele>665.8</ele>
        <time>2011-09-25T08:37:26Z</time>
      </trkpt>
      <trkpt lat="45.71966" lon="3.12955">
        <ele>666.3</ele>
        <time>2011-09-25T08:37:31Z</time>
      </trkpt>
      <trkpt lat="45.71958" lon="3.12959">
        <ele>666.7</ele>
        <time>2011-09-25T08:37:33Z</time>
      </trkpt>
      <trkpt lat="45.71948" lon="3.1296">
        <ele>667.2</ele>
        <time>2011-09-25T08:37:36Z</time>
      </trkpt>
      <trkpt lat="45.71939" lon="3.1296">
        <ele>667.6</ele>
        <time>2011-09-25T08:37:39Z</time>
      </trkpt>
      <trkpt lat="45.71925" lon="3.12961">
        <ele>667.2</ele>
        <time>2011-09-25T08:37:44Z</time>
      </trkpt>
      <trkpt lat="45.71916" lon="3.12961">
        <ele>666.7</ele>
        <time>2011-09-25T08:37:46Z</time>
      </trkpt>
      <trkpt lat="45.71904" lon="3.12962">
        <ele>666.3</ele>
        <time>2011-09-25T08:37:49Z</time>
      </trkpt>
      <trkpt lat="45.71895" lon="3.12961">
        <ele>665.4</ele>
        <time>2011-09-25T08:37:52Z</time>
      </trkpt>
      <trkpt lat="45.71887" lon="3.12958">
        <ele>664.5</ele>
        <time>2011-09-25T08:37:54Z</time>
      </trkpt>
      <trkpt lat="45.71878" lon="3.12953">
        <ele>663.5</ele>
        <time>2011-09-25T08:37:56Z</time>
      </trkpt>
      <trkpt lat="45.71869" lon="3.12949">
        <ele>662.6</ele>
        <time>2011-09-25T08:37:58Z</time>
      </trkpt>
      <trkpt lat="45.7186" lon="3.12943">
        <ele>661.7</ele>
        <time>2011-09-25T08:37:59Z</time>
      </trkpt>
      <trkpt lat="45.71839" lon="3.1293">
        <ele>659.8</ele>
        <time>2011-09-25T08:38:01Z</time>
      </trkpt>
      <trkpt lat="45.71829" lon="3.12923">
        <ele>657.9</ele>
        <time>2011-09-25T08:38:04Z</time>
      </trkpt>
      <trkpt lat="45.71819" lon="3.12914">
        <ele>657.5</ele>
        <time>2011-09-25T08:38:05Z</time>
      </trkpt>
      <trkpt lat="45.71807" lon="3.12906">
        <ele>658.1</ele>
        <time>2011-09-25T08:38:07Z</time>
      </trkpt>
      <trkpt lat="45.71796" lon="3.12898">
        <ele>658.6</ele>
        <time>2011-09-25T08:38:09Z</time>
      </trkpt>
      <trkpt lat="45.71783" lon="3.12891">
        <ele>659.2</ele>
        <time>2011-09-25T08:38:11Z</time>
      </trkpt>
      <trkpt lat="45.71772" lon="3.12883">
        <ele>659.7</ele>
        <time>2011-09-25T08:38:13Z</time>
      </trkpt>
      <trkpt lat="45.71759" lon="3.12877">
        <ele>659.6</ele>
        <time>2011-09-25T08:38:15Z</time>
      </trkpt>
      <trkpt lat="45.71747" lon="3.12872">
        <ele>659.5</ele>
        <time>2011-09-25T08:38:17Z</time>
      </trkpt>
      <trkpt lat="45.71735" lon="3.12867">
        <ele>660.1</ele>
        <time>2011-09-25T08:38:19Z</time>
      </trkpt>
      <trkpt lat="45.71724" lon="3.12863">
        <ele>660.6</ele>
        <time>2011-09-25T08:38:21Z</time>
      </trkpt>
      <trkpt lat="45.71714" lon="3.12859">
        <ele>662.2</ele>
        <time>2011-09-25T08:38:23Z</time>
      </trkpt>
      <trkpt lat="45.71706" lon="3.12855">
        <ele>663.7</ele>
        <time>2011-09-25T08:38:26Z</time>
      </trkpt>
      <trkpt lat="45.71705" lon="3.12843">
        <ele>664.5</ele>
        <time>2011-09-25T08:38:36Z</time>
      </trkpt>
      <trkpt lat="45.7171" lon="3.12834">
        <ele>665.2</ele>
        <time>2011-09-25T08:38:50Z</time>
      </trkpt>
      <trkpt lat="45.71719" lon="3.12824">
        <ele>665.9</ele>
        <time>2011-09-25T08:39:01Z</time>
      </trkpt>
      <trkpt lat="45.71725" lon="3.12814">
        <ele>666.6</ele>
        <time>2011-09-25T08:39:05Z</time>
      </trkpt>
      <trkpt lat="45.71732" lon="3.12804">
        <ele>667.4</ele>
        <time>2011-09-25T08:39:10Z</time>
      </trkpt>
      <trkpt lat="45.71737" lon="3.12795">
        <ele>668.7</ele>
        <time>2011-09-25T08:39:14Z</time>
      </trkpt>
      <trkpt lat="45.71744" lon="3.12786">
        <ele>670.1</ele>
        <time>2011-09-25T08:39:20Z</time>
      </trkpt>
      <trkpt lat="45.7175" lon="3.12778">
        <ele>670.8</ele>
        <time>2011-09-25T08:39:27Z</time>
      </trkpt>
      <trkpt lat="45.71758" lon="3.1277">
        <ele>673.4</ele>
        <time>2011-09-25T08:39:33Z</time>
      </trkpt>
      <trkpt lat="45.71764" lon="3.12762">
        <ele>675.9</ele>
        <time>2011-09-25T08:39:41Z</time>
      </trkpt>
      <trkpt lat="45.71772" lon="3.1276">
        <ele>678.5</ele>
        <time>2011-09-25T08:39:57Z</time>
      </trkpt>
      <trkpt lat="45.71779" lon="3.12766">
        <ele>680.3</ele>
        <time>2011-09-25T08:40:05Z</time>
      </trkpt>
      <trkpt lat="45.71786" lon="3.12772">
        <ele>680.5</ele>
        <time>2011-09-25T08:40:11Z</time>
      </trkpt>
      <trkpt lat="45.71794" lon="3.12776">
        <ele>680.6</ele>
        <time>2011-09-25T08:40:16Z</time>
      </trkpt>
      <trkpt lat="45.71802" lon="3.12779">
        <ele>680.8</ele>
        <time>2011-09-25T08:40:21Z</time>
      </trkpt>
      <trkpt lat="45.71811" lon="3.12785">
        <ele>681</ele>
        <time>2011-09-25T08:40:26Z</time>
      </trkpt>
      <trkpt lat="45.71819" lon="3.12792">
        <ele>681.2</ele>
        <time>2011-09-25T08:40:31Z</time>
      </trkpt>
      <trkpt lat="45.71824" lon="3.12802">
        <ele>681.4</ele>
        <time>2011-09-25T08:40:36Z</time>
      </trkpt>
      <trkpt lat="45.7183" lon="3.12811">
        <ele>681.5</ele>
        <time>2011-09-25T08:40:41Z</time>
      </trkpt>
      <trkpt lat="45.71839" lon="3.12815">
        <ele>680.9</ele>
        <time>2011-09-25T08:40:45Z</time>
      </trkpt>
      <trkpt lat="45.71847" lon="3.12815">
        <ele>680.3</ele>
        <time>2011-09-25T08:40:59Z</time>
      </trkpt>
      <trkpt lat="45.71855" lon="3.12816">
        <ele>679.6</ele>
        <time>2011-09-25T08:41:06Z</time>
      </trkpt>
      <trkpt lat="45.71864" lon="3.12819">
        <ele>679</ele>
        <time>2011-09-25T08:41:11Z</time>
      </trkpt>
      <trkpt lat="45.71873" lon="3.12822">
        <ele>680</ele>
        <time>2011-09-25T08:41:15Z</time>
      </trkpt>
      <trkpt lat="45.71882" lon="3.12824">
        <ele>681</ele>
        <time>2011-09-25T08:41:19Z</time>
      </trkpt>
      <trkpt lat="45.7189" lon="3.12829">
        <ele>682</ele>
        <time>2011-09-25T08:41:24Z</time>
      </trkpt>
      <trkpt lat="45.71898" lon="3.12834">
        <ele>683</ele>
        <time>2011-09-25T08:41:27Z</time>
      </trkpt>
      <trkpt lat="45.71907" lon="3.12837">
        <ele>684</ele>
        <time>2011-09-25T08:41:31Z</time>
      </trkpt>
      <trkpt lat="45.71916" lon="3.12835">
        <ele>685</ele>
        <time>2011-09-25T08:41:34Z</time>
      </trkpt>
      <trkpt lat="45.71925" lon="3.12833">
        <ele>686</ele>
        <time>2011-09-25T08:41:40Z</time>
      </trkpt>
      <trkpt lat="45.71934" lon="3.12836">
        <ele>687.2</ele>
        <time>2011-09-25T08:41:44Z</time>
      </trkpt>
      <trkpt lat="45.71944" lon="3.12833">
        <ele>688.4</ele>
        <time>2011-09-25T08:41:48Z</time>
      </trkpt>
      <trkpt lat="45.71951" lon="3.12828">
        <ele>689.5</ele>
        <time>2011-09-25T08:41:56Z</time>
      </trkpt>
      <trkpt lat="45.71956" lon="3.12818">
        <ele>690.7</ele>
        <time>2011-09-25T08:41:59Z</time>
      </trkpt>
      <trkpt lat="45.71962" lon="3.12807">
        <ele>691.9</ele>
        <time>2011-09-25T08:42:00Z</time>
      </trkpt>
      <trkpt lat="45.71967" lon="3.12798">
        <ele>693.1</ele>
        <time>2011-09-25T08:42:02Z</time>
      </trkpt>
      <trkpt lat="45.71974" lon="3.12789">
        <ele>694.3</ele>
        <time>2011-09-25T08:42:06Z</time>
      </trkpt>
      <trkpt lat="45.71981" lon="3.12781">
        <ele>695.5</ele>
        <time>2011-09-25T08:42:11Z</time>
      </trkpt>
      <trkpt lat="45.71987" lon="3.1277">
        <ele>697.8</ele>
        <time>2011-09-25T08:42:14Z</time>
      </trkpt>
      <trkpt lat="45.71991" lon="3.12758">
        <ele>700.2</ele>
        <time>2011-09-25T08:42:19Z</time>
      </trkpt>
      <trkpt lat="45.71997" lon="3.12749">
        <ele>702.5</ele>
        <time>2011-09-25T08:42:23Z</time>
      </trkpt>
      <trkpt lat="45.72002" lon="3.12739">
        <ele>703.7</ele>
        <time>2011-09-25T08:42:28Z</time>
      </trkpt>
      <trkpt lat="45.72004" lon="3.12727">
        <ele>704.9</ele>
        <time>2011-09-25T08:42:36Z</time>
      </trkpt>
      <trkpt lat="45.72009" lon="3.12716">
        <ele>705.8</ele>
        <time>2011-09-25T08:42:51Z</time>
      </trkpt>
      <trkpt lat="45.72017" lon="3.12709">
        <ele>706.7</ele>
        <time>2011-09-25T08:43:05Z</time>
      </trkpt>
      <trkpt lat="45.72026" lon="3.12701">
        <ele>707.6</ele>
        <time>2011-09-25T08:43:10Z</time>
      </trkpt>
      <trkpt lat="45.72033" lon="3.12695">
        <ele>708.5</ele>
        <time>2011-09-25T08:43:14Z</time>
      </trkpt>
      <trkpt lat="45.72041" lon="3.12685">
        <ele>709.5</ele>
        <time>2011-09-25T08:43:38Z</time>
      </trkpt>
      <trkpt lat="45.72047" lon="3.12676">
        <ele>710.5</ele>
        <time>2011-09-25T08:43:41Z</time>
      </trkpt>
      <trkpt lat="45.72056" lon="3.12667">
        <ele>710.5</ele>
        <time>2011-09-25T08:43:44Z</time>
      </trkpt>
      <trkpt lat="45.72064" lon="3.12658">
        <ele>710.4</ele>
        <time>2011-09-25T08:43:47Z</time>
      </trkpt>
      <trkpt lat="45.72072" lon="3.1265">
        <ele>710.3</ele>
        <time>2011-09-25T08:43:49Z</time>
      </trkpt>
      <trkpt lat="45.7208" lon="3.12641">
        <ele>710.2</ele>
        <time>2011-09-25T08:43:51Z</time>
      </trkpt>
      <trkpt lat="45.72088" lon="3.12633">
        <ele>709.8</ele>
        <time>2011-09-25T08:43:53Z</time>
      </trkpt>
      <trkpt lat="45.72096" lon="3.12627">
        <ele>709.7</ele>
        <time>2011-09-25T08:43:55Z</time>
      </trkpt>
      <trkpt lat="45.72106" lon="3.12624">
        <ele>709.6</ele>
        <time>2011-09-25T08:43:57Z</time>
      </trkpt>
      <trkpt lat="45.72117" lon="3.12622">
        <ele>709.5</ele>
        <time>2011-09-25T08:43:59Z</time>
      </trkpt>
      <trkpt lat="45.72127" lon="3.12618">
        <ele>709.5</ele>
        <time>2011-09-25T08:44:01Z</time>
      </trkpt>
      <trkpt lat="45.72138" lon="3.12614">
        <ele>709.4</ele>
        <time>2011-09-25T08:44:03Z</time>
      </trkpt>
      <trkpt lat="45.72149" lon="3.12611">
        <ele>709.1</ele>
        <time>2011-09-25T08:44:05Z</time>
      </trkpt>
      <trkpt lat="45.72158" lon="3.1261">
        <ele>708.8</ele>
        <time>2011-09-25T08:44:07Z</time>
      </trkpt>
      <trkpt lat="45.72168" lon="3.12607">
        <ele>708</ele>
        <time>2011-09-25T08:44:09Z</time>
      </trkpt>
      <trkpt lat="45.72177" lon="3.12604">
        <ele>707.2</ele>
        <time>2011-09-25T08:44:11Z</time>
      </trkpt>
      <trkpt lat="45.72186" lon="3.12604">
        <ele>706.4</ele>
        <time>2011-09-25T08:44:14Z</time>
      </trkpt>
      <trkpt lat="45.72195" lon="3.1261">
        <ele>705.8</ele>
        <time>2011-09-25T08:44:18Z</time>
      </trkpt>
      <trkpt lat="45.72205" lon="3.12608">
        <ele>705.3</ele>
        <time>2011-09-25T08:44:21Z</time>
      </trkpt>
      <trkpt lat="45.72214" lon="3.12605">
        <ele>704.7</ele>
        <time>2011-09-25T08:44:22Z</time>
      </trkpt>
      <trkpt lat="45.72223" lon="3.126">
        <ele>704.2</ele>
        <time>2011-09-25T08:44:25Z</time>
      </trkpt>
      <trkpt lat="45.72233" lon="3.12597">
        <ele>703.6</ele>
        <time>2011-09-25T08:44:26Z</time>
      </trkpt>
      <trkpt lat="45.72241" lon="3.12593">
        <ele>701.7</ele>
        <time>2011-09-25T08:44:28Z</time>
      </trkpt>
      <trkpt lat="45.7225" lon="3.12588">
        <ele>699.8</ele>
        <time>2011-09-25T08:44:30Z</time>
      </trkpt>
      <trkpt lat="45.7226" lon="3.12586">
        <ele>697.9</ele>
        <time>2011-09-25T08:44:32Z</time>
      </trkpt>
      <trkpt lat="45.7227" lon="3.12585">
        <ele>697.5</ele>
        <time>2011-09-25T08:44:34Z</time>
      </trkpt>
      <trkpt lat="45.72281" lon="3.12583">
        <ele>697.2</ele>
        <time>2011-09-25T08:44:36Z</time>
      </trkpt>
      <trkpt lat="45.72293" lon="3.1258">
        <ele>696.8</ele>
        <time>2011-09-25T08:44:38Z</time>
      </trkpt>
      <trkpt lat="45.72306" lon="3.12572">
        <ele>696.5</ele>
        <time>2011-09-25T08:44:40Z</time>
      </trkpt>
      <trkpt lat="45.72318" lon="3.12561">
        <ele>696.1</ele>
        <time>2011-09-25T08:44:42Z</time>
      </trkpt>
      <trkpt lat="45.72327" lon="3.12548">
        <ele>696</ele>
        <time>2011-09-25T08:44:44Z</time>
      </trkpt>
      <trkpt lat="45.72332" lon="3.12533">
        <ele>695.9</ele>
        <time>2011-09-25T08:44:46Z</time>
      </trkpt>
      <trkpt lat="45.72335" lon="3.12516">
        <ele>695.8</ele>
        <time>2011-09-25T08:44:48Z</time>
      </trkpt>
      <trkpt lat="45.7234" lon="3.12499">
        <ele>697.1</ele>
        <time>2011-09-25T08:44:50Z</time>
      </trkpt>
      <trkpt lat="45.72346" lon="3.12485">
        <ele>698.4</ele>
        <time>2011-09-25T08:44:52Z</time>
      </trkpt>
      <trkpt lat="45.72348" lon="3.1247">
        <ele>699.6</ele>
        <time>2011-09-25T08:44:54Z</time>
      </trkpt>
      <trkpt lat="45.72348" lon="3.12454">
        <ele>699.9</ele>
        <time>2011-09-25T08:44:56Z</time>
      </trkpt>
      <trkpt lat="45.72349" lon="3.12441">
        <ele>699.9</ele>
        <time>2011-09-25T08:44:58Z</time>
      </trkpt>
      <trkpt lat="45.72348" lon="3.12425">
        <ele>699.9</ele>
        <time>2011-09-25T08:45:01Z</time>
      </trkpt>
      <trkpt lat="45.72348" lon="3.1241">
        <ele>699.9</ele>
        <time>2011-09-25T08:45:04Z</time>
      </trkpt>
      <trkpt lat="45.72348" lon="3.12398">
        <ele>699.9</ele>
        <time>2011-09-25T08:45:07Z</time>
      </trkpt>
      <trkpt lat="45.72347" lon="3.12382">
        <ele>699.6</ele>
        <time>2011-09-25T08:45:11Z</time>
      </trkpt>
      <trkpt lat="45.72346" lon="3.12367">
        <ele>699.4</ele>
        <time>2011-09-25T08:45:15Z</time>
      </trkpt>
      <trkpt lat="45.72343" lon="3.12353">
        <ele>698.8</ele>
        <time>2011-09-25T08:45:19Z</time>
      </trkpt>
      <trkpt lat="45.72337" lon="3.12342">
        <ele>698.3</ele>
        <time>2011-09-25T08:45:22Z</time>
      </trkpt>
      <trkpt lat="45.7233" lon="3.12328">
        <ele>697.7</ele>
        <time>2011-09-25T08:45:25Z</time>
      </trkpt>
      <trkpt lat="45.72325" lon="3.12315">
        <ele>697.2</ele>
        <time>2011-09-25T08:45:27Z</time>
      </trkpt>
      <trkpt lat="45.72322" lon="3.12302">
        <ele>696.6</ele>
        <time>2011-09-25T08:45:29Z</time>
      </trkpt>
      <trkpt lat="45.72322" lon="3.12288">
        <ele>696.4</ele>
        <time>2011-09-25T08:45:32Z</time>
      </trkpt>
      <trkpt lat="45.72322" lon="3.12275">
        <ele>696</ele>
        <time>2011-09-25T08:45:35Z</time>
      </trkpt>
      <trkpt lat="45.72321" lon="3.1226">
        <ele>695.6</ele>
        <time>2011-09-25T08:45:39Z</time>
      </trkpt>
      <trkpt lat="45.7232" lon="3.12245">
        <ele>695.3</ele>
        <time>2011-09-25T08:45:42Z</time>
      </trkpt>
      <trkpt lat="45.72318" lon="3.12232">
        <ele>694.9</ele>
        <time>2011-09-25T08:45:44Z</time>
      </trkpt>
      <trkpt lat="45.72314" lon="3.12218">
        <ele>694.5</ele>
        <time>2011-09-25T08:45:47Z</time>
      </trkpt>
      <trkpt lat="45.72313" lon="3.12203">
        <ele>694.5</ele>
        <time>2011-09-25T08:45:49Z</time>
      </trkpt>
      <trkpt lat="45.72312" lon="3.12188">
        <ele>694.2</ele>
        <time>2011-09-25T08:45:52Z</time>
      </trkpt>
      <trkpt lat="45.72311" lon="3.12173">
        <ele>693.9</ele>
        <time>2011-09-25T08:45:54Z</time>
      </trkpt>
      <trkpt lat="45.7231" lon="3.1216">
        <ele>693.6</ele>
        <time>2011-09-25T08:45:56Z</time>
      </trkpt>
      <trkpt lat="45.7231" lon="3.12148">
        <ele>693.4</ele>
        <time>2011-09-25T08:45:58Z</time>
      </trkpt>
      <trkpt lat="45.72309" lon="3.12135">
        <ele>693.1</ele>
        <time>2011-09-25T08:45:59Z</time>
      </trkpt>
      <trkpt lat="45.72308" lon="3.12118">
        <ele>692.9</ele>
        <time>2011-09-25T08:46:02Z</time>
      </trkpt>
      <trkpt lat="45.72305" lon="3.12095">
        <ele>692.7</ele>
        <time>2011-09-25T08:46:05Z</time>
      </trkpt>
      <trkpt lat="45.72304" lon="3.12079">
        <ele>692.5</ele>
        <time>2011-09-25T08:46:08Z</time>
      </trkpt>
      <trkpt lat="45.72305" lon="3.12067">
        <ele>692.4</ele>
        <time>2011-09-25T08:46:10Z</time>
      </trkpt>
      <trkpt lat="45.72305" lon="3.12054">
        <ele>692.2</ele>
        <time>2011-09-25T08:46:12Z</time>
      </trkpt>
      <trkpt lat="45.72305" lon="3.12041">
        <ele>691.5</ele>
        <time>2011-09-25T08:46:14Z</time>
      </trkpt>
      <trkpt lat="45.72305" lon="3.12028">
        <ele>691.1</ele>
        <time>2011-09-25T08:46:16Z</time>
      </trkpt>
      <trkpt lat="45.72304" lon="3.12011">
        <ele>690.6</ele>
        <time>2011-09-25T08:46:18Z</time>
      </trkpt>
      <trkpt lat="45.72303" lon="3.11995">
        <ele>690.2</ele>
        <time>2011-09-25T08:46:22Z</time>
      </trkpt>
      <trkpt lat="45.72302" lon="3.11978">
        <ele>691.7</ele>
        <time>2011-09-25T08:46:24Z</time>
      </trkpt>
      <trkpt lat="45.723" lon="3.11961">
        <ele>693.3</ele>
        <time>2011-09-25T08:46:27Z</time>
      </trkpt>
      <trkpt lat="45.72297" lon="3.11948">
        <ele>694.7</ele>
        <time>2011-09-25T08:46:29Z</time>
      </trkpt>
      <trkpt lat="45.72295" lon="3.11936">
        <ele>696.2</ele>
        <time>2011-09-25T08:46:31Z</time>
      </trkpt>
      <trkpt lat="45.72293" lon="3.11922">
        <ele>697.6</ele>
        <time>2011-09-25T08:46:33Z</time>
      </trkpt>
      <trkpt lat="45.72292" lon="3.11906">
        <ele>699.1</ele>
        <time>2011-09-25T08:46:36Z</time>
      </trkpt>
      <trkpt lat="45.72292" lon="3.11891">
        <ele>700.5</ele>
        <time>2011-09-25T08:46:37Z</time>
      </trkpt>
      <trkpt lat="45.7229" lon="3.11876">
        <ele>702.5</ele>
        <time>2011-09-25T08:46:40Z</time>
      </trkpt>
      <trkpt lat="45.72287" lon="3.11862">
        <ele>704.4</ele>
        <time>2011-09-25T08:46:42Z</time>
      </trkpt>
      <trkpt lat="45.72286" lon="3.1185">
        <ele>705.7</ele>
        <time>2011-09-25T08:46:44Z</time>
      </trkpt>
      <trkpt lat="45.72282" lon="3.11837">
        <ele>707.1</ele>
        <time>2011-09-25T08:46:46Z</time>
      </trkpt>
      <trkpt lat="45.7228" lon="3.11824">
        <ele>706.5</ele>
        <time>2011-09-25T08:46:48Z</time>
      </trkpt>
      <trkpt lat="45.72276" lon="3.11813">
        <ele>705.8</ele>
        <time>2011-09-25T08:46:50Z</time>
      </trkpt>
      <trkpt lat="45.72271" lon="3.118">
        <ele>704.9</ele>
        <time>2011-09-25T08:46:52Z</time>
      </trkpt>
      <trkpt lat="45.72267" lon="3.11787">
        <ele>704</ele>
        <time>2011-09-25T08:46:54Z</time>
      </trkpt>
      <trkpt lat="45.72265" lon="3.11772">
        <ele>703.1</ele>
        <time>2011-09-25T08:46:56Z</time>
      </trkpt>
      <trkpt lat="45.72264" lon="3.11753">
        <ele>702.2</ele>
        <time>2011-09-25T08:46:59Z</time>
      </trkpt>
      <trkpt lat="45.72265" lon="3.11734">
        <ele>701.3</ele>
        <time>2011-09-25T08:47:02Z</time>
      </trkpt>
      <trkpt lat="45.72265" lon="3.11715">
        <ele>700</ele>
        <time>2011-09-25T08:47:04Z</time>
      </trkpt>
      <trkpt lat="45.72261" lon="3.11695">
        <ele>698.7</ele>
        <time>2011-09-25T08:47:07Z</time>
      </trkpt>
      <trkpt lat="45.72254" lon="3.11675">
        <ele>698</ele>
        <time>2011-09-25T08:47:09Z</time>
      </trkpt>
      <trkpt lat="45.72245" lon="3.11657">
        <ele>697.3</ele>
        <time>2011-09-25T08:47:11Z</time>
      </trkpt>
      <trkpt lat="45.72237" lon="3.11641">
        <ele>696.5</ele>
        <time>2011-09-25T08:47:14Z</time>
      </trkpt>
      <trkpt lat="45.7223" lon="3.11626">
        <ele>695.7</ele>
        <time>2011-09-25T08:47:16Z</time>
      </trkpt>
      <trkpt lat="45.72225" lon="3.1161">
        <ele>695.3</ele>
        <time>2011-09-25T08:47:19Z</time>
      </trkpt>
      <trkpt lat="45.72222" lon="3.11595">
        <ele>694.8</ele>
        <time>2011-09-25T08:47:21Z</time>
      </trkpt>
      <trkpt lat="45.72224" lon="3.11579">
        <ele>695.9</ele>
        <time>2011-09-25T08:47:24Z</time>
      </trkpt>
      <trkpt lat="45.72227" lon="3.11564">
        <ele>697.1</ele>
        <time>2011-09-25T08:47:26Z</time>
      </trkpt>
      <trkpt lat="45.72227" lon="3.1155">
        <ele>698.3</ele>
        <time>2011-09-25T08:47:29Z</time>
      </trkpt>
      <trkpt lat="45.72224" lon="3.11539">
        <ele>699.8</ele>
        <time>2011-09-25T08:47:31Z</time>
      </trkpt>
      <trkpt lat="45.72212" lon="3.1149">
        <ele>701.4</ele>
        <time>2011-09-25T08:47:33Z</time>
      </trkpt>
      <trkpt lat="45.72209" lon="3.11478">
        <ele>702.9</ele>
        <time>2011-09-25T08:47:36Z</time>
      </trkpt>
      <trkpt lat="45.72207" lon="3.11464">
        <ele>704.5</ele>
        <time>2011-09-25T08:47:39Z</time>
      </trkpt>
      <trkpt lat="45.72204" lon="3.11452">
        <ele>706</ele>
        <time>2011-09-25T08:47:42Z</time>
      </trkpt>
      <trkpt lat="45.722" lon="3.11441">
        <ele>707.6</ele>
        <time>2011-09-25T08:47:45Z</time>
      </trkpt>
      <trkpt lat="45.72195" lon="3.11429">
        <ele>709.5</ele>
        <time>2011-09-25T08:47:48Z</time>
      </trkpt>
      <trkpt lat="45.72192" lon="3.11418">
        <ele>711.3</ele>
        <time>2011-09-25T08:47:51Z</time>
      </trkpt>
      <trkpt lat="45.7219" lon="3.11407">
        <ele>711.5</ele>
        <time>2011-09-25T08:47:54Z</time>
      </trkpt>
      <trkpt lat="45.72188" lon="3.11394">
        <ele>711.7</ele>
        <time>2011-09-25T08:47:57Z</time>
      </trkpt>
      <trkpt lat="45.72186" lon="3.11381">
        <ele>711.9</ele>
        <time>2011-09-25T08:48:00Z</time>
      </trkpt>
      <trkpt lat="45.72185" lon="3.11368">
        <ele>712.1</ele>
        <time>2011-09-25T08:48:03Z</time>
      </trkpt>
      <trkpt lat="45.72184" lon="3.11355">
        <ele>712.2</ele>
        <time>2011-09-25T08:48:06Z</time>
      </trkpt>
      <trkpt lat="45.72184" lon="3.11343">
        <ele>712.3</ele>
        <time>2011-09-25T08:48:09Z</time>
      </trkpt>
      <trkpt lat="45.72184" lon="3.11329">
        <ele>712.4</ele>
        <time>2011-09-25T08:48:12Z</time>
      </trkpt>
      <trkpt lat="45.72181" lon="3.11317">
        <ele>712.5</ele>
        <time>2011-09-25T08:48:15Z</time>
      </trkpt>
      <trkpt lat="45.72177" lon="3.11303">
        <ele>712.5</ele>
        <time>2011-09-25T08:48:19Z</time>
      </trkpt>
      <trkpt lat="45.72172" lon="3.11289">
        <ele>712.5</ele>
        <time>2011-09-25T08:48:23Z</time>
      </trkpt>
      <trkpt lat="45.72168" lon="3.11278">
        <ele>712.4</ele>
        <time>2011-09-25T08:48:26Z</time>
      </trkpt>
      <trkpt lat="45.72165" lon="3.11266">
        <ele>712.1</ele>
        <time>2011-09-25T08:48:29Z</time>
      </trkpt>
      <trkpt lat="45.72162" lon="3.11252">
        <ele>711.8</ele>
        <time>2011-09-25T08:48:32Z</time>
      </trkpt>
      <trkpt lat="45.72159" lon="3.11238">
        <ele>711.5</ele>
        <time>2011-09-25T08:48:37Z</time>
      </trkpt>
      <trkpt lat="45.72155" lon="3.11225">
        <ele>711.3</ele>
        <time>2011-09-25T08:48:41Z</time>
      </trkpt>
      <trkpt lat="45.7215" lon="3.11212">
        <ele>711.1</ele>
        <time>2011-09-25T08:48:44Z</time>
      </trkpt>
      <trkpt lat="45.72148" lon="3.112">
        <ele>710.9</ele>
        <time>2011-09-25T08:48:47Z</time>
      </trkpt>
      <trkpt lat="45.72144" lon="3.11186">
        <ele>710.5</ele>
        <time>2011-09-25T08:48:51Z</time>
      </trkpt>
      <trkpt lat="45.72141" lon="3.11175">
        <ele>710.2</ele>
        <time>2011-09-25T08:48:54Z</time>
      </trkpt>
      <trkpt lat="45.72145" lon="3.11162">
        <ele>709.8</ele>
        <time>2011-09-25T08:48:58Z</time>
      </trkpt>
      <trkpt lat="45.72151" lon="3.11153">
        <ele>709.5</ele>
        <time>2011-09-25T08:49:02Z</time>
      </trkpt>
      <trkpt lat="45.7215" lon="3.11141">
        <ele>709.1</ele>
        <time>2011-09-25T08:49:05Z</time>
      </trkpt>
      <trkpt lat="45.72151" lon="3.11128">
        <ele>708.9</ele>
        <time>2011-09-25T08:49:07Z</time>
      </trkpt>
      <trkpt lat="45.72154" lon="3.11117">
        <ele>708.2</ele>
        <time>2011-09-25T08:49:10Z</time>
      </trkpt>
      <trkpt lat="45.72156" lon="3.11104">
        <ele>707.5</ele>
        <time>2011-09-25T08:49:13Z</time>
      </trkpt>
      <trkpt lat="45.72158" lon="3.11092">
        <ele>706.7</ele>
        <time>2011-09-25T08:49:17Z</time>
      </trkpt>
      <trkpt lat="45.72157" lon="3.11075">
        <ele>706</ele>
        <time>2011-09-25T08:49:22Z</time>
      </trkpt>
      <trkpt lat="45.72153" lon="3.1106">
        <ele>707</ele>
        <time>2011-09-25T08:49:25Z</time>
      </trkpt>
      <trkpt lat="45.72149" lon="3.11044">
        <ele>708.2</ele>
        <time>2011-09-25T08:49:27Z</time>
      </trkpt>
      <trkpt lat="45.72146" lon="3.11031">
        <ele>709.4</ele>
        <time>2011-09-25T08:49:29Z</time>
      </trkpt>
      <trkpt lat="45.72138" lon="3.11021">
        <ele>710.5</ele>
        <time>2011-09-25T08:49:31Z</time>
      </trkpt>
      <trkpt lat="45.72131" lon="3.1101">
        <ele>710.5</ele>
        <time>2011-09-25T08:49:33Z</time>
      </trkpt>
      <trkpt lat="45.72124" lon="3.11">
        <ele>710.5</ele>
        <time>2011-09-25T08:49:35Z</time>
      </trkpt>
      <trkpt lat="45.72115" lon="3.1099">
        <ele>710.5</ele>
        <time>2011-09-25T08:49:37Z</time>
      </trkpt>
      <trkpt lat="45.7211" lon="3.10981">
        <ele>711.1</ele>
        <time>2011-09-25T08:49:39Z</time>
      </trkpt>
      <trkpt lat="45.72102" lon="3.10972">
        <ele>711.6</ele>
        <time>2011-09-25T08:49:41Z</time>
      </trkpt>
      <trkpt lat="45.72096" lon="3.10961">
        <ele>712.2</ele>
        <time>2011-09-25T08:49:43Z</time>
      </trkpt>
      <trkpt lat="45.7209" lon="3.10951">
        <ele>712.7</ele>
        <time>2011-09-25T08:49:45Z</time>
      </trkpt>
      <trkpt lat="45.72083" lon="3.10941">
        <ele>712.7</ele>
        <time>2011-09-25T08:49:47Z</time>
      </trkpt>
      <trkpt lat="45.72075" lon="3.10934">
        <ele>712.7</ele>
        <time>2011-09-25T08:49:49Z</time>
      </trkpt>
      <trkpt lat="45.72065" lon="3.10924">
        <ele>712.7</ele>
        <time>2011-09-25T08:49:52Z</time>
      </trkpt>
      <trkpt lat="45.72057" lon="3.10918">
        <ele>711.4</ele>
        <time>2011-09-25T08:49:54Z</time>
      </trkpt>
      <trkpt lat="45.72049" lon="3.10911">
        <ele>711.2</ele>
        <time>2011-09-25T08:49:56Z</time>
      </trkpt>
      <trkpt lat="45.72041" lon="3.10905">
        <ele>711</ele>
        <time>2011-09-25T08:49:58Z</time>
      </trkpt>
      <trkpt lat="45.72033" lon="3.10898">
        <ele>710.8</ele>
        <time>2011-09-25T08:50:00Z</time>
      </trkpt>
      <trkpt lat="45.72023" lon="3.1089">
        <ele>710.6</ele>
        <time>2011-09-25T08:50:02Z</time>
      </trkpt>
      <trkpt lat="45.72014" lon="3.1088">
        <ele>711.2</ele>
        <time>2011-09-25T08:50:04Z</time>
      </trkpt>
      <trkpt lat="45.72003" lon="3.10869">
        <ele>711.7</ele>
        <time>2011-09-25T08:50:06Z</time>
      </trkpt>
      <trkpt lat="45.71992" lon="3.1086">
        <ele>712.3</ele>
        <time>2011-09-25T08:50:08Z</time>
      </trkpt>
      <trkpt lat="45.71982" lon="3.1085">
        <ele>711.6</ele>
        <time>2011-09-25T08:50:10Z</time>
      </trkpt>
      <trkpt lat="45.71971" lon="3.10841">
        <ele>711</ele>
        <time>2011-09-25T08:50:12Z</time>
      </trkpt>
      <trkpt lat="45.71959" lon="3.10833">
        <ele>710.4</ele>
        <time>2011-09-25T08:50:14Z</time>
      </trkpt>
      <trkpt lat="45.71946" lon="3.10827">
        <ele>710.1</ele>
        <time>2011-09-25T08:50:16Z</time>
      </trkpt>
      <trkpt lat="45.71933" lon="3.1082">
        <ele>709.8</ele>
        <time>2011-09-25T08:50:18Z</time>
      </trkpt>
      <trkpt lat="45.71917" lon="3.10812">
        <ele>709.5</ele>
        <time>2011-09-25T08:50:20Z</time>
      </trkpt>
      <trkpt lat="45.71902" lon="3.10808">
        <ele>709.3</ele>
        <time>2011-09-25T08:50:22Z</time>
      </trkpt>
      <trkpt lat="45.71886" lon="3.10803">
        <ele>709</ele>
        <time>2011-09-25T08:50:24Z</time>
      </trkpt>
      <trkpt lat="45.71873" lon="3.10797">
        <ele>708</ele>
        <time>2011-09-25T08:50:26Z</time>
      </trkpt>
      <trkpt lat="45.71861" lon="3.10791">
        <ele>707</ele>
        <time>2011-09-25T08:50:28Z</time>
      </trkpt>
      <trkpt lat="45.7185" lon="3.10787">
        <ele>706.9</ele>
        <time>2011-09-25T08:50:30Z</time>
      </trkpt>
      <trkpt lat="45.71839" lon="3.10778">
        <ele>706.8</ele>
        <time>2011-09-25T08:50:32Z</time>
      </trkpt>
      <trkpt lat="45.71828" lon="3.10768">
        <ele>706.7</ele>
        <time>2011-09-25T08:50:34Z</time>
      </trkpt>
      <trkpt lat="45.71814" lon="3.10759">
        <ele>705.2</ele>
        <time>2011-09-25T08:50:36Z</time>
      </trkpt>
      <trkpt lat="45.71801" lon="3.10751">
        <ele>704.6</ele>
        <time>2011-09-25T08:50:39Z</time>
      </trkpt>
      <trkpt lat="45.71788" lon="3.10742">
        <ele>704.1</ele>
        <time>2011-09-25T08:50:42Z</time>
      </trkpt>
      <trkpt lat="45.71775" lon="3.10733">
        <ele>703.5</ele>
        <time>2011-09-25T08:50:44Z</time>
      </trkpt>
      <trkpt lat="45.71763" lon="3.10724">
        <ele>703</ele>
        <time>2011-09-25T08:50:46Z</time>
      </trkpt>
      <trkpt lat="45.71752" lon="3.10713">
        <ele>702.4</ele>
        <time>2011-09-25T08:50:49Z</time>
      </trkpt>
      <trkpt lat="45.7174" lon="3.10703">
        <ele>701.5</ele>
        <time>2011-09-25T08:50:50Z</time>
      </trkpt>
      <trkpt lat="45.71721" lon="3.10681">
        <ele>700.7</ele>
        <time>2011-09-25T08:50:52Z</time>
      </trkpt>
      <trkpt lat="45.71714" lon="3.10665">
        <ele>699</ele>
        <time>2011-09-25T08:50:54Z</time>
      </trkpt>
      <trkpt lat="45.71712" lon="3.10654">
        <ele>697.7</ele>
        <time>2011-09-25T08:50:55Z</time>
      </trkpt>
      <trkpt lat="45.71709" lon="3.10641">
        <ele>696.5</ele>
        <time>2011-09-25T08:50:56Z</time>
      </trkpt>
      <trkpt lat="45.71706" lon="3.10629">
        <ele>696.6</ele>
        <time>2011-09-25T08:50:58Z</time>
      </trkpt>
      <trkpt lat="45.71703" lon="3.10616">
        <ele>696.8</ele>
        <time>2011-09-25T08:51:00Z</time>
      </trkpt>
      <trkpt lat="45.717" lon="3.10603">
        <ele>697</ele>
        <time>2011-09-25T08:51:02Z</time>
      </trkpt>
      <trkpt lat="45.71674" lon="3.10535">
        <ele>697.2</ele>
        <time>2011-09-25T08:51:05Z</time>
      </trkpt>
      <trkpt lat="45.71667" lon="3.10529">
        <ele>696.9</ele>
        <time>2011-09-25T08:51:06Z</time>
      </trkpt>
      <trkpt lat="45.71661" lon="3.10521">
        <ele>696.7</ele>
        <time>2011-09-25T08:51:07Z</time>
      </trkpt>
      <trkpt lat="45.71654" lon="3.10513">
        <ele>696.7</ele>
        <time>2011-09-25T08:51:10Z</time>
      </trkpt>
      <trkpt lat="45.71647" lon="3.10506">
        <ele>696.7</ele>
        <time>2011-09-25T08:51:12Z</time>
      </trkpt>
      <trkpt lat="45.71642" lon="3.10496">
        <ele>696.7</ele>
        <time>2011-09-25T08:51:15Z</time>
      </trkpt>
      <trkpt lat="45.7161" lon="3.10426">
        <ele>696.3</ele>
        <time>2011-09-25T08:51:17Z</time>
      </trkpt>
      <trkpt lat="45.71605" lon="3.1041">
        <ele>695.8</ele>
        <time>2011-09-25T08:51:19Z</time>
      </trkpt>
      <trkpt lat="45.71595" lon="3.10403">
        <ele>695.3</ele>
        <time>2011-09-25T08:51:22Z</time>
      </trkpt>
      <trkpt lat="45.71586" lon="3.10404">
        <ele>694.7</ele>
        <time>2011-09-25T08:51:24Z</time>
      </trkpt>
      <trkpt lat="45.71576" lon="3.10408">
        <ele>694.2</ele>
        <time>2011-09-25T08:51:26Z</time>
      </trkpt>
      <trkpt lat="45.71564" lon="3.10413">
        <ele>693.6</ele>
        <time>2011-09-25T08:51:28Z</time>
      </trkpt>
      <trkpt lat="45.71552" lon="3.10418">
        <ele>693.5</ele>
        <time>2011-09-25T08:51:30Z</time>
      </trkpt>
      <trkpt lat="45.7154" lon="3.10424">
        <ele>693.1</ele>
        <time>2011-09-25T08:51:32Z</time>
      </trkpt>
      <trkpt lat="45.71529" lon="3.10429">
        <ele>692.6</ele>
        <time>2011-09-25T08:51:34Z</time>
      </trkpt>
      <trkpt lat="45.7152" lon="3.10438">
        <ele>692.2</ele>
        <time>2011-09-25T08:51:36Z</time>
      </trkpt>
      <trkpt lat="45.71515" lon="3.10451">
        <ele>691.7</ele>
        <time>2011-09-25T08:51:38Z</time>
      </trkpt>
      <trkpt lat="45.7151" lon="3.10467">
        <ele>691.3</ele>
        <time>2011-09-25T08:51:40Z</time>
      </trkpt>
      <trkpt lat="45.71504" lon="3.10485">
        <ele>689.9</ele>
        <time>2011-09-25T08:51:42Z</time>
      </trkpt>
      <trkpt lat="45.71498" lon="3.10502">
        <ele>688.6</ele>
        <time>2011-09-25T08:51:44Z</time>
      </trkpt>
      <trkpt lat="45.71491" lon="3.10516">
        <ele>687.4</ele>
        <time>2011-09-25T08:51:46Z</time>
      </trkpt>
      <trkpt lat="45.71481" lon="3.10528">
        <ele>686.1</ele>
        <time>2011-09-25T08:51:48Z</time>
      </trkpt>
      <trkpt lat="45.71468" lon="3.10543">
        <ele>684.8</ele>
        <time>2011-09-25T08:51:50Z</time>
      </trkpt>
      <trkpt lat="45.71454" lon="3.10555">
        <ele>683.5</ele>
        <time>2011-09-25T08:51:52Z</time>
      </trkpt>
      <trkpt lat="45.71441" lon="3.10569">
        <ele>682.6</ele>
        <time>2011-09-25T08:51:54Z</time>
      </trkpt>
      <trkpt lat="45.7143" lon="3.1058">
        <ele>680.5</ele>
        <time>2011-09-25T08:51:56Z</time>
      </trkpt>
      <trkpt lat="45.71419" lon="3.10593">
        <ele>678.3</ele>
        <time>2011-09-25T08:51:58Z</time>
      </trkpt>
      <trkpt lat="45.7141" lon="3.10608">
        <ele>676.1</ele>
        <time>2011-09-25T08:52:00Z</time>
      </trkpt>
      <trkpt lat="45.71401" lon="3.10619">
        <ele>673.9</ele>
        <time>2011-09-25T08:52:03Z</time>
      </trkpt>
      <trkpt lat="45.71392" lon="3.10629">
        <ele>672.6</ele>
        <time>2011-09-25T08:52:04Z</time>
      </trkpt>
      <trkpt lat="45.71386" lon="3.10641">
        <ele>671.4</ele>
        <time>2011-09-25T08:52:06Z</time>
      </trkpt>
      <trkpt lat="45.7138" lon="3.10653">
        <ele>670.1</ele>
        <time>2011-09-25T08:52:08Z</time>
      </trkpt>
      <trkpt lat="45.71374" lon="3.10663">
        <ele>668.8</ele>
        <time>2011-09-25T08:52:10Z</time>
      </trkpt>
      <trkpt lat="45.71365" lon="3.10668">
        <ele>667.5</ele>
        <time>2011-09-25T08:52:12Z</time>
      </trkpt>
      <trkpt lat="45.71362" lon="3.1068">
        <ele>666.3</ele>
        <time>2011-09-25T08:52:14Z</time>
      </trkpt>
      <trkpt lat="45.71368" lon="3.10695">
        <ele>665</ele>
        <time>2011-09-25T08:52:17Z</time>
      </trkpt>
      <trkpt lat="45.71381" lon="3.10701">
        <ele>663.7</ele>
        <time>2011-09-25T08:52:19Z</time>
      </trkpt>
      <trkpt lat="45.71392" lon="3.10704">
        <ele>662.5</ele>
        <time>2011-09-25T08:52:21Z</time>
      </trkpt>
      <trkpt lat="45.71407" lon="3.10706">
        <ele>662.2</ele>
        <time>2011-09-25T08:52:23Z</time>
      </trkpt>
      <trkpt lat="45.71418" lon="3.10711">
        <ele>660.9</ele>
        <time>2011-09-25T08:52:25Z</time>
      </trkpt>
      <trkpt lat="45.71431" lon="3.10715">
        <ele>659.6</ele>
        <time>2011-09-25T08:52:27Z</time>
      </trkpt>
      <trkpt lat="45.71444" lon="3.1072">
        <ele>658.4</ele>
        <time>2011-09-25T08:52:29Z</time>
      </trkpt>
      <trkpt lat="45.71454" lon="3.10722">
        <ele>657.1</ele>
        <time>2011-09-25T08:52:31Z</time>
      </trkpt>
      <trkpt lat="45.71464" lon="3.10725">
        <ele>655.8</ele>
        <time>2011-09-25T08:52:33Z</time>
      </trkpt>
      <trkpt lat="45.71459" lon="3.10743">
        <ele>654.5</ele>
        <time>2011-09-25T08:52:37Z</time>
      </trkpt>
      <trkpt lat="45.71447" lon="3.10754">
        <ele>653.3</ele>
        <time>2011-09-25T08:52:39Z</time>
      </trkpt>
      <trkpt lat="45.71441" lon="3.10763">
        <ele>651</ele>
        <time>2011-09-25T08:52:40Z</time>
      </trkpt>
      <trkpt lat="45.71434" lon="3.10773">
        <ele>649.4</ele>
        <time>2011-09-25T08:52:41Z</time>
      </trkpt>
      <trkpt lat="45.71428" lon="3.10782">
        <ele>647.7</ele>
        <time>2011-09-25T08:52:42Z</time>
      </trkpt>
      <trkpt lat="45.7142" lon="3.1079">
        <ele>645.1</ele>
        <time>2011-09-25T08:52:43Z</time>
      </trkpt>
      <trkpt lat="45.71406" lon="3.10798">
        <ele>643.5</ele>
        <time>2011-09-25T08:52:46Z</time>
      </trkpt>
      <trkpt lat="45.71397" lon="3.10802">
        <ele>641.8</ele>
        <time>2011-09-25T08:52:48Z</time>
      </trkpt>
      <trkpt lat="45.71359" lon="3.1081">
        <ele>640.2</ele>
        <time>2011-09-25T08:52:50Z</time>
      </trkpt>
      <trkpt lat="45.7135" lon="3.10809">
        <ele>637.7</ele>
        <time>2011-09-25T08:52:53Z</time>
      </trkpt>
      <trkpt lat="45.71341" lon="3.10811">
        <ele>635.3</ele>
        <time>2011-09-25T08:52:53Z</time>
      </trkpt>
      <trkpt lat="45.71315" lon="3.10814">
        <ele>632.8</ele>
        <time>2011-09-25T08:52:54Z</time>
      </trkpt>
      <trkpt lat="45.71305" lon="3.10817">
        <ele>630.4</ele>
        <time>2011-09-25T08:52:56Z</time>
      </trkpt>
      <trkpt lat="45.71296" lon="3.10819">
        <ele>628.9</ele>
        <time>2011-09-25T08:52:57Z</time>
      </trkpt>
      <trkpt lat="45.71288" lon="3.10822">
        <ele>628.1</ele>
        <time>2011-09-25T08:52:58Z</time>
      </trkpt>
      <trkpt lat="45.71274" lon="3.10824">
        <ele>627.3</ele>
        <time>2011-09-25T08:53:00Z</time>
      </trkpt>
      <trkpt lat="45.71259" lon="3.10829">
        <ele>626.5</ele>
        <time>2011-09-25T08:53:02Z</time>
      </trkpt>
      <trkpt lat="45.71242" lon="3.10832">
        <ele>625.6</ele>
        <time>2011-09-25T08:53:04Z</time>
      </trkpt>
      <trkpt lat="45.71232" lon="3.10838">
        <ele>624.8</ele>
        <time>2011-09-25T08:53:05Z</time>
      </trkpt>
      <trkpt lat="45.71222" lon="3.1084">
        <ele>624</ele>
        <time>2011-09-25T08:53:06Z</time>
      </trkpt>
      <trkpt lat="45.71214" lon="3.10843">
        <ele>624</ele>
        <time>2011-09-25T08:53:07Z</time>
      </trkpt>
      <trkpt lat="45.71201" lon="3.1084">
        <ele>624</ele>
        <time>2011-09-25T08:53:09Z</time>
      </trkpt>
      <trkpt lat="45.71186" lon="3.1084">
        <ele>624</ele>
        <time>2011-09-25T08:53:11Z</time>
      </trkpt>
      <trkpt lat="45.71176" lon="3.10845">
        <ele>624</ele>
        <time>2011-09-25T08:53:13Z</time>
      </trkpt>
      <trkpt lat="45.71165" lon="3.10842">
        <ele>622.9</ele>
        <time>2011-09-25T08:53:15Z</time>
      </trkpt>
      <trkpt lat="45.71157" lon="3.10847">
        <ele>621.8</ele>
        <time>2011-09-25T08:53:17Z</time>
      </trkpt>
      <trkpt lat="45.71149" lon="3.10853">
        <ele>621</ele>
        <time>2011-09-25T08:53:20Z</time>
      </trkpt>
      <trkpt lat="45.7115" lon="3.10866">
        <ele>620.2</ele>
        <time>2011-09-25T08:53:25Z</time>
      </trkpt>
      <trkpt lat="45.71153" lon="3.10877">
        <ele>619.4</ele>
        <time>2011-09-25T08:53:27Z</time>
      </trkpt>
      <trkpt lat="45.71151" lon="3.10892">
        <ele>618.5</ele>
        <time>2011-09-25T08:53:30Z</time>
      </trkpt>
      <trkpt lat="45.71145" lon="3.10904">
        <ele>616.6</ele>
        <time>2011-09-25T08:53:33Z</time>
      </trkpt>
      <trkpt lat="45.71121" lon="3.10943">
        <ele>614.7</ele>
        <time>2011-09-25T08:53:35Z</time>
      </trkpt>
      <trkpt lat="45.71109" lon="3.10952">
        <ele>612.8</ele>
        <time>2011-09-25T08:53:37Z</time>
      </trkpt>
      <trkpt lat="45.71098" lon="3.10956">
        <ele>611.6</ele>
        <time>2011-09-25T08:53:39Z</time>
      </trkpt>
      <trkpt lat="45.71086" lon="3.10961">
        <ele>610.5</ele>
        <time>2011-09-25T08:53:41Z</time>
      </trkpt>
      <trkpt lat="45.71076" lon="3.10965">
        <ele>610.4</ele>
        <time>2011-09-25T08:53:43Z</time>
      </trkpt>
      <trkpt lat="45.71064" lon="3.1097">
        <ele>610.3</ele>
        <time>2011-09-25T08:53:45Z</time>
      </trkpt>
      <trkpt lat="45.71054" lon="3.10975">
        <ele>609.9</ele>
        <time>2011-09-25T08:53:47Z</time>
      </trkpt>
      <trkpt lat="45.71042" lon="3.10982">
        <ele>609.5</ele>
        <time>2011-09-25T08:53:49Z</time>
      </trkpt>
      <trkpt lat="45.7103" lon="3.10987">
        <ele>609.2</ele>
        <time>2011-09-25T08:53:51Z</time>
      </trkpt>
      <trkpt lat="45.71018" lon="3.10992">
        <ele>609.3</ele>
        <time>2011-09-25T08:53:53Z</time>
      </trkpt>
      <trkpt lat="45.71007" lon="3.10996">
        <ele>610.5</ele>
        <time>2011-09-25T08:53:55Z</time>
      </trkpt>
      <trkpt lat="45.70995" lon="3.11002">
        <ele>611.6</ele>
        <time>2011-09-25T08:53:57Z</time>
      </trkpt>
      <trkpt lat="45.70984" lon="3.11007">
        <ele>612.8</ele>
        <time>2011-09-25T08:53:59Z</time>
      </trkpt>
      <trkpt lat="45.70973" lon="3.11014">
        <ele>612.1</ele>
        <time>2011-09-25T08:54:01Z</time>
      </trkpt>
      <trkpt lat="45.70963" lon="3.11021">
        <ele>611.4</ele>
        <time>2011-09-25T08:54:03Z</time>
      </trkpt>
      <trkpt lat="45.70952" lon="3.11028">
        <ele>610.6</ele>
        <time>2011-09-25T08:54:05Z</time>
      </trkpt>
      <trkpt lat="45.70941" lon="3.11035">
        <ele>609.9</ele>
        <time>2011-09-25T08:54:07Z</time>
      </trkpt>
      <trkpt lat="45.70928" lon="3.11042">
        <ele>609.6</ele>
        <time>2011-09-25T08:54:09Z</time>
      </trkpt>
      <trkpt lat="45.70916" lon="3.11047">
        <ele>609.4</ele>
        <time>2011-09-25T08:54:11Z</time>
      </trkpt>
      <trkpt lat="45.70905" lon="3.11051">
        <ele>609.1</ele>
        <time>2011-09-25T08:54:13Z</time>
      </trkpt>
      <trkpt lat="45.70895" lon="3.11053">
        <ele>608.4</ele>
        <time>2011-09-25T08:54:15Z</time>
      </trkpt>
      <trkpt lat="45.70885" lon="3.11058">
        <ele>607.6</ele>
        <time>2011-09-25T08:54:17Z</time>
      </trkpt>
      <trkpt lat="45.70877" lon="3.11062">
        <ele>606.9</ele>
        <time>2011-09-25T08:54:20Z</time>
      </trkpt>
      <trkpt lat="45.70867" lon="3.11068">
        <ele>606.2</ele>
        <time>2011-09-25T08:54:22Z</time>
      </trkpt>
      <trkpt lat="45.70857" lon="3.11075">
        <ele>606.6</ele>
        <time>2011-09-25T08:54:23Z</time>
      </trkpt>
      <trkpt lat="45.70846" lon="3.11082">
        <ele>608</ele>
        <time>2011-09-25T08:54:28Z</time>
      </trkpt>
      <trkpt lat="45.70835" lon="3.11089">
        <ele>608.6</ele>
        <time>2011-09-25T08:54:30Z</time>
      </trkpt>
      <trkpt lat="45.70822" lon="3.11096">
        <ele>609.3</ele>
        <time>2011-09-25T08:54:32Z</time>
      </trkpt>
      <trkpt lat="45.70807" lon="3.11105">
        <ele>609.5</ele>
        <time>2011-09-25T08:54:35Z</time>
      </trkpt>
      <trkpt lat="45.70794" lon="3.11113">
        <ele>609.6</ele>
        <time>2011-09-25T08:54:37Z</time>
      </trkpt>
      <trkpt lat="45.70781" lon="3.11124">
        <ele>609.1</ele>
        <time>2011-09-25T08:54:39Z</time>
      </trkpt>
      <trkpt lat="45.70771" lon="3.11139">
        <ele>608.5</ele>
        <time>2011-09-25T08:54:40Z</time>
      </trkpt>
      <trkpt lat="45.70762" lon="3.11154">
        <ele>609.5</ele>
        <time>2011-09-25T08:54:43Z</time>
      </trkpt>
      <trkpt lat="45.70755" lon="3.1117">
        <ele>610.5</ele>
        <time>2011-09-25T08:54:47Z</time>
      </trkpt>
      <trkpt lat="45.70746" lon="3.11182">
        <ele>611.5</ele>
        <time>2011-09-25T08:54:47Z</time>
      </trkpt>
      <trkpt lat="45.70722" lon="3.1122">
        <ele>612.5</ele>
        <time>2011-09-25T08:54:49Z</time>
      </trkpt>
      <trkpt lat="45.70715" lon="3.1123">
        <ele>612.6</ele>
        <time>2011-09-25T08:54:51Z</time>
      </trkpt>
      <trkpt lat="45.70708" lon="3.11239">
        <ele>613.5</ele>
        <time>2011-09-25T08:54:53Z</time>
      </trkpt>
      <trkpt lat="45.70701" lon="3.11248">
        <ele>613.1</ele>
        <time>2011-09-25T08:54:55Z</time>
      </trkpt>
      <trkpt lat="45.70693" lon="3.11258">
        <ele>612.7</ele>
        <time>2011-09-25T08:54:57Z</time>
      </trkpt>
      <trkpt lat="45.70686" lon="3.11266">
        <ele>612.4</ele>
        <time>2011-09-25T08:54:59Z</time>
      </trkpt>
      <trkpt lat="45.7068" lon="3.11276">
        <ele>612.7</ele>
        <time>2011-09-25T08:55:01Z</time>
      </trkpt>
      <trkpt lat="45.70672" lon="3.11286">
        <ele>613.1</ele>
        <time>2011-09-25T08:55:03Z</time>
      </trkpt>
      <trkpt lat="45.70665" lon="3.11297">
        <ele>612.2</ele>
        <time>2011-09-25T08:55:05Z</time>
      </trkpt>
      <trkpt lat="45.70658" lon="3.11308">
        <ele>611.3</ele>
        <time>2011-09-25T08:55:07Z</time>
      </trkpt>
      <trkpt lat="45.70651" lon="3.11319">
        <ele>610.4</ele>
        <time>2011-09-25T08:55:09Z</time>
      </trkpt>
      <trkpt lat="45.70641" lon="3.11325">
        <ele>609.5</ele>
        <time>2011-09-25T08:55:11Z</time>
      </trkpt>
      <trkpt lat="45.70629" lon="3.11331">
        <ele>608.5</ele>
        <time>2011-09-25T08:55:13Z</time>
      </trkpt>
      <trkpt lat="45.70621" lon="3.11333">
        <ele>607.6</ele>
        <time>2011-09-25T08:55:14Z</time>
      </trkpt>
      <trkpt lat="45.70606" lon="3.11328">
        <ele>607.9</ele>
        <time>2011-09-25T08:55:16Z</time>
      </trkpt>
      <trkpt lat="45.70592" lon="3.11333">
        <ele>608.1</ele>
        <time>2011-09-25T08:55:18Z</time>
      </trkpt>
      <trkpt lat="45.70577" lon="3.11339">
        <ele>608.3</ele>
        <time>2011-09-25T08:55:20Z</time>
      </trkpt>
      <trkpt lat="45.70566" lon="3.1134">
        <ele>608.5</ele>
        <time>2011-09-25T08:55:22Z</time>
      </trkpt>
      <trkpt lat="45.70558" lon="3.11343">
        <ele>608.6</ele>
        <time>2011-09-25T08:55:22Z</time>
      </trkpt>
      <trkpt lat="45.70546" lon="3.11341">
        <ele>608.5</ele>
        <time>2011-09-25T08:55:24Z</time>
      </trkpt>
      <trkpt lat="45.70535" lon="3.1134">
        <ele>608.5</ele>
        <time>2011-09-25T08:55:26Z</time>
      </trkpt>
      <trkpt lat="45.70522" lon="3.11339">
        <ele>608.4</ele>
        <time>2011-09-25T08:55:28Z</time>
      </trkpt>
      <trkpt lat="45.70514" lon="3.11338">
        <ele>605.7</ele>
        <time>2011-09-25T08:55:29Z</time>
      </trkpt>
      <trkpt lat="45.70506" lon="3.11336">
        <ele>603.1</ele>
        <time>2011-09-25T08:55:30Z</time>
      </trkpt>
      <trkpt lat="45.70497" lon="3.11331">
        <ele>602.8</ele>
        <time>2011-09-25T08:55:31Z</time>
      </trkpt>
      <trkpt lat="45.70489" lon="3.11327">
        <ele>602.5</ele>
        <time>2011-09-25T08:55:32Z</time>
      </trkpt>
      <trkpt lat="45.70476" lon="3.11314">
        <ele>602.4</ele>
        <time>2011-09-25T08:55:34Z</time>
      </trkpt>
      <trkpt lat="45.70463" lon="3.11303">
        <ele>602.2</ele>
        <time>2011-09-25T08:55:36Z</time>
      </trkpt>
      <trkpt lat="45.70456" lon="3.11296">
        <ele>602</ele>
        <time>2011-09-25T08:55:38Z</time>
      </trkpt>
      <trkpt lat="45.70443" lon="3.11284">
        <ele>601.8</ele>
        <time>2011-09-25T08:55:39Z</time>
      </trkpt>
      <trkpt lat="45.70431" lon="3.11272">
        <ele>599.7</ele>
        <time>2011-09-25T08:55:41Z</time>
      </trkpt>
      <trkpt lat="45.70422" lon="3.1127">
        <ele>597.6</ele>
        <time>2011-09-25T08:55:43Z</time>
      </trkpt>
      <trkpt lat="45.70409" lon="3.11261">
        <ele>595.5</ele>
        <time>2011-09-25T08:55:44Z</time>
      </trkpt>
      <trkpt lat="45.70398" lon="3.11259">
        <ele>596</ele>
        <time>2011-09-25T08:55:45Z</time>
      </trkpt>
      <trkpt lat="45.70388" lon="3.11255">
        <ele>596.5</ele>
        <time>2011-09-25T08:55:46Z</time>
      </trkpt>
      <trkpt lat="45.7038" lon="3.11253">
        <ele>594.5</ele>
        <time>2011-09-25T08:55:47Z</time>
      </trkpt>
      <trkpt lat="45.70372" lon="3.11255">
        <ele>592.6</ele>
        <time>2011-09-25T08:55:48Z</time>
      </trkpt>
      <trkpt lat="45.70363" lon="3.11255">
        <ele>590.7</ele>
        <time>2011-09-25T08:55:49Z</time>
      </trkpt>
      <trkpt lat="45.70354" lon="3.11254">
        <ele>588.8</ele>
        <time>2011-09-25T08:55:50Z</time>
      </trkpt>
      <trkpt lat="45.70338" lon="3.11252">
        <ele>585.5</ele>
        <time>2011-09-25T08:55:52Z</time>
      </trkpt>
      <trkpt lat="45.7033" lon="3.11253">
        <ele>582.3</ele>
        <time>2011-09-25T08:55:53Z</time>
      </trkpt>
      <trkpt lat="45.7032" lon="3.11255">
        <ele>580.9</ele>
        <time>2011-09-25T08:55:55Z</time>
      </trkpt>
      <trkpt lat="45.70306" lon="3.11262">
        <ele>579.5</ele>
        <time>2011-09-25T08:55:56Z</time>
      </trkpt>
      <trkpt lat="45.70293" lon="3.11269">
        <ele>578.2</ele>
        <time>2011-09-25T08:55:58Z</time>
      </trkpt>
      <trkpt lat="45.70271" lon="3.11267">
        <ele>576.8</ele>
        <time>2011-09-25T08:56:01Z</time>
      </trkpt>
      <trkpt lat="45.70263" lon="3.11264">
        <ele>575.7</ele>
        <time>2011-09-25T08:56:02Z</time>
      </trkpt>
      <trkpt lat="45.7025" lon="3.11255">
        <ele>574.6</ele>
        <time>2011-09-25T08:56:03Z</time>
      </trkpt>
      <trkpt lat="45.70236" lon="3.11246">
        <ele>573.5</ele>
        <time>2011-09-25T08:56:05Z</time>
      </trkpt>
      <trkpt lat="45.70228" lon="3.11231">
        <ele>572.5</ele>
        <time>2011-09-25T08:56:07Z</time>
      </trkpt>
      <trkpt lat="45.70222" lon="3.11215">
        <ele>571.4</ele>
        <time>2011-09-25T08:56:09Z</time>
      </trkpt>
      <trkpt lat="45.70219" lon="3.11201">
        <ele>570.7</ele>
        <time>2011-09-25T08:56:10Z</time>
      </trkpt>
      <trkpt lat="45.70217" lon="3.11183">
        <ele>570.1</ele>
        <time>2011-09-25T08:56:12Z</time>
      </trkpt>
      <trkpt lat="45.7022" lon="3.11164">
        <ele>569.5</ele>
        <time>2011-09-25T08:56:15Z</time>
      </trkpt>
      <trkpt lat="45.70228" lon="3.11153">
        <ele>568.8</ele>
        <time>2011-09-25T08:56:16Z</time>
      </trkpt>
      <trkpt lat="45.70232" lon="3.11143">
        <ele>567.5</ele>
        <time>2011-09-25T08:56:17Z</time>
      </trkpt>
      <trkpt lat="45.70243" lon="3.11125">
        <ele>566.3</ele>
        <time>2011-09-25T08:56:19Z</time>
      </trkpt>
      <trkpt lat="45.70252" lon="3.11108">
        <ele>564.7</ele>
        <time>2011-09-25T08:56:21Z</time>
      </trkpt>
      <trkpt lat="45.70255" lon="3.11086">
        <ele>563.2</ele>
        <time>2011-09-25T08:56:23Z</time>
      </trkpt>
      <trkpt lat="45.70257" lon="3.11064">
        <ele>561.6</ele>
        <time>2011-09-25T08:56:25Z</time>
      </trkpt>
      <trkpt lat="45.70255" lon="3.11042">
        <ele>560.1</ele>
        <time>2011-09-25T08:56:27Z</time>
      </trkpt>
      <trkpt lat="45.70253" lon="3.11024">
        <ele>558.5</ele>
        <time>2011-09-25T08:56:28Z</time>
      </trkpt>
      <trkpt lat="45.70252" lon="3.11009">
        <ele>556.5</ele>
        <time>2011-09-25T08:56:29Z</time>
      </trkpt>
      <trkpt lat="45.70251" lon="3.10997">
        <ele>554.4</ele>
        <time>2011-09-25T08:56:30Z</time>
      </trkpt>
      <trkpt lat="45.70244" lon="3.10981">
        <ele>552.3</ele>
        <time>2011-09-25T08:56:32Z</time>
      </trkpt>
      <trkpt lat="45.70234" lon="3.10974">
        <ele>550.2</ele>
        <time>2011-09-25T08:56:34Z</time>
      </trkpt>
      <trkpt lat="45.70219" lon="3.10974">
        <ele>550.2</ele>
        <time>2011-09-25T08:56:36Z</time>
      </trkpt>
      <trkpt lat="45.70205" lon="3.10978">
        <ele>550.2</ele>
        <time>2011-09-25T08:56:38Z</time>
      </trkpt>
      <trkpt lat="45.702" lon="3.10989">
        <ele>550.8</ele>
        <time>2011-09-25T08:56:40Z</time>
      </trkpt>
      <trkpt lat="45.70203" lon="3.11003">
        <ele>551.5</ele>
        <time>2011-09-25T08:56:42Z</time>
      </trkpt>
      <trkpt lat="45.70208" lon="3.11014">
        <ele>552.1</ele>
        <time>2011-09-25T08:56:44Z</time>
      </trkpt>
      <trkpt lat="45.70211" lon="3.11028">
        <ele>552.7</ele>
        <time>2011-09-25T08:56:46Z</time>
      </trkpt>
      <trkpt lat="45.70215" lon="3.11041">
        <ele>553.4</ele>
        <time>2011-09-25T08:56:48Z</time>
      </trkpt>
      <trkpt lat="45.70218" lon="3.11056">
        <ele>553</ele>
        <time>2011-09-25T08:56:50Z</time>
      </trkpt>
      <trkpt lat="45.7022" lon="3.1107">
        <ele>553</ele>
        <time>2011-09-25T08:56:52Z</time>
      </trkpt>
      <trkpt lat="45.70221" lon="3.11083">
        <ele>553</ele>
        <time>2011-09-25T08:56:54Z</time>
      </trkpt>
      <trkpt lat="45.70219" lon="3.11097">
        <ele>553</ele>
        <time>2011-09-25T08:56:56Z</time>
      </trkpt>
      <trkpt lat="45.70211" lon="3.11107">
        <ele>551.5</ele>
        <time>2011-09-25T08:56:58Z</time>
      </trkpt>
      <trkpt lat="45.70201" lon="3.11118">
        <ele>550.1</ele>
        <time>2011-09-25T08:57:00Z</time>
      </trkpt>
      <trkpt lat="45.70193" lon="3.1113">
        <ele>548</ele>
        <time>2011-09-25T08:57:02Z</time>
      </trkpt>
      <trkpt lat="45.70183" lon="3.11139">
        <ele>545.9</ele>
        <time>2011-09-25T08:57:04Z</time>
      </trkpt>
      <trkpt lat="45.70172" lon="3.11148">
        <ele>544.1</ele>
        <time>2011-09-25T08:57:06Z</time>
      </trkpt>
      <trkpt lat="45.70163" lon="3.11156">
        <ele>542.3</ele>
        <time>2011-09-25T08:57:08Z</time>
      </trkpt>
      <trkpt lat="45.70155" lon="3.11168">
        <ele>540.5</ele>
        <time>2011-09-25T08:57:10Z</time>
      </trkpt>
      <trkpt lat="45.70148" lon="3.11185">
        <ele>541.1</ele>
        <time>2011-09-25T08:57:12Z</time>
      </trkpt>
      <trkpt lat="45.70144" lon="3.11203">
        <ele>541.4</ele>
        <time>2011-09-25T08:57:14Z</time>
      </trkpt>
      <trkpt lat="45.70141" lon="3.1122">
        <ele>539</ele>
        <time>2011-09-25T08:57:16Z</time>
      </trkpt>
      <trkpt lat="45.70139" lon="3.11236">
        <ele>536.6</ele>
        <time>2011-09-25T08:57:18Z</time>
      </trkpt>
      <trkpt lat="45.70133" lon="3.1125">
        <ele>534.3</ele>
        <time>2011-09-25T08:57:21Z</time>
      </trkpt>
      <trkpt lat="45.70131" lon="3.11266">
        <ele>531.9</ele>
        <time>2011-09-25T08:57:23Z</time>
      </trkpt>
      <trkpt lat="45.70129" lon="3.11278">
        <ele>529.1</ele>
        <time>2011-09-25T08:57:26Z</time>
      </trkpt>
      <trkpt lat="45.70122" lon="3.11284">
        <ele>526.3</ele>
        <time>2011-09-25T08:57:30Z</time>
      </trkpt>
      <trkpt lat="45.7011" lon="3.11287">
        <ele>523.2</ele>
        <time>2011-09-25T08:57:33Z</time>
      </trkpt>
      <trkpt lat="45.70099" lon="3.11288">
        <ele>518.6</ele>
        <time>2011-09-25T08:57:33Z</time>
      </trkpt>
      <trkpt lat="45.70088" lon="3.11292">
        <ele>514.1</ele>
        <time>2011-09-25T08:57:35Z</time>
      </trkpt>
      <trkpt lat="45.70078" lon="3.11299">
        <ele>509.5</ele>
        <time>2011-09-25T08:57:37Z</time>
      </trkpt>
      <trkpt lat="45.70066" lon="3.1131">
        <ele>505</ele>
        <time>2011-09-25T08:57:39Z</time>
      </trkpt>
      <trkpt lat="45.70053" lon="3.11322">
        <ele>503.1</ele>
        <time>2011-09-25T08:57:41Z</time>
      </trkpt>
      <trkpt lat="45.70043" lon="3.11335">
        <ele>500.7</ele>
        <time>2011-09-25T08:57:44Z</time>
      </trkpt>
      <trkpt lat="45.70036" lon="3.11345">
        <ele>498.4</ele>
        <time>2011-09-25T08:57:46Z</time>
      </trkpt>
      <trkpt lat="45.70029" lon="3.11354">
        <ele>496</ele>
        <time>2011-09-25T08:57:48Z</time>
      </trkpt>
      <trkpt lat="45.70022" lon="3.1136">
        <ele>494.1</ele>
        <time>2011-09-25T08:57:51Z</time>
      </trkpt>
      <trkpt lat="45.70016" lon="3.11369">
        <ele>491.5</ele>
        <time>2011-09-25T08:57:52Z</time>
      </trkpt>
      <trkpt lat="45.70008" lon="3.11378">
        <ele>488.8</ele>
        <time>2011-09-25T08:57:53Z</time>
      </trkpt>
      <trkpt lat="45.69997" lon="3.11388">
        <ele>487.6</ele>
        <time>2011-09-25T08:57:55Z</time>
      </trkpt>
      <trkpt lat="45.69985" lon="3.11396">
        <ele>486.5</ele>
        <time>2011-09-25T08:57:57Z</time>
      </trkpt>
      <trkpt lat="45.69972" lon="3.11408">
        <ele>486</ele>
        <time>2011-09-25T08:57:58Z</time>
      </trkpt>
      <trkpt lat="45.69961" lon="3.11417">
        <ele>485.5</ele>
        <time>2011-09-25T08:58:00Z</time>
      </trkpt>
      <trkpt lat="45.69953" lon="3.11419">
        <ele>485.1</ele>
        <time>2011-09-25T08:58:02Z</time>
      </trkpt>
      <trkpt lat="45.69956" lon="3.11433">
        <ele>483.8</ele>
        <time>2011-09-25T08:58:12Z</time>
      </trkpt>
      <trkpt lat="45.69962" lon="3.11441">
        <ele>482.5</ele>
        <time>2011-09-25T08:58:14Z</time>
      </trkpt>
      <trkpt lat="45.69971" lon="3.11451">
        <ele>481.3</ele>
        <time>2011-09-25T08:58:16Z</time>
      </trkpt>
      <trkpt lat="45.69981" lon="3.1146">
        <ele>480</ele>
        <time>2011-09-25T08:58:18Z</time>
      </trkpt>
      <trkpt lat="45.69994" lon="3.1147">
        <ele>479.5</ele>
        <time>2011-09-25T08:58:20Z</time>
      </trkpt>
      <trkpt lat="45.70007" lon="3.11483">
        <ele>479.5</ele>
        <time>2011-09-25T08:58:22Z</time>
      </trkpt>
      <trkpt lat="45.7002" lon="3.11496">
        <ele>479.5</ele>
        <time>2011-09-25T08:58:24Z</time>
      </trkpt>
      <trkpt lat="45.70027" lon="3.11503">
        <ele>478</ele>
        <time>2011-09-25T08:58:25Z</time>
      </trkpt>
      <trkpt lat="45.70035" lon="3.1151">
        <ele>475.8</ele>
        <time>2011-09-25T08:58:26Z</time>
      </trkpt>
      <trkpt lat="45.70045" lon="3.11523">
        <ele>473.6</ele>
        <time>2011-09-25T08:58:28Z</time>
      </trkpt>
      <trkpt lat="45.70051" lon="3.11535">
        <ele>471.5</ele>
        <time>2011-09-25T08:58:30Z</time>
      </trkpt>
      <trkpt lat="45.7005" lon="3.1155">
        <ele>470.5</ele>
        <time>2011-09-25T08:58:32Z</time>
      </trkpt>
      <trkpt lat="45.70046" lon="3.11569">
        <ele>469.6</ele>
        <time>2011-09-25T08:58:34Z</time>
      </trkpt>
      <trkpt lat="45.70044" lon="3.1158">
        <ele>468.7</ele>
        <time>2011-09-25T08:58:35Z</time>
      </trkpt>
      <trkpt lat="45.70041" lon="3.11601">
        <ele>467.8</ele>
        <time>2011-09-25T08:58:37Z</time>
      </trkpt>
      <trkpt lat="45.70038" lon="3.11614">
        <ele>466.4</ele>
        <time>2011-09-25T08:58:39Z</time>
      </trkpt>
      <trkpt lat="45.70031" lon="3.11625">
        <ele>464.4</ele>
        <time>2011-09-25T08:58:42Z</time>
      </trkpt>
      <trkpt lat="45.7002" lon="3.11629">
        <ele>462</ele>
        <time>2011-09-25T08:58:43Z</time>
      </trkpt>
      <trkpt lat="45.70008" lon="3.11631">
        <ele>461.1</ele>
        <time>2011-09-25T08:58:45Z</time>
      </trkpt>
      <trkpt lat="45.69995" lon="3.11633">
        <ele>460.2</ele>
        <time>2011-09-25T08:58:47Z</time>
      </trkpt>
      <trkpt lat="45.69981" lon="3.11636">
        <ele>459.3</ele>
        <time>2011-09-25T08:58:49Z</time>
      </trkpt>
      <trkpt lat="45.69967" lon="3.11638">
        <ele>458.4</ele>
        <time>2011-09-25T08:58:51Z</time>
      </trkpt>
      <trkpt lat="45.69954" lon="3.11641">
        <ele>457.5</ele>
        <time>2011-09-25T08:58:53Z</time>
      </trkpt>
      <trkpt lat="45.69941" lon="3.11645">
        <ele>456.5</ele>
        <time>2011-09-25T08:58:55Z</time>
      </trkpt>
      <trkpt lat="45.69926" lon="3.11651">
        <ele>455.5</ele>
        <time>2011-09-25T08:58:57Z</time>
      </trkpt>
      <trkpt lat="45.69912" lon="3.11653">
        <ele>454.5</ele>
        <time>2011-09-25T08:58:59Z</time>
      </trkpt>
      <trkpt lat="45.699" lon="3.11654">
        <ele>454</ele>
        <time>2011-09-25T08:59:01Z</time>
      </trkpt>
      <trkpt lat="45.69886" lon="3.11655">
        <ele>453.5</ele>
        <time>2011-09-25T08:59:03Z</time>
      </trkpt>
      <trkpt lat="45.69871" lon="3.11659">
        <ele>453.5</ele>
        <time>2011-09-25T08:59:05Z</time>
      </trkpt>
      <trkpt lat="45.69858" lon="3.11663">
        <ele>452.8</ele>
        <time>2011-09-25T08:59:07Z</time>
      </trkpt>
      <trkpt lat="45.69845" lon="3.11667">
        <ele>452.2</ele>
        <time>2011-09-25T08:59:09Z</time>
      </trkpt>
      <trkpt lat="45.69837" lon="3.1167">
        <ele>451.5</ele>
        <time>2011-09-25T08:59:11Z</time>
      </trkpt>
      <trkpt lat="45.69832" lon="3.11686">
        <ele>450.9</ele>
        <time>2011-09-25T08:59:14Z</time>
      </trkpt>
      <trkpt lat="45.69834" lon="3.11703">
        <ele>450.3</ele>
        <time>2011-09-25T08:59:16Z</time>
      </trkpt>
      <trkpt lat="45.69836" lon="3.11723">
        <ele>449.7</ele>
        <time>2011-09-25T08:59:18Z</time>
      </trkpt>
      <trkpt lat="45.69837" lon="3.11734">
        <ele>448.9</ele>
        <time>2011-09-25T08:59:19Z</time>
      </trkpt>
      <trkpt lat="45.69838" lon="3.11746">
        <ele>448.1</ele>
        <time>2011-09-25T08:59:20Z</time>
      </trkpt>
      <trkpt lat="45.69839" lon="3.11758">
        <ele>447.3</ele>
        <time>2011-09-25T08:59:21Z</time>
      </trkpt>
      <trkpt lat="45.6984" lon="3.1177">
        <ele>446.5</ele>
        <time>2011-09-25T08:59:22Z</time>
      </trkpt>
      <trkpt lat="45.6984" lon="3.11782">
        <ele>445.6</ele>
        <time>2011-09-25T08:59:23Z</time>
      </trkpt>
      <trkpt lat="45.69838" lon="3.11804">
        <ele>445.4</ele>
        <time>2011-09-25T08:59:25Z</time>
      </trkpt>
      <trkpt lat="45.69835" lon="3.11827">
        <ele>445.1</ele>
        <time>2011-09-25T08:59:27Z</time>
      </trkpt>
      <trkpt lat="45.6983" lon="3.11847">
        <ele>444.8</ele>
        <time>2011-09-25T08:59:29Z</time>
      </trkpt>
      <trkpt lat="45.69824" lon="3.11863">
        <ele>444</ele>
        <time>2011-09-25T08:59:31Z</time>
      </trkpt>
      <trkpt lat="45.69818" lon="3.11878">
        <ele>443.2</ele>
        <time>2011-09-25T08:59:34Z</time>
      </trkpt>
      <trkpt lat="45.69814" lon="3.11891">
        <ele>442.4</ele>
        <time>2011-09-25T08:59:37Z</time>
      </trkpt>
      <trkpt lat="45.69808" lon="3.11902">
        <ele>441.8</ele>
        <time>2011-09-25T08:59:39Z</time>
      </trkpt>
      <trkpt lat="45.69798" lon="3.11904">
        <ele>441.5</ele>
        <time>2011-09-25T08:59:41Z</time>
      </trkpt>
      <trkpt lat="45.69787" lon="3.11904">
        <ele>441.1</ele>
        <time>2011-09-25T08:59:44Z</time>
      </trkpt>
      <trkpt lat="45.69774" lon="3.11903">
        <ele>440.7</ele>
        <time>2011-09-25T08:59:46Z</time>
      </trkpt>
      <trkpt lat="45.69732" lon="3.11901">
        <ele>440.4</ele>
        <time>2011-09-25T08:59:49Z</time>
      </trkpt>
      <trkpt lat="45.69719" lon="3.11901">
        <ele>440</ele>
        <time>2011-09-25T08:59:51Z</time>
      </trkpt>
      <trkpt lat="45.69706" lon="3.11898">
        <ele>439.6</ele>
        <time>2011-09-25T08:59:54Z</time>
      </trkpt>
      <trkpt lat="45.69694" lon="3.11896">
        <ele>439.3</ele>
        <time>2011-09-25T08:59:55Z</time>
      </trkpt>
      <trkpt lat="45.69683" lon="3.11897">
        <ele>439.5</ele>
        <time>2011-09-25T08:59:56Z</time>
      </trkpt>
      <trkpt lat="45.69672" lon="3.11901">
        <ele>439.6</ele>
        <time>2011-09-25T08:59:59Z</time>
      </trkpt>
      <trkpt lat="45.69662" lon="3.11906">
        <ele>440.3</ele>
        <time>2011-09-25T09:00:00Z</time>
      </trkpt>
      <trkpt lat="45.69653" lon="3.11908">
        <ele>440.9</ele>
        <time>2011-09-25T09:00:04Z</time>
      </trkpt>
      <trkpt lat="45.69644" lon="3.11914">
        <ele>441.4</ele>
        <time>2011-09-25T09:00:07Z</time>
      </trkpt>
      <trkpt lat="45.69637" lon="3.11922">
        <ele>441.8</ele>
        <time>2011-09-25T09:00:09Z</time>
      </trkpt>
      <trkpt lat="45.6963" lon="3.11926">
        <ele>442.3</ele>
        <time>2011-09-25T09:00:13Z</time>
      </trkpt>
      <trkpt lat="45.6962" lon="3.11927">
        <ele>442.7</ele>
        <time>2011-09-25T09:00:18Z</time>
      </trkpt>
      <trkpt lat="45.69611" lon="3.11927">
        <ele>443.2</ele>
        <time>2011-09-25T09:00:19Z</time>
      </trkpt>
      <trkpt lat="45.69603" lon="3.11935">
        <ele>443.6</ele>
        <time>2011-09-25T09:00:25Z</time>
      </trkpt>
      <trkpt lat="45.69596" lon="3.11943">
        <ele>445.4</ele>
        <time>2011-09-25T09:00:31Z</time>
      </trkpt>
      <trkpt lat="45.69582" lon="3.11947">
        <ele>447.1</ele>
        <time>2011-09-25T09:00:35Z</time>
      </trkpt>
      <trkpt lat="45.69572" lon="3.11953">
        <ele>448.8</ele>
        <time>2011-09-25T09:00:37Z</time>
      </trkpt>
      <trkpt lat="45.69563" lon="3.11951">
        <ele>450.1</ele>
        <time>2011-09-25T09:00:44Z</time>
      </trkpt>
      <trkpt lat="45.69555" lon="3.11954">
        <ele>451.4</ele>
        <time>2011-09-25T09:00:49Z</time>
      </trkpt>
      <trkpt lat="45.69545" lon="3.11952">
        <ele>452.6</ele>
        <time>2011-09-25T09:00:58Z</time>
      </trkpt>
      <trkpt lat="45.69535" lon="3.11952">
        <ele>453.9</ele>
        <time>2011-09-25T09:01:02Z</time>
      </trkpt>
      <trkpt lat="45.69527" lon="3.11951">
        <ele>455.2</ele>
        <time>2011-09-25T09:01:08Z</time>
      </trkpt>
      <trkpt lat="45.69517" lon="3.11953">
        <ele>456.3</ele>
        <time>2011-09-25T09:01:13Z</time>
      </trkpt>
      <trkpt lat="45.69508" lon="3.11953">
        <ele>457.4</ele>
        <time>2011-09-25T09:01:19Z</time>
      </trkpt>
      <trkpt lat="45.695" lon="3.11956">
        <ele>459.8</ele>
        <time>2011-09-25T09:01:27Z</time>
      </trkpt>
      <trkpt lat="45.69492" lon="3.11959">
        <ele>461</ele>
        <time>2011-09-25T09:01:32Z</time>
      </trkpt>
      <trkpt lat="45.69484" lon="3.11962">
        <ele>462.2</ele>
        <time>2011-09-25T09:01:38Z</time>
      </trkpt>
      <trkpt lat="45.69475" lon="3.11964">
        <ele>463.4</ele>
        <time>2011-09-25T09:01:44Z</time>
      </trkpt>
      <trkpt lat="45.69465" lon="3.11968">
        <ele>464.5</ele>
        <time>2011-09-25T09:01:50Z</time>
      </trkpt>
      <trkpt lat="45.69457" lon="3.11968">
        <ele>465.7</ele>
        <time>2011-09-25T09:01:56Z</time>
      </trkpt>
      <trkpt lat="45.69448" lon="3.1197">
        <ele>466.9</ele>
        <time>2011-09-25T09:02:02Z</time>
      </trkpt>
      <trkpt lat="45.69438" lon="3.11975">
        <ele>468.1</ele>
        <time>2011-09-25T09:02:08Z</time>
      </trkpt>
      <trkpt lat="45.69429" lon="3.11975">
        <ele>469.3</ele>
        <time>2011-09-25T09:02:13Z</time>
      </trkpt>
      <trkpt lat="45.69421" lon="3.11977">
        <ele>471.4</ele>
        <time>2011-09-25T09:02:18Z</time>
      </trkpt>
      <trkpt lat="45.69413" lon="3.1198">
        <ele>473.5</ele>
        <time>2011-09-25T09:02:24Z</time>
      </trkpt>
      <trkpt lat="45.69404" lon="3.11982">
        <ele>474.2</ele>
        <time>2011-09-25T09:02:30Z</time>
      </trkpt>
      <trkpt lat="45.69396" lon="3.11983">
        <ele>474.9</ele>
        <time>2011-09-25T09:02:36Z</time>
      </trkpt>
      <trkpt lat="45.69388" lon="3.11983">
        <ele>475.6</ele>
        <time>2011-09-25T09:02:40Z</time>
      </trkpt>
      <trkpt lat="45.69379" lon="3.11983">
        <ele>476.4</ele>
        <time>2011-09-25T09:02:46Z</time>
      </trkpt>
      <trkpt lat="45.69371" lon="3.11984">
        <ele>477.1</ele>
        <time>2011-09-25T09:02:51Z</time>
      </trkpt>
      <trkpt lat="45.69362" lon="3.11985">
        <ele>477.8</ele>
        <time>2011-09-25T09:02:56Z</time>
      </trkpt>
      <trkpt lat="45.69353" lon="3.11985">
        <ele>478.5</ele>
        <time>2011-09-25T09:03:02Z</time>
      </trkpt>
      <trkpt lat="45.69345" lon="3.11988">
        <ele>479.3</ele>
        <time>2011-09-25T09:03:07Z</time>
      </trkpt>
      <trkpt lat="45.69336" lon="3.11991">
        <ele>480</ele>
        <time>2011-09-25T09:03:12Z</time>
      </trkpt>
      <trkpt lat="45.69328" lon="3.11995">
        <ele>481.3</ele>
        <time>2011-09-25T09:03:17Z</time>
      </trkpt>
      <trkpt lat="45.6932" lon="3.11999">
        <ele>482.5</ele>
        <time>2011-09-25T09:03:22Z</time>
      </trkpt>
      <trkpt lat="45.69311" lon="3.12001">
        <ele>483.8</ele>
        <time>2011-09-25T09:03:27Z</time>
      </trkpt>
      <trkpt lat="45.69303" lon="3.12001">
        <ele>485.1</ele>
        <time>2011-09-25T09:03:32Z</time>
      </trkpt>
      <trkpt lat="45.69293" lon="3.12003">
        <ele>486.4</ele>
        <time>2011-09-25T09:03:38Z</time>
      </trkpt>
      <trkpt lat="45.69285" lon="3.12004">
        <ele>487.6</ele>
        <time>2011-09-25T09:03:43Z</time>
      </trkpt>
      <trkpt lat="45.69277" lon="3.12001">
        <ele>488.9</ele>
        <time>2011-09-25T09:03:48Z</time>
      </trkpt>
      <trkpt lat="45.69268" lon="3.11999">
        <ele>490.2</ele>
        <time>2011-09-25T09:03:54Z</time>
      </trkpt>
      <trkpt lat="45.69259" lon="3.12">
        <ele>491.5</ele>
        <time>2011-09-25T09:03:59Z</time>
      </trkpt>
      <trkpt lat="45.69251" lon="3.12005">
        <ele>492.7</ele>
        <time>2011-09-25T09:04:04Z</time>
      </trkpt>
      <trkpt lat="45.69245" lon="3.12014">
        <ele>495.5</ele>
        <time>2011-09-25T09:04:09Z</time>
      </trkpt>
      <trkpt lat="45.69238" lon="3.1202">
        <ele>496.9</ele>
        <time>2011-09-25T09:04:14Z</time>
      </trkpt>
      <trkpt lat="45.69231" lon="3.12026">
        <ele>498.4</ele>
        <time>2011-09-25T09:04:19Z</time>
      </trkpt>
      <trkpt lat="45.69223" lon="3.12033">
        <ele>499.5</ele>
        <time>2011-09-25T09:04:24Z</time>
      </trkpt>
      <trkpt lat="45.69215" lon="3.12037">
        <ele>500.7</ele>
        <time>2011-09-25T09:04:29Z</time>
      </trkpt>
      <trkpt lat="45.69206" lon="3.12041">
        <ele>501.9</ele>
        <time>2011-09-25T09:04:34Z</time>
      </trkpt>
      <trkpt lat="45.69198" lon="3.12042">
        <ele>503.1</ele>
        <time>2011-09-25T09:04:40Z</time>
      </trkpt>
      <trkpt lat="45.69189" lon="3.12044">
        <ele>504.3</ele>
        <time>2011-09-25T09:04:45Z</time>
      </trkpt>
      <trkpt lat="45.69182" lon="3.12048">
        <ele>505.5</ele>
        <time>2011-09-25T09:04:51Z</time>
      </trkpt>
      <trkpt lat="45.69173" lon="3.12052">
        <ele>506.6</ele>
        <time>2011-09-25T09:04:55Z</time>
      </trkpt>
      <trkpt lat="45.69165" lon="3.12055">
        <ele>508.8</ele>
        <time>2011-09-25T09:05:01Z</time>
      </trkpt>
      <trkpt lat="45.69156" lon="3.12058">
        <ele>509.5</ele>
        <time>2011-09-25T09:05:06Z</time>
      </trkpt>
      <trkpt lat="45.69147" lon="3.12061">
        <ele>510.3</ele>
        <time>2011-09-25T09:05:11Z</time>
      </trkpt>
      <trkpt lat="45.69139" lon="3.12067">
        <ele>511</ele>
        <time>2011-09-25T09:05:16Z</time>
      </trkpt>
      <trkpt lat="45.6913" lon="3.12071">
        <ele>512</ele>
        <time>2011-09-25T09:05:21Z</time>
      </trkpt>
      <trkpt lat="45.69122" lon="3.12076">
        <ele>513</ele>
        <time>2011-09-25T09:05:26Z</time>
      </trkpt>
      <trkpt lat="45.69113" lon="3.12082">
        <ele>514</ele>
        <time>2011-09-25T09:05:31Z</time>
      </trkpt>
      <trkpt lat="45.69105" lon="3.12089">
        <ele>515</ele>
        <time>2011-09-25T09:05:36Z</time>
      </trkpt>
      <trkpt lat="45.69097" lon="3.12094">
        <ele>516</ele>
        <time>2011-09-25T09:05:40Z</time>
      </trkpt>
      <trkpt lat="45.69089" lon="3.12101">
        <ele>517</ele>
        <time>2011-09-25T09:05:45Z</time>
      </trkpt>
      <trkpt lat="45.69081" lon="3.12106">
        <ele>518.8</ele>
        <time>2011-09-25T09:05:52Z</time>
      </trkpt>
      <trkpt lat="45.69073" lon="3.12113">
        <ele>519.6</ele>
        <time>2011-09-25T09:05:56Z</time>
      </trkpt>
      <trkpt lat="45.69066" lon="3.12122">
        <ele>520.5</ele>
        <time>2011-09-25T09:06:00Z</time>
      </trkpt>
      <trkpt lat="45.69058" lon="3.12128">
        <ele>521.3</ele>
        <time>2011-09-25T09:06:04Z</time>
      </trkpt>
      <trkpt lat="45.6905" lon="3.12133">
        <ele>522.1</ele>
        <time>2011-09-25T09:06:08Z</time>
      </trkpt>
      <trkpt lat="45.69042" lon="3.12136">
        <ele>522.9</ele>
        <time>2011-09-25T09:06:13Z</time>
      </trkpt>
      <trkpt lat="45.69034" lon="3.12142">
        <ele>523.7</ele>
        <time>2011-09-25T09:06:18Z</time>
      </trkpt>
      <trkpt lat="45.69025" lon="3.12148">
        <ele>524.5</ele>
        <time>2011-09-25T09:06:23Z</time>
      </trkpt>
      <trkpt lat="45.69016" lon="3.12154">
        <ele>525.4</ele>
        <time>2011-09-25T09:06:28Z</time>
      </trkpt>
      <trkpt lat="45.69008" lon="3.12161">
        <ele>526.2</ele>
        <time>2011-09-25T09:06:33Z</time>
      </trkpt>
      <trkpt lat="45.69" lon="3.12167">
        <ele>528.2</ele>
        <time>2011-09-25T09:06:37Z</time>
      </trkpt>
      <trkpt lat="45.68992" lon="3.12172">
        <ele>529.4</ele>
        <time>2011-09-25T09:06:42Z</time>
      </trkpt>
      <trkpt lat="45.68985" lon="3.12179">
        <ele>530.5</ele>
        <time>2011-09-25T09:06:46Z</time>
      </trkpt>
      <trkpt lat="45.68977" lon="3.12187">
        <ele>531.7</ele>
        <time>2011-09-25T09:06:51Z</time>
      </trkpt>
      <trkpt lat="45.68969" lon="3.12194">
        <ele>532.9</ele>
        <time>2011-09-25T09:06:56Z</time>
      </trkpt>
      <trkpt lat="45.6896" lon="3.12196">
        <ele>534.1</ele>
        <time>2011-09-25T09:07:01Z</time>
      </trkpt>
      <trkpt lat="45.68952" lon="3.12202">
        <ele>535.3</ele>
        <time>2011-09-25T09:07:06Z</time>
      </trkpt>
      <trkpt lat="45.68943" lon="3.12207">
        <ele>536.5</ele>
        <time>2011-09-25T09:07:12Z</time>
      </trkpt>
      <trkpt lat="45.68936" lon="3.12215">
        <ele>537.6</ele>
        <time>2011-09-25T09:07:16Z</time>
      </trkpt>
      <trkpt lat="45.68931" lon="3.12226">
        <ele>538.8</ele>
        <time>2011-09-25T09:07:20Z</time>
      </trkpt>
      <trkpt lat="45.68925" lon="3.12236">
        <ele>540</ele>
        <time>2011-09-25T09:07:26Z</time>
      </trkpt>
      <trkpt lat="45.68918" lon="3.12245">
        <ele>540</ele>
        <time>2011-09-25T09:07:30Z</time>
      </trkpt>
      <trkpt lat="45.68913" lon="3.12255">
        <ele>540.8</ele>
        <time>2011-09-25T09:07:37Z</time>
      </trkpt>
      <trkpt lat="45.68908" lon="3.12265">
        <ele>541.6</ele>
        <time>2011-09-25T09:07:42Z</time>
      </trkpt>
      <trkpt lat="45.689" lon="3.1227">
        <ele>542.5</ele>
        <time>2011-09-25T09:07:46Z</time>
      </trkpt>
      <trkpt lat="45.68893" lon="3.12276">
        <ele>543.3</ele>
        <time>2011-09-25T09:07:50Z</time>
      </trkpt>
      <trkpt lat="45.68885" lon="3.12276">
        <ele>544.1</ele>
        <time>2011-09-25T09:07:54Z</time>
      </trkpt>
      <trkpt lat="45.68876" lon="3.12279">
        <ele>544.9</ele>
        <time>2011-09-25T09:07:59Z</time>
      </trkpt>
      <trkpt lat="45.68867" lon="3.12283">
        <ele>545.7</ele>
        <time>2011-09-25T09:08:03Z</time>
      </trkpt>
      <trkpt lat="45.68858" lon="3.12282">
        <ele>546.5</ele>
        <time>2011-09-25T09:08:06Z</time>
      </trkpt>
      <trkpt lat="45.68849" lon="3.12283">
        <ele>547.5</ele>
        <time>2011-09-25T09:08:10Z</time>
      </trkpt>
      <trkpt lat="45.68841" lon="3.12284">
        <ele>548.5</ele>
        <time>2011-09-25T09:08:14Z</time>
      </trkpt>
      <trkpt lat="45.68832" lon="3.12285">
        <ele>550.5</ele>
        <time>2011-09-25T09:08:18Z</time>
      </trkpt>
      <trkpt lat="45.68823" lon="3.12288">
        <ele>551.7</ele>
        <time>2011-09-25T09:08:22Z</time>
      </trkpt>
      <trkpt lat="45.68813" lon="3.1229">
        <ele>552.9</ele>
        <time>2011-09-25T09:08:27Z</time>
      </trkpt>
      <trkpt lat="45.68804" lon="3.12293">
        <ele>554.1</ele>
        <time>2011-09-25T09:08:32Z</time>
      </trkpt>
      <trkpt lat="45.68796" lon="3.123">
        <ele>555.3</ele>
        <time>2011-09-25T09:08:37Z</time>
      </trkpt>
      <trkpt lat="45.68788" lon="3.12309">
        <ele>556.5</ele>
        <time>2011-09-25T09:08:41Z</time>
      </trkpt>
      <trkpt lat="45.68782" lon="3.1232">
        <ele>557.7</ele>
        <time>2011-09-25T09:08:45Z</time>
      </trkpt>
      <trkpt lat="45.68778" lon="3.12332">
        <ele>559</ele>
        <time>2011-09-25T09:08:49Z</time>
      </trkpt>
      <trkpt lat="45.68773" lon="3.12344">
        <ele>560.3</ele>
        <time>2011-09-25T09:08:53Z</time>
      </trkpt>
      <trkpt lat="45.68767" lon="3.12356">
        <ele>561.4</ele>
        <time>2011-09-25T09:08:57Z</time>
      </trkpt>
      <trkpt lat="45.68761" lon="3.12368">
        <ele>562.5</ele>
        <time>2011-09-25T09:09:01Z</time>
      </trkpt>
      <trkpt lat="45.68756" lon="3.12378">
        <ele>562.5</ele>
        <time>2011-09-25T09:09:04Z</time>
      </trkpt>
      <trkpt lat="45.68751" lon="3.12391">
        <ele>562.6</ele>
        <time>2011-09-25T09:09:08Z</time>
      </trkpt>
      <trkpt lat="45.68747" lon="3.12404">
        <ele>562.7</ele>
        <time>2011-09-25T09:09:12Z</time>
      </trkpt>
      <trkpt lat="45.68743" lon="3.12418">
        <ele>563</ele>
        <time>2011-09-25T09:09:16Z</time>
      </trkpt>
      <trkpt lat="45.68739" lon="3.12431">
        <ele>563.3</ele>
        <time>2011-09-25T09:09:20Z</time>
      </trkpt>
      <trkpt lat="45.68736" lon="3.12444">
        <ele>563.5</ele>
        <time>2011-09-25T09:09:23Z</time>
      </trkpt>
      <trkpt lat="45.68733" lon="3.12456">
        <ele>563.7</ele>
        <time>2011-09-25T09:09:27Z</time>
      </trkpt>
      <trkpt lat="45.68729" lon="3.12468">
        <ele>565</ele>
        <time>2011-09-25T09:09:32Z</time>
      </trkpt>
      <trkpt lat="45.68726" lon="3.12479">
        <ele>566.3</ele>
        <time>2011-09-25T09:09:36Z</time>
      </trkpt>
      <trkpt lat="45.68722" lon="3.1249">
        <ele>567.5</ele>
        <time>2011-09-25T09:09:40Z</time>
      </trkpt>
      <trkpt lat="45.68718" lon="3.12502">
        <ele>568.8</ele>
        <time>2011-09-25T09:09:43Z</time>
      </trkpt>
      <trkpt lat="45.68713" lon="3.12512">
        <ele>570.1</ele>
        <time>2011-09-25T09:09:47Z</time>
      </trkpt>
      <trkpt lat="45.68704" lon="3.12515">
        <ele>571.4</ele>
        <time>2011-09-25T09:09:52Z</time>
      </trkpt>
      <trkpt lat="45.68696" lon="3.12513">
        <ele>572.6</ele>
        <time>2011-09-25T09:09:58Z</time>
      </trkpt>
      <trkpt lat="45.68687" lon="3.12515">
        <ele>573.7</ele>
        <time>2011-09-25T09:10:03Z</time>
      </trkpt>
      <trkpt lat="45.68679" lon="3.12515">
        <ele>574.8</ele>
        <time>2011-09-25T09:10:08Z</time>
      </trkpt>
      <trkpt lat="45.68669" lon="3.12514">
        <ele>575.7</ele>
        <time>2011-09-25T09:10:13Z</time>
      </trkpt>
      <trkpt lat="45.68659" lon="3.12514">
        <ele>576.6</ele>
        <time>2011-09-25T09:10:18Z</time>
      </trkpt>
      <trkpt lat="45.68652" lon="3.12507">
        <ele>576.5</ele>
        <time>2011-09-25T09:10:21Z</time>
      </trkpt>
      <trkpt lat="45.68649" lon="3.12494">
        <ele>576.9</ele>
        <time>2011-09-25T09:10:22Z</time>
      </trkpt>
      <trkpt lat="45.68649" lon="3.12481">
        <ele>577.4</ele>
        <time>2011-09-25T09:10:25Z</time>
      </trkpt>
      <trkpt lat="45.68646" lon="3.12467">
        <ele>577.8</ele>
        <time>2011-09-25T09:10:28Z</time>
      </trkpt>
      <trkpt lat="45.68638" lon="3.12464">
        <ele>578.3</ele>
        <time>2011-09-25T09:10:31Z</time>
      </trkpt>
      <trkpt lat="45.68629" lon="3.12466">
        <ele>578.7</ele>
        <time>2011-09-25T09:10:34Z</time>
      </trkpt>
      <trkpt lat="45.68619" lon="3.12464">
        <ele>579.2</ele>
        <time>2011-09-25T09:10:38Z</time>
      </trkpt>
      <trkpt lat="45.6861" lon="3.12461">
        <ele>579.6</ele>
        <time>2011-09-25T09:10:42Z</time>
      </trkpt>
      <trkpt lat="45.68601" lon="3.12459">
        <ele>580.1</ele>
        <time>2011-09-25T09:10:45Z</time>
      </trkpt>
      <trkpt lat="45.68595" lon="3.1245">
        <ele>580.7</ele>
        <time>2011-09-25T09:10:49Z</time>
      </trkpt>
      <trkpt lat="45.68587" lon="3.12444">
        <ele>581.4</ele>
        <time>2011-09-25T09:10:53Z</time>
      </trkpt>
      <trkpt lat="45.68579" lon="3.12441">
        <ele>582</ele>
        <time>2011-09-25T09:10:58Z</time>
      </trkpt>
      <trkpt lat="45.68571" lon="3.12436">
        <ele>583</ele>
        <time>2011-09-25T09:11:04Z</time>
      </trkpt>
      <trkpt lat="45.68567" lon="3.12426">
        <ele>584</ele>
        <time>2011-09-25T09:11:10Z</time>
      </trkpt>
      <trkpt lat="45.68558" lon="3.12423">
        <ele>586</ele>
        <time>2011-09-25T09:11:16Z</time>
      </trkpt>
      <trkpt lat="45.68549" lon="3.12416">
        <ele>588</ele>
        <time>2011-09-25T09:11:24Z</time>
      </trkpt>
      <trkpt lat="45.68547" lon="3.12403">
        <ele>590</ele>
        <time>2011-09-25T09:11:28Z</time>
      </trkpt>
      <trkpt lat="45.68544" lon="3.12393">
        <ele>592</ele>
        <time>2011-09-25T09:11:35Z</time>
      </trkpt>
      <trkpt lat="45.68539" lon="3.12383">
        <ele>594</ele>
        <time>2011-09-25T09:11:40Z</time>
      </trkpt>
      <trkpt lat="45.68538" lon="3.12371">
        <ele>596</ele>
        <time>2011-09-25T09:11:45Z</time>
      </trkpt>
      <trkpt lat="45.68539" lon="3.12359">
        <ele>598</ele>
        <time>2011-09-25T09:11:50Z</time>
      </trkpt>
      <trkpt lat="45.68538" lon="3.12347">
        <ele>601</ele>
        <time>2011-09-25T09:11:56Z</time>
      </trkpt>
      <trkpt lat="45.68539" lon="3.12335">
        <ele>604</ele>
        <time>2011-09-25T09:12:01Z</time>
      </trkpt>
      <trkpt lat="45.68537" lon="3.12322">
        <ele>606</ele>
        <time>2011-09-25T09:12:08Z</time>
      </trkpt>
      <trkpt lat="45.68535" lon="3.12311">
        <ele>608</ele>
        <time>2011-09-25T09:12:15Z</time>
      </trkpt>
      <trkpt lat="45.68532" lon="3.12297">
        <ele>609</ele>
        <time>2011-09-25T09:12:23Z</time>
      </trkpt>
      <trkpt lat="45.68533" lon="3.12285">
        <ele>610</ele>
        <time>2011-09-25T09:12:29Z</time>
      </trkpt>
      <trkpt lat="45.68533" lon="3.12273">
        <ele>611.8</ele>
        <time>2011-09-25T09:12:36Z</time>
      </trkpt>
      <trkpt lat="45.68534" lon="3.1226">
        <ele>613.6</ele>
        <time>2011-09-25T09:12:41Z</time>
      </trkpt>
      <trkpt lat="45.68537" lon="3.12249">
        <ele>615.5</ele>
        <time>2011-09-25T09:12:44Z</time>
      </trkpt>
      <trkpt lat="45.68537" lon="3.12235">
        <ele>617.3</ele>
        <time>2011-09-25T09:12:53Z</time>
      </trkpt>
      <trkpt lat="45.68538" lon="3.12222">
        <ele>619.1</ele>
        <time>2011-09-25T09:13:00Z</time>
      </trkpt>
      <trkpt lat="45.68539" lon="3.1221">
        <ele>619.9</ele>
        <time>2011-09-25T09:13:07Z</time>
      </trkpt>
      <trkpt lat="45.68541" lon="3.12198">
        <ele>620.7</ele>
        <time>2011-09-25T09:13:12Z</time>
      </trkpt>
      <trkpt lat="45.68545" lon="3.12184">
        <ele>621.8</ele>
        <time>2011-09-25T09:13:19Z</time>
      </trkpt>
      <trkpt lat="45.68545" lon="3.12172">
        <ele>622.9</ele>
        <time>2011-09-25T09:13:33Z</time>
      </trkpt>
      <trkpt lat="45.68545" lon="3.1216">
        <ele>624</ele>
        <time>2011-09-25T09:13:40Z</time>
      </trkpt>
      <trkpt lat="45.68543" lon="3.12146">
        <ele>625.1</ele>
        <time>2011-09-25T09:13:49Z</time>
      </trkpt>
      <trkpt lat="45.68544" lon="3.12133">
        <ele>625.4</ele>
        <time>2011-09-25T09:13:56Z</time>
      </trkpt>
      <trkpt lat="45.68543" lon="3.12121">
        <ele>625.6</ele>
        <time>2011-09-25T09:14:04Z</time>
      </trkpt>
      <trkpt lat="45.68542" lon="3.12109">
        <ele>625.9</ele>
        <time>2011-09-25T09:14:13Z</time>
      </trkpt>
      <trkpt lat="45.68537" lon="3.12097">
        <ele>626.5</ele>
        <time>2011-09-25T09:14:26Z</time>
      </trkpt>
      <trkpt lat="45.68535" lon="3.12084">
        <ele>627.2</ele>
        <time>2011-09-25T09:14:31Z</time>
      </trkpt>
      <trkpt lat="45.68532" lon="3.12072">
        <ele>627.8</ele>
        <time>2011-09-25T09:14:37Z</time>
      </trkpt>
      <trkpt lat="45.68529" lon="3.12061">
        <ele>628.5</ele>
        <time>2011-09-25T09:14:42Z</time>
      </trkpt>
      <trkpt lat="45.68528" lon="3.12048">
        <ele>628.8</ele>
        <time>2011-09-25T09:14:48Z</time>
      </trkpt>
      <trkpt lat="45.68529" lon="3.12037">
        <ele>629.2</ele>
        <time>2011-09-25T09:14:54Z</time>
      </trkpt>
      <trkpt lat="45.68529" lon="3.12025">
        <ele>629.9</ele>
        <time>2011-09-25T09:14:59Z</time>
      </trkpt>
      <trkpt lat="45.68527" lon="3.12013">
        <ele>630.6</ele>
        <time>2011-09-25T09:15:05Z</time>
      </trkpt>
      <trkpt lat="45.68526" lon="3.12">
        <ele>631.4</ele>
        <time>2011-09-25T09:15:12Z</time>
      </trkpt>
      <trkpt lat="45.68522" lon="3.11988">
        <ele>632.1</ele>
        <time>2011-09-25T09:15:17Z</time>
      </trkpt>
      <trkpt lat="45.68518" lon="3.11976">
        <ele>632.8</ele>
        <time>2011-09-25T09:15:22Z</time>
      </trkpt>
      <trkpt lat="45.68514" lon="3.11963">
        <ele>633.2</ele>
        <time>2011-09-25T09:15:26Z</time>
      </trkpt>
      <trkpt lat="45.68512" lon="3.11951">
        <ele>633.5</ele>
        <time>2011-09-25T09:15:29Z</time>
      </trkpt>
      <trkpt lat="45.68512" lon="3.11937">
        <ele>633.9</ele>
        <time>2011-09-25T09:15:32Z</time>
      </trkpt>
      <trkpt lat="45.6851" lon="3.11922">
        <ele>634.3</ele>
        <time>2011-09-25T09:15:35Z</time>
      </trkpt>
      <trkpt lat="45.68508" lon="3.11909">
        <ele>634.6</ele>
        <time>2011-09-25T09:15:38Z</time>
      </trkpt>
      <trkpt lat="45.68505" lon="3.11894">
        <ele>635</ele>
        <time>2011-09-25T09:15:41Z</time>
      </trkpt>
      <trkpt lat="45.68503" lon="3.11879">
        <ele>635</ele>
        <time>2011-09-25T09:15:44Z</time>
      </trkpt>
      <trkpt lat="45.68501" lon="3.11864">
        <ele>634.7</ele>
        <time>2011-09-25T09:15:47Z</time>
      </trkpt>
      <trkpt lat="45.68499" lon="3.11848">
        <ele>634.5</ele>
        <time>2011-09-25T09:15:50Z</time>
      </trkpt>
      <trkpt lat="45.68495" lon="3.11831">
        <ele>634.2</ele>
        <time>2011-09-25T09:15:53Z</time>
      </trkpt>
      <trkpt lat="45.68493" lon="3.1182">
        <ele>633.9</ele>
        <time>2011-09-25T09:15:55Z</time>
      </trkpt>
      <trkpt lat="45.68489" lon="3.11804">
        <ele>633.6</ele>
        <time>2011-09-25T09:15:58Z</time>
      </trkpt>
      <trkpt lat="45.68484" lon="3.11788">
        <ele>633.4</ele>
        <time>2011-09-25T09:16:01Z</time>
      </trkpt>
      <trkpt lat="45.68481" lon="3.11777">
        <ele>633.1</ele>
        <time>2011-09-25T09:16:03Z</time>
      </trkpt>
      <trkpt lat="45.68478" lon="3.11767">
        <ele>633.8</ele>
        <time>2011-09-25T09:16:05Z</time>
      </trkpt>
      <trkpt lat="45.68475" lon="3.11755">
        <ele>634.5</ele>
        <time>2011-09-25T09:16:07Z</time>
      </trkpt>
      <trkpt lat="45.68471" lon="3.11744">
        <ele>635.3</ele>
        <time>2011-09-25T09:16:09Z</time>
      </trkpt>
      <trkpt lat="45.68468" lon="3.11733">
        <ele>636</ele>
        <time>2011-09-25T09:16:11Z</time>
      </trkpt>
      <trkpt lat="45.68464" lon="3.11722">
        <ele>637</ele>
        <time>2011-09-25T09:16:13Z</time>
      </trkpt>
      <trkpt lat="45.68461" lon="3.11712">
        <ele>638</ele>
        <time>2011-09-25T09:16:15Z</time>
      </trkpt>
      <trkpt lat="45.68456" lon="3.11696">
        <ele>639.1</ele>
        <time>2011-09-25T09:16:18Z</time>
      </trkpt>
      <trkpt lat="45.68451" lon="3.11682">
        <ele>640.2</ele>
        <time>2011-09-25T09:16:21Z</time>
      </trkpt>
      <trkpt lat="45.68446" lon="3.1167">
        <ele>641.3</ele>
        <time>2011-09-25T09:16:24Z</time>
      </trkpt>
      <trkpt lat="45.68442" lon="3.11658">
        <ele>642.4</ele>
        <time>2011-09-25T09:16:27Z</time>
      </trkpt>
      <trkpt lat="45.68439" lon="3.11642">
        <ele>643.5</ele>
        <time>2011-09-25T09:16:30Z</time>
      </trkpt>
      <trkpt lat="45.68436" lon="3.11628">
        <ele>643.5</ele>
        <time>2011-09-25T09:16:31Z</time>
      </trkpt>
      <trkpt lat="45.68433" lon="3.11614">
        <ele>643.2</ele>
        <time>2011-09-25T09:16:34Z</time>
      </trkpt>
      <trkpt lat="45.68428" lon="3.11601">
        <ele>642.8</ele>
        <time>2011-09-25T09:16:35Z</time>
      </trkpt>
      <trkpt lat="45.68424" lon="3.11588">
        <ele>642.5</ele>
        <time>2011-09-25T09:16:38Z</time>
      </trkpt>
      <trkpt lat="45.68419" lon="3.11575">
        <ele>642.1</ele>
        <time>2011-09-25T09:16:39Z</time>
      </trkpt>
      <trkpt lat="45.68415" lon="3.11562">
        <ele>641.7</ele>
        <time>2011-09-25T09:16:41Z</time>
      </trkpt>
      <trkpt lat="45.68411" lon="3.1155">
        <ele>641.3</ele>
        <time>2011-09-25T09:16:44Z</time>
      </trkpt>
      <trkpt lat="45.68406" lon="3.11539">
        <ele>640.8</ele>
        <time>2011-09-25T09:16:46Z</time>
      </trkpt>
      <trkpt lat="45.684" lon="3.11528">
        <ele>639.9</ele>
        <time>2011-09-25T09:16:47Z</time>
      </trkpt>
      <trkpt lat="45.68394" lon="3.11514">
        <ele>640.4</ele>
        <time>2011-09-25T09:16:51Z</time>
      </trkpt>
      <trkpt lat="45.68389" lon="3.11503">
        <ele>640.8</ele>
        <time>2011-09-25T09:16:53Z</time>
      </trkpt>
      <trkpt lat="45.68385" lon="3.11492">
        <ele>641.3</ele>
        <time>2011-09-25T09:16:55Z</time>
      </trkpt>
      <trkpt lat="45.68384" lon="3.1148">
        <ele>642.2</ele>
        <time>2011-09-25T09:16:57Z</time>
      </trkpt>
      <trkpt lat="45.68383" lon="3.11467">
        <ele>643.1</ele>
        <time>2011-09-25T09:16:59Z</time>
      </trkpt>
      <trkpt lat="45.68381" lon="3.11454">
        <ele>644</ele>
        <time>2011-09-25T09:17:01Z</time>
      </trkpt>
      <trkpt lat="45.68378" lon="3.1144">
        <ele>644.9</ele>
        <time>2011-09-25T09:17:05Z</time>
      </trkpt>
      <trkpt lat="45.68374" lon="3.11429">
        <ele>646</ele>
        <time>2011-09-25T09:17:08Z</time>
      </trkpt>
      <trkpt lat="45.68372" lon="3.11417">
        <ele>647.1</ele>
        <time>2011-09-25T09:17:10Z</time>
      </trkpt>
      <trkpt lat="45.68369" lon="3.11402">
        <ele>648.2</ele>
        <time>2011-09-25T09:17:13Z</time>
      </trkpt>
      <trkpt lat="45.68368" lon="3.11389">
        <ele>649.7</ele>
        <time>2011-09-25T09:17:15Z</time>
      </trkpt>
      <trkpt lat="45.68367" lon="3.11376">
        <ele>650</ele>
        <time>2011-09-25T09:17:18Z</time>
      </trkpt>
      <trkpt lat="45.68364" lon="3.11362">
        <ele>650.3</ele>
        <time>2011-09-25T09:17:18Z</time>
      </trkpt>
      <trkpt lat="45.68363" lon="3.11321">
        <ele>650.5</ele>
        <time>2011-09-25T09:17:20Z</time>
      </trkpt>
      <trkpt lat="45.68361" lon="3.11307">
        <ele>650.8</ele>
        <time>2011-09-25T09:17:23Z</time>
      </trkpt>
      <trkpt lat="45.68358" lon="3.11295">
        <ele>651.1</ele>
        <time>2011-09-25T09:17:26Z</time>
      </trkpt>
      <trkpt lat="45.68356" lon="3.11281">
        <ele>651.4</ele>
        <time>2011-09-25T09:17:28Z</time>
      </trkpt>
      <trkpt lat="45.68356" lon="3.11269">
        <ele>651.2</ele>
        <time>2011-09-25T09:17:29Z</time>
      </trkpt>
      <trkpt lat="45.68352" lon="3.11253">
        <ele>650.8</ele>
        <time>2011-09-25T09:17:31Z</time>
      </trkpt>
      <trkpt lat="45.68348" lon="3.11239">
        <ele>650.5</ele>
        <time>2011-09-25T09:17:33Z</time>
      </trkpt>
      <trkpt lat="45.68347" lon="3.11226">
        <ele>650.1</ele>
        <time>2011-09-25T09:17:35Z</time>
      </trkpt>
      <trkpt lat="45.68345" lon="3.11211">
        <ele>649.7</ele>
        <time>2011-09-25T09:17:38Z</time>
      </trkpt>
      <trkpt lat="45.68343" lon="3.11196">
        <ele>648.5</ele>
        <time>2011-09-25T09:17:41Z</time>
      </trkpt>
      <trkpt lat="45.68338" lon="3.11182">
        <ele>647.2</ele>
        <time>2011-09-25T09:17:44Z</time>
      </trkpt>
      <trkpt lat="45.68334" lon="3.11168">
        <ele>645.9</ele>
        <time>2011-09-25T09:17:47Z</time>
      </trkpt>
      <trkpt lat="45.6833" lon="3.11154">
        <ele>644.6</ele>
        <time>2011-09-25T09:17:50Z</time>
      </trkpt>
      <trkpt lat="45.68326" lon="3.1114">
        <ele>644.8</ele>
        <time>2011-09-25T09:17:53Z</time>
      </trkpt>
      <trkpt lat="45.68321" lon="3.11127">
        <ele>645</ele>
        <time>2011-09-25T09:17:56Z</time>
      </trkpt>
      <trkpt lat="45.68315" lon="3.11113">
        <ele>645.6</ele>
        <time>2011-09-25T09:17:59Z</time>
      </trkpt>
      <trkpt lat="45.68307" lon="3.11101">
        <ele>646.3</ele>
        <time>2011-09-25T09:18:02Z</time>
      </trkpt>
      <trkpt lat="45.68299" lon="3.11088">
        <ele>646.5</ele>
        <time>2011-09-25T09:18:05Z</time>
      </trkpt>
      <trkpt lat="45.68291" lon="3.11077">
        <ele>646.8</ele>
        <time>2011-09-25T09:18:09Z</time>
      </trkpt>
      <trkpt lat="45.68283" lon="3.11066">
        <ele>647.1</ele>
        <time>2011-09-25T09:18:11Z</time>
      </trkpt>
      <trkpt lat="45.68277" lon="3.11058">
        <ele>648.2</ele>
        <time>2011-09-25T09:18:13Z</time>
      </trkpt>
      <trkpt lat="45.68269" lon="3.11049">
        <ele>649.3</ele>
        <time>2011-09-25T09:18:15Z</time>
      </trkpt>
      <trkpt lat="45.68261" lon="3.1104">
        <ele>650.4</ele>
        <time>2011-09-25T09:18:17Z</time>
      </trkpt>
      <trkpt lat="45.68258" lon="3.11028">
        <ele>651.5</ele>
        <time>2011-09-25T09:18:19Z</time>
      </trkpt>
      <trkpt lat="45.68252" lon="3.11017">
        <ele>650.2</ele>
        <time>2011-09-25T09:18:21Z</time>
      </trkpt>
      <trkpt lat="45.68246" lon="3.11008">
        <ele>648.9</ele>
        <time>2011-09-25T09:18:23Z</time>
      </trkpt>
      <trkpt lat="45.68241" lon="3.10998">
        <ele>647.6</ele>
        <time>2011-09-25T09:18:25Z</time>
      </trkpt>
      <trkpt lat="45.68237" lon="3.10988">
        <ele>648</ele>
        <time>2011-09-25T09:18:27Z</time>
      </trkpt>
      <trkpt lat="45.6823" lon="3.10974">
        <ele>648.7</ele>
        <time>2011-09-25T09:18:30Z</time>
      </trkpt>
      <trkpt lat="45.68225" lon="3.10963">
        <ele>649.5</ele>
        <time>2011-09-25T09:18:32Z</time>
      </trkpt>
      <trkpt lat="45.68218" lon="3.10952">
        <ele>650.1</ele>
        <time>2011-09-25T09:18:35Z</time>
      </trkpt>
      <trkpt lat="45.68214" lon="3.10937">
        <ele>650.7</ele>
        <time>2011-09-25T09:18:37Z</time>
      </trkpt>
      <trkpt lat="45.68208" lon="3.10923">
        <ele>651.4</ele>
        <time>2011-09-25T09:18:39Z</time>
      </trkpt>
      <trkpt lat="45.68204" lon="3.1091">
        <ele>652</ele>
        <time>2011-09-25T09:18:41Z</time>
      </trkpt>
      <trkpt lat="45.68202" lon="3.10894">
        <ele>652.6</ele>
        <time>2011-09-25T09:18:42Z</time>
      </trkpt>
      <trkpt lat="45.68196" lon="3.1088">
        <ele>654.2</ele>
        <time>2011-09-25T09:18:46Z</time>
      </trkpt>
      <trkpt lat="45.68194" lon="3.10868">
        <ele>655.5</ele>
        <time>2011-09-25T09:18:47Z</time>
      </trkpt>
      <trkpt lat="45.68192" lon="3.10857">
        <ele>656.7</ele>
        <time>2011-09-25T09:18:50Z</time>
      </trkpt>
      <trkpt lat="45.68184" lon="3.10843">
        <ele>656.4</ele>
        <time>2011-09-25T09:18:53Z</time>
      </trkpt>
      <trkpt lat="45.68178" lon="3.10825">
        <ele>656</ele>
        <time>2011-09-25T09:18:56Z</time>
      </trkpt>
      <trkpt lat="45.68178" lon="3.10813">
        <ele>655.6</ele>
        <time>2011-09-25T09:18:58Z</time>
      </trkpt>
      <trkpt lat="45.68178" lon="3.10798">
        <ele>655.4</ele>
        <time>2011-09-25T09:19:00Z</time>
      </trkpt>
      <trkpt lat="45.68174" lon="3.10786">
        <ele>655.1</ele>
        <time>2011-09-25T09:19:03Z</time>
      </trkpt>
      <trkpt lat="45.68169" lon="3.10773">
        <ele>654.5</ele>
        <time>2011-09-25T09:19:05Z</time>
      </trkpt>
      <trkpt lat="45.68164" lon="3.10758">
        <ele>654</ele>
        <time>2011-09-25T09:19:08Z</time>
      </trkpt>
      <trkpt lat="45.68162" lon="3.10744">
        <ele>653.5</ele>
        <time>2011-09-25T09:19:10Z</time>
      </trkpt>
      <trkpt lat="45.68161" lon="3.10731">
        <ele>652.9</ele>
        <time>2011-09-25T09:19:12Z</time>
      </trkpt>
      <trkpt lat="45.68159" lon="3.10718">
        <ele>652.6</ele>
        <time>2011-09-25T09:19:14Z</time>
      </trkpt>
      <trkpt lat="45.68158" lon="3.10705">
        <ele>652.4</ele>
        <time>2011-09-25T09:19:16Z</time>
      </trkpt>
      <trkpt lat="45.68155" lon="3.10691">
        <ele>652</ele>
        <time>2011-09-25T09:19:18Z</time>
      </trkpt>
      <trkpt lat="45.68152" lon="3.1068">
        <ele>651.6</ele>
        <time>2011-09-25T09:19:20Z</time>
      </trkpt>
      <trkpt lat="45.6815" lon="3.10667">
        <ele>651.3</ele>
        <time>2011-09-25T09:19:24Z</time>
      </trkpt>
      <trkpt lat="45.68147" lon="3.10651">
        <ele>650.9</ele>
        <time>2011-09-25T09:19:27Z</time>
      </trkpt>
      <trkpt lat="45.68145" lon="3.10636">
        <ele>650.5</ele>
        <time>2011-09-25T09:19:30Z</time>
      </trkpt>
      <trkpt lat="45.68142" lon="3.10621">
        <ele>650.5</ele>
        <time>2011-09-25T09:19:33Z</time>
      </trkpt>
      <trkpt lat="45.6814" lon="3.10605">
        <ele>650.5</ele>
        <time>2011-09-25T09:19:37Z</time>
      </trkpt>
      <trkpt lat="45.68135" lon="3.10594">
        <ele>650.5</ele>
        <time>2011-09-25T09:19:40Z</time>
      </trkpt>
      <trkpt lat="45.68133" lon="3.10578">
        <ele>652</ele>
        <time>2011-09-25T09:19:42Z</time>
      </trkpt>
      <trkpt lat="45.68131" lon="3.10564">
        <ele>653.5</ele>
        <time>2011-09-25T09:19:45Z</time>
      </trkpt>
      <trkpt lat="45.68128" lon="3.10549">
        <ele>654.9</ele>
        <time>2011-09-25T09:19:48Z</time>
      </trkpt>
      <trkpt lat="45.68129" lon="3.10536">
        <ele>656.5</ele>
        <time>2011-09-25T09:19:51Z</time>
      </trkpt>
      <trkpt lat="45.68129" lon="3.10523">
        <ele>658.1</ele>
        <time>2011-09-25T09:19:52Z</time>
      </trkpt>
      <trkpt lat="45.68126" lon="3.1051">
        <ele>659.7</ele>
        <time>2011-09-25T09:19:53Z</time>
      </trkpt>
      <trkpt lat="45.6812" lon="3.10501">
        <ele>661.4</ele>
        <time>2011-09-25T09:19:55Z</time>
      </trkpt>
      <trkpt lat="45.68119" lon="3.1049">
        <ele>663</ele>
        <time>2011-09-25T09:19:57Z</time>
      </trkpt>
      <trkpt lat="45.68117" lon="3.10474">
        <ele>664.5</ele>
        <time>2011-09-25T09:20:00Z</time>
      </trkpt>
      <trkpt lat="45.68115" lon="3.10463">
        <ele>666.1</ele>
        <time>2011-09-25T09:20:02Z</time>
      </trkpt>
      <trkpt lat="45.68113" lon="3.10448">
        <ele>667.7</ele>
        <time>2011-09-25T09:20:05Z</time>
      </trkpt>
      <trkpt lat="45.6811" lon="3.10435">
        <ele>667.9</ele>
        <time>2011-09-25T09:20:08Z</time>
      </trkpt>
      <trkpt lat="45.68109" lon="3.10417">
        <ele>668.1</ele>
        <time>2011-09-25T09:20:12Z</time>
      </trkpt>
      <trkpt lat="45.68108" lon="3.10402">
        <ele>668.3</ele>
        <time>2011-09-25T09:20:15Z</time>
      </trkpt>
      <trkpt lat="45.68106" lon="3.1039">
        <ele>668.5</ele>
        <time>2011-09-25T09:20:17Z</time>
      </trkpt>
      <trkpt lat="45.68104" lon="3.10372">
        <ele>668.5</ele>
        <time>2011-09-25T09:20:20Z</time>
      </trkpt>
      <trkpt lat="45.68101" lon="3.10358">
        <ele>668.5</ele>
        <time>2011-09-25T09:20:23Z</time>
      </trkpt>
      <trkpt lat="45.68096" lon="3.10342">
        <ele>668.4</ele>
        <time>2011-09-25T09:20:26Z</time>
      </trkpt>
      <trkpt lat="45.68094" lon="3.10324">
        <ele>668.3</ele>
        <time>2011-09-25T09:20:29Z</time>
      </trkpt>
      <trkpt lat="45.68092" lon="3.10311">
        <ele>668.2</ele>
        <time>2011-09-25T09:20:31Z</time>
      </trkpt>
      <trkpt lat="45.68089" lon="3.10296">
        <ele>668.1</ele>
        <time>2011-09-25T09:20:34Z</time>
      </trkpt>
      <trkpt lat="45.68085" lon="3.10283">
        <ele>667.6</ele>
        <time>2011-09-25T09:20:36Z</time>
      </trkpt>
      <trkpt lat="45.68082" lon="3.10271">
        <ele>667.2</ele>
        <time>2011-09-25T09:20:38Z</time>
      </trkpt>
      <trkpt lat="45.68081" lon="3.10257">
        <ele>666.7</ele>
        <time>2011-09-25T09:20:41Z</time>
      </trkpt>
      <trkpt lat="45.68079" lon="3.1024">
        <ele>666.3</ele>
        <time>2011-09-25T09:20:44Z</time>
      </trkpt>
      <trkpt lat="45.68072" lon="3.10224">
        <ele>665.8</ele>
        <time>2011-09-25T09:20:46Z</time>
      </trkpt>
      <trkpt lat="45.68069" lon="3.10208">
        <ele>665.4</ele>
        <time>2011-09-25T09:20:47Z</time>
      </trkpt>
      <trkpt lat="45.68068" lon="3.1019">
        <ele>665.1</ele>
        <time>2011-09-25T09:20:48Z</time>
      </trkpt>
      <trkpt lat="45.68067" lon="3.10171">
        <ele>664.8</ele>
        <time>2011-09-25T09:20:50Z</time>
      </trkpt>
      <trkpt lat="45.68068" lon="3.10156">
        <ele>664.5</ele>
        <time>2011-09-25T09:20:52Z</time>
      </trkpt>
      <trkpt lat="45.68069" lon="3.10142">
        <ele>664.3</ele>
        <time>2011-09-25T09:20:54Z</time>
      </trkpt>
      <trkpt lat="45.68069" lon="3.10124">
        <ele>664</ele>
        <time>2011-09-25T09:20:56Z</time>
      </trkpt>
      <trkpt lat="45.68069" lon="3.10108">
        <ele>664.4</ele>
        <time>2011-09-25T09:20:58Z</time>
      </trkpt>
      <trkpt lat="45.68067" lon="3.10093">
        <ele>664.7</ele>
        <time>2011-09-25T09:20:59Z</time>
      </trkpt>
      <trkpt lat="45.68065" lon="3.10079">
        <ele>665.1</ele>
        <time>2011-09-25T09:21:01Z</time>
      </trkpt>
      <trkpt lat="45.68064" lon="3.10064">
        <ele>665.5</ele>
        <time>2011-09-25T09:21:04Z</time>
      </trkpt>
      <trkpt lat="45.68063" lon="3.10048">
        <ele>665.8</ele>
        <time>2011-09-25T09:21:06Z</time>
      </trkpt>
      <trkpt lat="45.68063" lon="3.10033">
        <ele>666.5</ele>
        <time>2011-09-25T09:21:08Z</time>
      </trkpt>
      <trkpt lat="45.68062" lon="3.10019">
        <ele>667.3</ele>
        <time>2011-09-25T09:21:09Z</time>
      </trkpt>
      <trkpt lat="45.68061" lon="3.10006">
        <ele>668</ele>
        <time>2011-09-25T09:21:11Z</time>
      </trkpt>
      <trkpt lat="45.68059" lon="3.09992">
        <ele>668.7</ele>
        <time>2011-09-25T09:21:13Z</time>
      </trkpt>
      <trkpt lat="45.68058" lon="3.09976">
        <ele>669.5</ele>
        <time>2011-09-25T09:21:17Z</time>
      </trkpt>
      <trkpt lat="45.68059" lon="3.09963">
        <ele>670.2</ele>
        <time>2011-09-25T09:21:20Z</time>
      </trkpt>
      <trkpt lat="45.68059" lon="3.09947">
        <ele>670.8</ele>
        <time>2011-09-25T09:21:22Z</time>
      </trkpt>
      <trkpt lat="45.6806" lon="3.09929">
        <ele>671.5</ele>
        <time>2011-09-25T09:21:26Z</time>
      </trkpt>
      <trkpt lat="45.68061" lon="3.09917">
        <ele>672.1</ele>
        <time>2011-09-25T09:21:27Z</time>
      </trkpt>
      <trkpt lat="45.68062" lon="3.09905">
        <ele>672.7</ele>
        <time>2011-09-25T09:21:30Z</time>
      </trkpt>
      <trkpt lat="45.68061" lon="3.09894">
        <ele>673.4</ele>
        <time>2011-09-25T09:21:34Z</time>
      </trkpt>
      <trkpt lat="45.6806" lon="3.09881">
        <ele>673.6</ele>
        <time>2011-09-25T09:21:37Z</time>
      </trkpt>
      <trkpt lat="45.6806" lon="3.09859">
        <ele>674.1</ele>
        <time>2011-09-25T09:21:41Z</time>
      </trkpt>
      <trkpt lat="45.68063" lon="3.09844">
        <ele>674.5</ele>
        <time>2011-09-25T09:21:44Z</time>
      </trkpt>
      <trkpt lat="45.68066" lon="3.0983">
        <ele>675</ele>
        <time>2011-09-25T09:21:51Z</time>
      </trkpt>
      <trkpt lat="45.68065" lon="3.09818">
        <ele>675.5</ele>
        <time>2011-09-25T09:21:53Z</time>
      </trkpt>
      <trkpt lat="45.68069" lon="3.09804">
        <ele>675.9</ele>
        <time>2011-09-25T09:21:56Z</time>
      </trkpt>
      <trkpt lat="45.68074" lon="3.0979">
        <ele>676.3</ele>
        <time>2011-09-25T09:21:58Z</time>
      </trkpt>
      <trkpt lat="45.68074" lon="3.09778">
        <ele>676.6</ele>
        <time>2011-09-25T09:22:01Z</time>
      </trkpt>
      <trkpt lat="45.68077" lon="3.09763">
        <ele>677</ele>
        <time>2011-09-25T09:22:03Z</time>
      </trkpt>
      <trkpt lat="45.68074" lon="3.09747">
        <ele>677.4</ele>
        <time>2011-09-25T09:22:06Z</time>
      </trkpt>
      <trkpt lat="45.68072" lon="3.0973">
        <ele>677.7</ele>
        <time>2011-09-25T09:22:08Z</time>
      </trkpt>
      <trkpt lat="45.68075" lon="3.09714">
        <ele>678.1</ele>
        <time>2011-09-25T09:22:11Z</time>
      </trkpt>
      <trkpt lat="45.68077" lon="3.09699">
        <ele>678.5</ele>
        <time>2011-09-25T09:22:14Z</time>
      </trkpt>
      <trkpt lat="45.68079" lon="3.09685">
        <ele>678.8</ele>
        <time>2011-09-25T09:22:18Z</time>
      </trkpt>
      <trkpt lat="45.68083" lon="3.09667">
        <ele>679.2</ele>
        <time>2011-09-25T09:22:21Z</time>
      </trkpt>
      <trkpt lat="45.68085" lon="3.09654">
        <ele>679.5</ele>
        <time>2011-09-25T09:22:24Z</time>
      </trkpt>
      <trkpt lat="45.68088" lon="3.09643">
        <ele>679.9</ele>
        <time>2011-09-25T09:22:25Z</time>
      </trkpt>
      <trkpt lat="45.68089" lon="3.09629">
        <ele>680.1</ele>
        <time>2011-09-25T09:22:27Z</time>
      </trkpt>
      <trkpt lat="45.68091" lon="3.09614">
        <ele>680.3</ele>
        <time>2011-09-25T09:22:30Z</time>
      </trkpt>
      <trkpt lat="45.68094" lon="3.09602">
        <ele>680.5</ele>
        <time>2011-09-25T09:22:33Z</time>
      </trkpt>
      <trkpt lat="45.68096" lon="3.09589">
        <ele>680.6</ele>
        <time>2011-09-25T09:22:36Z</time>
      </trkpt>
      <trkpt lat="45.681" lon="3.09574">
        <ele>680.8</ele>
        <time>2011-09-25T09:22:39Z</time>
      </trkpt>
      <trkpt lat="45.68102" lon="3.09558">
        <ele>681</ele>
        <time>2011-09-25T09:22:42Z</time>
      </trkpt>
      <trkpt lat="45.68099" lon="3.09545">
        <ele>681</ele>
        <time>2011-09-25T09:22:46Z</time>
      </trkpt>
      <trkpt lat="45.681" lon="3.09531">
        <ele>680.8</ele>
        <time>2011-09-25T09:22:49Z</time>
      </trkpt>
      <trkpt lat="45.681" lon="3.09515">
        <ele>680.6</ele>
        <time>2011-09-25T09:22:52Z</time>
      </trkpt>
      <trkpt lat="45.681" lon="3.09503">
        <ele>680.5</ele>
        <time>2011-09-25T09:22:54Z</time>
      </trkpt>
      <trkpt lat="45.68101" lon="3.09491">
        <ele>680.3</ele>
        <time>2011-09-25T09:22:56Z</time>
      </trkpt>
      <trkpt lat="45.68101" lon="3.09478">
        <ele>680.1</ele>
        <time>2011-09-25T09:22:58Z</time>
      </trkpt>
      <trkpt lat="45.68102" lon="3.09464">
        <ele>679.9</ele>
        <time>2011-09-25T09:23:00Z</time>
      </trkpt>
      <trkpt lat="45.68102" lon="3.0945">
        <ele>679.7</ele>
        <time>2011-09-25T09:23:02Z</time>
      </trkpt>
      <trkpt lat="45.68103" lon="3.09437">
        <ele>679.7</ele>
        <time>2011-09-25T09:23:04Z</time>
      </trkpt>
      <trkpt lat="45.68105" lon="3.09424">
        <ele>679.7</ele>
        <time>2011-09-25T09:23:07Z</time>
      </trkpt>
      <trkpt lat="45.68107" lon="3.0941">
        <ele>679.7</ele>
        <time>2011-09-25T09:23:10Z</time>
      </trkpt>
      <trkpt lat="45.68107" lon="3.09397">
        <ele>679.7</ele>
        <time>2011-09-25T09:23:12Z</time>
      </trkpt>
      <trkpt lat="45.68108" lon="3.09384">
        <ele>679.9</ele>
        <time>2011-09-25T09:23:14Z</time>
      </trkpt>
      <trkpt lat="45.68108" lon="3.09358">
        <ele>680.5</ele>
        <time>2011-09-25T09:23:16Z</time>
      </trkpt>
      <trkpt lat="45.68108" lon="3.09345">
        <ele>681</ele>
        <time>2011-09-25T09:23:18Z</time>
      </trkpt>
      <trkpt lat="45.68109" lon="3.09333">
        <ele>681.5</ele>
        <time>2011-09-25T09:23:20Z</time>
      </trkpt>
      <trkpt lat="45.68109" lon="3.0932">
        <ele>682.1</ele>
        <time>2011-09-25T09:23:22Z</time>
      </trkpt>
      <trkpt lat="45.68111" lon="3.09304">
        <ele>682.6</ele>
        <time>2011-09-25T09:23:24Z</time>
      </trkpt>
      <trkpt lat="45.68112" lon="3.09291">
        <ele>683.2</ele>
        <time>2011-09-25T09:23:25Z</time>
      </trkpt>
      <trkpt lat="45.68113" lon="3.09277">
        <ele>683.6</ele>
        <time>2011-09-25T09:23:27Z</time>
      </trkpt>
      <trkpt lat="45.68114" lon="3.09262">
        <ele>684.1</ele>
        <time>2011-09-25T09:23:30Z</time>
      </trkpt>
      <trkpt lat="45.68116" lon="3.09249">
        <ele>684.5</ele>
        <time>2011-09-25T09:23:32Z</time>
      </trkpt>
      <trkpt lat="45.68116" lon="3.09234">
        <ele>685</ele>
        <time>2011-09-25T09:23:33Z</time>
      </trkpt>
      <trkpt lat="45.68117" lon="3.09218">
        <ele>685.5</ele>
        <time>2011-09-25T09:23:35Z</time>
      </trkpt>
      <trkpt lat="45.68116" lon="3.09204">
        <ele>685.5</ele>
        <time>2011-09-25T09:23:37Z</time>
      </trkpt>
      <trkpt lat="45.68117" lon="3.0919">
        <ele>685.8</ele>
        <time>2011-09-25T09:23:39Z</time>
      </trkpt>
      <trkpt lat="45.68118" lon="3.09177">
        <ele>686.1</ele>
        <time>2011-09-25T09:23:42Z</time>
      </trkpt>
      <trkpt lat="45.68115" lon="3.09163">
        <ele>686.4</ele>
        <time>2011-09-25T09:23:43Z</time>
      </trkpt>
      <trkpt lat="45.68114" lon="3.0915">
        <ele>686.6</ele>
        <time>2011-09-25T09:23:45Z</time>
      </trkpt>
      <trkpt lat="45.68111" lon="3.09136">
        <ele>686.9</ele>
        <time>2011-09-25T09:23:48Z</time>
      </trkpt>
      <trkpt lat="45.68107" lon="3.09124">
        <ele>687.1</ele>
        <time>2011-09-25T09:23:50Z</time>
      </trkpt>
      <trkpt lat="45.68103" lon="3.0911">
        <ele>687.1</ele>
        <time>2011-09-25T09:23:51Z</time>
      </trkpt>
      <trkpt lat="45.68102" lon="3.09097">
        <ele>687.1</ele>
        <time>2011-09-25T09:23:53Z</time>
      </trkpt>
      <trkpt lat="45.68101" lon="3.09082">
        <ele>687.1</ele>
        <time>2011-09-25T09:23:55Z</time>
      </trkpt>
      <trkpt lat="45.68099" lon="3.0907">
        <ele>687.1</ele>
        <time>2011-09-25T09:23:58Z</time>
      </trkpt>
      <trkpt lat="45.68097" lon="3.09053">
        <ele>687.1</ele>
        <time>2011-09-25T09:23:59Z</time>
      </trkpt>
      <trkpt lat="45.68095" lon="3.09037">
        <ele>686.9</ele>
        <time>2011-09-25T09:24:01Z</time>
      </trkpt>
      <trkpt lat="45.68094" lon="3.09021">
        <ele>686.7</ele>
        <time>2011-09-25T09:24:03Z</time>
      </trkpt>
      <trkpt lat="45.68092" lon="3.09004">
        <ele>686.5</ele>
        <time>2011-09-25T09:24:05Z</time>
      </trkpt>
      <trkpt lat="45.6809" lon="3.08989">
        <ele>686.4</ele>
        <time>2011-09-25T09:24:07Z</time>
      </trkpt>
      <trkpt lat="45.68087" lon="3.08974">
        <ele>686.2</ele>
        <time>2011-09-25T09:24:09Z</time>
      </trkpt>
      <trkpt lat="45.68085" lon="3.08959">
        <ele>686</ele>
        <time>2011-09-25T09:24:11Z</time>
      </trkpt>
      <trkpt lat="45.68084" lon="3.08945">
        <ele>686</ele>
        <time>2011-09-25T09:24:13Z</time>
      </trkpt>
      <trkpt lat="45.68083" lon="3.08932">
        <ele>686</ele>
        <time>2011-09-25T09:24:15Z</time>
      </trkpt>
      <trkpt lat="45.68082" lon="3.08919">
        <ele>686</ele>
        <time>2011-09-25T09:24:17Z</time>
      </trkpt>
      <trkpt lat="45.68079" lon="3.08908">
        <ele>686.5</ele>
        <time>2011-09-25T09:24:19Z</time>
      </trkpt>
      <trkpt lat="45.68073" lon="3.08898">
        <ele>686.9</ele>
        <time>2011-09-25T09:24:22Z</time>
      </trkpt>
      <trkpt lat="45.68064" lon="3.08893">
        <ele>687.4</ele>
        <time>2011-09-25T09:24:25Z</time>
      </trkpt>
      <trkpt lat="45.68056" lon="3.08889">
        <ele>687.8</ele>
        <time>2011-09-25T09:24:27Z</time>
      </trkpt>
      <trkpt lat="45.68048" lon="3.08884">
        <ele>688.3</ele>
        <time>2011-09-25T09:24:29Z</time>
      </trkpt>
      <trkpt lat="45.68038" lon="3.08877">
        <ele>688.7</ele>
        <time>2011-09-25T09:24:32Z</time>
      </trkpt>
      <trkpt lat="45.68028" lon="3.08871">
        <ele>689.2</ele>
        <time>2011-09-25T09:24:35Z</time>
      </trkpt>
      <trkpt lat="45.68017" lon="3.08865">
        <ele>689.6</ele>
        <time>2011-09-25T09:24:38Z</time>
      </trkpt>
      <trkpt lat="45.68006" lon="3.08859">
        <ele>690.4</ele>
        <time>2011-09-25T09:24:41Z</time>
      </trkpt>
      <trkpt lat="45.67995" lon="3.08855">
        <ele>691.1</ele>
        <time>2011-09-25T09:24:44Z</time>
      </trkpt>
      <trkpt lat="45.67985" lon="3.08851">
        <ele>691.8</ele>
        <time>2011-09-25T09:24:47Z</time>
      </trkpt>
      <trkpt lat="45.67974" lon="3.08846">
        <ele>692.1</ele>
        <time>2011-09-25T09:24:50Z</time>
      </trkpt>
      <trkpt lat="45.67964" lon="3.0884">
        <ele>692.4</ele>
        <time>2011-09-25T09:24:53Z</time>
      </trkpt>
      <trkpt lat="45.67954" lon="3.08834">
        <ele>692.6</ele>
        <time>2011-09-25T09:24:56Z</time>
      </trkpt>
      <trkpt lat="45.67944" lon="3.08832">
        <ele>692.9</ele>
        <time>2011-09-25T09:24:59Z</time>
      </trkpt>
      <trkpt lat="45.67935" lon="3.0883">
        <ele>692.6</ele>
        <time>2011-09-25T09:25:01Z</time>
      </trkpt>
      <trkpt lat="45.67924" lon="3.08829">
        <ele>692.4</ele>
        <time>2011-09-25T09:25:04Z</time>
      </trkpt>
      <trkpt lat="45.67913" lon="3.08828">
        <ele>692.1</ele>
        <time>2011-09-25T09:25:07Z</time>
      </trkpt>
      <trkpt lat="45.67903" lon="3.08827">
        <ele>691.8</ele>
        <time>2011-09-25T09:25:10Z</time>
      </trkpt>
      <trkpt lat="45.67892" lon="3.08824">
        <ele>691.3</ele>
        <time>2011-09-25T09:25:13Z</time>
      </trkpt>
      <trkpt lat="45.67881" lon="3.08821">
        <ele>690.7</ele>
        <time>2011-09-25T09:25:16Z</time>
      </trkpt>
      <trkpt lat="45.6787" lon="3.0882">
        <ele>690.2</ele>
        <time>2011-09-25T09:25:19Z</time>
      </trkpt>
      <trkpt lat="45.67859" lon="3.08822">
        <ele>689.6</ele>
        <time>2011-09-25T09:25:22Z</time>
      </trkpt>
      <trkpt lat="45.67849" lon="3.08825">
        <ele>689.2</ele>
        <time>2011-09-25T09:25:25Z</time>
      </trkpt>
      <trkpt lat="45.67841" lon="3.08832">
        <ele>688.7</ele>
        <time>2011-09-25T09:25:29Z</time>
      </trkpt>
      <trkpt lat="45.6783" lon="3.0883">
        <ele>688.3</ele>
        <time>2011-09-25T09:25:34Z</time>
      </trkpt>
      <trkpt lat="45.67823" lon="3.0882">
        <ele>688.4</ele>
        <time>2011-09-25T09:25:38Z</time>
      </trkpt>
      <trkpt lat="45.67818" lon="3.08807">
        <ele>686.6</ele>
        <time>2011-09-25T09:25:41Z</time>
      </trkpt>
      <trkpt lat="45.67812" lon="3.08793">
        <ele>684.7</ele>
        <time>2011-09-25T09:25:42Z</time>
      </trkpt>
      <trkpt lat="45.67807" lon="3.08776">
        <ele>682.8</ele>
        <time>2011-09-25T09:25:45Z</time>
      </trkpt>
      <trkpt lat="45.67801" lon="3.08756">
        <ele>680.9</ele>
        <time>2011-09-25T09:25:47Z</time>
      </trkpt>
      <trkpt lat="45.67797" lon="3.08745">
        <ele>679</ele>
        <time>2011-09-25T09:25:50Z</time>
      </trkpt>
      <trkpt lat="45.67792" lon="3.0873">
        <ele>677.1</ele>
        <time>2011-09-25T09:25:52Z</time>
      </trkpt>
      <trkpt lat="45.67783" lon="3.08717">
        <ele>673.3</ele>
        <time>2011-09-25T09:25:55Z</time>
      </trkpt>
      <trkpt lat="45.67774" lon="3.08708">
        <ele>669.4</ele>
        <time>2011-09-25T09:25:57Z</time>
      </trkpt>
      <trkpt lat="45.67765" lon="3.08702">
        <ele>665.5</ele>
        <time>2011-09-25T09:26:00Z</time>
      </trkpt>
      <trkpt lat="45.67756" lon="3.08694">
        <ele>661.5</ele>
        <time>2011-09-25T09:26:02Z</time>
      </trkpt>
      <trkpt lat="45.67716" lon="3.08626">
        <ele>657.6</ele>
        <time>2011-09-25T09:26:04Z</time>
      </trkpt>
      <trkpt lat="45.67701" lon="3.08617">
        <ele>655.5</ele>
        <time>2011-09-25T09:26:06Z</time>
      </trkpt>
      <trkpt lat="45.67687" lon="3.08605">
        <ele>653.6</ele>
        <time>2011-09-25T09:26:08Z</time>
      </trkpt>
      <trkpt lat="45.67671" lon="3.08598">
        <ele>651.9</ele>
        <time>2011-09-25T09:26:11Z</time>
      </trkpt>
      <trkpt lat="45.6766" lon="3.08585">
        <ele>650.2</ele>
        <time>2011-09-25T09:26:12Z</time>
      </trkpt>
      <trkpt lat="45.67656" lon="3.08575">
        <ele>646.4</ele>
        <time>2011-09-25T09:26:13Z</time>
      </trkpt>
      <trkpt lat="45.67652" lon="3.08565">
        <ele>642.5</ele>
        <time>2011-09-25T09:26:14Z</time>
      </trkpt>
      <trkpt lat="45.67647" lon="3.08554">
        <ele>640.6</ele>
        <time>2011-09-25T09:26:15Z</time>
      </trkpt>
      <trkpt lat="45.6764" lon="3.08542">
        <ele>638.7</ele>
        <time>2011-09-25T09:26:16Z</time>
      </trkpt>
      <trkpt lat="45.67633" lon="3.0853">
        <ele>637</ele>
        <time>2011-09-25T09:26:17Z</time>
      </trkpt>
      <trkpt lat="45.67625" lon="3.08519">
        <ele>635.3</ele>
        <time>2011-09-25T09:26:18Z</time>
      </trkpt>
      <trkpt lat="45.67613" lon="3.085">
        <ele>633.5</ele>
        <time>2011-09-25T09:26:20Z</time>
      </trkpt>
      <trkpt lat="45.67604" lon="3.08487">
        <ele>631.8</ele>
        <time>2011-09-25T09:26:21Z</time>
      </trkpt>
      <trkpt lat="45.67595" lon="3.08473">
        <ele>630.1</ele>
        <time>2011-09-25T09:26:23Z</time>
      </trkpt>
      <trkpt lat="45.67591" lon="3.08454">
        <ele>628.5</ele>
        <time>2011-09-25T09:26:25Z</time>
      </trkpt>
      <trkpt lat="45.67585" lon="3.08438">
        <ele>626.8</ele>
        <time>2011-09-25T09:26:27Z</time>
      </trkpt>
      <trkpt lat="45.67578" lon="3.08426">
        <ele>627.3</ele>
        <time>2011-09-25T09:26:29Z</time>
      </trkpt>
      <trkpt lat="45.67567" lon="3.08405">
        <ele>627.7</ele>
        <time>2011-09-25T09:26:32Z</time>
      </trkpt>
      <trkpt lat="45.67561" lon="3.08391">
        <ele>628.2</ele>
        <time>2011-09-25T09:26:34Z</time>
      </trkpt>
      <trkpt lat="45.6756" lon="3.0837">
        <ele>628.6</ele>
        <time>2011-09-25T09:26:36Z</time>
      </trkpt>
      <trkpt lat="45.67558" lon="3.08357">
        <ele>627.6</ele>
        <time>2011-09-25T09:26:38Z</time>
      </trkpt>
      <trkpt lat="45.67555" lon="3.08342">
        <ele>626.6</ele>
        <time>2011-09-25T09:26:40Z</time>
      </trkpt>
      <trkpt lat="45.67551" lon="3.08325">
        <ele>625.6</ele>
        <time>2011-09-25T09:26:42Z</time>
      </trkpt>
      <trkpt lat="45.67548" lon="3.08309">
        <ele>624.6</ele>
        <time>2011-09-25T09:26:44Z</time>
      </trkpt>
      <trkpt lat="45.67549" lon="3.08296">
        <ele>623.6</ele>
        <time>2011-09-25T09:26:46Z</time>
      </trkpt>
      <trkpt lat="45.67537" lon="3.08286">
        <ele>623</ele>
        <time>2011-09-25T09:26:48Z</time>
      </trkpt>
      <trkpt lat="45.67532" lon="3.08277">
        <ele>622.4</ele>
        <time>2011-09-25T09:26:49Z</time>
      </trkpt>
      <trkpt lat="45.67525" lon="3.08261">
        <ele>621.7</ele>
        <time>2011-09-25T09:26:51Z</time>
      </trkpt>
      <trkpt lat="45.67516" lon="3.08238">
        <ele>621.1</ele>
        <time>2011-09-25T09:26:54Z</time>
      </trkpt>
      <trkpt lat="45.67509" lon="3.0823">
        <ele>620.5</ele>
        <time>2011-09-25T09:26:55Z</time>
      </trkpt>
      <trkpt lat="45.67505" lon="3.0821">
        <ele>619.8</ele>
        <time>2011-09-25T09:26:56Z</time>
      </trkpt>
      <trkpt lat="45.67503" lon="3.08194">
        <ele>619.5</ele>
        <time>2011-09-25T09:26:58Z</time>
      </trkpt>
      <trkpt lat="45.67497" lon="3.08175">
        <ele>619.3</ele>
        <time>2011-09-25T09:27:02Z</time>
      </trkpt>
      <trkpt lat="45.67486" lon="3.08176">
        <ele>619</ele>
        <time>2011-09-25T09:27:04Z</time>
      </trkpt>
      <trkpt lat="45.67474" lon="3.0818">
        <ele>618.7</ele>
        <time>2011-09-25T09:27:16Z</time>
      </trkpt>
      <trkpt lat="45.67464" lon="3.08182">
        <ele>618.5</ele>
        <time>2011-09-25T09:27:18Z</time>
      </trkpt>
      <trkpt lat="45.67455" lon="3.08185">
        <ele>617.5</ele>
        <time>2011-09-25T09:27:26Z</time>
      </trkpt>
      <trkpt lat="45.67452" lon="3.08174">
        <ele>617.2</ele>
        <time>2011-09-25T09:27:29Z</time>
      </trkpt>
      <trkpt lat="45.67446" lon="3.0816">
        <ele>616.8</ele>
        <time>2011-09-25T09:27:32Z</time>
      </trkpt>
      <trkpt lat="45.6744" lon="3.0815">
        <ele>616.5</ele>
        <time>2011-09-25T09:27:34Z</time>
      </trkpt>
      <trkpt lat="45.67435" lon="3.0814">
        <ele>616.1</ele>
        <time>2011-09-25T09:27:36Z</time>
      </trkpt>
      <trkpt lat="45.67427" lon="3.0813">
        <ele>615.7</ele>
        <time>2011-09-25T09:27:39Z</time>
      </trkpt>
      <trkpt lat="45.67423" lon="3.08118">
        <ele>616.3</ele>
        <time>2011-09-25T09:27:41Z</time>
      </trkpt>
      <trkpt lat="45.67419" lon="3.08107">
        <ele>616.8</ele>
        <time>2011-09-25T09:27:46Z</time>
      </trkpt>
      <trkpt lat="45.67413" lon="3.08098">
        <ele>617.4</ele>
        <time>2011-09-25T09:27:54Z</time>
      </trkpt>
      <trkpt lat="45.67409" lon="3.08087">
        <ele>617.9</ele>
        <time>2011-09-25T09:27:58Z</time>
      </trkpt>
      <trkpt lat="45.67412" lon="3.08074">
        <ele>618.5</ele>
        <time>2011-09-25T09:28:00Z</time>
      </trkpt>
      <trkpt lat="45.674" lon="3.08078">
        <ele>618.5</ele>
        <time>2011-09-25T09:28:04Z</time>
      </trkpt>
      <trkpt lat="45.67398" lon="3.08091">
        <ele>618.7</ele>
        <time>2011-09-25T09:28:07Z</time>
      </trkpt>
      <trkpt lat="45.67395" lon="3.08102">
        <ele>619</ele>
        <time>2011-09-25T09:28:09Z</time>
      </trkpt>
      <trkpt lat="45.67391" lon="3.08116">
        <ele>619.3</ele>
        <time>2011-09-25T09:28:12Z</time>
      </trkpt>
      <trkpt lat="45.67387" lon="3.08128">
        <ele>619.5</ele>
        <time>2011-09-25T09:28:16Z</time>
      </trkpt>
      <trkpt lat="45.67383" lon="3.08139">
        <ele>619.8</ele>
        <time>2011-09-25T09:28:19Z</time>
      </trkpt>
      <trkpt lat="45.67378" lon="3.08148">
        <ele>620.1</ele>
        <time>2011-09-25T09:28:21Z</time>
      </trkpt>
      <trkpt lat="45.67372" lon="3.08162">
        <ele>620.4</ele>
        <time>2011-09-25T09:28:25Z</time>
      </trkpt>
      <trkpt lat="45.67365" lon="3.08175">
        <ele>620.6</ele>
        <time>2011-09-25T09:28:26Z</time>
      </trkpt>
      <trkpt lat="45.67359" lon="3.08184">
        <ele>620.9</ele>
        <time>2011-09-25T09:28:28Z</time>
      </trkpt>
      <trkpt lat="45.67353" lon="3.08192">
        <ele>621.2</ele>
        <time>2011-09-25T09:28:31Z</time>
      </trkpt>
      <trkpt lat="45.67347" lon="3.08202">
        <ele>622</ele>
        <time>2011-09-25T09:28:33Z</time>
      </trkpt>
      <trkpt lat="45.67342" lon="3.08214">
        <ele>622</ele>
        <time>2011-09-25T09:28:37Z</time>
      </trkpt>
      <trkpt lat="45.67335" lon="3.08232">
        <ele>621.9</ele>
        <time>2011-09-25T09:28:43Z</time>
      </trkpt>
      <trkpt lat="45.67332" lon="3.08244">
        <ele>621.8</ele>
        <time>2011-09-25T09:28:45Z</time>
      </trkpt>
      <trkpt lat="45.6733" lon="3.08257">
        <ele>621.7</ele>
        <time>2011-09-25T09:28:48Z</time>
      </trkpt>
      <trkpt lat="45.67329" lon="3.08273">
        <ele>621.6</ele>
        <time>2011-09-25T09:28:53Z</time>
      </trkpt>
      <trkpt lat="45.67326" lon="3.08287">
        <ele>621.5</ele>
        <time>2011-09-25T09:28:56Z</time>
      </trkpt>
      <trkpt lat="45.67323" lon="3.08299">
        <ele>621.5</ele>
        <time>2011-09-25T09:28:59Z</time>
      </trkpt>
      <trkpt lat="45.6732" lon="3.08312">
        <ele>621.4</ele>
        <time>2011-09-25T09:29:03Z</time>
      </trkpt>
      <trkpt lat="45.67317" lon="3.08324">
        <ele>621</ele>
        <time>2011-09-25T09:29:06Z</time>
      </trkpt>
      <trkpt lat="45.67318" lon="3.08337">
        <ele>621.9</ele>
        <time>2011-09-25T09:29:11Z</time>
      </trkpt>
      <trkpt lat="45.67314" lon="3.08352">
        <ele>622.8</ele>
        <time>2011-09-25T09:29:15Z</time>
      </trkpt>
      <trkpt lat="45.67309" lon="3.08364">
        <ele>623.7</ele>
        <time>2011-09-25T09:29:20Z</time>
      </trkpt>
      <trkpt lat="45.67304" lon="3.08374">
        <ele>624.7</ele>
        <time>2011-09-25T09:29:21Z</time>
      </trkpt>
      <trkpt lat="45.67297" lon="3.08385">
        <ele>625.7</ele>
        <time>2011-09-25T09:29:23Z</time>
      </trkpt>
      <trkpt lat="45.67289" lon="3.08394">
        <ele>626.7</ele>
        <time>2011-09-25T09:29:26Z</time>
      </trkpt>
      <trkpt lat="45.67283" lon="3.08403">
        <ele>627.7</ele>
        <time>2011-09-25T09:29:29Z</time>
      </trkpt>
      <trkpt lat="45.67273" lon="3.08409">
        <ele>628.7</ele>
        <time>2011-09-25T09:29:33Z</time>
      </trkpt>
      <trkpt lat="45.67266" lon="3.08415">
        <ele>629.7</ele>
        <time>2011-09-25T09:29:36Z</time>
      </trkpt>
      <trkpt lat="45.67258" lon="3.0842">
        <ele>631</ele>
        <time>2011-09-25T09:29:39Z</time>
      </trkpt>
      <trkpt lat="45.67248" lon="3.08426">
        <ele>632.5</ele>
        <time>2011-09-25T09:29:43Z</time>
      </trkpt>
      <trkpt lat="45.67238" lon="3.08427">
        <ele>632.8</ele>
        <time>2011-09-25T09:29:46Z</time>
      </trkpt>
      <trkpt lat="45.67229" lon="3.08427">
        <ele>633.1</ele>
        <time>2011-09-25T09:29:48Z</time>
      </trkpt>
      <trkpt lat="45.67221" lon="3.08427">
        <ele>633.4</ele>
        <time>2011-09-25T09:29:50Z</time>
      </trkpt>
      <trkpt lat="45.67209" lon="3.08426">
        <ele>633.6</ele>
        <time>2011-09-25T09:29:53Z</time>
      </trkpt>
      <trkpt lat="45.672" lon="3.08425">
        <ele>633.9</ele>
        <time>2011-09-25T09:29:55Z</time>
      </trkpt>
      <trkpt lat="45.67192" lon="3.08428">
        <ele>634.2</ele>
        <time>2011-09-25T09:29:57Z</time>
      </trkpt>
      <trkpt lat="45.67185" lon="3.08433">
        <ele>634.5</ele>
        <time>2011-09-25T09:29:59Z</time>
      </trkpt>
      <trkpt lat="45.67177" lon="3.08438">
        <ele>634.7</ele>
        <time>2011-09-25T09:30:01Z</time>
      </trkpt>
      <trkpt lat="45.67165" lon="3.08442">
        <ele>635.1</ele>
        <time>2011-09-25T09:30:04Z</time>
      </trkpt>
      <trkpt lat="45.67157" lon="3.0844">
        <ele>635.2</ele>
        <time>2011-09-25T09:30:06Z</time>
      </trkpt>
      <trkpt lat="45.67149" lon="3.08437">
        <ele>635.3</ele>
        <time>2011-09-25T09:30:08Z</time>
      </trkpt>
      <trkpt lat="45.6714" lon="3.08434">
        <ele>635.4</ele>
        <time>2011-09-25T09:30:10Z</time>
      </trkpt>
      <trkpt lat="45.67131" lon="3.08433">
        <ele>635.5</ele>
        <time>2011-09-25T09:30:12Z</time>
      </trkpt>
      <trkpt lat="45.67123" lon="3.08431">
        <ele>635.5</ele>
        <time>2011-09-25T09:30:14Z</time>
      </trkpt>
      <trkpt lat="45.67113" lon="3.08429">
        <ele>635.6</ele>
        <time>2011-09-25T09:30:16Z</time>
      </trkpt>
      <trkpt lat="45.67102" lon="3.08428">
        <ele>635.7</ele>
        <time>2011-09-25T09:30:18Z</time>
      </trkpt>
      <trkpt lat="45.67091" lon="3.08426">
        <ele>635.6</ele>
        <time>2011-09-25T09:30:21Z</time>
      </trkpt>
      <trkpt lat="45.6708" lon="3.08423">
        <ele>635.5</ele>
        <time>2011-09-25T09:30:24Z</time>
      </trkpt>
      <trkpt lat="45.67069" lon="3.08419">
        <ele>635.5</ele>
        <time>2011-09-25T09:30:26Z</time>
      </trkpt>
      <trkpt lat="45.67058" lon="3.08415">
        <ele>635.3</ele>
        <time>2011-09-25T09:30:28Z</time>
      </trkpt>
      <trkpt lat="45.67047" lon="3.08408">
        <ele>635.1</ele>
        <time>2011-09-25T09:30:30Z</time>
      </trkpt>
      <trkpt lat="45.67037" lon="3.08399">
        <ele>634.9</ele>
        <time>2011-09-25T09:30:32Z</time>
      </trkpt>
      <trkpt lat="45.67027" lon="3.08388">
        <ele>634.7</ele>
        <time>2011-09-25T09:30:34Z</time>
      </trkpt>
      <trkpt lat="45.67017" lon="3.08379">
        <ele>634.6</ele>
        <time>2011-09-25T09:30:37Z</time>
      </trkpt>
      <trkpt lat="45.67007" lon="3.0837">
        <ele>634.5</ele>
        <time>2011-09-25T09:30:39Z</time>
      </trkpt>
      <trkpt lat="45.66995" lon="3.08363">
        <ele>634.5</ele>
        <time>2011-09-25T09:30:41Z</time>
      </trkpt>
      <trkpt lat="45.66982" lon="3.08356">
        <ele>634.4</ele>
        <time>2011-09-25T09:30:42Z</time>
      </trkpt>
      <trkpt lat="45.6697" lon="3.0835">
        <ele>634.5</ele>
        <time>2011-09-25T09:30:43Z</time>
      </trkpt>
      <trkpt lat="45.66956" lon="3.08347">
        <ele>634.5</ele>
        <time>2011-09-25T09:30:43Z</time>
      </trkpt>
      <trkpt lat="45.66943" lon="3.08346">
        <ele>633.9</ele>
        <time>2011-09-25T09:30:45Z</time>
      </trkpt>
      <trkpt lat="45.66929" lon="3.08346">
        <ele>633.3</ele>
        <time>2011-09-25T09:30:47Z</time>
      </trkpt>
      <trkpt lat="45.66916" lon="3.08348">
        <ele>632.6</ele>
        <time>2011-09-25T09:30:49Z</time>
      </trkpt>
      <trkpt lat="45.66902" lon="3.08348">
        <ele>632</ele>
        <time>2011-09-25T09:30:51Z</time>
      </trkpt>
      <trkpt lat="45.66888" lon="3.08351">
        <ele>631.4</ele>
        <time>2011-09-25T09:30:53Z</time>
      </trkpt>
      <trkpt lat="45.66874" lon="3.08352">
        <ele>630.6</ele>
        <time>2011-09-25T09:30:55Z</time>
      </trkpt>
      <trkpt lat="45.66862" lon="3.08353">
        <ele>629.9</ele>
        <time>2011-09-25T09:30:57Z</time>
      </trkpt>
      <trkpt lat="45.6685" lon="3.08355">
        <ele>629.2</ele>
        <time>2011-09-25T09:30:59Z</time>
      </trkpt>
      <trkpt lat="45.66841" lon="3.08353">
        <ele>628.5</ele>
        <time>2011-09-25T09:31:01Z</time>
      </trkpt>
      <trkpt lat="45.66835" lon="3.08347">
        <ele>627.7</ele>
        <time>2011-09-25T09:31:04Z</time>
      </trkpt>
      <trkpt lat="45.66826" lon="3.08345">
        <ele>627</ele>
        <time>2011-09-25T09:31:09Z</time>
      </trkpt>
      <trkpt lat="45.66819" lon="3.08341">
        <ele>627</ele>
        <time>2011-09-25T09:31:25Z</time>
      </trkpt>
      <trkpt lat="45.66828" lon="3.08346">
        <ele>625.7</ele>
        <time>2011-09-25T09:32:07Z</time>
      </trkpt>
      <trkpt lat="45.66821" lon="3.08337">
        <ele>624.5</ele>
        <time>2011-09-25T09:36:56Z</time>
      </trkpt>
      <trkpt lat="45.66813" lon="3.0833">
        <ele>623.2</ele>
        <time>2011-09-25T09:36:59Z</time>
      </trkpt>
      <trkpt lat="45.66806" lon="3.08321">
        <ele>622.8</ele>
        <time>2011-09-25T09:37:01Z</time>
      </trkpt>
      <trkpt lat="45.66797" lon="3.08311">
        <ele>622.5</ele>
        <time>2011-09-25T09:37:03Z</time>
      </trkpt>
      <trkpt lat="45.66785" lon="3.08303">
        <ele>622.1</ele>
        <time>2011-09-25T09:37:05Z</time>
      </trkpt>
      <trkpt lat="45.66774" lon="3.08296">
        <ele>619.8</ele>
        <time>2011-09-25T09:37:07Z</time>
      </trkpt>
      <trkpt lat="45.66758" lon="3.08295">
        <ele>617.5</ele>
        <time>2011-09-25T09:37:09Z</time>
      </trkpt>
      <trkpt lat="45.66745" lon="3.08293">
        <ele>615.3</ele>
        <time>2011-09-25T09:37:11Z</time>
      </trkpt>
      <trkpt lat="45.66733" lon="3.08285">
        <ele>613</ele>
        <time>2011-09-25T09:37:13Z</time>
      </trkpt>
      <trkpt lat="45.6672" lon="3.08274">
        <ele>610.7</ele>
        <time>2011-09-25T09:37:15Z</time>
      </trkpt>
      <trkpt lat="45.66709" lon="3.08261">
        <ele>611</ele>
        <time>2011-09-25T09:37:17Z</time>
      </trkpt>
      <trkpt lat="45.66697" lon="3.08245">
        <ele>611.3</ele>
        <time>2011-09-25T09:37:19Z</time>
      </trkpt>
      <trkpt lat="45.66686" lon="3.0823">
        <ele>609.3</ele>
        <time>2011-09-25T09:37:21Z</time>
      </trkpt>
      <trkpt lat="45.66672" lon="3.0822">
        <ele>606.4</ele>
        <time>2011-09-25T09:37:23Z</time>
      </trkpt>
      <trkpt lat="45.66658" lon="3.08213">
        <ele>603.5</ele>
        <time>2011-09-25T09:37:25Z</time>
      </trkpt>
      <trkpt lat="45.66645" lon="3.08206">
        <ele>600.5</ele>
        <time>2011-09-25T09:37:27Z</time>
      </trkpt>
      <trkpt lat="45.66631" lon="3.08195">
        <ele>599.5</ele>
        <time>2011-09-25T09:37:29Z</time>
      </trkpt>
      <trkpt lat="45.66624" lon="3.08186">
        <ele>598.5</ele>
        <time>2011-09-25T09:37:30Z</time>
      </trkpt>
      <trkpt lat="45.66616" lon="3.08178">
        <ele>597.5</ele>
        <time>2011-09-25T09:37:31Z</time>
      </trkpt>
      <trkpt lat="45.66608" lon="3.08171">
        <ele>596.5</ele>
        <time>2011-09-25T09:37:31Z</time>
      </trkpt>
      <trkpt lat="45.666" lon="3.08164">
        <ele>596.5</ele>
        <time>2011-09-25T09:37:32Z</time>
      </trkpt>
      <trkpt lat="45.66592" lon="3.08156">
        <ele>595.3</ele>
        <time>2011-09-25T09:37:33Z</time>
      </trkpt>
      <trkpt lat="45.66585" lon="3.08147">
        <ele>594</ele>
        <time>2011-09-25T09:37:35Z</time>
      </trkpt>
      <trkpt lat="45.66577" lon="3.08138">
        <ele>593</ele>
        <time>2011-09-25T09:37:35Z</time>
      </trkpt>
      <trkpt lat="45.6657" lon="3.08129">
        <ele>592</ele>
        <time>2011-09-25T09:37:36Z</time>
      </trkpt>
      <trkpt lat="45.66562" lon="3.0812">
        <ele>591</ele>
        <time>2011-09-25T09:37:37Z</time>
      </trkpt>
      <trkpt lat="45.66554" lon="3.08111">
        <ele>590</ele>
        <time>2011-09-25T09:37:38Z</time>
      </trkpt>
      <trkpt lat="45.66547" lon="3.08101">
        <ele>589</ele>
        <time>2011-09-25T09:37:39Z</time>
      </trkpt>
      <trkpt lat="45.6654" lon="3.08091">
        <ele>588.4</ele>
        <time>2011-09-25T09:37:40Z</time>
      </trkpt>
      <trkpt lat="45.66533" lon="3.08082">
        <ele>587.7</ele>
        <time>2011-09-25T09:37:41Z</time>
      </trkpt>
      <trkpt lat="45.66526" lon="3.08074">
        <ele>586.7</ele>
        <time>2011-09-25T09:37:42Z</time>
      </trkpt>
      <trkpt lat="45.66519" lon="3.08066">
        <ele>584.7</ele>
        <time>2011-09-25T09:37:44Z</time>
      </trkpt>
      <trkpt lat="45.66507" lon="3.08053">
        <ele>582.7</ele>
        <time>2011-09-25T09:37:45Z</time>
      </trkpt>
      <trkpt lat="45.66498" lon="3.08042">
        <ele>580.7</ele>
        <time>2011-09-25T09:37:47Z</time>
      </trkpt>
      <trkpt lat="45.6649" lon="3.08036">
        <ele>580.7</ele>
        <time>2011-09-25T09:37:50Z</time>
      </trkpt>
      <trkpt lat="45.66486" lon="3.08048">
        <ele>580</ele>
        <time>2011-09-25T09:37:53Z</time>
      </trkpt>
      <trkpt lat="45.66487" lon="3.08063">
        <ele>579.3</ele>
        <time>2011-09-25T09:37:56Z</time>
      </trkpt>
      <trkpt lat="45.6649" lon="3.08081">
        <ele>578.5</ele>
        <time>2011-09-25T09:37:57Z</time>
      </trkpt>
      <trkpt lat="45.66493" lon="3.08098">
        <ele>577.8</ele>
        <time>2011-09-25T09:37:59Z</time>
      </trkpt>
      <trkpt lat="45.66497" lon="3.08117">
        <ele>576.7</ele>
        <time>2011-09-25T09:38:01Z</time>
      </trkpt>
      <trkpt lat="45.66502" lon="3.08136">
        <ele>574.8</ele>
        <time>2011-09-25T09:38:04Z</time>
      </trkpt>
      <trkpt lat="45.66506" lon="3.08153">
        <ele>573.3</ele>
        <time>2011-09-25T09:38:05Z</time>
      </trkpt>
      <trkpt lat="45.66511" lon="3.08171">
        <ele>573.5</ele>
        <time>2011-09-25T09:38:07Z</time>
      </trkpt>
      <trkpt lat="45.66517" lon="3.08188">
        <ele>573.6</ele>
        <time>2011-09-25T09:38:09Z</time>
      </trkpt>
      <trkpt lat="45.66525" lon="3.08204">
        <ele>573.8</ele>
        <time>2011-09-25T09:38:11Z</time>
      </trkpt>
      <trkpt lat="45.66533" lon="3.0822">
        <ele>574</ele>
        <time>2011-09-25T09:38:13Z</time>
      </trkpt>
      <trkpt lat="45.66542" lon="3.08234">
        <ele>574.1</ele>
        <time>2011-09-25T09:38:15Z</time>
      </trkpt>
      <trkpt lat="45.66548" lon="3.08247">
        <ele>574.2</ele>
        <time>2011-09-25T09:38:17Z</time>
      </trkpt>
      <trkpt lat="45.66553" lon="3.08262">
        <ele>574.3</ele>
        <time>2011-09-25T09:38:19Z</time>
      </trkpt>
      <trkpt lat="45.6656" lon="3.08276">
        <ele>574.4</ele>
        <time>2011-09-25T09:38:21Z</time>
      </trkpt>
      <trkpt lat="45.66568" lon="3.08291">
        <ele>574.5</ele>
        <time>2011-09-25T09:38:23Z</time>
      </trkpt>
      <trkpt lat="45.66575" lon="3.08305">
        <ele>575.4</ele>
        <time>2011-09-25T09:38:25Z</time>
      </trkpt>
      <trkpt lat="45.66583" lon="3.08318">
        <ele>576.3</ele>
        <time>2011-09-25T09:38:27Z</time>
      </trkpt>
      <trkpt lat="45.66593" lon="3.08334">
        <ele>575.5</ele>
        <time>2011-09-25T09:38:29Z</time>
      </trkpt>
      <trkpt lat="45.66604" lon="3.08347">
        <ele>574.6</ele>
        <time>2011-09-25T09:38:32Z</time>
      </trkpt>
      <trkpt lat="45.66613" lon="3.08359">
        <ele>573.8</ele>
        <time>2011-09-25T09:38:34Z</time>
      </trkpt>
      <trkpt lat="45.66623" lon="3.08368">
        <ele>573</ele>
        <time>2011-09-25T09:38:36Z</time>
      </trkpt>
      <trkpt lat="45.66634" lon="3.08377">
        <ele>573</ele>
        <time>2011-09-25T09:38:39Z</time>
      </trkpt>
      <trkpt lat="45.66643" lon="3.08388">
        <ele>573</ele>
        <time>2011-09-25T09:38:41Z</time>
      </trkpt>
      <trkpt lat="45.66653" lon="3.08398">
        <ele>573</ele>
        <time>2011-09-25T09:38:44Z</time>
      </trkpt>
      <trkpt lat="45.66663" lon="3.08406">
        <ele>574.8</ele>
        <time>2011-09-25T09:38:45Z</time>
      </trkpt>
      <trkpt lat="45.66673" lon="3.08417">
        <ele>576.6</ele>
        <time>2011-09-25T09:38:47Z</time>
      </trkpt>
      <trkpt lat="45.66684" lon="3.08427">
        <ele>576.3</ele>
        <time>2011-09-25T09:38:49Z</time>
      </trkpt>
      <trkpt lat="45.66691" lon="3.08434">
        <ele>575.9</ele>
        <time>2011-09-25T09:38:51Z</time>
      </trkpt>
      <trkpt lat="45.66702" lon="3.08447">
        <ele>575.5</ele>
        <time>2011-09-25T09:38:54Z</time>
      </trkpt>
      <trkpt lat="45.66711" lon="3.08456">
        <ele>575.2</ele>
        <time>2011-09-25T09:38:56Z</time>
      </trkpt>
      <trkpt lat="45.6672" lon="3.08465">
        <ele>573.4</ele>
        <time>2011-09-25T09:38:59Z</time>
      </trkpt>
      <trkpt lat="45.66729" lon="3.08474">
        <ele>571.5</ele>
        <time>2011-09-25T09:39:01Z</time>
      </trkpt>
      <trkpt lat="45.66739" lon="3.08485">
        <ele>569.7</ele>
        <time>2011-09-25T09:39:03Z</time>
      </trkpt>
      <trkpt lat="45.66743" lon="3.08498">
        <ele>567.9</ele>
        <time>2011-09-25T09:39:04Z</time>
      </trkpt>
      <trkpt lat="45.6676" lon="3.0854">
        <ele>566.1</ele>
        <time>2011-09-25T09:39:06Z</time>
      </trkpt>
      <trkpt lat="45.66764" lon="3.08554">
        <ele>563</ele>
        <time>2011-09-25T09:39:08Z</time>
      </trkpt>
      <trkpt lat="45.6677" lon="3.08573">
        <ele>559.9</ele>
        <time>2011-09-25T09:39:10Z</time>
      </trkpt>
      <trkpt lat="45.66776" lon="3.08592">
        <ele>559</ele>
        <time>2011-09-25T09:39:12Z</time>
      </trkpt>
      <trkpt lat="45.6678" lon="3.08611">
        <ele>558.1</ele>
        <time>2011-09-25T09:39:14Z</time>
      </trkpt>
      <trkpt lat="45.6678" lon="3.08628">
        <ele>557.2</ele>
        <time>2011-09-25T09:39:16Z</time>
      </trkpt>
      <trkpt lat="45.66778" lon="3.08645">
        <ele>556.3</ele>
        <time>2011-09-25T09:39:18Z</time>
      </trkpt>
      <trkpt lat="45.66773" lon="3.08659">
        <ele>558.1</ele>
        <time>2011-09-25T09:39:20Z</time>
      </trkpt>
      <trkpt lat="45.66769" lon="3.08672">
        <ele>559.9</ele>
        <time>2011-09-25T09:39:22Z</time>
      </trkpt>
      <trkpt lat="45.66764" lon="3.08682">
        <ele>561.7</ele>
        <time>2011-09-25T09:39:24Z</time>
      </trkpt>
      <trkpt lat="45.66758" lon="3.08695">
        <ele>563.5</ele>
        <time>2011-09-25T09:39:27Z</time>
      </trkpt>
      <trkpt lat="45.66754" lon="3.08706">
        <ele>565.4</ele>
        <time>2011-09-25T09:39:30Z</time>
      </trkpt>
      <trkpt lat="45.66749" lon="3.08718">
        <ele>566.6</ele>
        <time>2011-09-25T09:39:33Z</time>
      </trkpt>
      <trkpt lat="45.66747" lon="3.08732">
        <ele>567.8</ele>
        <time>2011-09-25T09:39:36Z</time>
      </trkpt>
      <trkpt lat="45.66746" lon="3.08746">
        <ele>569</ele>
        <time>2011-09-25T09:39:39Z</time>
      </trkpt>
      <trkpt lat="45.66745" lon="3.08763">
        <ele>570.2</ele>
        <time>2011-09-25T09:39:42Z</time>
      </trkpt>
      <trkpt lat="45.66744" lon="3.08776">
        <ele>571.4</ele>
        <time>2011-09-25T09:39:44Z</time>
      </trkpt>
      <trkpt lat="45.66743" lon="3.08789">
        <ele>572.5</ele>
        <time>2011-09-25T09:39:47Z</time>
      </trkpt>
      <trkpt lat="45.66743" lon="3.08804">
        <ele>572.5</ele>
        <time>2011-09-25T09:39:48Z</time>
      </trkpt>
      <trkpt lat="45.66743" lon="3.08822">
        <ele>571.7</ele>
        <time>2011-09-25T09:39:51Z</time>
      </trkpt>
      <trkpt lat="45.66739" lon="3.08834">
        <ele>571</ele>
        <time>2011-09-25T09:39:53Z</time>
      </trkpt>
      <trkpt lat="45.66741" lon="3.08848">
        <ele>570.3</ele>
        <time>2011-09-25T09:39:55Z</time>
      </trkpt>
      <trkpt lat="45.66739" lon="3.08863">
        <ele>569.5</ele>
        <time>2011-09-25T09:39:57Z</time>
      </trkpt>
      <trkpt lat="45.66738" lon="3.08877">
        <ele>568.8</ele>
        <time>2011-09-25T09:40:00Z</time>
      </trkpt>
      <trkpt lat="45.66739" lon="3.08892">
        <ele>568.2</ele>
        <time>2011-09-25T09:40:02Z</time>
      </trkpt>
      <trkpt lat="45.66738" lon="3.08906">
        <ele>566.3</ele>
        <time>2011-09-25T09:40:04Z</time>
      </trkpt>
      <trkpt lat="45.66736" lon="3.0892">
        <ele>564.4</ele>
        <time>2011-09-25T09:40:07Z</time>
      </trkpt>
      <trkpt lat="45.66734" lon="3.08934">
        <ele>562.5</ele>
        <time>2011-09-25T09:40:08Z</time>
      </trkpt>
      <trkpt lat="45.66736" lon="3.08949">
        <ele>560.5</ele>
        <time>2011-09-25T09:40:10Z</time>
      </trkpt>
      <trkpt lat="45.66736" lon="3.08961">
        <ele>558.6</ele>
        <time>2011-09-25T09:40:12Z</time>
      </trkpt>
      <trkpt lat="45.66736" lon="3.08975">
        <ele>555.8</ele>
        <time>2011-09-25T09:40:15Z</time>
      </trkpt>
      <trkpt lat="45.66738" lon="3.08992">
        <ele>553</ele>
        <time>2011-09-25T09:40:18Z</time>
      </trkpt>
      <trkpt lat="45.66745" lon="3.09005">
        <ele>550.2</ele>
        <time>2011-09-25T09:40:20Z</time>
      </trkpt>
      <trkpt lat="45.66742" lon="3.0902">
        <ele>547.4</ele>
        <time>2011-09-25T09:40:23Z</time>
      </trkpt>
      <trkpt lat="45.66744" lon="3.09033">
        <ele>544.5</ele>
        <time>2011-09-25T09:40:26Z</time>
      </trkpt>
      <trkpt lat="45.66747" lon="3.09048">
        <ele>541.7</ele>
        <time>2011-09-25T09:40:29Z</time>
      </trkpt>
      <trkpt lat="45.6675" lon="3.09064">
        <ele>538.7</ele>
        <time>2011-09-25T09:40:32Z</time>
      </trkpt>
      <trkpt lat="45.66755" lon="3.09082">
        <ele>535.7</ele>
        <time>2011-09-25T09:40:35Z</time>
      </trkpt>
      <trkpt lat="45.66759" lon="3.09095">
        <ele>532.7</ele>
        <time>2011-09-25T09:40:37Z</time>
      </trkpt>
      <trkpt lat="45.66762" lon="3.09107">
        <ele>529.7</ele>
        <time>2011-09-25T09:40:39Z</time>
      </trkpt>
      <trkpt lat="45.66763" lon="3.09122">
        <ele>526.7</ele>
        <time>2011-09-25T09:40:41Z</time>
      </trkpt>
      <trkpt lat="45.66766" lon="3.09136">
        <ele>525.3</ele>
        <time>2011-09-25T09:40:43Z</time>
      </trkpt>
      <trkpt lat="45.6677" lon="3.09152">
        <ele>523.2</ele>
        <time>2011-09-25T09:40:45Z</time>
      </trkpt>
      <trkpt lat="45.66775" lon="3.09167">
        <ele>521.1</ele>
        <time>2011-09-25T09:40:47Z</time>
      </trkpt>
      <trkpt lat="45.6678" lon="3.09181">
        <ele>519</ele>
        <time>2011-09-25T09:40:50Z</time>
      </trkpt>
      <trkpt lat="45.66784" lon="3.09197">
        <ele>516.9</ele>
        <time>2011-09-25T09:40:53Z</time>
      </trkpt>
      <trkpt lat="45.6679" lon="3.09209">
        <ele>514.8</ele>
        <time>2011-09-25T09:40:56Z</time>
      </trkpt>
      <trkpt lat="45.66799" lon="3.09213">
        <ele>514.2</ele>
        <time>2011-09-25T09:40:57Z</time>
      </trkpt>
      <trkpt lat="45.66806" lon="3.09219">
        <ele>513.5</ele>
        <time>2011-09-25T09:41:00Z</time>
      </trkpt>
      <trkpt lat="45.66816" lon="3.09224">
        <ele>512.9</ele>
        <time>2011-09-25T09:41:03Z</time>
      </trkpt>
      <trkpt lat="45.66824" lon="3.09228">
        <ele>512.3</ele>
        <time>2011-09-25T09:41:04Z</time>
      </trkpt>
      <trkpt lat="45.66834" lon="3.09231">
        <ele>512.1</ele>
        <time>2011-09-25T09:41:08Z</time>
      </trkpt>
      <trkpt lat="45.66843" lon="3.09236">
        <ele>511.9</ele>
        <time>2011-09-25T09:41:11Z</time>
      </trkpt>
      <trkpt lat="45.66853" lon="3.0924">
        <ele>512.4</ele>
        <time>2011-09-25T09:41:14Z</time>
      </trkpt>
      <trkpt lat="45.66862" lon="3.09245">
        <ele>512.8</ele>
        <time>2011-09-25T09:41:16Z</time>
      </trkpt>
      <trkpt lat="45.66874" lon="3.0925">
        <ele>513.3</ele>
        <time>2011-09-25T09:41:18Z</time>
      </trkpt>
      <trkpt lat="45.66885" lon="3.09255">
        <ele>513.3</ele>
        <time>2011-09-25T09:41:20Z</time>
      </trkpt>
      <trkpt lat="45.66895" lon="3.09263">
        <ele>513.3</ele>
        <time>2011-09-25T09:41:22Z</time>
      </trkpt>
      <trkpt lat="45.66903" lon="3.0927">
        <ele>513.3</ele>
        <time>2011-09-25T09:41:25Z</time>
      </trkpt>
      <trkpt lat="45.66897" lon="3.0928">
        <ele>513.3</ele>
        <time>2011-09-25T09:41:31Z</time>
      </trkpt>
      <trkpt lat="45.66886" lon="3.09281">
        <ele>513.3</ele>
        <time>2011-09-25T09:41:34Z</time>
      </trkpt>
      <trkpt lat="45.66873" lon="3.09282">
        <ele>513.3</ele>
        <time>2011-09-25T09:41:37Z</time>
      </trkpt>
      <trkpt lat="45.66865" lon="3.09282">
        <ele>512.8</ele>
        <time>2011-09-25T09:41:39Z</time>
      </trkpt>
      <trkpt lat="45.66855" lon="3.0928">
        <ele>510.5</ele>
        <time>2011-09-25T09:41:42Z</time>
      </trkpt>
      <trkpt lat="45.66844" lon="3.09281">
        <ele>508.1</ele>
        <time>2011-09-25T09:41:45Z</time>
      </trkpt>
      <trkpt lat="45.66834" lon="3.09283">
        <ele>506.5</ele>
        <time>2011-09-25T09:41:49Z</time>
      </trkpt>
      <trkpt lat="45.66826" lon="3.09287">
        <ele>504.8</ele>
        <time>2011-09-25T09:41:52Z</time>
      </trkpt>
      <trkpt lat="45.66817" lon="3.0929">
        <ele>503.6</ele>
        <time>2011-09-25T09:41:55Z</time>
      </trkpt>
      <trkpt lat="45.66807" lon="3.09296">
        <ele>502.5</ele>
        <time>2011-09-25T09:41:59Z</time>
      </trkpt>
      <trkpt lat="45.66797" lon="3.09295">
        <ele>501.3</ele>
        <time>2011-09-25T09:42:02Z</time>
      </trkpt>
      <trkpt lat="45.66789" lon="3.09292">
        <ele>500.1</ele>
        <time>2011-09-25T09:42:04Z</time>
      </trkpt>
      <trkpt lat="45.6678" lon="3.09289">
        <ele>498.9</ele>
        <time>2011-09-25T09:42:05Z</time>
      </trkpt>
      <trkpt lat="45.66771" lon="3.09285">
        <ele>497.7</ele>
        <time>2011-09-25T09:42:07Z</time>
      </trkpt>
      <trkpt lat="45.6676" lon="3.09279">
        <ele>496.5</ele>
        <time>2011-09-25T09:42:10Z</time>
      </trkpt>
      <trkpt lat="45.66752" lon="3.09273">
        <ele>497.3</ele>
        <time>2011-09-25T09:42:12Z</time>
      </trkpt>
      <trkpt lat="45.66742" lon="3.09265">
        <ele>498</ele>
        <time>2011-09-25T09:42:15Z</time>
      </trkpt>
      <trkpt lat="45.66734" lon="3.09255">
        <ele>497.5</ele>
        <time>2011-09-25T09:42:18Z</time>
      </trkpt>
      <trkpt lat="45.66728" lon="3.09246">
        <ele>497.1</ele>
        <time>2011-09-25T09:42:21Z</time>
      </trkpt>
      <trkpt lat="45.66721" lon="3.09236">
        <ele>496.6</ele>
        <time>2011-09-25T09:42:25Z</time>
      </trkpt>
      <trkpt lat="45.66715" lon="3.09227">
        <ele>496.2</ele>
        <time>2011-09-25T09:42:28Z</time>
      </trkpt>
      <trkpt lat="45.66711" lon="3.09216">
        <ele>495.7</ele>
        <time>2011-09-25T09:42:31Z</time>
      </trkpt>
      <trkpt lat="45.66706" lon="3.09204">
        <ele>495.3</ele>
        <time>2011-09-25T09:42:34Z</time>
      </trkpt>
      <trkpt lat="45.66703" lon="3.09192">
        <ele>495.5</ele>
        <time>2011-09-25T09:42:37Z</time>
      </trkpt>
      <trkpt lat="45.66698" lon="3.0918">
        <ele>495.8</ele>
        <time>2011-09-25T09:42:40Z</time>
      </trkpt>
      <trkpt lat="45.66693" lon="3.09166">
        <ele>496.1</ele>
        <time>2011-09-25T09:42:43Z</time>
      </trkpt>
      <trkpt lat="45.6669" lon="3.09152">
        <ele>496.4</ele>
        <time>2011-09-25T09:42:46Z</time>
      </trkpt>
      <trkpt lat="45.66686" lon="3.0914">
        <ele>496.6</ele>
        <time>2011-09-25T09:42:49Z</time>
      </trkpt>
      <trkpt lat="45.66683" lon="3.09126">
        <ele>497.4</ele>
        <time>2011-09-25T09:42:52Z</time>
      </trkpt>
      <trkpt lat="45.66679" lon="3.09113">
        <ele>498.1</ele>
        <time>2011-09-25T09:42:55Z</time>
      </trkpt>
      <trkpt lat="45.66675" lon="3.091">
        <ele>500</ele>
        <time>2011-09-25T09:42:58Z</time>
      </trkpt>
      <trkpt lat="45.66672" lon="3.09088">
        <ele>501.9</ele>
        <time>2011-09-25T09:43:01Z</time>
      </trkpt>
      <trkpt lat="45.66668" lon="3.09075">
        <ele>503.8</ele>
        <time>2011-09-25T09:43:04Z</time>
      </trkpt>
      <trkpt lat="45.66663" lon="3.09062">
        <ele>505.7</ele>
        <time>2011-09-25T09:43:07Z</time>
      </trkpt>
      <trkpt lat="45.66659" lon="3.09048">
        <ele>506.9</ele>
        <time>2011-09-25T09:43:10Z</time>
      </trkpt>
      <trkpt lat="45.66655" lon="3.09035">
        <ele>508.1</ele>
        <time>2011-09-25T09:43:13Z</time>
      </trkpt>
      <trkpt lat="45.66651" lon="3.09021">
        <ele>510.4</ele>
        <time>2011-09-25T09:43:16Z</time>
      </trkpt>
      <trkpt lat="45.66648" lon="3.09007">
        <ele>512.6</ele>
        <time>2011-09-25T09:43:19Z</time>
      </trkpt>
      <trkpt lat="45.66644" lon="3.08993">
        <ele>512.9</ele>
        <time>2011-09-25T09:43:22Z</time>
      </trkpt>
      <trkpt lat="45.66641" lon="3.0898">
        <ele>513.2</ele>
        <time>2011-09-25T09:43:25Z</time>
      </trkpt>
      <trkpt lat="45.66638" lon="3.08965">
        <ele>513.5</ele>
        <time>2011-09-25T09:43:28Z</time>
      </trkpt>
      <trkpt lat="45.66633" lon="3.08952">
        <ele>512.8</ele>
        <time>2011-09-25T09:43:31Z</time>
      </trkpt>
      <trkpt lat="45.66629" lon="3.08937">
        <ele>512.2</ele>
        <time>2011-09-25T09:43:34Z</time>
      </trkpt>
      <trkpt lat="45.66625" lon="3.08921">
        <ele>511.5</ele>
        <time>2011-09-25T09:43:37Z</time>
      </trkpt>
      <trkpt lat="45.66621" lon="3.08905">
        <ele>510.9</ele>
        <time>2011-09-25T09:43:40Z</time>
      </trkpt>
      <trkpt lat="45.66618" lon="3.08894">
        <ele>510.3</ele>
        <time>2011-09-25T09:43:42Z</time>
      </trkpt>
      <trkpt lat="45.66614" lon="3.08878">
        <ele>509.6</ele>
        <time>2011-09-25T09:43:45Z</time>
      </trkpt>
      <trkpt lat="45.6661" lon="3.08862">
        <ele>508.3</ele>
        <time>2011-09-25T09:43:48Z</time>
      </trkpt>
      <trkpt lat="45.66605" lon="3.08847">
        <ele>506.9</ele>
        <time>2011-09-25T09:43:51Z</time>
      </trkpt>
      <trkpt lat="45.66601" lon="3.08832">
        <ele>507.5</ele>
        <time>2011-09-25T09:43:54Z</time>
      </trkpt>
      <trkpt lat="45.66598" lon="3.08821">
        <ele>508.2</ele>
        <time>2011-09-25T09:43:56Z</time>
      </trkpt>
      <trkpt lat="45.66593" lon="3.08804">
        <ele>508.8</ele>
        <time>2011-09-25T09:43:59Z</time>
      </trkpt>
      <trkpt lat="45.66588" lon="3.08788">
        <ele>509.2</ele>
        <time>2011-09-25T09:44:02Z</time>
      </trkpt>
      <trkpt lat="45.66585" lon="3.08776">
        <ele>509.5</ele>
        <time>2011-09-25T09:44:04Z</time>
      </trkpt>
      <trkpt lat="45.66582" lon="3.08766">
        <ele>509.9</ele>
        <time>2011-09-25T09:44:06Z</time>
      </trkpt>
      <trkpt lat="45.66579" lon="3.08755">
        <ele>510</ele>
        <time>2011-09-25T09:44:08Z</time>
      </trkpt>
      <trkpt lat="45.66574" lon="3.0874">
        <ele>510.1</ele>
        <time>2011-09-25T09:44:11Z</time>
      </trkpt>
      <trkpt lat="45.66569" lon="3.08725">
        <ele>510.2</ele>
        <time>2011-09-25T09:44:15Z</time>
      </trkpt>
      <trkpt lat="45.66565" lon="3.08714">
        <ele>510.1</ele>
        <time>2011-09-25T09:44:17Z</time>
      </trkpt>
      <trkpt lat="45.66559" lon="3.087">
        <ele>510</ele>
        <time>2011-09-25T09:44:23Z</time>
      </trkpt>
      <trkpt lat="45.6654" lon="3.08687">
        <ele>509.9</ele>
        <time>2011-09-25T09:44:24Z</time>
      </trkpt>
      <trkpt lat="45.66531" lon="3.08695">
        <ele>509.8</ele>
        <time>2011-09-25T09:44:26Z</time>
      </trkpt>
      <trkpt lat="45.66525" lon="3.08711">
        <ele>509.7</ele>
        <time>2011-09-25T09:44:28Z</time>
      </trkpt>
      <trkpt lat="45.66523" lon="3.08725">
        <ele>509.6</ele>
        <time>2011-09-25T09:44:31Z</time>
      </trkpt>
      <trkpt lat="45.66523" lon="3.08741">
        <ele>509.5</ele>
        <time>2011-09-25T09:44:33Z</time>
      </trkpt>
      <trkpt lat="45.66521" lon="3.08757">
        <ele>509.5</ele>
        <time>2011-09-25T09:44:35Z</time>
      </trkpt>
      <trkpt lat="45.66515" lon="3.08769">
        <ele>509.6</ele>
        <time>2011-09-25T09:44:37Z</time>
      </trkpt>
      <trkpt lat="45.66508" lon="3.08781">
        <ele>509.6</ele>
        <time>2011-09-25T09:44:39Z</time>
      </trkpt>
      <trkpt lat="45.66512" lon="3.08766">
        <ele>509.6</ele>
        <time>2011-09-25T09:44:46Z</time>
      </trkpt>
      <trkpt lat="45.66513" lon="3.08754">
        <ele>509.5</ele>
        <time>2011-09-25T09:44:49Z</time>
      </trkpt>
      <trkpt lat="45.66512" lon="3.08741">
        <ele>509.3</ele>
        <time>2011-09-25T09:44:51Z</time>
      </trkpt>
      <trkpt lat="45.66506" lon="3.08728">
        <ele>509.1</ele>
        <time>2011-09-25T09:44:55Z</time>
      </trkpt>
      <trkpt lat="45.66499" lon="3.08717">
        <ele>508.9</ele>
        <time>2011-09-25T09:44:57Z</time>
      </trkpt>
      <trkpt lat="45.66489" lon="3.08705">
        <ele>509.2</ele>
        <time>2011-09-25T09:44:59Z</time>
      </trkpt>
      <trkpt lat="45.66487" lon="3.08691">
        <ele>509.5</ele>
        <time>2011-09-25T09:45:03Z</time>
      </trkpt>
      <trkpt lat="45.66484" lon="3.08674">
        <ele>509.7</ele>
        <time>2011-09-25T09:45:06Z</time>
      </trkpt>
      <trkpt lat="45.66478" lon="3.08662">
        <ele>510</ele>
        <time>2011-09-25T09:45:08Z</time>
      </trkpt>
      <trkpt lat="45.66469" lon="3.0865">
        <ele>510.3</ele>
        <time>2011-09-25T09:45:10Z</time>
      </trkpt>
      <trkpt lat="45.66458" lon="3.08634">
        <ele>510.7</ele>
        <time>2011-09-25T09:45:13Z</time>
      </trkpt>
      <trkpt lat="45.6645" lon="3.08621">
        <ele>511.2</ele>
        <time>2011-09-25T09:45:15Z</time>
      </trkpt>
      <trkpt lat="45.66447" lon="3.08608">
        <ele>511.7</ele>
        <time>2011-09-25T09:45:23Z</time>
      </trkpt>
      <trkpt lat="45.66444" lon="3.08597">
        <ele>512.3</ele>
        <time>2011-09-25T09:45:28Z</time>
      </trkpt>
      <trkpt lat="45.66443" lon="3.08585">
        <ele>512.8</ele>
        <time>2011-09-25T09:45:32Z</time>
      </trkpt>
      <trkpt lat="45.6644" lon="3.08572">
        <ele>513.4</ele>
        <time>2011-09-25T09:45:36Z</time>
      </trkpt>
      <trkpt lat="45.66426" lon="3.08558">
        <ele>513.5</ele>
        <time>2011-09-25T09:45:39Z</time>
      </trkpt>
      <trkpt lat="45.66421" lon="3.08546">
        <ele>513.5</ele>
        <time>2011-09-25T09:45:42Z</time>
      </trkpt>
      <trkpt lat="45.66416" lon="3.08533">
        <ele>514.4</ele>
        <time>2011-09-25T09:45:46Z</time>
      </trkpt>
      <trkpt lat="45.6641" lon="3.08524">
        <ele>515.2</ele>
        <time>2011-09-25T09:45:48Z</time>
      </trkpt>
      <trkpt lat="45.66408" lon="3.08505">
        <ele>515.6</ele>
        <time>2011-09-25T09:45:53Z</time>
      </trkpt>
      <trkpt lat="45.66399" lon="3.08491">
        <ele>516.5</ele>
        <time>2011-09-25T09:45:55Z</time>
      </trkpt>
      <trkpt lat="45.66394" lon="3.0848">
        <ele>516.9</ele>
        <time>2011-09-25T09:45:58Z</time>
      </trkpt>
      <trkpt lat="45.6639" lon="3.08465">
        <ele>517.3</ele>
        <time>2011-09-25T09:46:01Z</time>
      </trkpt>
      <trkpt lat="45.66384" lon="3.08453">
        <ele>517.6</ele>
        <time>2011-09-25T09:46:03Z</time>
      </trkpt>
      <trkpt lat="45.6638" lon="3.08441">
        <ele>518</ele>
        <time>2011-09-25T09:46:08Z</time>
      </trkpt>
      <trkpt lat="45.66383" lon="3.08423">
        <ele>518.4</ele>
        <time>2011-09-25T09:46:11Z</time>
      </trkpt>
      <trkpt lat="45.66375" lon="3.08415">
        <ele>518.7</ele>
        <time>2011-09-25T09:46:14Z</time>
      </trkpt>
      <trkpt lat="45.66364" lon="3.08399">
        <ele>519.1</ele>
        <time>2011-09-25T09:46:18Z</time>
      </trkpt>
      <trkpt lat="45.66355" lon="3.08389">
        <ele>518.7</ele>
        <time>2011-09-25T09:46:20Z</time>
      </trkpt>
      <trkpt lat="45.66349" lon="3.0838">
        <ele>518.4</ele>
        <time>2011-09-25T09:46:22Z</time>
      </trkpt>
      <trkpt lat="45.6634" lon="3.08367">
        <ele>518.4</ele>
        <time>2011-09-25T09:46:25Z</time>
      </trkpt>
      <trkpt lat="45.66327" lon="3.0836">
        <ele>518.5</ele>
        <time>2011-09-25T09:46:29Z</time>
      </trkpt>
      <trkpt lat="45.66317" lon="3.08346">
        <ele>519.1</ele>
        <time>2011-09-25T09:46:34Z</time>
      </trkpt>
      <trkpt lat="45.6631" lon="3.08331">
        <ele>519.6</ele>
        <time>2011-09-25T09:46:37Z</time>
      </trkpt>
      <trkpt lat="45.66307" lon="3.08318">
        <ele>520.2</ele>
        <time>2011-09-25T09:46:40Z</time>
      </trkpt>
      <trkpt lat="45.66312" lon="3.083">
        <ele>520.7</ele>
        <time>2011-09-25T09:46:45Z</time>
      </trkpt>
      <trkpt lat="45.66308" lon="3.08286">
        <ele>521.3</ele>
        <time>2011-09-25T09:46:49Z</time>
      </trkpt>
      <trkpt lat="45.66308" lon="3.08271">
        <ele>521.8</ele>
        <time>2011-09-25T09:46:51Z</time>
      </trkpt>
      <trkpt lat="45.66302" lon="3.08255">
        <ele>522.5</ele>
        <time>2011-09-25T09:46:54Z</time>
      </trkpt>
      <trkpt lat="45.66294" lon="3.08239">
        <ele>523.1</ele>
        <time>2011-09-25T09:46:59Z</time>
      </trkpt>
      <trkpt lat="45.6629" lon="3.08228">
        <ele>523.7</ele>
        <time>2011-09-25T09:47:02Z</time>
      </trkpt>
      <trkpt lat="45.66284" lon="3.08217">
        <ele>524.4</ele>
        <time>2011-09-25T09:47:06Z</time>
      </trkpt>
      <trkpt lat="45.66275" lon="3.08212">
        <ele>524.5</ele>
        <time>2011-09-25T09:47:10Z</time>
      </trkpt>
      <trkpt lat="45.66265" lon="3.08207">
        <ele>524.5</ele>
        <time>2011-09-25T09:47:14Z</time>
      </trkpt>
      <trkpt lat="45.66257" lon="3.08204">
        <ele>524.6</ele>
        <time>2011-09-25T09:47:19Z</time>
      </trkpt>
      <trkpt lat="45.66248" lon="3.082">
        <ele>524.7</ele>
        <time>2011-09-25T09:47:25Z</time>
      </trkpt>
      <trkpt lat="45.66241" lon="3.08193">
        <ele>525.5</ele>
        <time>2011-09-25T09:47:31Z</time>
      </trkpt>
      <trkpt lat="45.66237" lon="3.0818">
        <ele>526.4</ele>
        <time>2011-09-25T09:47:39Z</time>
      </trkpt>
      <trkpt lat="45.66228" lon="3.08171">
        <ele>527.2</ele>
        <time>2011-09-25T09:47:43Z</time>
      </trkpt>
      <trkpt lat="45.6622" lon="3.08167">
        <ele>527.9</ele>
        <time>2011-09-25T09:47:48Z</time>
      </trkpt>
      <trkpt lat="45.66213" lon="3.0816">
        <ele>528.9</ele>
        <time>2011-09-25T09:47:55Z</time>
      </trkpt>
      <trkpt lat="45.66203" lon="3.08158">
        <ele>529.9</ele>
        <time>2011-09-25T09:48:00Z</time>
      </trkpt>
      <trkpt lat="45.66191" lon="3.08153">
        <ele>530.9</ele>
        <time>2011-09-25T09:48:06Z</time>
      </trkpt>
      <trkpt lat="45.66183" lon="3.08149">
        <ele>531.9</ele>
        <time>2011-09-25T09:48:12Z</time>
      </trkpt>
      <trkpt lat="45.66178" lon="3.08138">
        <ele>532.9</ele>
        <time>2011-09-25T09:48:16Z</time>
      </trkpt>
      <trkpt lat="45.66174" lon="3.08128">
        <ele>533.9</ele>
        <time>2011-09-25T09:48:22Z</time>
      </trkpt>
      <trkpt lat="45.66168" lon="3.08115">
        <ele>534.9</ele>
        <time>2011-09-25T09:48:26Z</time>
      </trkpt>
      <trkpt lat="45.66163" lon="3.08105">
        <ele>535.2</ele>
        <time>2011-09-25T09:48:29Z</time>
      </trkpt>
      <trkpt lat="45.66158" lon="3.08095">
        <ele>535.5</ele>
        <time>2011-09-25T09:48:33Z</time>
      </trkpt>
      <trkpt lat="45.66157" lon="3.08083">
        <ele>535.7</ele>
        <time>2011-09-25T09:48:37Z</time>
      </trkpt>
      <trkpt lat="45.66153" lon="3.0807">
        <ele>536</ele>
        <time>2011-09-25T09:48:40Z</time>
      </trkpt>
      <trkpt lat="45.66147" lon="3.08063">
        <ele>536</ele>
        <time>2011-09-25T09:48:42Z</time>
      </trkpt>
      <trkpt lat="45.6614" lon="3.08046">
        <ele>536.4</ele>
        <time>2011-09-25T09:48:46Z</time>
      </trkpt>
      <trkpt lat="45.66135" lon="3.08034">
        <ele>536.7</ele>
        <time>2011-09-25T09:48:49Z</time>
      </trkpt>
      <trkpt lat="45.66136" lon="3.0802">
        <ele>537.4</ele>
        <time>2011-09-25T09:48:54Z</time>
      </trkpt>
      <trkpt lat="45.66133" lon="3.08007">
        <ele>538</ele>
        <time>2011-09-25T09:48:57Z</time>
      </trkpt>
      <trkpt lat="45.66132" lon="3.07995">
        <ele>538.6</ele>
        <time>2011-09-25T09:49:01Z</time>
      </trkpt>
      <trkpt lat="45.66128" lon="3.07983">
        <ele>539.3</ele>
        <time>2011-09-25T09:49:06Z</time>
      </trkpt>
      <trkpt lat="45.66123" lon="3.0797">
        <ele>539.9</ele>
        <time>2011-09-25T09:49:10Z</time>
      </trkpt>
      <trkpt lat="45.66119" lon="3.07957">
        <ele>540.5</ele>
        <time>2011-09-25T09:49:13Z</time>
      </trkpt>
      <trkpt lat="45.66115" lon="3.07947">
        <ele>541.2</ele>
        <time>2011-09-25T09:49:16Z</time>
      </trkpt>
      <trkpt lat="45.66116" lon="3.07934">
        <ele>542.3</ele>
        <time>2011-09-25T09:49:20Z</time>
      </trkpt>
      <trkpt lat="45.66118" lon="3.0792">
        <ele>543.4</ele>
        <time>2011-09-25T09:49:24Z</time>
      </trkpt>
      <trkpt lat="45.66115" lon="3.07906">
        <ele>544.1</ele>
        <time>2011-09-25T09:49:28Z</time>
      </trkpt>
      <trkpt lat="45.6611" lon="3.07893">
        <ele>544.8</ele>
        <time>2011-09-25T09:49:30Z</time>
      </trkpt>
      <trkpt lat="45.66105" lon="3.07882">
        <ele>545.3</ele>
        <time>2011-09-25T09:49:33Z</time>
      </trkpt>
      <trkpt lat="45.66104" lon="3.07869">
        <ele>546.7</ele>
        <time>2011-09-25T09:49:35Z</time>
      </trkpt>
      <trkpt lat="45.66104" lon="3.07851">
        <ele>548.2</ele>
        <time>2011-09-25T09:49:39Z</time>
      </trkpt>
      <trkpt lat="45.66109" lon="3.07838">
        <ele>549.6</ele>
        <time>2011-09-25T09:49:41Z</time>
      </trkpt>
      <trkpt lat="45.6611" lon="3.07823">
        <ele>551.1</ele>
        <time>2011-09-25T09:49:45Z</time>
      </trkpt>
      <trkpt lat="45.66112" lon="3.07811">
        <ele>552.5</ele>
        <time>2011-09-25T09:49:47Z</time>
      </trkpt>
      <trkpt lat="45.66117" lon="3.07799">
        <ele>554</ele>
        <time>2011-09-25T09:49:51Z</time>
      </trkpt>
      <trkpt lat="45.66118" lon="3.07785">
        <ele>555</ele>
        <time>2011-09-25T09:49:58Z</time>
      </trkpt>
      <trkpt lat="45.66115" lon="3.07773">
        <ele>556.5</ele>
        <time>2011-09-25T09:50:02Z</time>
      </trkpt>
      <trkpt lat="45.66109" lon="3.07758">
        <ele>557.9</ele>
        <time>2011-09-25T09:50:05Z</time>
      </trkpt>
      <trkpt lat="45.66114" lon="3.07747">
        <ele>559.4</ele>
        <time>2011-09-25T09:50:10Z</time>
      </trkpt>
      <trkpt lat="45.66112" lon="3.07735">
        <ele>560.8</ele>
        <time>2011-09-25T09:50:17Z</time>
      </trkpt>
      <trkpt lat="45.6611" lon="3.07721">
        <ele>561.3</ele>
        <time>2011-09-25T09:50:22Z</time>
      </trkpt>
      <trkpt lat="45.66114" lon="3.07709">
        <ele>561.7</ele>
        <time>2011-09-25T09:50:28Z</time>
      </trkpt>
      <trkpt lat="45.66108" lon="3.07698">
        <ele>562.2</ele>
        <time>2011-09-25T09:50:34Z</time>
      </trkpt>
      <trkpt lat="45.66103" lon="3.07686">
        <ele>562.6</ele>
        <time>2011-09-25T09:50:40Z</time>
      </trkpt>
      <trkpt lat="45.66097" lon="3.07675">
        <ele>563.1</ele>
        <time>2011-09-25T09:50:45Z</time>
      </trkpt>
      <trkpt lat="45.66091" lon="3.07665">
        <ele>563.5</ele>
        <time>2011-09-25T09:50:48Z</time>
      </trkpt>
      <trkpt lat="45.66085" lon="3.07649">
        <ele>564</ele>
        <time>2011-09-25T09:50:51Z</time>
      </trkpt>
      <trkpt lat="45.66079" lon="3.07637">
        <ele>564</ele>
        <time>2011-09-25T09:50:55Z</time>
      </trkpt>
      <trkpt lat="45.66072" lon="3.07624">
        <ele>564.2</ele>
        <time>2011-09-25T09:50:57Z</time>
      </trkpt>
      <trkpt lat="45.66071" lon="3.07604">
        <ele>564.3</ele>
        <time>2011-09-25T09:51:00Z</time>
      </trkpt>
      <trkpt lat="45.6607" lon="3.07582">
        <ele>564.4</ele>
        <time>2011-09-25T09:51:03Z</time>
      </trkpt>
      <trkpt lat="45.66065" lon="3.07567">
        <ele>564.5</ele>
        <time>2011-09-25T09:51:06Z</time>
      </trkpt>
      <trkpt lat="45.6606" lon="3.07553">
        <ele>564.5</ele>
        <time>2011-09-25T09:51:09Z</time>
      </trkpt>
      <trkpt lat="45.66051" lon="3.07545">
        <ele>564.6</ele>
        <time>2011-09-25T09:51:13Z</time>
      </trkpt>
      <trkpt lat="45.66039" lon="3.07542">
        <ele>564.9</ele>
        <time>2011-09-25T09:51:16Z</time>
      </trkpt>
      <trkpt lat="45.66031" lon="3.07537">
        <ele>565.2</ele>
        <time>2011-09-25T09:51:21Z</time>
      </trkpt>
      <trkpt lat="45.66009" lon="3.07518">
        <ele>565.5</ele>
        <time>2011-09-25T09:51:23Z</time>
      </trkpt>
      <trkpt lat="45.66012" lon="3.07503">
        <ele>565.7</ele>
        <time>2011-09-25T09:51:25Z</time>
      </trkpt>
      <trkpt lat="45.66013" lon="3.07487">
        <ele>566</ele>
        <time>2011-09-25T09:51:27Z</time>
      </trkpt>
      <trkpt lat="45.66013" lon="3.0747">
        <ele>566.1</ele>
        <time>2011-09-25T09:51:30Z</time>
      </trkpt>
      <trkpt lat="45.66014" lon="3.07456">
        <ele>566.3</ele>
        <time>2011-09-25T09:51:32Z</time>
      </trkpt>
      <trkpt lat="45.66016" lon="3.07442">
        <ele>566.7</ele>
        <time>2011-09-25T09:51:34Z</time>
      </trkpt>
      <trkpt lat="45.66016" lon="3.07427">
        <ele>567.2</ele>
        <time>2011-09-25T09:51:36Z</time>
      </trkpt>
      <trkpt lat="45.66015" lon="3.07415">
        <ele>567.6</ele>
        <time>2011-09-25T09:51:38Z</time>
      </trkpt>
      <trkpt lat="45.66012" lon="3.074">
        <ele>568.1</ele>
        <time>2011-09-25T09:51:41Z</time>
      </trkpt>
      <trkpt lat="45.66011" lon="3.07385">
        <ele>568.4</ele>
        <time>2011-09-25T09:51:44Z</time>
      </trkpt>
      <trkpt lat="45.66012" lon="3.07373">
        <ele>568.9</ele>
        <time>2011-09-25T09:51:46Z</time>
      </trkpt>
      <trkpt lat="45.66013" lon="3.07359">
        <ele>569.5</ele>
        <time>2011-09-25T09:51:48Z</time>
      </trkpt>
      <trkpt lat="45.66013" lon="3.07341">
        <ele>570</ele>
        <time>2011-09-25T09:51:51Z</time>
      </trkpt>
      <trkpt lat="45.66017" lon="3.07323">
        <ele>570.5</ele>
        <time>2011-09-25T09:51:54Z</time>
      </trkpt>
      <trkpt lat="45.6602" lon="3.07303">
        <ele>571.1</ele>
        <time>2011-09-25T09:51:57Z</time>
      </trkpt>
      <trkpt lat="45.66021" lon="3.0729">
        <ele>571.6</ele>
        <time>2011-09-25T09:52:00Z</time>
      </trkpt>
      <trkpt lat="45.6602" lon="3.07272">
        <ele>572.2</ele>
        <time>2011-09-25T09:52:03Z</time>
      </trkpt>
      <trkpt lat="45.66019" lon="3.0726">
        <ele>572.7</ele>
        <time>2011-09-25T09:52:05Z</time>
      </trkpt>
      <trkpt lat="45.66018" lon="3.07245">
        <ele>573.3</ele>
        <time>2011-09-25T09:52:08Z</time>
      </trkpt>
      <trkpt lat="45.66015" lon="3.07234">
        <ele>573.8</ele>
        <time>2011-09-25T09:52:10Z</time>
      </trkpt>
      <trkpt lat="45.6601" lon="3.0722">
        <ele>574.4</ele>
        <time>2011-09-25T09:52:13Z</time>
      </trkpt>
      <trkpt lat="45.66007" lon="3.07206">
        <ele>574.6</ele>
        <time>2011-09-25T09:52:16Z</time>
      </trkpt>
      <trkpt lat="45.66001" lon="3.07197">
        <ele>574.9</ele>
        <time>2011-09-25T09:52:18Z</time>
      </trkpt>
      <trkpt lat="45.65997" lon="3.07182">
        <ele>575.3</ele>
        <time>2011-09-25T09:52:21Z</time>
      </trkpt>
      <trkpt lat="45.65996" lon="3.07166">
        <ele>575.6</ele>
        <time>2011-09-25T09:52:24Z</time>
      </trkpt>
      <trkpt lat="45.65992" lon="3.07156">
        <ele>576</ele>
        <time>2011-09-25T09:52:26Z</time>
      </trkpt>
      <trkpt lat="45.65993" lon="3.07138">
        <ele>576.4</ele>
        <time>2011-09-25T09:52:29Z</time>
      </trkpt>
      <trkpt lat="45.65985" lon="3.07129">
        <ele>576.5</ele>
        <time>2011-09-25T09:52:31Z</time>
      </trkpt>
      <trkpt lat="45.65979" lon="3.07119">
        <ele>576.5</ele>
        <time>2011-09-25T09:52:33Z</time>
      </trkpt>
      <trkpt lat="45.65975" lon="3.07109">
        <ele>576.9</ele>
        <time>2011-09-25T09:52:35Z</time>
      </trkpt>
      <trkpt lat="45.65971" lon="3.07094">
        <ele>577</ele>
        <time>2011-09-25T09:52:38Z</time>
      </trkpt>
      <trkpt lat="45.65966" lon="3.07081">
        <ele>577.1</ele>
        <time>2011-09-25T09:52:40Z</time>
      </trkpt>
      <trkpt lat="45.65965" lon="3.07069">
        <ele>577.2</ele>
        <time>2011-09-25T09:52:42Z</time>
      </trkpt>
      <trkpt lat="45.65964" lon="3.07054">
        <ele>577.3</ele>
        <time>2011-09-25T09:52:44Z</time>
      </trkpt>
      <trkpt lat="45.65966" lon="3.07042">
        <ele>577.3</ele>
        <time>2011-09-25T09:52:46Z</time>
      </trkpt>
      <trkpt lat="45.65962" lon="3.07028">
        <ele>577.6</ele>
        <time>2011-09-25T09:52:48Z</time>
      </trkpt>
      <trkpt lat="45.6596" lon="3.07012">
        <ele>578</ele>
        <time>2011-09-25T09:52:50Z</time>
      </trkpt>
      <trkpt lat="45.65957" lon="3.07">
        <ele>578.7</ele>
        <time>2011-09-25T09:52:53Z</time>
      </trkpt>
      <trkpt lat="45.65955" lon="3.06989">
        <ele>579.5</ele>
        <time>2011-09-25T09:52:55Z</time>
      </trkpt>
      <trkpt lat="45.65955" lon="3.06977">
        <ele>580.2</ele>
        <time>2011-09-25T09:52:57Z</time>
      </trkpt>
      <trkpt lat="45.65956" lon="3.0696">
        <ele>580.6</ele>
        <time>2011-09-25T09:53:00Z</time>
      </trkpt>
      <trkpt lat="45.65959" lon="3.06946">
        <ele>581.5</ele>
        <time>2011-09-25T09:53:02Z</time>
      </trkpt>
      <trkpt lat="45.65968" lon="3.06919">
        <ele>582.3</ele>
        <time>2011-09-25T09:53:07Z</time>
      </trkpt>
      <trkpt lat="45.65974" lon="3.06898">
        <ele>583.1</ele>
        <time>2011-09-25T09:53:10Z</time>
      </trkpt>
      <trkpt lat="45.65981" lon="3.06887">
        <ele>583.9</ele>
        <time>2011-09-25T09:53:14Z</time>
      </trkpt>
      <trkpt lat="45.65992" lon="3.06883">
        <ele>584.7</ele>
        <time>2011-09-25T09:53:17Z</time>
      </trkpt>
      <trkpt lat="45.66002" lon="3.06874">
        <ele>585.2</ele>
        <time>2011-09-25T09:53:21Z</time>
      </trkpt>
      <trkpt lat="45.66009" lon="3.06868">
        <ele>586.1</ele>
        <time>2011-09-25T09:53:23Z</time>
      </trkpt>
      <trkpt lat="45.66017" lon="3.06859">
        <ele>586.6</ele>
        <time>2011-09-25T09:53:26Z</time>
      </trkpt>
      <trkpt lat="45.66022" lon="3.06846">
        <ele>587.2</ele>
        <time>2011-09-25T09:53:29Z</time>
      </trkpt>
      <trkpt lat="45.66031" lon="3.06839">
        <ele>587.7</ele>
        <time>2011-09-25T09:53:32Z</time>
      </trkpt>
      <trkpt lat="45.6604" lon="3.06839">
        <ele>588.3</ele>
        <time>2011-09-25T09:53:34Z</time>
      </trkpt>
      <trkpt lat="45.6605" lon="3.06843">
        <ele>588.7</ele>
        <time>2011-09-25T09:53:37Z</time>
      </trkpt>
      <trkpt lat="45.66062" lon="3.06843">
        <ele>589.2</ele>
        <time>2011-09-25T09:53:43Z</time>
      </trkpt>
      <trkpt lat="45.66073" lon="3.06842">
        <ele>589.6</ele>
        <time>2011-09-25T09:53:46Z</time>
      </trkpt>
      <trkpt lat="45.66081" lon="3.06835">
        <ele>590.2</ele>
        <time>2011-09-25T09:53:49Z</time>
      </trkpt>
      <trkpt lat="45.66093" lon="3.06828">
        <ele>590.7</ele>
        <time>2011-09-25T09:53:52Z</time>
      </trkpt>
      <trkpt lat="45.66104" lon="3.0682">
        <ele>591.3</ele>
        <time>2011-09-25T09:53:56Z</time>
      </trkpt>
      <trkpt lat="45.66111" lon="3.06812">
        <ele>591.4</ele>
        <time>2011-09-25T09:53:58Z</time>
      </trkpt>
      <trkpt lat="45.6612" lon="3.06803">
        <ele>591.5</ele>
        <time>2011-09-25T09:54:02Z</time>
      </trkpt>
      <trkpt lat="45.66133" lon="3.06786">
        <ele>591.5</ele>
        <time>2011-09-25T09:54:03Z</time>
      </trkpt>
      <trkpt lat="45.66143" lon="3.06775">
        <ele>591.6</ele>
        <time>2011-09-25T09:54:06Z</time>
      </trkpt>
      <trkpt lat="45.66151" lon="3.06762">
        <ele>591.7</ele>
        <time>2011-09-25T09:54:09Z</time>
      </trkpt>
      <trkpt lat="45.66158" lon="3.06755">
        <ele>591.8</ele>
        <time>2011-09-25T09:54:12Z</time>
      </trkpt>
      <trkpt lat="45.66166" lon="3.06748">
        <ele>592.5</ele>
        <time>2011-09-25T09:54:13Z</time>
      </trkpt>
      <trkpt lat="45.66174" lon="3.0674">
        <ele>593.3</ele>
        <time>2011-09-25T09:54:15Z</time>
      </trkpt>
      <trkpt lat="45.66183" lon="3.06733">
        <ele>593.9</ele>
        <time>2011-09-25T09:54:17Z</time>
      </trkpt>
      <trkpt lat="45.66192" lon="3.06726">
        <ele>594.5</ele>
        <time>2011-09-25T09:54:19Z</time>
      </trkpt>
      <trkpt lat="45.66203" lon="3.06722">
        <ele>595.2</ele>
        <time>2011-09-25T09:54:21Z</time>
      </trkpt>
      <trkpt lat="45.66212" lon="3.06714">
        <ele>595.1</ele>
        <time>2011-09-25T09:54:23Z</time>
      </trkpt>
      <trkpt lat="45.66224" lon="3.06711">
        <ele>595</ele>
        <time>2011-09-25T09:54:25Z</time>
      </trkpt>
      <trkpt lat="45.66234" lon="3.06707">
        <ele>594.9</ele>
        <time>2011-09-25T09:54:27Z</time>
      </trkpt>
      <trkpt lat="45.66246" lon="3.0671">
        <ele>595.2</ele>
        <time>2011-09-25T09:54:30Z</time>
      </trkpt>
      <trkpt lat="45.66255" lon="3.06711">
        <ele>595.5</ele>
        <time>2011-09-25T09:54:32Z</time>
      </trkpt>
      <trkpt lat="45.66266" lon="3.06718">
        <ele>595.7</ele>
        <time>2011-09-25T09:54:35Z</time>
      </trkpt>
      <trkpt lat="45.66274" lon="3.06723">
        <ele>595.9</ele>
        <time>2011-09-25T09:54:37Z</time>
      </trkpt>
      <trkpt lat="45.66283" lon="3.06728">
        <ele>596.1</ele>
        <time>2011-09-25T09:54:40Z</time>
      </trkpt>
      <trkpt lat="45.66293" lon="3.06731">
        <ele>596.3</ele>
        <time>2011-09-25T09:54:43Z</time>
      </trkpt>
      <trkpt lat="45.66302" lon="3.0673">
        <ele>596.5</ele>
        <time>2011-09-25T09:54:46Z</time>
      </trkpt>
      <trkpt lat="45.66309" lon="3.06724">
        <ele>596.6</ele>
        <time>2011-09-25T09:54:49Z</time>
      </trkpt>
      <trkpt lat="45.66314" lon="3.06712">
        <ele>597.5</ele>
        <time>2011-09-25T09:54:53Z</time>
      </trkpt>
      <trkpt lat="45.66317" lon="3.06698">
        <ele>598.5</ele>
        <time>2011-09-25T09:54:57Z</time>
      </trkpt>
      <trkpt lat="45.6632" lon="3.06687">
        <ele>599.2</ele>
        <time>2011-09-25T09:55:00Z</time>
      </trkpt>
      <trkpt lat="45.66316" lon="3.06675">
        <ele>599.5</ele>
        <time>2011-09-25T09:55:04Z</time>
      </trkpt>
      <trkpt lat="45.66308" lon="3.06667">
        <ele>600.5</ele>
        <time>2011-09-25T09:55:07Z</time>
      </trkpt>
      <trkpt lat="45.663" lon="3.06658">
        <ele>601.4</ele>
        <time>2011-09-25T09:55:10Z</time>
      </trkpt>
      <trkpt lat="45.66293" lon="3.0665">
        <ele>601.7</ele>
        <time>2011-09-25T09:55:13Z</time>
      </trkpt>
      <trkpt lat="45.66286" lon="3.06643">
        <ele>602.1</ele>
        <time>2011-09-25T09:55:16Z</time>
      </trkpt>
      <trkpt lat="45.66277" lon="3.06637">
        <ele>602.5</ele>
        <time>2011-09-25T09:55:20Z</time>
      </trkpt>
      <trkpt lat="45.66271" lon="3.06628">
        <ele>602.8</ele>
        <time>2011-09-25T09:55:26Z</time>
      </trkpt>
      <trkpt lat="45.66269" lon="3.06616">
        <ele>603.2</ele>
        <time>2011-09-25T09:55:31Z</time>
      </trkpt>
      <trkpt lat="45.66262" lon="3.06607">
        <ele>603.5</ele>
        <time>2011-09-25T09:55:34Z</time>
      </trkpt>
      <trkpt lat="45.66257" lon="3.06597">
        <ele>603.7</ele>
        <time>2011-09-25T09:55:37Z</time>
      </trkpt>
      <trkpt lat="45.66253" lon="3.06586">
        <ele>604.2</ele>
        <time>2011-09-25T09:55:41Z</time>
      </trkpt>
      <trkpt lat="45.66249" lon="3.06574">
        <ele>604.6</ele>
        <time>2011-09-25T09:55:43Z</time>
      </trkpt>
      <trkpt lat="45.66249" lon="3.06562">
        <ele>604.5</ele>
        <time>2011-09-25T09:55:47Z</time>
      </trkpt>
      <trkpt lat="45.66249" lon="3.06547">
        <ele>604.5</ele>
        <time>2011-09-25T09:55:50Z</time>
      </trkpt>
      <trkpt lat="45.66252" lon="3.06536">
        <ele>604.5</ele>
        <time>2011-09-25T09:55:52Z</time>
      </trkpt>
      <trkpt lat="45.66254" lon="3.06524">
        <ele>604.5</ele>
        <time>2011-09-25T09:55:54Z</time>
      </trkpt>
      <trkpt lat="45.66252" lon="3.06509">
        <ele>604.5</ele>
        <time>2011-09-25T09:55:56Z</time>
      </trkpt>
      <trkpt lat="45.66253" lon="3.06495">
        <ele>604.5</ele>
        <time>2011-09-25T09:55:58Z</time>
      </trkpt>
      <trkpt lat="45.66251" lon="3.06479">
        <ele>604.5</ele>
        <time>2011-09-25T09:56:00Z</time>
      </trkpt>
      <trkpt lat="45.66253" lon="3.06465">
        <ele>604.5</ele>
        <time>2011-09-25T09:56:02Z</time>
      </trkpt>
      <trkpt lat="45.66251" lon="3.06449">
        <ele>604.6</ele>
        <time>2011-09-25T09:56:04Z</time>
      </trkpt>
      <trkpt lat="45.66248" lon="3.06436">
        <ele>605</ele>
        <time>2011-09-25T09:56:06Z</time>
      </trkpt>
      <trkpt lat="45.66247" lon="3.06424">
        <ele>605.4</ele>
        <time>2011-09-25T09:56:08Z</time>
      </trkpt>
      <trkpt lat="45.66247" lon="3.06409">
        <ele>605.7</ele>
        <time>2011-09-25T09:56:11Z</time>
      </trkpt>
      <trkpt lat="45.6625" lon="3.06393">
        <ele>606.1</ele>
        <time>2011-09-25T09:56:14Z</time>
      </trkpt>
      <trkpt lat="45.66255" lon="3.06382">
        <ele>606.4</ele>
        <time>2011-09-25T09:56:16Z</time>
      </trkpt>
      <trkpt lat="45.66257" lon="3.06367">
        <ele>606.6</ele>
        <time>2011-09-25T09:56:19Z</time>
      </trkpt>
      <trkpt lat="45.66259" lon="3.06354">
        <ele>607</ele>
        <time>2011-09-25T09:56:22Z</time>
      </trkpt>
      <trkpt lat="45.66262" lon="3.06339">
        <ele>607.4</ele>
        <time>2011-09-25T09:56:25Z</time>
      </trkpt>
      <trkpt lat="45.66267" lon="3.06321">
        <ele>607.7</ele>
        <time>2011-09-25T09:56:29Z</time>
      </trkpt>
      <trkpt lat="45.66275" lon="3.06317">
        <ele>608.1</ele>
        <time>2011-09-25T09:56:30Z</time>
      </trkpt>
      <trkpt lat="45.66273" lon="3.06298">
        <ele>608.5</ele>
        <time>2011-09-25T09:56:33Z</time>
      </trkpt>
      <trkpt lat="45.66271" lon="3.06286">
        <ele>608.5</ele>
        <time>2011-09-25T09:56:36Z</time>
      </trkpt>
      <trkpt lat="45.66272" lon="3.06271">
        <ele>609</ele>
        <time>2011-09-25T09:56:38Z</time>
      </trkpt>
      <trkpt lat="45.66273" lon="3.06257">
        <ele>609.5</ele>
        <time>2011-09-25T09:56:41Z</time>
      </trkpt>
      <trkpt lat="45.66274" lon="3.06246">
        <ele>609.9</ele>
        <time>2011-09-25T09:56:43Z</time>
      </trkpt>
      <trkpt lat="45.66274" lon="3.06234">
        <ele>610.4</ele>
        <time>2011-09-25T09:56:46Z</time>
      </trkpt>
      <trkpt lat="45.66279" lon="3.06223">
        <ele>610.8</ele>
        <time>2011-09-25T09:56:49Z</time>
      </trkpt>
      <trkpt lat="45.66281" lon="3.0621">
        <ele>611.2</ele>
        <time>2011-09-25T09:56:55Z</time>
      </trkpt>
      <trkpt lat="45.66283" lon="3.06195">
        <ele>611.5</ele>
        <time>2011-09-25T09:56:58Z</time>
      </trkpt>
      <trkpt lat="45.66284" lon="3.06183">
        <ele>612.1</ele>
        <time>2011-09-25T09:57:08Z</time>
      </trkpt>
      <trkpt lat="45.66284" lon="3.06171">
        <ele>612.6</ele>
        <time>2011-09-25T09:57:11Z</time>
      </trkpt>
      <trkpt lat="45.66283" lon="3.06158">
        <ele>613.2</ele>
        <time>2011-09-25T09:57:16Z</time>
      </trkpt>
      <trkpt lat="45.66279" lon="3.06143">
        <ele>613.7</ele>
        <time>2011-09-25T09:57:18Z</time>
      </trkpt>
      <trkpt lat="45.66272" lon="3.06133">
        <ele>613.9</ele>
        <time>2011-09-25T09:57:20Z</time>
      </trkpt>
      <trkpt lat="45.66264" lon="3.06113">
        <ele>614.1</ele>
        <time>2011-09-25T09:57:24Z</time>
      </trkpt>
      <trkpt lat="45.66259" lon="3.06102">
        <ele>614.5</ele>
        <time>2011-09-25T09:57:27Z</time>
      </trkpt>
      <trkpt lat="45.66247" lon="3.06088">
        <ele>614.8</ele>
        <time>2011-09-25T09:57:29Z</time>
      </trkpt>
      <trkpt lat="45.66239" lon="3.06081">
        <ele>614.8</ele>
        <time>2011-09-25T09:57:32Z</time>
      </trkpt>
      <trkpt lat="45.66227" lon="3.06073">
        <ele>614.8</ele>
        <time>2011-09-25T09:57:36Z</time>
      </trkpt>
      <trkpt lat="45.66221" lon="3.06062">
        <ele>614.8</ele>
        <time>2011-09-25T09:57:39Z</time>
      </trkpt>
      <trkpt lat="45.66214" lon="3.06044">
        <ele>614.6</ele>
        <time>2011-09-25T09:57:42Z</time>
      </trkpt>
      <trkpt lat="45.66212" lon="3.0602">
        <ele>614.5</ele>
        <time>2011-09-25T09:57:44Z</time>
      </trkpt>
      <trkpt lat="45.66201" lon="3.05999">
        <ele>614.3</ele>
        <time>2011-09-25T09:57:47Z</time>
      </trkpt>
      <trkpt lat="45.66191" lon="3.05992">
        <ele>614.1</ele>
        <time>2011-09-25T09:57:49Z</time>
      </trkpt>
      <trkpt lat="45.66178" lon="3.05986">
        <ele>614.3</ele>
        <time>2011-09-25T09:57:52Z</time>
      </trkpt>
      <trkpt lat="45.66168" lon="3.05979">
        <ele>614.5</ele>
        <time>2011-09-25T09:57:54Z</time>
      </trkpt>
      <trkpt lat="45.66159" lon="3.05981">
        <ele>614.5</ele>
        <time>2011-09-25T09:57:56Z</time>
      </trkpt>
      <trkpt lat="45.66151" lon="3.05986">
        <ele>614.5</ele>
        <time>2011-09-25T09:57:59Z</time>
      </trkpt>
      <trkpt lat="45.66144" lon="3.05972">
        <ele>614.8</ele>
        <time>2011-09-25T09:58:04Z</time>
      </trkpt>
      <trkpt lat="45.66137" lon="3.05958">
        <ele>615.2</ele>
        <time>2011-09-25T09:58:07Z</time>
      </trkpt>
      <trkpt lat="45.6613" lon="3.05946">
        <ele>615.5</ele>
        <time>2011-09-25T09:58:10Z</time>
      </trkpt>
      <trkpt lat="45.66124" lon="3.05938">
        <ele>615.9</ele>
        <time>2011-09-25T09:58:13Z</time>
      </trkpt>
      <trkpt lat="45.66116" lon="3.05928">
        <ele>616.3</ele>
        <time>2011-09-25T09:58:18Z</time>
      </trkpt>
      <trkpt lat="45.66108" lon="3.0592">
        <ele>616.3</ele>
        <time>2011-09-25T09:58:21Z</time>
      </trkpt>
      <trkpt lat="45.66098" lon="3.05913">
        <ele>616.3</ele>
        <time>2011-09-25T09:58:24Z</time>
      </trkpt>
      <trkpt lat="45.66083" lon="3.05909">
        <ele>615.9</ele>
        <time>2011-09-25T09:58:27Z</time>
      </trkpt>
      <trkpt lat="45.66073" lon="3.05907">
        <ele>615.8</ele>
        <time>2011-09-25T09:58:29Z</time>
      </trkpt>
      <trkpt lat="45.66065" lon="3.05903">
        <ele>615.7</ele>
        <time>2011-09-25T09:58:31Z</time>
      </trkpt>
      <trkpt lat="45.66046" lon="3.05889">
        <ele>615.6</ele>
        <time>2011-09-25T09:58:34Z</time>
      </trkpt>
      <trkpt lat="45.66037" lon="3.05893">
        <ele>615.5</ele>
        <time>2011-09-25T09:58:36Z</time>
      </trkpt>
      <trkpt lat="45.66028" lon="3.05888">
        <ele>615.5</ele>
        <time>2011-09-25T09:58:44Z</time>
      </trkpt>
      <trkpt lat="45.66025" lon="3.05875">
        <ele>615.5</ele>
        <time>2011-09-25T09:58:55Z</time>
      </trkpt>
      <trkpt lat="45.66023" lon="3.05862">
        <ele>615.6</ele>
        <time>2011-09-25T09:58:58Z</time>
      </trkpt>
      <trkpt lat="45.66021" lon="3.05837">
        <ele>615.7</ele>
        <time>2011-09-25T09:59:01Z</time>
      </trkpt>
      <trkpt lat="45.66016" lon="3.05824">
        <ele>616.2</ele>
        <time>2011-09-25T09:59:05Z</time>
      </trkpt>
      <trkpt lat="45.6601" lon="3.05812">
        <ele>616.6</ele>
        <time>2011-09-25T09:59:09Z</time>
      </trkpt>
      <trkpt lat="45.66007" lon="3.05798">
        <ele>617.1</ele>
        <time>2011-09-25T09:59:13Z</time>
      </trkpt>
      <trkpt lat="45.6601" lon="3.05785">
        <ele>617.3</ele>
        <time>2011-09-25T09:59:22Z</time>
      </trkpt>
      <trkpt lat="45.66015" lon="3.0577">
        <ele>617.8</ele>
        <time>2011-09-25T09:59:27Z</time>
      </trkpt>
      <trkpt lat="45.6602" lon="3.05758">
        <ele>618.4</ele>
        <time>2011-09-25T09:59:30Z</time>
      </trkpt>
      <trkpt lat="45.66018" lon="3.05746">
        <ele>618.9</ele>
        <time>2011-09-25T09:59:32Z</time>
      </trkpt>
      <trkpt lat="45.66016" lon="3.05735">
        <ele>619.5</ele>
        <time>2011-09-25T09:59:37Z</time>
      </trkpt>
      <trkpt lat="45.66013" lon="3.05719">
        <ele>619.8</ele>
        <time>2011-09-25T09:59:41Z</time>
      </trkpt>
      <trkpt lat="45.66008" lon="3.05708">
        <ele>620.2</ele>
        <time>2011-09-25T09:59:43Z</time>
      </trkpt>
      <trkpt lat="45.66016" lon="3.05697">
        <ele>620.5</ele>
        <time>2011-09-25T09:59:46Z</time>
      </trkpt>
      <trkpt lat="45.66014" lon="3.05685">
        <ele>621.1</ele>
        <time>2011-09-25T09:59:49Z</time>
      </trkpt>
      <trkpt lat="45.66016" lon="3.0567">
        <ele>621.6</ele>
        <time>2011-09-25T09:59:53Z</time>
      </trkpt>
      <trkpt lat="45.66014" lon="3.05658">
        <ele>622.2</ele>
        <time>2011-09-25T09:59:57Z</time>
      </trkpt>
      <trkpt lat="45.66012" lon="3.05646">
        <ele>622.7</ele>
        <time>2011-09-25T10:00:03Z</time>
      </trkpt>
      <trkpt lat="45.66008" lon="3.05636">
        <ele>622.9</ele>
        <time>2011-09-25T10:00:07Z</time>
      </trkpt>
      <trkpt lat="45.66008" lon="3.05623">
        <ele>623.1</ele>
        <time>2011-09-25T10:00:16Z</time>
      </trkpt>
      <trkpt lat="45.66016" lon="3.05614">
        <ele>623.4</ele>
        <time>2011-09-25T10:01:10Z</time>
      </trkpt>
      <trkpt lat="45.66022" lon="3.05601">
        <ele>623.6</ele>
        <time>2011-09-25T10:01:15Z</time>
      </trkpt>
      <trkpt lat="45.66022" lon="3.05587">
        <ele>623.9</ele>
        <time>2011-09-25T10:01:18Z</time>
      </trkpt>
      <trkpt lat="45.66024" lon="3.05571">
        <ele>624.2</ele>
        <time>2011-09-25T10:01:20Z</time>
      </trkpt>
      <trkpt lat="45.66023" lon="3.05555">
        <ele>624.5</ele>
        <time>2011-09-25T10:01:21Z</time>
      </trkpt>
      <trkpt lat="45.66024" lon="3.05542">
        <ele>624.5</ele>
        <time>2011-09-25T10:01:24Z</time>
      </trkpt>
      <trkpt lat="45.66023" lon="3.0553">
        <ele>624.6</ele>
        <time>2011-09-25T10:01:28Z</time>
      </trkpt>
      <trkpt lat="45.66026" lon="3.05519">
        <ele>624.7</ele>
        <time>2011-09-25T10:01:30Z</time>
      </trkpt>
      <trkpt lat="45.66026" lon="3.05504">
        <ele>624.8</ele>
        <time>2011-09-25T10:01:33Z</time>
      </trkpt>
      <trkpt lat="45.66031" lon="3.05488">
        <ele>624.9</ele>
        <time>2011-09-25T10:01:36Z</time>
      </trkpt>
      <trkpt lat="45.66032" lon="3.05474">
        <ele>625</ele>
        <time>2011-09-25T10:01:38Z</time>
      </trkpt>
      <trkpt lat="45.66037" lon="3.05463">
        <ele>625</ele>
        <time>2011-09-25T10:01:40Z</time>
      </trkpt>
      <trkpt lat="45.66033" lon="3.0545">
        <ele>625.6</ele>
        <time>2011-09-25T10:01:42Z</time>
      </trkpt>
      <trkpt lat="45.66034" lon="3.05437">
        <ele>626.3</ele>
        <time>2011-09-25T10:01:44Z</time>
      </trkpt>
      <trkpt lat="45.66036" lon="3.05423">
        <ele>627.1</ele>
        <time>2011-09-25T10:01:47Z</time>
      </trkpt>
      <trkpt lat="45.66038" lon="3.05411">
        <ele>627.9</ele>
        <time>2011-09-25T10:01:51Z</time>
      </trkpt>
      <trkpt lat="45.66044" lon="3.05398">
        <ele>628.7</ele>
        <time>2011-09-25T10:01:55Z</time>
      </trkpt>
      <trkpt lat="45.6605" lon="3.05389">
        <ele>629.5</ele>
        <time>2011-09-25T10:02:00Z</time>
      </trkpt>
      <trkpt lat="45.66057" lon="3.05383">
        <ele>630.4</ele>
        <time>2011-09-25T10:02:06Z</time>
      </trkpt>
      <trkpt lat="45.66062" lon="3.0537">
        <ele>631.2</ele>
        <time>2011-09-25T10:02:10Z</time>
      </trkpt>
      <trkpt lat="45.66064" lon="3.05356">
        <ele>631.9</ele>
        <time>2011-09-25T10:02:15Z</time>
      </trkpt>
      <trkpt lat="45.66071" lon="3.05343">
        <ele>632.6</ele>
        <time>2011-09-25T10:02:19Z</time>
      </trkpt>
      <trkpt lat="45.66076" lon="3.0533">
        <ele>633.4</ele>
        <time>2011-09-25T10:02:23Z</time>
      </trkpt>
      <trkpt lat="45.66082" lon="3.05313">
        <ele>633.5</ele>
        <time>2011-09-25T10:02:29Z</time>
      </trkpt>
      <trkpt lat="45.6609" lon="3.05302">
        <ele>633.5</ele>
        <time>2011-09-25T10:02:36Z</time>
      </trkpt>
      <trkpt lat="45.66098" lon="3.05284">
        <ele>633.5</ele>
        <time>2011-09-25T10:02:42Z</time>
      </trkpt>
      <trkpt lat="45.66102" lon="3.05273">
        <ele>633.4</ele>
        <time>2011-09-25T10:02:45Z</time>
      </trkpt>
      <trkpt lat="45.66104" lon="3.05261">
        <ele>634.2</ele>
        <time>2011-09-25T10:02:48Z</time>
      </trkpt>
      <trkpt lat="45.66107" lon="3.05248">
        <ele>635.4</ele>
        <time>2011-09-25T10:02:51Z</time>
      </trkpt>
      <trkpt lat="45.66116" lon="3.05244">
        <ele>636.5</ele>
        <time>2011-09-25T10:02:54Z</time>
      </trkpt>
      <trkpt lat="45.66124" lon="3.05236">
        <ele>637.7</ele>
        <time>2011-09-25T10:03:00Z</time>
      </trkpt>
      <trkpt lat="45.66126" lon="3.05223">
        <ele>639</ele>
        <time>2011-09-25T10:03:08Z</time>
      </trkpt>
      <trkpt lat="45.66132" lon="3.05214">
        <ele>640.3</ele>
        <time>2011-09-25T10:03:12Z</time>
      </trkpt>
      <trkpt lat="45.6614" lon="3.05207">
        <ele>641.5</ele>
        <time>2011-09-25T10:03:18Z</time>
      </trkpt>
      <trkpt lat="45.6614" lon="3.05195">
        <ele>642.8</ele>
        <time>2011-09-25T10:03:23Z</time>
      </trkpt>
      <trkpt lat="45.66142" lon="3.05182">
        <ele>644.3</ele>
        <time>2011-09-25T10:03:27Z</time>
      </trkpt>
      <trkpt lat="45.66143" lon="3.05167">
        <ele>645.7</ele>
        <time>2011-09-25T10:03:31Z</time>
      </trkpt>
      <trkpt lat="45.66146" lon="3.05153">
        <ele>647.2</ele>
        <time>2011-09-25T10:03:36Z</time>
      </trkpt>
      <trkpt lat="45.66154" lon="3.05142">
        <ele>647.7</ele>
        <time>2011-09-25T10:03:42Z</time>
      </trkpt>
      <trkpt lat="45.66159" lon="3.05131">
        <ele>647.9</ele>
        <time>2011-09-25T10:03:47Z</time>
      </trkpt>
      <trkpt lat="45.66158" lon="3.05115">
        <ele>648.1</ele>
        <time>2011-09-25T10:03:52Z</time>
      </trkpt>
      <trkpt lat="45.66157" lon="3.05097">
        <ele>647.9</ele>
        <time>2011-09-25T10:03:59Z</time>
      </trkpt>
      <trkpt lat="45.66157" lon="3.05083">
        <ele>647.7</ele>
        <time>2011-09-25T10:04:04Z</time>
      </trkpt>
      <trkpt lat="45.66164" lon="3.05075">
        <ele>647.5</ele>
        <time>2011-09-25T10:04:07Z</time>
      </trkpt>
      <trkpt lat="45.66167" lon="3.05064">
        <ele>647.4</ele>
        <time>2011-09-25T10:04:13Z</time>
      </trkpt>
      <trkpt lat="45.66171" lon="3.05053">
        <ele>647.9</ele>
        <time>2011-09-25T10:04:19Z</time>
      </trkpt>
      <trkpt lat="45.66176" lon="3.05045">
        <ele>648.3</ele>
        <time>2011-09-25T10:04:35Z</time>
      </trkpt>
      <trkpt lat="45.66186" lon="3.05038">
        <ele>648.6</ele>
        <time>2011-09-25T10:04:40Z</time>
      </trkpt>
      <trkpt lat="45.66194" lon="3.05027">
        <ele>649</ele>
        <time>2011-09-25T10:04:43Z</time>
      </trkpt>
      <trkpt lat="45.66202" lon="3.05021">
        <ele>649.4</ele>
        <time>2011-09-25T10:04:45Z</time>
      </trkpt>
      <trkpt lat="45.66211" lon="3.05016">
        <ele>649.7</ele>
        <time>2011-09-25T10:04:48Z</time>
      </trkpt>
      <trkpt lat="45.66219" lon="3.05012">
        <ele>649.7</ele>
        <time>2011-09-25T10:04:53Z</time>
      </trkpt>
      <trkpt lat="45.66228" lon="3.05">
        <ele>650.1</ele>
        <time>2011-09-25T10:04:58Z</time>
      </trkpt>
      <trkpt lat="45.66241" lon="3.0499">
        <ele>650.5</ele>
        <time>2011-09-25T10:05:00Z</time>
      </trkpt>
      <trkpt lat="45.66247" lon="3.04978">
        <ele>650.8</ele>
        <time>2011-09-25T10:05:03Z</time>
      </trkpt>
      <trkpt lat="45.66254" lon="3.04967">
        <ele>651.2</ele>
        <time>2011-09-25T10:05:07Z</time>
      </trkpt>
      <trkpt lat="45.66258" lon="3.04953">
        <ele>650.8</ele>
        <time>2011-09-25T10:05:11Z</time>
      </trkpt>
      <trkpt lat="45.66261" lon="3.04939">
        <ele>650.6</ele>
        <time>2011-09-25T10:05:13Z</time>
      </trkpt>
      <trkpt lat="45.66272" lon="3.04927">
        <ele>650.5</ele>
        <time>2011-09-25T10:05:18Z</time>
      </trkpt>
      <trkpt lat="45.66283" lon="3.04917">
        <ele>650.3</ele>
        <time>2011-09-25T10:05:20Z</time>
      </trkpt>
      <trkpt lat="45.66287" lon="3.04905">
        <ele>650.1</ele>
        <time>2011-09-25T10:05:22Z</time>
      </trkpt>
      <trkpt lat="45.66285" lon="3.04891">
        <ele>649.9</ele>
        <time>2011-09-25T10:05:25Z</time>
      </trkpt>
      <trkpt lat="45.66279" lon="3.04881">
        <ele>650.1</ele>
        <time>2011-09-25T10:05:28Z</time>
      </trkpt>
      <trkpt lat="45.66276" lon="3.04867">
        <ele>650.3</ele>
        <time>2011-09-25T10:05:34Z</time>
      </trkpt>
      <trkpt lat="45.66272" lon="3.04855">
        <ele>650.5</ele>
        <time>2011-09-25T10:05:37Z</time>
      </trkpt>
      <trkpt lat="45.66269" lon="3.04843">
        <ele>650.6</ele>
        <time>2011-09-25T10:05:41Z</time>
      </trkpt>
      <trkpt lat="45.66265" lon="3.04831">
        <ele>651.1</ele>
        <time>2011-09-25T10:05:47Z</time>
      </trkpt>
      <trkpt lat="45.66266" lon="3.04817">
        <ele>651.5</ele>
        <time>2011-09-25T10:05:51Z</time>
      </trkpt>
      <trkpt lat="45.66272" lon="3.04805">
        <ele>652</ele>
        <time>2011-09-25T10:05:54Z</time>
      </trkpt>
      <trkpt lat="45.66277" lon="3.04788">
        <ele>652.5</ele>
        <time>2011-09-25T10:05:56Z</time>
      </trkpt>
      <trkpt lat="45.66287" lon="3.04772">
        <ele>652.9</ele>
        <time>2011-09-25T10:05:59Z</time>
      </trkpt>
      <trkpt lat="45.663" lon="3.04749">
        <ele>653.4</ele>
        <time>2011-09-25T10:06:04Z</time>
      </trkpt>
      <trkpt lat="45.66318" lon="3.04718">
        <ele>653.8</ele>
        <time>2011-09-25T10:06:09Z</time>
      </trkpt>
      <trkpt lat="45.66313" lon="3.04705">
        <ele>654.3</ele>
        <time>2011-09-25T10:06:11Z</time>
      </trkpt>
      <trkpt lat="45.66301" lon="3.04694">
        <ele>654.7</ele>
        <time>2011-09-25T10:06:13Z</time>
      </trkpt>
      <trkpt lat="45.66311" lon="3.04686">
        <ele>655.2</ele>
        <time>2011-09-25T10:06:21Z</time>
      </trkpt>
      <trkpt lat="45.66317" lon="3.04678">
        <ele>655.6</ele>
        <time>2011-09-25T10:06:24Z</time>
      </trkpt>
      <trkpt lat="45.66326" lon="3.04673">
        <ele>655.8</ele>
        <time>2011-09-25T10:06:27Z</time>
      </trkpt>
      <trkpt lat="45.66336" lon="3.04672">
        <ele>656</ele>
        <time>2011-09-25T10:06:32Z</time>
      </trkpt>
      <trkpt lat="45.66345" lon="3.04668">
        <ele>656.5</ele>
        <time>2011-09-25T10:06:36Z</time>
      </trkpt>
      <trkpt lat="45.66354" lon="3.04668">
        <ele>656.9</ele>
        <time>2011-09-25T10:06:41Z</time>
      </trkpt>
      <trkpt lat="45.66361" lon="3.04663">
        <ele>657.4</ele>
        <time>2011-09-25T10:06:48Z</time>
      </trkpt>
      <trkpt lat="45.6637" lon="3.04658">
        <ele>657.8</ele>
        <time>2011-09-25T10:06:52Z</time>
      </trkpt>
      <trkpt lat="45.66378" lon="3.04649">
        <ele>658.3</ele>
        <time>2011-09-25T10:06:55Z</time>
      </trkpt>
      <trkpt lat="45.66385" lon="3.0464">
        <ele>658.7</ele>
        <time>2011-09-25T10:06:58Z</time>
      </trkpt>
      <trkpt lat="45.66397" lon="3.04639">
        <ele>659.2</ele>
        <time>2011-09-25T10:07:02Z</time>
      </trkpt>
      <trkpt lat="45.66407" lon="3.04652">
        <ele>659.6</ele>
        <time>2011-09-25T10:07:06Z</time>
      </trkpt>
      <trkpt lat="45.66418" lon="3.04671">
        <ele>659.9</ele>
        <time>2011-09-25T10:07:09Z</time>
      </trkpt>
      <trkpt lat="45.66418" lon="3.04684">
        <ele>660.5</ele>
        <time>2011-09-25T10:07:12Z</time>
      </trkpt>
      <trkpt lat="45.66429" lon="3.04702">
        <ele>661</ele>
        <time>2011-09-25T10:07:16Z</time>
      </trkpt>
      <trkpt lat="45.66442" lon="3.04708">
        <ele>661.1</ele>
        <time>2011-09-25T10:07:20Z</time>
      </trkpt>
      <trkpt lat="45.66453" lon="3.04715">
        <ele>661.2</ele>
        <time>2011-09-25T10:07:23Z</time>
      </trkpt>
      <trkpt lat="45.6646" lon="3.04721">
        <ele>661.3</ele>
        <time>2011-09-25T10:07:32Z</time>
      </trkpt>
      <trkpt lat="45.66471" lon="3.04725">
        <ele>661.4</ele>
        <time>2011-09-25T10:07:39Z</time>
      </trkpt>
      <trkpt lat="45.66483" lon="3.0473">
        <ele>661.9</ele>
        <time>2011-09-25T10:07:41Z</time>
      </trkpt>
      <trkpt lat="45.66493" lon="3.04731">
        <ele>662.5</ele>
        <time>2011-09-25T10:07:44Z</time>
      </trkpt>
      <trkpt lat="45.66503" lon="3.04733">
        <ele>663</ele>
        <time>2011-09-25T10:07:46Z</time>
      </trkpt>
      <trkpt lat="45.66511" lon="3.04733">
        <ele>663.5</ele>
        <time>2011-09-25T10:07:54Z</time>
      </trkpt>
      <trkpt lat="45.66516" lon="3.04724">
        <ele>664.3</ele>
        <time>2011-09-25T10:07:58Z</time>
      </trkpt>
      <trkpt lat="45.6652" lon="3.04712">
        <ele>664.7</ele>
        <time>2011-09-25T10:08:03Z</time>
      </trkpt>
      <trkpt lat="45.66525" lon="3.047">
        <ele>665.2</ele>
        <time>2011-09-25T10:08:09Z</time>
      </trkpt>
      <trkpt lat="45.66528" lon="3.04689">
        <ele>666.8</ele>
        <time>2011-09-25T10:08:14Z</time>
      </trkpt>
      <trkpt lat="45.6653" lon="3.04677">
        <ele>668.5</ele>
        <time>2011-09-25T10:08:19Z</time>
      </trkpt>
      <trkpt lat="45.66535" lon="3.04665">
        <ele>670.1</ele>
        <time>2011-09-25T10:08:23Z</time>
      </trkpt>
      <trkpt lat="45.66536" lon="3.04652">
        <ele>671.3</ele>
        <time>2011-09-25T10:08:28Z</time>
      </trkpt>
      <trkpt lat="45.66539" lon="3.0464">
        <ele>672</ele>
        <time>2011-09-25T10:08:33Z</time>
      </trkpt>
      <trkpt lat="45.66544" lon="3.04627">
        <ele>672.7</ele>
        <time>2011-09-25T10:08:38Z</time>
      </trkpt>
      <trkpt lat="45.66545" lon="3.04614">
        <ele>674</ele>
        <time>2011-09-25T10:08:45Z</time>
      </trkpt>
      <trkpt lat="45.66546" lon="3.04599">
        <ele>675.3</ele>
        <time>2011-09-25T10:08:49Z</time>
      </trkpt>
      <trkpt lat="45.66549" lon="3.04584">
        <ele>676.5</ele>
        <time>2011-09-25T10:08:54Z</time>
      </trkpt>
      <trkpt lat="45.6655" lon="3.04571">
        <ele>677.8</ele>
        <time>2011-09-25T10:09:00Z</time>
      </trkpt>
      <trkpt lat="45.66552" lon="3.04555">
        <ele>679.1</ele>
        <time>2011-09-25T10:09:06Z</time>
      </trkpt>
      <trkpt lat="45.66553" lon="3.0454">
        <ele>679.2</ele>
        <time>2011-09-25T10:09:11Z</time>
      </trkpt>
      <trkpt lat="45.66555" lon="3.04526">
        <ele>679.1</ele>
        <time>2011-09-25T10:09:16Z</time>
      </trkpt>
      <trkpt lat="45.66559" lon="3.04516">
        <ele>679</ele>
        <time>2011-09-25T10:09:21Z</time>
      </trkpt>
      <trkpt lat="45.66559" lon="3.04504">
        <ele>679.4</ele>
        <time>2011-09-25T10:09:26Z</time>
      </trkpt>
      <trkpt lat="45.66558" lon="3.04492">
        <ele>681.5</ele>
        <time>2011-09-25T10:09:29Z</time>
      </trkpt>
      <trkpt lat="45.66557" lon="3.04479">
        <ele>683.5</ele>
        <time>2011-09-25T10:09:33Z</time>
      </trkpt>
      <trkpt lat="45.66559" lon="3.04468">
        <ele>685.1</ele>
        <time>2011-09-25T10:09:37Z</time>
      </trkpt>
      <trkpt lat="45.66558" lon="3.04455">
        <ele>686.6</ele>
        <time>2011-09-25T10:09:41Z</time>
      </trkpt>
      <trkpt lat="45.66553" lon="3.04442">
        <ele>688.2</ele>
        <time>2011-09-25T10:09:45Z</time>
      </trkpt>
      <trkpt lat="45.66546" lon="3.0443">
        <ele>689.5</ele>
        <time>2011-09-25T10:09:49Z</time>
      </trkpt>
      <trkpt lat="45.66542" lon="3.0442">
        <ele>690.9</ele>
        <time>2011-09-25T10:09:52Z</time>
      </trkpt>
      <trkpt lat="45.66542" lon="3.04406">
        <ele>692.3</ele>
        <time>2011-09-25T10:09:57Z</time>
      </trkpt>
      <trkpt lat="45.66538" lon="3.04393">
        <ele>693.8</ele>
        <time>2011-09-25T10:10:01Z</time>
      </trkpt>
      <trkpt lat="45.66531" lon="3.04381">
        <ele>695.4</ele>
        <time>2011-09-25T10:10:04Z</time>
      </trkpt>
      <trkpt lat="45.66524" lon="3.0437">
        <ele>696.9</ele>
        <time>2011-09-25T10:10:07Z</time>
      </trkpt>
      <trkpt lat="45.66521" lon="3.04359">
        <ele>696.7</ele>
        <time>2011-09-25T10:10:11Z</time>
      </trkpt>
      <trkpt lat="45.66516" lon="3.04349">
        <ele>696.6</ele>
        <time>2011-09-25T10:10:14Z</time>
      </trkpt>
      <trkpt lat="45.66512" lon="3.04336">
        <ele>696.5</ele>
        <time>2011-09-25T10:10:18Z</time>
      </trkpt>
      <trkpt lat="45.66507" lon="3.04325">
        <ele>696.5</ele>
        <time>2011-09-25T10:10:24Z</time>
      </trkpt>
      <trkpt lat="45.66502" lon="3.04312">
        <ele>696.4</ele>
        <time>2011-09-25T10:10:28Z</time>
      </trkpt>
      <trkpt lat="45.66497" lon="3.04301">
        <ele>696.5</ele>
        <time>2011-09-25T10:10:34Z</time>
      </trkpt>
      <trkpt lat="45.66498" lon="3.04288">
        <ele>696.5</ele>
        <time>2011-09-25T10:10:37Z</time>
      </trkpt>
      <trkpt lat="45.66499" lon="3.04274">
        <ele>697.4</ele>
        <time>2011-09-25T10:10:43Z</time>
      </trkpt>
      <trkpt lat="45.665" lon="3.04259">
        <ele>698.2</ele>
        <time>2011-09-25T10:10:47Z</time>
      </trkpt>
      <trkpt lat="45.66499" lon="3.04246">
        <ele>699</ele>
        <time>2011-09-25T10:10:51Z</time>
      </trkpt>
      <trkpt lat="45.66498" lon="3.04232">
        <ele>699.8</ele>
        <time>2011-09-25T10:10:55Z</time>
      </trkpt>
      <trkpt lat="45.665" lon="3.04221">
        <ele>700.6</ele>
        <time>2011-09-25T10:10:59Z</time>
      </trkpt>
      <trkpt lat="45.66501" lon="3.04207">
        <ele>701.4</ele>
        <time>2011-09-25T10:11:04Z</time>
      </trkpt>
      <trkpt lat="45.66504" lon="3.04195">
        <ele>702.1</ele>
        <time>2011-09-25T10:11:08Z</time>
      </trkpt>
      <trkpt lat="45.66504" lon="3.04182">
        <ele>703.6</ele>
        <time>2011-09-25T10:11:13Z</time>
      </trkpt>
      <trkpt lat="45.66509" lon="3.0417">
        <ele>705.2</ele>
        <time>2011-09-25T10:11:18Z</time>
      </trkpt>
      <trkpt lat="45.66512" lon="3.04159">
        <ele>706.7</ele>
        <time>2011-09-25T10:11:23Z</time>
      </trkpt>
      <trkpt lat="45.66513" lon="3.04147">
        <ele>708.3</ele>
        <time>2011-09-25T10:11:32Z</time>
      </trkpt>
      <trkpt lat="45.66516" lon="3.04133">
        <ele>709.1</ele>
        <time>2011-09-25T10:11:37Z</time>
      </trkpt>
      <trkpt lat="45.66519" lon="3.04122">
        <ele>709.9</ele>
        <time>2011-09-25T10:11:43Z</time>
      </trkpt>
      <trkpt lat="45.66521" lon="3.04109">
        <ele>710.7</ele>
        <time>2011-09-25T10:11:48Z</time>
      </trkpt>
      <trkpt lat="45.66525" lon="3.04098">
        <ele>712.5</ele>
        <time>2011-09-25T10:11:50Z</time>
      </trkpt>
      <trkpt lat="45.66529" lon="3.04085">
        <ele>714.2</ele>
        <time>2011-09-25T10:11:56Z</time>
      </trkpt>
      <trkpt lat="45.66531" lon="3.04073">
        <ele>715.9</ele>
        <time>2011-09-25T10:12:01Z</time>
      </trkpt>
      <trkpt lat="45.66534" lon="3.04059">
        <ele>717.6</ele>
        <time>2011-09-25T10:12:07Z</time>
      </trkpt>
      <trkpt lat="45.66534" lon="3.04048">
        <ele>718.5</ele>
        <time>2011-09-25T10:12:11Z</time>
      </trkpt>
      <trkpt lat="45.66537" lon="3.04036">
        <ele>719.5</ele>
        <time>2011-09-25T10:12:15Z</time>
      </trkpt>
      <trkpt lat="45.66541" lon="3.04025">
        <ele>720.4</ele>
        <time>2011-09-25T10:12:19Z</time>
      </trkpt>
      <trkpt lat="45.66536" lon="3.04014">
        <ele>721.3</ele>
        <time>2011-09-25T10:12:24Z</time>
      </trkpt>
      <trkpt lat="45.66529" lon="3.04008">
        <ele>722.2</ele>
        <time>2011-09-25T10:12:29Z</time>
      </trkpt>
      <trkpt lat="45.66521" lon="3.04004">
        <ele>723.1</ele>
        <time>2011-09-25T10:12:33Z</time>
      </trkpt>
      <trkpt lat="45.66513" lon="3.03998">
        <ele>725</ele>
        <time>2011-09-25T10:12:38Z</time>
      </trkpt>
      <trkpt lat="45.6651" lon="3.03985">
        <ele>726</ele>
        <time>2011-09-25T10:12:44Z</time>
      </trkpt>
      <trkpt lat="45.66501" lon="3.03979">
        <ele>726.4</ele>
        <time>2011-09-25T10:12:49Z</time>
      </trkpt>
      <trkpt lat="45.66494" lon="3.03973">
        <ele>726.7</ele>
        <time>2011-09-25T10:12:54Z</time>
      </trkpt>
      <trkpt lat="45.66486" lon="3.0397">
        <ele>727.1</ele>
        <time>2011-09-25T10:12:58Z</time>
      </trkpt>
      <trkpt lat="45.66479" lon="3.03961">
        <ele>727.5</ele>
        <time>2011-09-25T10:13:03Z</time>
      </trkpt>
      <trkpt lat="45.66471" lon="3.03954">
        <ele>727.8</ele>
        <time>2011-09-25T10:13:09Z</time>
      </trkpt>
      <trkpt lat="45.66463" lon="3.03946">
        <ele>728.2</ele>
        <time>2011-09-25T10:13:14Z</time>
      </trkpt>
      <trkpt lat="45.66457" lon="3.03938">
        <ele>728.5</ele>
        <time>2011-09-25T10:13:19Z</time>
      </trkpt>
      <trkpt lat="45.66449" lon="3.0393">
        <ele>729.3</ele>
        <time>2011-09-25T10:13:24Z</time>
      </trkpt>
      <trkpt lat="45.66443" lon="3.0392">
        <ele>730</ele>
        <time>2011-09-25T10:13:28Z</time>
      </trkpt>
      <trkpt lat="45.66437" lon="3.03911">
        <ele>729.7</ele>
        <time>2011-09-25T10:13:33Z</time>
      </trkpt>
      <trkpt lat="45.66434" lon="3.03898">
        <ele>729.5</ele>
        <time>2011-09-25T10:13:39Z</time>
      </trkpt>
      <trkpt lat="45.66434" lon="3.03886">
        <ele>730.6</ele>
        <time>2011-09-25T10:13:44Z</time>
      </trkpt>
      <trkpt lat="45.66437" lon="3.03875">
        <ele>731.8</ele>
        <time>2011-09-25T10:13:49Z</time>
      </trkpt>
      <trkpt lat="45.66442" lon="3.03864">
        <ele>733</ele>
        <time>2011-09-25T10:13:53Z</time>
      </trkpt>
      <trkpt lat="45.66449" lon="3.03856">
        <ele>734.7</ele>
        <time>2011-09-25T10:13:56Z</time>
      </trkpt>
      <trkpt lat="45.66458" lon="3.03846">
        <ele>736.5</ele>
        <time>2011-09-25T10:13:59Z</time>
      </trkpt>
      <trkpt lat="45.66465" lon="3.03835">
        <ele>738.2</ele>
        <time>2011-09-25T10:14:02Z</time>
      </trkpt>
      <trkpt lat="45.6647" lon="3.03823">
        <ele>739.9</ele>
        <time>2011-09-25T10:14:05Z</time>
      </trkpt>
      <trkpt lat="45.66472" lon="3.03807">
        <ele>741.3</ele>
        <time>2011-09-25T10:14:08Z</time>
      </trkpt>
      <trkpt lat="45.66476" lon="3.03793">
        <ele>742.6</ele>
        <time>2011-09-25T10:14:10Z</time>
      </trkpt>
      <trkpt lat="45.66477" lon="3.03779">
        <ele>742.7</ele>
        <time>2011-09-25T10:14:12Z</time>
      </trkpt>
      <trkpt lat="45.66477" lon="3.03761">
        <ele>742.8</ele>
        <time>2011-09-25T10:14:15Z</time>
      </trkpt>
      <trkpt lat="45.66476" lon="3.03744">
        <ele>742.1</ele>
        <time>2011-09-25T10:14:17Z</time>
      </trkpt>
      <trkpt lat="45.66472" lon="3.03734">
        <ele>741.4</ele>
        <time>2011-09-25T10:14:19Z</time>
      </trkpt>
      <trkpt lat="45.66465" lon="3.03722">
        <ele>740.6</ele>
        <time>2011-09-25T10:14:21Z</time>
      </trkpt>
      <trkpt lat="45.66454" lon="3.03705">
        <ele>739.4</ele>
        <time>2011-09-25T10:14:23Z</time>
      </trkpt>
      <trkpt lat="45.66448" lon="3.03694">
        <ele>738.6</ele>
        <time>2011-09-25T10:14:25Z</time>
      </trkpt>
      <trkpt lat="45.66443" lon="3.03684">
        <ele>737.9</ele>
        <time>2011-09-25T10:14:27Z</time>
      </trkpt>
      <trkpt lat="45.66434" lon="3.03671">
        <ele>737.2</ele>
        <time>2011-09-25T10:14:30Z</time>
      </trkpt>
      <trkpt lat="45.66428" lon="3.03658">
        <ele>736.5</ele>
        <time>2011-09-25T10:14:33Z</time>
      </trkpt>
      <trkpt lat="45.66428" lon="3.03646">
        <ele>735.7</ele>
        <time>2011-09-25T10:14:36Z</time>
      </trkpt>
      <trkpt lat="45.66432" lon="3.03634">
        <ele>736.3</ele>
        <time>2011-09-25T10:14:42Z</time>
      </trkpt>
      <trkpt lat="45.66435" lon="3.0362">
        <ele>736.8</ele>
        <time>2011-09-25T10:14:50Z</time>
      </trkpt>
      <trkpt lat="45.6644" lon="3.0361">
        <ele>737.9</ele>
        <time>2011-09-25T10:14:55Z</time>
      </trkpt>
      <trkpt lat="45.66445" lon="3.03599">
        <ele>739</ele>
        <time>2011-09-25T10:15:01Z</time>
      </trkpt>
      <trkpt lat="45.66445" lon="3.03584">
        <ele>740.1</ele>
        <time>2011-09-25T10:15:06Z</time>
      </trkpt>
      <trkpt lat="45.6645" lon="3.03574">
        <ele>742.9</ele>
        <time>2011-09-25T10:15:10Z</time>
      </trkpt>
      <trkpt lat="45.6645" lon="3.0356">
        <ele>745.2</ele>
        <time>2011-09-25T10:15:15Z</time>
      </trkpt>
      <trkpt lat="45.66453" lon="3.03547">
        <ele>747.5</ele>
        <time>2011-09-25T10:15:20Z</time>
      </trkpt>
      <trkpt lat="45.66458" lon="3.03534">
        <ele>749.7</ele>
        <time>2011-09-25T10:15:25Z</time>
      </trkpt>
      <trkpt lat="45.66463" lon="3.03524">
        <ele>752</ele>
        <time>2011-09-25T10:15:28Z</time>
      </trkpt>
      <trkpt lat="45.66468" lon="3.03513">
        <ele>754.3</ele>
        <time>2011-09-25T10:15:33Z</time>
      </trkpt>
      <trkpt lat="45.66472" lon="3.03502">
        <ele>756.5</ele>
        <time>2011-09-25T10:15:38Z</time>
      </trkpt>
      <trkpt lat="45.66476" lon="3.03489">
        <ele>758.8</ele>
        <time>2011-09-25T10:15:42Z</time>
      </trkpt>
      <trkpt lat="45.66476" lon="3.03477">
        <ele>760.5</ele>
        <time>2011-09-25T10:15:49Z</time>
      </trkpt>
      <trkpt lat="45.66478" lon="3.03463">
        <ele>762.3</ele>
        <time>2011-09-25T10:15:53Z</time>
      </trkpt>
      <trkpt lat="45.6648" lon="3.03449">
        <ele>764</ele>
        <time>2011-09-25T10:15:56Z</time>
      </trkpt>
      <trkpt lat="45.66485" lon="3.03437">
        <ele>764.1</ele>
        <time>2011-09-25T10:16:00Z</time>
      </trkpt>
      <trkpt lat="45.66488" lon="3.03425">
        <ele>764.2</ele>
        <time>2011-09-25T10:16:04Z</time>
      </trkpt>
      <trkpt lat="45.66489" lon="3.0341">
        <ele>764.3</ele>
        <time>2011-09-25T10:16:11Z</time>
      </trkpt>
      <trkpt lat="45.66492" lon="3.03399">
        <ele>764.4</ele>
        <time>2011-09-25T10:16:15Z</time>
      </trkpt>
      <trkpt lat="45.66496" lon="3.03386">
        <ele>764.5</ele>
        <time>2011-09-25T10:16:20Z</time>
      </trkpt>
      <trkpt lat="45.66501" lon="3.03373">
        <ele>764.5</ele>
        <time>2011-09-25T10:16:24Z</time>
      </trkpt>
      <trkpt lat="45.66506" lon="3.03359">
        <ele>764.6</ele>
        <time>2011-09-25T10:16:28Z</time>
      </trkpt>
      <trkpt lat="45.6651" lon="3.03348">
        <ele>764.9</ele>
        <time>2011-09-25T10:16:33Z</time>
      </trkpt>
      <trkpt lat="45.66513" lon="3.03335">
        <ele>765.2</ele>
        <time>2011-09-25T10:16:38Z</time>
      </trkpt>
      <trkpt lat="45.66517" lon="3.03324">
        <ele>765.5</ele>
        <time>2011-09-25T10:16:42Z</time>
      </trkpt>
      <trkpt lat="45.66519" lon="3.03313">
        <ele>765.7</ele>
        <time>2011-09-25T10:16:46Z</time>
      </trkpt>
      <trkpt lat="45.66521" lon="3.03296">
        <ele>765.9</ele>
        <time>2011-09-25T10:16:49Z</time>
      </trkpt>
      <trkpt lat="45.66523" lon="3.03281">
        <ele>767.6</ele>
        <time>2011-09-25T10:16:55Z</time>
      </trkpt>
      <trkpt lat="45.66526" lon="3.03269">
        <ele>769.1</ele>
        <time>2011-09-25T10:16:58Z</time>
      </trkpt>
      <trkpt lat="45.6653" lon="3.03254">
        <ele>770.5</ele>
        <time>2011-09-25T10:17:03Z</time>
      </trkpt>
      <trkpt lat="45.66537" lon="3.03247">
        <ele>772</ele>
        <time>2011-09-25T10:17:05Z</time>
      </trkpt>
      <trkpt lat="45.66543" lon="3.03233">
        <ele>773.5</ele>
        <time>2011-09-25T10:17:09Z</time>
      </trkpt>
      <trkpt lat="45.66548" lon="3.03221">
        <ele>774.9</ele>
        <time>2011-09-25T10:17:13Z</time>
      </trkpt>
      <trkpt lat="45.66555" lon="3.03205">
        <ele>776.2</ele>
        <time>2011-09-25T10:17:18Z</time>
      </trkpt>
      <trkpt lat="45.66558" lon="3.03194">
        <ele>777.5</ele>
        <time>2011-09-25T10:17:21Z</time>
      </trkpt>
      <trkpt lat="45.66563" lon="3.03179">
        <ele>778.5</ele>
        <time>2011-09-25T10:17:25Z</time>
      </trkpt>
      <trkpt lat="45.66566" lon="3.03167">
        <ele>779.6</ele>
        <time>2011-09-25T10:17:28Z</time>
      </trkpt>
      <trkpt lat="45.66569" lon="3.03154">
        <ele>780.7</ele>
        <time>2011-09-25T10:17:31Z</time>
      </trkpt>
      <trkpt lat="45.66573" lon="3.03141">
        <ele>780.3</ele>
        <time>2011-09-25T10:17:35Z</time>
      </trkpt>
      <trkpt lat="45.66576" lon="3.0313">
        <ele>780.1</ele>
        <time>2011-09-25T10:17:38Z</time>
      </trkpt>
      <trkpt lat="45.6658" lon="3.03116">
        <ele>780.1</ele>
        <time>2011-09-25T10:17:43Z</time>
      </trkpt>
      <trkpt lat="45.66581" lon="3.03101">
        <ele>780.1</ele>
        <time>2011-09-25T10:17:46Z</time>
      </trkpt>
      <trkpt lat="45.66584" lon="3.03089">
        <ele>780.1</ele>
        <time>2011-09-25T10:17:49Z</time>
      </trkpt>
      <trkpt lat="45.66585" lon="3.03073">
        <ele>780.1</ele>
        <time>2011-09-25T10:17:53Z</time>
      </trkpt>
      <trkpt lat="45.66587" lon="3.03056">
        <ele>780.1</ele>
        <time>2011-09-25T10:17:57Z</time>
      </trkpt>
      <trkpt lat="45.66589" lon="3.03038">
        <ele>780.1</ele>
        <time>2011-09-25T10:18:01Z</time>
      </trkpt>
      <trkpt lat="45.6659" lon="3.03026">
        <ele>780.6</ele>
        <time>2011-09-25T10:18:06Z</time>
      </trkpt>
      <trkpt lat="45.66595" lon="3.03013">
        <ele>781.2</ele>
        <time>2011-09-25T10:18:08Z</time>
      </trkpt>
      <trkpt lat="45.66596" lon="3.03001">
        <ele>781.7</ele>
        <time>2011-09-25T10:18:10Z</time>
      </trkpt>
      <trkpt lat="45.66599" lon="3.02985">
        <ele>782.3</ele>
        <time>2011-09-25T10:18:12Z</time>
      </trkpt>
      <trkpt lat="45.66602" lon="3.02974">
        <ele>783.6</ele>
        <time>2011-09-25T10:18:14Z</time>
      </trkpt>
      <trkpt lat="45.66603" lon="3.02961">
        <ele>784.8</ele>
        <time>2011-09-25T10:18:17Z</time>
      </trkpt>
      <trkpt lat="45.66608" lon="3.02951">
        <ele>786</ele>
        <time>2011-09-25T10:18:20Z</time>
      </trkpt>
      <trkpt lat="45.66614" lon="3.02942">
        <ele>787.2</ele>
        <time>2011-09-25T10:18:24Z</time>
      </trkpt>
      <trkpt lat="45.66622" lon="3.02934">
        <ele>788.4</ele>
        <time>2011-09-25T10:18:28Z</time>
      </trkpt>
      <trkpt lat="45.6663" lon="3.0293">
        <ele>789.4</ele>
        <time>2011-09-25T10:18:32Z</time>
      </trkpt>
      <trkpt lat="45.66639" lon="3.02926">
        <ele>790.4</ele>
        <time>2011-09-25T10:18:37Z</time>
      </trkpt>
      <trkpt lat="45.66646" lon="3.02919">
        <ele>791</ele>
        <time>2011-09-25T10:18:43Z</time>
      </trkpt>
      <trkpt lat="45.66649" lon="3.02907">
        <ele>791.6</ele>
        <time>2011-09-25T10:18:47Z</time>
      </trkpt>
      <trkpt lat="45.6665" lon="3.02894">
        <ele>792.3</ele>
        <time>2011-09-25T10:18:51Z</time>
      </trkpt>
      <trkpt lat="45.66653" lon="3.0288">
        <ele>792.9</ele>
        <time>2011-09-25T10:18:54Z</time>
      </trkpt>
      <trkpt lat="45.66657" lon="3.02869">
        <ele>792.7</ele>
        <time>2011-09-25T10:18:57Z</time>
      </trkpt>
      <trkpt lat="45.66664" lon="3.0286">
        <ele>791.9</ele>
        <time>2011-09-25T10:19:02Z</time>
      </trkpt>
      <trkpt lat="45.66668" lon="3.02848">
        <ele>791.1</ele>
        <time>2011-09-25T10:19:05Z</time>
      </trkpt>
      <trkpt lat="45.66669" lon="3.02831">
        <ele>790.3</ele>
        <time>2011-09-25T10:19:08Z</time>
      </trkpt>
      <trkpt lat="45.66663" lon="3.02821">
        <ele>789.5</ele>
        <time>2011-09-25T10:19:10Z</time>
      </trkpt>
      <trkpt lat="45.66657" lon="3.02805">
        <ele>788</ele>
        <time>2011-09-25T10:19:12Z</time>
      </trkpt>
      <trkpt lat="45.66656" lon="3.02782">
        <ele>786.5</ele>
        <time>2011-09-25T10:19:14Z</time>
      </trkpt>
      <trkpt lat="45.6666" lon="3.02761">
        <ele>785.1</ele>
        <time>2011-09-25T10:19:16Z</time>
      </trkpt>
      <trkpt lat="45.66667" lon="3.02741">
        <ele>783.6</ele>
        <time>2011-09-25T10:19:18Z</time>
      </trkpt>
      <trkpt lat="45.66671" lon="3.02723">
        <ele>782.2</ele>
        <time>2011-09-25T10:19:20Z</time>
      </trkpt>
      <trkpt lat="45.66671" lon="3.02711">
        <ele>780.5</ele>
        <time>2011-09-25T10:19:21Z</time>
      </trkpt>
      <trkpt lat="45.66668" lon="3.02699">
        <ele>778.7</ele>
        <time>2011-09-25T10:19:23Z</time>
      </trkpt>
      <trkpt lat="45.6666" lon="3.02676">
        <ele>777.6</ele>
        <time>2011-09-25T10:19:24Z</time>
      </trkpt>
      <trkpt lat="45.66654" lon="3.02656">
        <ele>776.5</ele>
        <time>2011-09-25T10:19:26Z</time>
      </trkpt>
      <trkpt lat="45.66653" lon="3.02644">
        <ele>775.5</ele>
        <time>2011-09-25T10:19:27Z</time>
      </trkpt>
      <trkpt lat="45.66651" lon="3.02631">
        <ele>774.4</ele>
        <time>2011-09-25T10:19:28Z</time>
      </trkpt>
      <trkpt lat="45.66649" lon="3.02616">
        <ele>773.2</ele>
        <time>2011-09-25T10:19:29Z</time>
      </trkpt>
      <trkpt lat="45.66647" lon="3.02602">
        <ele>772</ele>
        <time>2011-09-25T10:19:30Z</time>
      </trkpt>
      <trkpt lat="45.66643" lon="3.02587">
        <ele>770.8</ele>
        <time>2011-09-25T10:19:31Z</time>
      </trkpt>
      <trkpt lat="45.66638" lon="3.02574">
        <ele>769.6</ele>
        <time>2011-09-25T10:19:32Z</time>
      </trkpt>
      <trkpt lat="45.6663" lon="3.02562">
        <ele>768.5</ele>
        <time>2011-09-25T10:19:33Z</time>
      </trkpt>
      <trkpt lat="45.66622" lon="3.02553">
        <ele>767.5</ele>
        <time>2011-09-25T10:19:34Z</time>
      </trkpt>
      <trkpt lat="45.66614" lon="3.02544">
        <ele>766.6</ele>
        <time>2011-09-25T10:19:35Z</time>
      </trkpt>
      <trkpt lat="45.66605" lon="3.02534">
        <ele>765.7</ele>
        <time>2011-09-25T10:19:36Z</time>
      </trkpt>
      <trkpt lat="45.66598" lon="3.02523">
        <ele>765.6</ele>
        <time>2011-09-25T10:19:37Z</time>
      </trkpt>
      <trkpt lat="45.66592" lon="3.02512">
        <ele>765.5</ele>
        <time>2011-09-25T10:19:38Z</time>
      </trkpt>
      <trkpt lat="45.66586" lon="3.025">
        <ele>765.5</ele>
        <time>2011-09-25T10:19:39Z</time>
      </trkpt>
      <trkpt lat="45.6658" lon="3.02482">
        <ele>766.3</ele>
        <time>2011-09-25T10:19:41Z</time>
      </trkpt>
      <trkpt lat="45.66576" lon="3.02471">
        <ele>765.9</ele>
        <time>2011-09-25T10:19:42Z</time>
      </trkpt>
      <trkpt lat="45.66567" lon="3.02456">
        <ele>766.7</ele>
        <time>2011-09-25T10:19:44Z</time>
      </trkpt>
      <trkpt lat="45.66562" lon="3.02445">
        <ele>767.5</ele>
        <time>2011-09-25T10:19:46Z</time>
      </trkpt>
      <trkpt lat="45.66556" lon="3.02433">
        <ele>768.4</ele>
        <time>2011-09-25T10:19:48Z</time>
      </trkpt>
      <trkpt lat="45.66548" lon="3.02421">
        <ele>769.2</ele>
        <time>2011-09-25T10:19:53Z</time>
      </trkpt>
      <trkpt lat="45.66545" lon="3.0241">
        <ele>770</ele>
        <time>2011-09-25T10:19:55Z</time>
      </trkpt>
      <trkpt lat="45.6655" lon="3.02401">
        <ele>770.8</ele>
        <time>2011-09-25T10:20:03Z</time>
      </trkpt>
      <trkpt lat="45.66561" lon="3.02403">
        <ele>770.8</ele>
        <time>2011-09-25T10:20:06Z</time>
      </trkpt>
      <trkpt lat="45.66569" lon="3.02405">
        <ele>770.8</ele>
        <time>2011-09-25T10:20:12Z</time>
      </trkpt>
      <trkpt lat="45.66578" lon="3.02407">
        <ele>770.8</ele>
        <time>2011-09-25T10:20:13Z</time>
      </trkpt>
      <trkpt lat="45.66585" lon="3.02411">
        <ele>771.6</ele>
        <time>2011-09-25T10:20:16Z</time>
      </trkpt>
      <trkpt lat="45.66595" lon="3.02418">
        <ele>773.6</ele>
        <time>2011-09-25T10:20:21Z</time>
      </trkpt>
      <trkpt lat="45.66606" lon="3.02425">
        <ele>774.5</ele>
        <time>2011-09-25T10:20:24Z</time>
      </trkpt>
      <trkpt lat="45.66614" lon="3.02428">
        <ele>775.3</ele>
        <time>2011-09-25T10:20:27Z</time>
      </trkpt>
      <trkpt lat="45.66625" lon="3.02433">
        <ele>776.1</ele>
        <time>2011-09-25T10:20:31Z</time>
      </trkpt>
      <trkpt lat="45.66636" lon="3.02437">
        <ele>776.9</ele>
        <time>2011-09-25T10:20:34Z</time>
      </trkpt>
      <trkpt lat="45.66646" lon="3.02442">
        <ele>777.7</ele>
        <time>2011-09-25T10:20:37Z</time>
      </trkpt>
      <trkpt lat="45.66654" lon="3.02448">
        <ele>777.9</ele>
        <time>2011-09-25T10:20:40Z</time>
      </trkpt>
      <trkpt lat="45.66663" lon="3.02454">
        <ele>778.1</ele>
        <time>2011-09-25T10:20:43Z</time>
      </trkpt>
      <trkpt lat="45.66671" lon="3.02459">
        <ele>779.6</ele>
        <time>2011-09-25T10:20:46Z</time>
      </trkpt>
      <trkpt lat="45.66679" lon="3.02464">
        <ele>781.2</ele>
        <time>2011-09-25T10:20:49Z</time>
      </trkpt>
      <trkpt lat="45.66686" lon="3.02469">
        <ele>781.9</ele>
        <time>2011-09-25T10:20:52Z</time>
      </trkpt>
      <trkpt lat="45.66694" lon="3.02472">
        <ele>782.6</ele>
        <time>2011-09-25T10:20:55Z</time>
      </trkpt>
      <trkpt lat="45.66704" lon="3.02476">
        <ele>783.4</ele>
        <time>2011-09-25T10:20:58Z</time>
      </trkpt>
      <trkpt lat="45.66713" lon="3.02483">
        <ele>784.1</ele>
        <time>2011-09-25T10:21:02Z</time>
      </trkpt>
      <trkpt lat="45.66722" lon="3.02491">
        <ele>784.8</ele>
        <time>2011-09-25T10:21:06Z</time>
      </trkpt>
      <trkpt lat="45.66729" lon="3.02498">
        <ele>785.5</ele>
        <time>2011-09-25T10:21:10Z</time>
      </trkpt>
      <trkpt lat="45.66738" lon="3.02505">
        <ele>786.3</ele>
        <time>2011-09-25T10:21:14Z</time>
      </trkpt>
      <trkpt lat="45.66745" lon="3.02511">
        <ele>787.6</ele>
        <time>2011-09-25T10:21:18Z</time>
      </trkpt>
      <trkpt lat="45.66754" lon="3.02517">
        <ele>790.5</ele>
        <time>2011-09-25T10:21:25Z</time>
      </trkpt>
      <trkpt lat="45.66762" lon="3.02522">
        <ele>791.9</ele>
        <time>2011-09-25T10:21:27Z</time>
      </trkpt>
      <trkpt lat="45.6677" lon="3.02528">
        <ele>792.6</ele>
        <time>2011-09-25T10:21:31Z</time>
      </trkpt>
      <trkpt lat="45.66778" lon="3.02534">
        <ele>793.4</ele>
        <time>2011-09-25T10:21:35Z</time>
      </trkpt>
      <trkpt lat="45.66785" lon="3.02541">
        <ele>794.1</ele>
        <time>2011-09-25T10:21:39Z</time>
      </trkpt>
      <trkpt lat="45.66794" lon="3.02546">
        <ele>794.8</ele>
        <time>2011-09-25T10:21:44Z</time>
      </trkpt>
      <trkpt lat="45.66802" lon="3.02551">
        <ele>795.5</ele>
        <time>2011-09-25T10:21:48Z</time>
      </trkpt>
      <trkpt lat="45.6681" lon="3.02557">
        <ele>796.3</ele>
        <time>2011-09-25T10:21:53Z</time>
      </trkpt>
      <trkpt lat="45.66818" lon="3.02565">
        <ele>797</ele>
        <time>2011-09-25T10:21:58Z</time>
      </trkpt>
      <trkpt lat="45.66824" lon="3.02575">
        <ele>797.7</ele>
        <time>2011-09-25T10:22:03Z</time>
      </trkpt>
      <trkpt lat="45.66831" lon="3.02581">
        <ele>798.5</ele>
        <time>2011-09-25T10:22:07Z</time>
      </trkpt>
      <trkpt lat="45.6684" lon="3.02584">
        <ele>798.5</ele>
        <time>2011-09-25T10:22:11Z</time>
      </trkpt>
      <trkpt lat="45.66848" lon="3.0259">
        <ele>798.5</ele>
        <time>2011-09-25T10:22:15Z</time>
      </trkpt>
      <trkpt lat="45.66858" lon="3.02595">
        <ele>799.2</ele>
        <time>2011-09-25T10:22:18Z</time>
      </trkpt>
      <trkpt lat="45.66867" lon="3.026">
        <ele>799.9</ele>
        <time>2011-09-25T10:22:22Z</time>
      </trkpt>
      <trkpt lat="45.66876" lon="3.02603">
        <ele>800.6</ele>
        <time>2011-09-25T10:22:26Z</time>
      </trkpt>
      <trkpt lat="45.66887" lon="3.02606">
        <ele>801.4</ele>
        <time>2011-09-25T10:22:30Z</time>
      </trkpt>
      <trkpt lat="45.66896" lon="3.02608">
        <ele>802.1</ele>
        <time>2011-09-25T10:22:34Z</time>
      </trkpt>
      <trkpt lat="45.66905" lon="3.02607">
        <ele>802.8</ele>
        <time>2011-09-25T10:22:37Z</time>
      </trkpt>
      <trkpt lat="45.66915" lon="3.02606">
        <ele>803.5</ele>
        <time>2011-09-25T10:22:41Z</time>
      </trkpt>
      <trkpt lat="45.66926" lon="3.02606">
        <ele>804</ele>
        <time>2011-09-25T10:22:45Z</time>
      </trkpt>
      <trkpt lat="45.66935" lon="3.02606">
        <ele>804.5</ele>
        <time>2011-09-25T10:22:48Z</time>
      </trkpt>
      <trkpt lat="45.66946" lon="3.02603">
        <ele>804.2</ele>
        <time>2011-09-25T10:22:51Z</time>
      </trkpt>
      <trkpt lat="45.66955" lon="3.02598">
        <ele>803.9</ele>
        <time>2011-09-25T10:22:53Z</time>
      </trkpt>
      <trkpt lat="45.66963" lon="3.02588">
        <ele>804.5</ele>
        <time>2011-09-25T10:22:56Z</time>
      </trkpt>
      <trkpt lat="45.66972" lon="3.02581">
        <ele>805.2</ele>
        <time>2011-09-25T10:22:59Z</time>
      </trkpt>
      <trkpt lat="45.66979" lon="3.02574">
        <ele>805.8</ele>
        <time>2011-09-25T10:23:03Z</time>
      </trkpt>
      <trkpt lat="45.66985" lon="3.02567">
        <ele>806.5</ele>
        <time>2011-09-25T10:23:06Z</time>
      </trkpt>
      <trkpt lat="45.66991" lon="3.02558">
        <ele>807.1</ele>
        <time>2011-09-25T10:23:09Z</time>
      </trkpt>
      <trkpt lat="45.66995" lon="3.02548">
        <ele>807.7</ele>
        <time>2011-09-25T10:23:13Z</time>
      </trkpt>
      <trkpt lat="45.67" lon="3.02537">
        <ele>808.4</ele>
        <time>2011-09-25T10:23:16Z</time>
      </trkpt>
      <trkpt lat="45.67004" lon="3.02525">
        <ele>809.9</ele>
        <time>2011-09-25T10:23:20Z</time>
      </trkpt>
      <trkpt lat="45.6701" lon="3.02513">
        <ele>811.5</ele>
        <time>2011-09-25T10:23:24Z</time>
      </trkpt>
      <trkpt lat="45.67004" lon="3.025">
        <ele>813</ele>
        <time>2011-09-25T10:23:28Z</time>
      </trkpt>
      <trkpt lat="45.67012" lon="3.0249">
        <ele>814.5</ele>
        <time>2011-09-25T10:23:30Z</time>
      </trkpt>
      <trkpt lat="45.67014" lon="3.02477">
        <ele>815.2</ele>
        <time>2011-09-25T10:23:33Z</time>
      </trkpt>
      <trkpt lat="45.67024" lon="3.02467">
        <ele>815.8</ele>
        <time>2011-09-25T10:23:36Z</time>
      </trkpt>
      <trkpt lat="45.67029" lon="3.02456">
        <ele>815.6</ele>
        <time>2011-09-25T10:23:39Z</time>
      </trkpt>
      <trkpt lat="45.67036" lon="3.02446">
        <ele>815.6</ele>
        <time>2011-09-25T10:23:44Z</time>
      </trkpt>
      <trkpt lat="45.6704" lon="3.02436">
        <ele>815.6</ele>
        <time>2011-09-25T10:23:47Z</time>
      </trkpt>
      <trkpt lat="45.67038" lon="3.02421">
        <ele>815.6</ele>
        <time>2011-09-25T10:23:49Z</time>
      </trkpt>
      <trkpt lat="45.67044" lon="3.02403">
        <ele>815.6</ele>
        <time>2011-09-25T10:23:53Z</time>
      </trkpt>
      <trkpt lat="45.67049" lon="3.02388">
        <ele>815</ele>
        <time>2011-09-25T10:23:56Z</time>
      </trkpt>
      <trkpt lat="45.67053" lon="3.02375">
        <ele>814.4</ele>
        <time>2011-09-25T10:23:58Z</time>
      </trkpt>
      <trkpt lat="45.67053" lon="3.02362">
        <ele>813.8</ele>
        <time>2011-09-25T10:24:00Z</time>
      </trkpt>
      <trkpt lat="45.67055" lon="3.02347">
        <ele>813.3</ele>
        <time>2011-09-25T10:24:02Z</time>
      </trkpt>
      <trkpt lat="45.67055" lon="3.02335">
        <ele>812.7</ele>
        <time>2011-09-25T10:24:04Z</time>
      </trkpt>
      <trkpt lat="45.67056" lon="3.0232">
        <ele>812.2</ele>
        <time>2011-09-25T10:24:06Z</time>
      </trkpt>
      <trkpt lat="45.67061" lon="3.02304">
        <ele>812.5</ele>
        <time>2011-09-25T10:24:08Z</time>
      </trkpt>
      <trkpt lat="45.67061" lon="3.02284">
        <ele>812.5</ele>
        <time>2011-09-25T10:24:12Z</time>
      </trkpt>
      <trkpt lat="45.67065" lon="3.0227">
        <ele>812.7</ele>
        <time>2011-09-25T10:24:14Z</time>
      </trkpt>
      <trkpt lat="45.67067" lon="3.02257">
        <ele>812.9</ele>
        <time>2011-09-25T10:24:16Z</time>
      </trkpt>
      <trkpt lat="45.67068" lon="3.02243">
        <ele>813.1</ele>
        <time>2011-09-25T10:24:18Z</time>
      </trkpt>
      <trkpt lat="45.67072" lon="3.02231">
        <ele>813.3</ele>
        <time>2011-09-25T10:24:20Z</time>
      </trkpt>
      <trkpt lat="45.67076" lon="3.02215">
        <ele>813.5</ele>
        <time>2011-09-25T10:24:22Z</time>
      </trkpt>
      <trkpt lat="45.6708" lon="3.02191">
        <ele>813.8</ele>
        <time>2011-09-25T10:24:23Z</time>
      </trkpt>
      <trkpt lat="45.67084" lon="3.02176">
        <ele>814.2</ele>
        <time>2011-09-25T10:24:24Z</time>
      </trkpt>
      <trkpt lat="45.67091" lon="3.02164">
        <ele>814.5</ele>
        <time>2011-09-25T10:24:28Z</time>
      </trkpt>
      <trkpt lat="45.67097" lon="3.02147">
        <ele>814.9</ele>
        <time>2011-09-25T10:24:31Z</time>
      </trkpt>
      <trkpt lat="45.67099" lon="3.02132">
        <ele>815.3</ele>
        <time>2011-09-25T10:24:34Z</time>
      </trkpt>
      <trkpt lat="45.67102" lon="3.02119">
        <ele>816.2</ele>
        <time>2011-09-25T10:24:36Z</time>
      </trkpt>
      <trkpt lat="45.67103" lon="3.02104">
        <ele>817</ele>
        <time>2011-09-25T10:24:38Z</time>
      </trkpt>
      <trkpt lat="45.67106" lon="3.0209">
        <ele>817.8</ele>
        <time>2011-09-25T10:24:40Z</time>
      </trkpt>
      <trkpt lat="45.67109" lon="3.02076">
        <ele>818.6</ele>
        <time>2011-09-25T10:24:43Z</time>
      </trkpt>
      <trkpt lat="45.67107" lon="3.0206">
        <ele>819.5</ele>
        <time>2011-09-25T10:24:46Z</time>
      </trkpt>
      <trkpt lat="45.67111" lon="3.02046">
        <ele>820.1</ele>
        <time>2011-09-25T10:24:49Z</time>
      </trkpt>
      <trkpt lat="45.67112" lon="3.02029">
        <ele>820.5</ele>
        <time>2011-09-25T10:24:51Z</time>
      </trkpt>
      <trkpt lat="45.67115" lon="3.02018">
        <ele>821.2</ele>
        <time>2011-09-25T10:24:53Z</time>
      </trkpt>
      <trkpt lat="45.67124" lon="3.02007">
        <ele>821.9</ele>
        <time>2011-09-25T10:24:57Z</time>
      </trkpt>
      <trkpt lat="45.67127" lon="3.01997">
        <ele>822.6</ele>
        <time>2011-09-25T10:24:59Z</time>
      </trkpt>
      <trkpt lat="45.67132" lon="3.01985">
        <ele>823.4</ele>
        <time>2011-09-25T10:25:02Z</time>
      </trkpt>
      <trkpt lat="45.67137" lon="3.01972">
        <ele>823.5</ele>
        <time>2011-09-25T10:25:05Z</time>
      </trkpt>
      <trkpt lat="45.67144" lon="3.01958">
        <ele>823.7</ele>
        <time>2011-09-25T10:25:08Z</time>
      </trkpt>
      <trkpt lat="45.67147" lon="3.01942">
        <ele>824.2</ele>
        <time>2011-09-25T10:25:12Z</time>
      </trkpt>
      <trkpt lat="45.67152" lon="3.01931">
        <ele>824.6</ele>
        <time>2011-09-25T10:25:14Z</time>
      </trkpt>
      <trkpt lat="45.67156" lon="3.01918">
        <ele>825.1</ele>
        <time>2011-09-25T10:25:16Z</time>
      </trkpt>
      <trkpt lat="45.67159" lon="3.01905">
        <ele>825.7</ele>
        <time>2011-09-25T10:25:18Z</time>
      </trkpt>
      <trkpt lat="45.67162" lon="3.0189">
        <ele>826.4</ele>
        <time>2011-09-25T10:25:21Z</time>
      </trkpt>
      <trkpt lat="45.67165" lon="3.01876">
        <ele>826.6</ele>
        <time>2011-09-25T10:25:26Z</time>
      </trkpt>
      <trkpt lat="45.67166" lon="3.01864">
        <ele>826.9</ele>
        <time>2011-09-25T10:25:29Z</time>
      </trkpt>
      <trkpt lat="45.67154" lon="3.01833">
        <ele>827.2</ele>
        <time>2011-09-25T10:25:31Z</time>
      </trkpt>
      <trkpt lat="45.6717" lon="3.01829">
        <ele>827.7</ele>
        <time>2011-09-25T10:25:34Z</time>
      </trkpt>
      <trkpt lat="45.6718" lon="3.01829">
        <ele>828.3</ele>
        <time>2011-09-25T10:25:36Z</time>
      </trkpt>
      <trkpt lat="45.67188" lon="3.01827">
        <ele>828.8</ele>
        <time>2011-09-25T10:25:38Z</time>
      </trkpt>
      <trkpt lat="45.67198" lon="3.01823">
        <ele>829.3</ele>
        <time>2011-09-25T10:25:40Z</time>
      </trkpt>
      <trkpt lat="45.67205" lon="3.01819">
        <ele>829.7</ele>
        <time>2011-09-25T10:25:42Z</time>
      </trkpt>
      <trkpt lat="45.67213" lon="3.01816">
        <ele>830.2</ele>
        <time>2011-09-25T10:25:44Z</time>
      </trkpt>
      <trkpt lat="45.67221" lon="3.01812">
        <ele>830.6</ele>
        <time>2011-09-25T10:25:46Z</time>
      </trkpt>
      <trkpt lat="45.67231" lon="3.01805">
        <ele>831.1</ele>
        <time>2011-09-25T10:25:48Z</time>
      </trkpt>
      <trkpt lat="45.67241" lon="3.01798">
        <ele>831.5</ele>
        <time>2011-09-25T10:25:52Z</time>
      </trkpt>
      <trkpt lat="45.67253" lon="3.01794">
        <ele>832.1</ele>
        <time>2011-09-25T10:25:55Z</time>
      </trkpt>
      <trkpt lat="45.6726" lon="3.01788">
        <ele>832.6</ele>
        <time>2011-09-25T10:25:57Z</time>
      </trkpt>
      <trkpt lat="45.67268" lon="3.01781">
        <ele>832.9</ele>
        <time>2011-09-25T10:26:00Z</time>
      </trkpt>
      <trkpt lat="45.67275" lon="3.01775">
        <ele>833.2</ele>
        <time>2011-09-25T10:26:02Z</time>
      </trkpt>
      <trkpt lat="45.67285" lon="3.01768">
        <ele>833.5</ele>
        <time>2011-09-25T10:26:04Z</time>
      </trkpt>
      <trkpt lat="45.67294" lon="3.01759">
        <ele>833.7</ele>
        <time>2011-09-25T10:26:08Z</time>
      </trkpt>
      <trkpt lat="45.67303" lon="3.01748">
        <ele>834</ele>
        <time>2011-09-25T10:26:11Z</time>
      </trkpt>
      <trkpt lat="45.67312" lon="3.01739">
        <ele>834.3</ele>
        <time>2011-09-25T10:26:14Z</time>
      </trkpt>
      <trkpt lat="45.67321" lon="3.01729">
        <ele>834.5</ele>
        <time>2011-09-25T10:26:17Z</time>
      </trkpt>
      <trkpt lat="45.6733" lon="3.01721">
        <ele>834.8</ele>
        <time>2011-09-25T10:26:20Z</time>
      </trkpt>
      <trkpt lat="45.67338" lon="3.01712">
        <ele>835.1</ele>
        <time>2011-09-25T10:26:23Z</time>
      </trkpt>
      <trkpt lat="45.67346" lon="3.01704">
        <ele>835.6</ele>
        <time>2011-09-25T10:26:26Z</time>
      </trkpt>
      <trkpt lat="45.67354" lon="3.01696">
        <ele>836.2</ele>
        <time>2011-09-25T10:26:29Z</time>
      </trkpt>
      <trkpt lat="45.67362" lon="3.01688">
        <ele>836.7</ele>
        <time>2011-09-25T10:26:32Z</time>
      </trkpt>
      <trkpt lat="45.67372" lon="3.01681">
        <ele>837.3</ele>
        <time>2011-09-25T10:26:35Z</time>
      </trkpt>
      <trkpt lat="45.67381" lon="3.01675">
        <ele>837.8</ele>
        <time>2011-09-25T10:26:38Z</time>
      </trkpt>
      <trkpt lat="45.6739" lon="3.01669">
        <ele>838.2</ele>
        <time>2011-09-25T10:26:42Z</time>
      </trkpt>
      <trkpt lat="45.67398" lon="3.01664">
        <ele>838.5</ele>
        <time>2011-09-25T10:26:47Z</time>
      </trkpt>
      <trkpt lat="45.67406" lon="3.0166">
        <ele>839.3</ele>
        <time>2011-09-25T10:26:49Z</time>
      </trkpt>
      <trkpt lat="45.67415" lon="3.01656">
        <ele>840</ele>
        <time>2011-09-25T10:26:51Z</time>
      </trkpt>
      <trkpt lat="45.67422" lon="3.01649">
        <ele>841.5</ele>
        <time>2011-09-25T10:26:54Z</time>
      </trkpt>
      <trkpt lat="45.6743" lon="3.01645">
        <ele>842.9</ele>
        <time>2011-09-25T10:26:58Z</time>
      </trkpt>
      <trkpt lat="45.67441" lon="3.01638">
        <ele>844</ele>
        <time>2011-09-25T10:27:02Z</time>
      </trkpt>
      <trkpt lat="45.6745" lon="3.01633">
        <ele>845.1</ele>
        <time>2011-09-25T10:27:05Z</time>
      </trkpt>
      <trkpt lat="45.67458" lon="3.0163">
        <ele>846.2</ele>
        <time>2011-09-25T10:27:10Z</time>
      </trkpt>
      <trkpt lat="45.67467" lon="3.0163">
        <ele>847.3</ele>
        <time>2011-09-25T10:27:12Z</time>
      </trkpt>
      <trkpt lat="45.67477" lon="3.01624">
        <ele>848.4</ele>
        <time>2011-09-25T10:27:17Z</time>
      </trkpt>
      <trkpt lat="45.67488" lon="3.01621">
        <ele>849.5</ele>
        <time>2011-09-25T10:27:23Z</time>
      </trkpt>
      <trkpt lat="45.67497" lon="3.01614">
        <ele>850.5</ele>
        <time>2011-09-25T10:27:26Z</time>
      </trkpt>
      <trkpt lat="45.67501" lon="3.01605">
        <ele>851.5</ele>
        <time>2011-09-25T10:27:31Z</time>
      </trkpt>
      <trkpt lat="45.67511" lon="3.01599">
        <ele>852.5</ele>
        <time>2011-09-25T10:27:35Z</time>
      </trkpt>
      <trkpt lat="45.67522" lon="3.01596">
        <ele>852.8</ele>
        <time>2011-09-25T10:27:37Z</time>
      </trkpt>
      <trkpt lat="45.6753" lon="3.01591">
        <ele>853.1</ele>
        <time>2011-09-25T10:27:40Z</time>
      </trkpt>
      <trkpt lat="45.67541" lon="3.01584">
        <ele>853.4</ele>
        <time>2011-09-25T10:27:45Z</time>
      </trkpt>
      <trkpt lat="45.67549" lon="3.01579">
        <ele>853.6</ele>
        <time>2011-09-25T10:27:48Z</time>
      </trkpt>
      <trkpt lat="45.67557" lon="3.01572">
        <ele>853.9</ele>
        <time>2011-09-25T10:27:52Z</time>
      </trkpt>
      <trkpt lat="45.67567" lon="3.01569">
        <ele>854.2</ele>
        <time>2011-09-25T10:27:56Z</time>
      </trkpt>
      <trkpt lat="45.67574" lon="3.01563">
        <ele>854.5</ele>
        <time>2011-09-25T10:28:00Z</time>
      </trkpt>
      <trkpt lat="45.67585" lon="3.01568">
        <ele>854.7</ele>
        <time>2011-09-25T10:28:03Z</time>
      </trkpt>
      <trkpt lat="45.67592" lon="3.01574">
        <ele>854.9</ele>
        <time>2011-09-25T10:28:05Z</time>
      </trkpt>
      <trkpt lat="45.676" lon="3.01583">
        <ele>854.8</ele>
        <time>2011-09-25T10:28:08Z</time>
      </trkpt>
      <trkpt lat="45.67609" lon="3.01592">
        <ele>854.7</ele>
        <time>2011-09-25T10:28:11Z</time>
      </trkpt>
      <trkpt lat="45.67617" lon="3.01596">
        <ele>854.6</ele>
        <time>2011-09-25T10:28:13Z</time>
      </trkpt>
      <trkpt lat="45.67627" lon="3.01605">
        <ele>855</ele>
        <time>2011-09-25T10:28:16Z</time>
      </trkpt>
      <trkpt lat="45.67636" lon="3.01612">
        <ele>855.4</ele>
        <time>2011-09-25T10:28:18Z</time>
      </trkpt>
      <trkpt lat="45.67645" lon="3.01618">
        <ele>855.7</ele>
        <time>2011-09-25T10:28:20Z</time>
      </trkpt>
      <trkpt lat="45.67654" lon="3.01624">
        <ele>856.1</ele>
        <time>2011-09-25T10:28:22Z</time>
      </trkpt>
      <trkpt lat="45.67663" lon="3.01633">
        <ele>856.5</ele>
        <time>2011-09-25T10:28:25Z</time>
      </trkpt>
      <trkpt lat="45.67672" lon="3.01641">
        <ele>856.9</ele>
        <time>2011-09-25T10:28:28Z</time>
      </trkpt>
      <trkpt lat="45.67681" lon="3.01649">
        <ele>857.4</ele>
        <time>2011-09-25T10:28:31Z</time>
      </trkpt>
      <trkpt lat="45.67692" lon="3.01657">
        <ele>857.9</ele>
        <time>2011-09-25T10:28:35Z</time>
      </trkpt>
      <trkpt lat="45.677" lon="3.01663">
        <ele>858.5</ele>
        <time>2011-09-25T10:28:38Z</time>
      </trkpt>
      <trkpt lat="45.6771" lon="3.01667">
        <ele>859</ele>
        <time>2011-09-25T10:28:41Z</time>
      </trkpt>
      <trkpt lat="45.67719" lon="3.01673">
        <ele>859.5</ele>
        <time>2011-09-25T10:28:44Z</time>
      </trkpt>
      <trkpt lat="45.67727" lon="3.01683">
        <ele>859.6</ele>
        <time>2011-09-25T10:28:47Z</time>
      </trkpt>
      <trkpt lat="45.67738" lon="3.01692">
        <ele>859.7</ele>
        <time>2011-09-25T10:28:51Z</time>
      </trkpt>
      <trkpt lat="45.67747" lon="3.01697">
        <ele>859.8</ele>
        <time>2011-09-25T10:28:54Z</time>
      </trkpt>
      <trkpt lat="45.67756" lon="3.01701">
        <ele>860.7</ele>
        <time>2011-09-25T10:28:56Z</time>
      </trkpt>
      <trkpt lat="45.67768" lon="3.01701">
        <ele>862.1</ele>
        <time>2011-09-25T10:28:59Z</time>
      </trkpt>
      <trkpt lat="45.67777" lon="3.01699">
        <ele>863.4</ele>
        <time>2011-09-25T10:29:01Z</time>
      </trkpt>
      <trkpt lat="45.67784" lon="3.01689">
        <ele>864.6</ele>
        <time>2011-09-25T10:29:03Z</time>
      </trkpt>
      <trkpt lat="45.67791" lon="3.01701">
        <ele>865.9</ele>
        <time>2011-09-25T10:29:06Z</time>
      </trkpt>
      <trkpt lat="45.67798" lon="3.0171">
        <ele>867.2</ele>
        <time>2011-09-25T10:29:09Z</time>
      </trkpt>
      <trkpt lat="45.67802" lon="3.01722">
        <ele>868.5</ele>
        <time>2011-09-25T10:29:14Z</time>
      </trkpt>
      <trkpt lat="45.67807" lon="3.01732">
        <ele>869.7</ele>
        <time>2011-09-25T10:29:19Z</time>
      </trkpt>
      <trkpt lat="45.67812" lon="3.01743">
        <ele>871</ele>
        <time>2011-09-25T10:29:23Z</time>
      </trkpt>
      <trkpt lat="45.67818" lon="3.01757">
        <ele>872.5</ele>
        <time>2011-09-25T10:29:26Z</time>
      </trkpt>
      <trkpt lat="45.67826" lon="3.01766">
        <ele>873.9</ele>
        <time>2011-09-25T10:29:29Z</time>
      </trkpt>
      <trkpt lat="45.67831" lon="3.01777">
        <ele>874.5</ele>
        <time>2011-09-25T10:29:33Z</time>
      </trkpt>
      <trkpt lat="45.6784" lon="3.01783">
        <ele>874.7</ele>
        <time>2011-09-25T10:29:39Z</time>
      </trkpt>
      <trkpt lat="45.67847" lon="3.01793">
        <ele>874.9</ele>
        <time>2011-09-25T10:29:43Z</time>
      </trkpt>
      <trkpt lat="45.67854" lon="3.01804">
        <ele>875.1</ele>
        <time>2011-09-25T10:29:48Z</time>
      </trkpt>
      <trkpt lat="45.67859" lon="3.01815">
        <ele>875.3</ele>
        <time>2011-09-25T10:29:52Z</time>
      </trkpt>
      <trkpt lat="45.67862" lon="3.01828">
        <ele>875.7</ele>
        <time>2011-09-25T10:29:57Z</time>
      </trkpt>
      <trkpt lat="45.67866" lon="3.0184">
        <ele>876.2</ele>
        <time>2011-09-25T10:30:01Z</time>
      </trkpt>
      <trkpt lat="45.67869" lon="3.01851">
        <ele>877.7</ele>
        <time>2011-09-25T10:30:05Z</time>
      </trkpt>
      <trkpt lat="45.67871" lon="3.01864">
        <ele>879.3</ele>
        <time>2011-09-25T10:30:09Z</time>
      </trkpt>
      <trkpt lat="45.67872" lon="3.01877">
        <ele>880.6</ele>
        <time>2011-09-25T10:30:13Z</time>
      </trkpt>
      <trkpt lat="45.67875" lon="3.01889">
        <ele>882</ele>
        <time>2011-09-25T10:30:18Z</time>
      </trkpt>
      <trkpt lat="45.67881" lon="3.019">
        <ele>883.4</ele>
        <time>2011-09-25T10:30:23Z</time>
      </trkpt>
      <trkpt lat="45.67887" lon="3.01908">
        <ele>884.7</ele>
        <time>2011-09-25T10:30:27Z</time>
      </trkpt>
      <trkpt lat="45.67893" lon="3.01919">
        <ele>886.5</ele>
        <time>2011-09-25T10:30:31Z</time>
      </trkpt>
      <trkpt lat="45.67889" lon="3.01929">
        <ele>888.2</ele>
        <time>2011-09-25T10:30:36Z</time>
      </trkpt>
      <trkpt lat="45.6789" lon="3.01943">
        <ele>889.9</ele>
        <time>2011-09-25T10:30:39Z</time>
      </trkpt>
      <trkpt lat="45.67897" lon="3.0195">
        <ele>891.4</ele>
        <time>2011-09-25T10:30:41Z</time>
      </trkpt>
      <trkpt lat="45.67901" lon="3.0196">
        <ele>892.8</ele>
        <time>2011-09-25T10:30:45Z</time>
      </trkpt>
      <trkpt lat="45.67906" lon="3.01973">
        <ele>893.2</ele>
        <time>2011-09-25T10:30:47Z</time>
      </trkpt>
      <trkpt lat="45.67911" lon="3.01986">
        <ele>893.5</ele>
        <time>2011-09-25T10:30:51Z</time>
      </trkpt>
      <trkpt lat="45.67917" lon="3.01996">
        <ele>894</ele>
        <time>2011-09-25T10:30:56Z</time>
      </trkpt>
      <trkpt lat="45.67922" lon="3.02007">
        <ele>894.5</ele>
        <time>2011-09-25T10:30:59Z</time>
      </trkpt>
      <trkpt lat="45.67925" lon="3.02019">
        <ele>894.9</ele>
        <time>2011-09-25T10:31:01Z</time>
      </trkpt>
      <trkpt lat="45.67927" lon="3.02033">
        <ele>895.4</ele>
        <time>2011-09-25T10:31:06Z</time>
      </trkpt>
      <trkpt lat="45.67932" lon="3.02045">
        <ele>895.5</ele>
        <time>2011-09-25T10:31:10Z</time>
      </trkpt>
      <trkpt lat="45.67935" lon="3.02058">
        <ele>895.5</ele>
        <time>2011-09-25T10:31:15Z</time>
      </trkpt>
      <trkpt lat="45.6794" lon="3.02069">
        <ele>895.7</ele>
        <time>2011-09-25T10:31:19Z</time>
      </trkpt>
      <trkpt lat="45.67946" lon="3.0208">
        <ele>896.9</ele>
        <time>2011-09-25T10:31:24Z</time>
      </trkpt>
      <trkpt lat="45.67949" lon="3.02093">
        <ele>898.1</ele>
        <time>2011-09-25T10:31:29Z</time>
      </trkpt>
      <trkpt lat="45.67952" lon="3.02105">
        <ele>899.3</ele>
        <time>2011-09-25T10:31:34Z</time>
      </trkpt>
      <trkpt lat="45.67956" lon="3.02118">
        <ele>900.5</ele>
        <time>2011-09-25T10:31:38Z</time>
      </trkpt>
      <trkpt lat="45.67962" lon="3.02132">
        <ele>901.5</ele>
        <time>2011-09-25T10:31:42Z</time>
      </trkpt>
      <trkpt lat="45.6797" lon="3.02139">
        <ele>902.6</ele>
        <time>2011-09-25T10:31:46Z</time>
      </trkpt>
      <trkpt lat="45.67979" lon="3.02141">
        <ele>903.7</ele>
        <time>2011-09-25T10:31:50Z</time>
      </trkpt>
      <trkpt lat="45.67987" lon="3.02143">
        <ele>904.8</ele>
        <time>2011-09-25T10:31:54Z</time>
      </trkpt>
      <trkpt lat="45.67995" lon="3.02144">
        <ele>905.9</ele>
        <time>2011-09-25T10:31:59Z</time>
      </trkpt>
      <trkpt lat="45.68004" lon="3.02143">
        <ele>907</ele>
        <time>2011-09-25T10:32:05Z</time>
      </trkpt>
      <trkpt lat="45.68012" lon="3.02147">
        <ele>909.3</ele>
        <time>2011-09-25T10:32:10Z</time>
      </trkpt>
      <trkpt lat="45.68019" lon="3.02155">
        <ele>910.5</ele>
        <time>2011-09-25T10:32:18Z</time>
      </trkpt>
      <trkpt lat="45.68027" lon="3.0216">
        <ele>911.8</ele>
        <time>2011-09-25T10:32:22Z</time>
      </trkpt>
      <trkpt lat="45.68035" lon="3.02166">
        <ele>913.1</ele>
        <time>2011-09-25T10:32:25Z</time>
      </trkpt>
      <trkpt lat="45.68046" lon="3.02172">
        <ele>914.1</ele>
        <time>2011-09-25T10:32:30Z</time>
      </trkpt>
      <trkpt lat="45.68053" lon="3.0218">
        <ele>915.1</ele>
        <time>2011-09-25T10:32:36Z</time>
      </trkpt>
      <trkpt lat="45.68056" lon="3.02193">
        <ele>916.1</ele>
        <time>2011-09-25T10:32:41Z</time>
      </trkpt>
      <trkpt lat="45.68063" lon="3.02199">
        <ele>917.1</ele>
        <time>2011-09-25T10:32:43Z</time>
      </trkpt>
      <trkpt lat="45.68069" lon="3.0221">
        <ele>918.1</ele>
        <time>2011-09-25T10:32:47Z</time>
      </trkpt>
      <trkpt lat="45.68077" lon="3.02217">
        <ele>919.1</ele>
        <time>2011-09-25T10:32:51Z</time>
      </trkpt>
      <trkpt lat="45.68082" lon="3.02227">
        <ele>920.1</ele>
        <time>2011-09-25T10:32:55Z</time>
      </trkpt>
      <trkpt lat="45.6809" lon="3.02236">
        <ele>919.8</ele>
        <time>2011-09-25T10:32:59Z</time>
      </trkpt>
      <trkpt lat="45.68097" lon="3.02245">
        <ele>921.8</ele>
        <time>2011-09-25T10:33:05Z</time>
      </trkpt>
      <trkpt lat="45.68103" lon="3.02253">
        <ele>923.5</ele>
        <time>2011-09-25T10:33:10Z</time>
      </trkpt>
      <trkpt lat="45.68112" lon="3.0226">
        <ele>925.3</ele>
        <time>2011-09-25T10:33:15Z</time>
      </trkpt>
      <trkpt lat="45.68119" lon="3.02267">
        <ele>927.3</ele>
        <time>2011-09-25T10:33:20Z</time>
      </trkpt>
      <trkpt lat="45.68126" lon="3.02276">
        <ele>929.3</ele>
        <time>2011-09-25T10:33:27Z</time>
      </trkpt>
      <trkpt lat="45.68129" lon="3.02288">
        <ele>931.3</ele>
        <time>2011-09-25T10:33:38Z</time>
      </trkpt>
      <trkpt lat="45.68132" lon="3.023">
        <ele>933.3</ele>
        <time>2011-09-25T10:33:44Z</time>
      </trkpt>
      <trkpt lat="45.68136" lon="3.02311">
        <ele>935.3</ele>
        <time>2011-09-25T10:33:49Z</time>
      </trkpt>
      <trkpt lat="45.68138" lon="3.02322">
        <ele>937.1</ele>
        <time>2011-09-25T10:33:57Z</time>
      </trkpt>
      <trkpt lat="45.68141" lon="3.02335">
        <ele>938.9</ele>
        <time>2011-09-25T10:34:03Z</time>
      </trkpt>
      <trkpt lat="45.68141" lon="3.02348">
        <ele>940.7</ele>
        <time>2011-09-25T10:34:08Z</time>
      </trkpt>
      <trkpt lat="45.68142" lon="3.0236">
        <ele>940.3</ele>
        <time>2011-09-25T10:34:13Z</time>
      </trkpt>
      <trkpt lat="45.68143" lon="3.02374">
        <ele>940.1</ele>
        <time>2011-09-25T10:34:18Z</time>
      </trkpt>
      <trkpt lat="45.68145" lon="3.02386">
        <ele>939.9</ele>
        <time>2011-09-25T10:34:22Z</time>
      </trkpt>
      <trkpt lat="45.68146" lon="3.02399">
        <ele>939.7</ele>
        <time>2011-09-25T10:34:27Z</time>
      </trkpt>
      <trkpt lat="45.6815" lon="3.02412">
        <ele>939.5</ele>
        <time>2011-09-25T10:34:31Z</time>
      </trkpt>
      <trkpt lat="45.68155" lon="3.02425">
        <ele>939.2</ele>
        <time>2011-09-25T10:34:36Z</time>
      </trkpt>
      <trkpt lat="45.6816" lon="3.02437">
        <ele>938.9</ele>
        <time>2011-09-25T10:34:41Z</time>
      </trkpt>
      <trkpt lat="45.68165" lon="3.02448">
        <ele>938.6</ele>
        <time>2011-09-25T10:34:46Z</time>
      </trkpt>
      <trkpt lat="45.68169" lon="3.0246">
        <ele>938.5</ele>
        <time>2011-09-25T10:34:50Z</time>
      </trkpt>
      <trkpt lat="45.68171" lon="3.02472">
        <ele>938.5</ele>
        <time>2011-09-25T10:34:55Z</time>
      </trkpt>
      <trkpt lat="45.68173" lon="3.02487">
        <ele>939.7</ele>
        <time>2011-09-25T10:35:01Z</time>
      </trkpt>
      <trkpt lat="45.68178" lon="3.02499">
        <ele>939.6</ele>
        <time>2011-09-25T10:35:09Z</time>
      </trkpt>
      <trkpt lat="45.68186" lon="3.02505">
        <ele>939.5</ele>
        <time>2011-09-25T10:35:13Z</time>
      </trkpt>
      <trkpt lat="45.68194" lon="3.0251">
        <ele>939.5</ele>
        <time>2011-09-25T10:35:18Z</time>
      </trkpt>
      <trkpt lat="45.68203" lon="3.02509">
        <ele>939.6</ele>
        <time>2011-09-25T10:35:22Z</time>
      </trkpt>
      <trkpt lat="45.68211" lon="3.02508">
        <ele>939.9</ele>
        <time>2011-09-25T10:35:29Z</time>
      </trkpt>
      <trkpt lat="45.68204" lon="3.02517">
        <ele>940.2</ele>
        <time>2011-09-25T10:43:17Z</time>
      </trkpt>
      <trkpt lat="45.68199" lon="3.02529">
        <ele>940.5</ele>
        <time>2011-09-25T10:43:20Z</time>
      </trkpt>
      <trkpt lat="45.68193" lon="3.02543">
        <ele>940.7</ele>
        <time>2011-09-25T10:43:23Z</time>
      </trkpt>
      <trkpt lat="45.68189" lon="3.02557">
        <ele>941</ele>
        <time>2011-09-25T10:43:26Z</time>
      </trkpt>
      <trkpt lat="45.68187" lon="3.02571">
        <ele>941.3</ele>
        <time>2011-09-25T10:43:29Z</time>
      </trkpt>
      <trkpt lat="45.68183" lon="3.02588">
        <ele>940.7</ele>
        <time>2011-09-25T10:43:32Z</time>
      </trkpt>
      <trkpt lat="45.68176" lon="3.02597">
        <ele>941.5</ele>
        <time>2011-09-25T10:43:34Z</time>
      </trkpt>
      <trkpt lat="45.68174" lon="3.0261">
        <ele>942.4</ele>
        <time>2011-09-25T10:43:36Z</time>
      </trkpt>
      <trkpt lat="45.68171" lon="3.02621">
        <ele>943.2</ele>
        <time>2011-09-25T10:43:38Z</time>
      </trkpt>
      <trkpt lat="45.68169" lon="3.02634">
        <ele>943.7</ele>
        <time>2011-09-25T10:43:40Z</time>
      </trkpt>
      <trkpt lat="45.68165" lon="3.02645">
        <ele>944.3</ele>
        <time>2011-09-25T10:43:42Z</time>
      </trkpt>
      <trkpt lat="45.68161" lon="3.02656">
        <ele>945.4</ele>
        <time>2011-09-25T10:43:44Z</time>
      </trkpt>
      <trkpt lat="45.68157" lon="3.02671">
        <ele>946.5</ele>
        <time>2011-09-25T10:43:47Z</time>
      </trkpt>
      <trkpt lat="45.68154" lon="3.02686">
        <ele>947.5</ele>
        <time>2011-09-25T10:43:51Z</time>
      </trkpt>
      <trkpt lat="45.6815" lon="3.027">
        <ele>948.6</ele>
        <time>2011-09-25T10:43:54Z</time>
      </trkpt>
      <trkpt lat="45.6815" lon="3.02715">
        <ele>949.7</ele>
        <time>2011-09-25T10:43:57Z</time>
      </trkpt>
      <trkpt lat="45.68149" lon="3.02731">
        <ele>950.2</ele>
        <time>2011-09-25T10:44:00Z</time>
      </trkpt>
      <trkpt lat="45.68148" lon="3.02746">
        <ele>950.6</ele>
        <time>2011-09-25T10:44:03Z</time>
      </trkpt>
      <trkpt lat="45.68148" lon="3.02762">
        <ele>951.1</ele>
        <time>2011-09-25T10:44:05Z</time>
      </trkpt>
      <trkpt lat="45.68147" lon="3.02776">
        <ele>951.5</ele>
        <time>2011-09-25T10:44:07Z</time>
      </trkpt>
      <trkpt lat="45.68147" lon="3.02789">
        <ele>952</ele>
        <time>2011-09-25T10:44:09Z</time>
      </trkpt>
      <trkpt lat="45.68148" lon="3.02801">
        <ele>952.1</ele>
        <time>2011-09-25T10:44:10Z</time>
      </trkpt>
      <trkpt lat="45.68147" lon="3.0282">
        <ele>951.6</ele>
        <time>2011-09-25T10:44:12Z</time>
      </trkpt>
      <trkpt lat="45.68147" lon="3.02836">
        <ele>951.2</ele>
        <time>2011-09-25T10:44:14Z</time>
      </trkpt>
      <trkpt lat="45.6815" lon="3.02851">
        <ele>950.7</ele>
        <time>2011-09-25T10:44:16Z</time>
      </trkpt>
      <trkpt lat="45.68151" lon="3.02865">
        <ele>950.3</ele>
        <time>2011-09-25T10:44:18Z</time>
      </trkpt>
      <trkpt lat="45.68153" lon="3.02883">
        <ele>949.4</ele>
        <time>2011-09-25T10:44:20Z</time>
      </trkpt>
      <trkpt lat="45.68156" lon="3.02901">
        <ele>948.5</ele>
        <time>2011-09-25T10:44:22Z</time>
      </trkpt>
      <trkpt lat="45.6816" lon="3.02919">
        <ele>947.7</ele>
        <time>2011-09-25T10:44:24Z</time>
      </trkpt>
      <trkpt lat="45.68164" lon="3.02937">
        <ele>946.9</ele>
        <time>2011-09-25T10:44:26Z</time>
      </trkpt>
      <trkpt lat="45.68166" lon="3.02956">
        <ele>946.3</ele>
        <time>2011-09-25T10:44:28Z</time>
      </trkpt>
      <trkpt lat="45.68163" lon="3.02971">
        <ele>945.6</ele>
        <time>2011-09-25T10:44:30Z</time>
      </trkpt>
      <trkpt lat="45.68163" lon="3.02991">
        <ele>945.4</ele>
        <time>2011-09-25T10:44:32Z</time>
      </trkpt>
      <trkpt lat="45.68164" lon="3.03012">
        <ele>945.1</ele>
        <time>2011-09-25T10:44:34Z</time>
      </trkpt>
      <trkpt lat="45.68166" lon="3.03031">
        <ele>944.8</ele>
        <time>2011-09-25T10:44:36Z</time>
      </trkpt>
      <trkpt lat="45.68166" lon="3.03048">
        <ele>944.3</ele>
        <time>2011-09-25T10:44:38Z</time>
      </trkpt>
      <trkpt lat="45.68166" lon="3.03063">
        <ele>943.7</ele>
        <time>2011-09-25T10:44:39Z</time>
      </trkpt>
      <trkpt lat="45.68164" lon="3.03081">
        <ele>943.6</ele>
        <time>2011-09-25T10:44:41Z</time>
      </trkpt>
      <trkpt lat="45.6816" lon="3.031">
        <ele>943.5</ele>
        <time>2011-09-25T10:44:43Z</time>
      </trkpt>
      <trkpt lat="45.6816" lon="3.03112">
        <ele>943</ele>
        <time>2011-09-25T10:44:44Z</time>
      </trkpt>
      <trkpt lat="45.68157" lon="3.03142">
        <ele>942.5</ele>
        <time>2011-09-25T10:44:47Z</time>
      </trkpt>
      <trkpt lat="45.68159" lon="3.03164">
        <ele>941.7</ele>
        <time>2011-09-25T10:44:49Z</time>
      </trkpt>
      <trkpt lat="45.68163" lon="3.03181">
        <ele>941</ele>
        <time>2011-09-25T10:44:51Z</time>
      </trkpt>
      <trkpt lat="45.68164" lon="3.03202">
        <ele>940.3</ele>
        <time>2011-09-25T10:44:53Z</time>
      </trkpt>
      <trkpt lat="45.68162" lon="3.03218">
        <ele>939.3</ele>
        <time>2011-09-25T10:44:55Z</time>
      </trkpt>
      <trkpt lat="45.68162" lon="3.03235">
        <ele>938.3</ele>
        <time>2011-09-25T10:44:57Z</time>
      </trkpt>
      <trkpt lat="45.6816" lon="3.03251">
        <ele>937.5</ele>
        <time>2011-09-25T10:44:59Z</time>
      </trkpt>
      <trkpt lat="45.6816" lon="3.03264">
        <ele>936.8</ele>
        <time>2011-09-25T10:45:01Z</time>
      </trkpt>
      <trkpt lat="45.68163" lon="3.03282">
        <ele>936.1</ele>
        <time>2011-09-25T10:45:03Z</time>
      </trkpt>
      <trkpt lat="45.68172" lon="3.03296">
        <ele>935.4</ele>
        <time>2011-09-25T10:45:05Z</time>
      </trkpt>
      <trkpt lat="45.68179" lon="3.03314">
        <ele>934.7</ele>
        <time>2011-09-25T10:45:07Z</time>
      </trkpt>
      <trkpt lat="45.68183" lon="3.03325">
        <ele>934.1</ele>
        <time>2011-09-25T10:45:09Z</time>
      </trkpt>
      <trkpt lat="45.68187" lon="3.03339">
        <ele>933.5</ele>
        <time>2011-09-25T10:45:11Z</time>
      </trkpt>
      <trkpt lat="45.68186" lon="3.03357">
        <ele>932.8</ele>
        <time>2011-09-25T10:45:13Z</time>
      </trkpt>
      <trkpt lat="45.68183" lon="3.03373">
        <ele>932.2</ele>
        <time>2011-09-25T10:45:15Z</time>
      </trkpt>
      <trkpt lat="45.68173" lon="3.03384">
        <ele>931.1</ele>
        <time>2011-09-25T10:45:17Z</time>
      </trkpt>
      <trkpt lat="45.68165" lon="3.03397">
        <ele>930</ele>
        <time>2011-09-25T10:45:19Z</time>
      </trkpt>
      <trkpt lat="45.68156" lon="3.03401">
        <ele>928.9</ele>
        <time>2011-09-25T10:45:21Z</time>
      </trkpt>
      <trkpt lat="45.68146" lon="3.03402">
        <ele>927.8</ele>
        <time>2011-09-25T10:45:23Z</time>
      </trkpt>
      <trkpt lat="45.68135" lon="3.03406">
        <ele>926.7</ele>
        <time>2011-09-25T10:45:25Z</time>
      </trkpt>
      <trkpt lat="45.68125" lon="3.03406">
        <ele>925.6</ele>
        <time>2011-09-25T10:45:27Z</time>
      </trkpt>
      <trkpt lat="45.68113" lon="3.03408">
        <ele>924.9</ele>
        <time>2011-09-25T10:45:29Z</time>
      </trkpt>
      <trkpt lat="45.681" lon="3.0341">
        <ele>924.2</ele>
        <time>2011-09-25T10:45:31Z</time>
      </trkpt>
      <trkpt lat="45.68092" lon="3.03411">
        <ele>923.5</ele>
        <time>2011-09-25T10:45:32Z</time>
      </trkpt>
      <trkpt lat="45.68081" lon="3.03415">
        <ele>922.7</ele>
        <time>2011-09-25T10:45:34Z</time>
      </trkpt>
      <trkpt lat="45.68073" lon="3.03417">
        <ele>922</ele>
        <time>2011-09-25T10:45:37Z</time>
      </trkpt>
      <trkpt lat="45.68066" lon="3.03424">
        <ele>922</ele>
        <time>2011-09-25T10:45:40Z</time>
      </trkpt>
      <trkpt lat="45.68064" lon="3.03443">
        <ele>922</ele>
        <time>2011-09-25T10:45:43Z</time>
      </trkpt>
      <trkpt lat="45.68065" lon="3.03461">
        <ele>922</ele>
        <time>2011-09-25T10:45:45Z</time>
      </trkpt>
      <trkpt lat="45.68068" lon="3.03479">
        <ele>921.7</ele>
        <time>2011-09-25T10:45:47Z</time>
      </trkpt>
      <trkpt lat="45.68071" lon="3.03497">
        <ele>921.5</ele>
        <time>2011-09-25T10:45:49Z</time>
      </trkpt>
      <trkpt lat="45.68072" lon="3.03512">
        <ele>921.2</ele>
        <time>2011-09-25T10:45:50Z</time>
      </trkpt>
      <trkpt lat="45.68073" lon="3.0353">
        <ele>920.9</ele>
        <time>2011-09-25T10:45:53Z</time>
      </trkpt>
      <trkpt lat="45.68072" lon="3.03549">
        <ele>920.6</ele>
        <time>2011-09-25T10:45:56Z</time>
      </trkpt>
      <trkpt lat="45.6807" lon="3.03561">
        <ele>920</ele>
        <time>2011-09-25T10:45:58Z</time>
      </trkpt>
      <trkpt lat="45.68067" lon="3.03578">
        <ele>919.4</ele>
        <time>2011-09-25T10:45:59Z</time>
      </trkpt>
      <trkpt lat="45.68065" lon="3.03596">
        <ele>918.7</ele>
        <time>2011-09-25T10:46:01Z</time>
      </trkpt>
      <trkpt lat="45.68063" lon="3.03613">
        <ele>918.1</ele>
        <time>2011-09-25T10:46:03Z</time>
      </trkpt>
      <trkpt lat="45.68061" lon="3.03627">
        <ele>917.4</ele>
        <time>2011-09-25T10:46:05Z</time>
      </trkpt>
      <trkpt lat="45.68058" lon="3.03646">
        <ele>916.6</ele>
        <time>2011-09-25T10:46:08Z</time>
      </trkpt>
      <trkpt lat="45.68052" lon="3.03665">
        <ele>916.2</ele>
        <time>2011-09-25T10:46:10Z</time>
      </trkpt>
      <trkpt lat="45.6805" lon="3.03676">
        <ele>915.7</ele>
        <time>2011-09-25T10:46:12Z</time>
      </trkpt>
      <trkpt lat="45.68051" lon="3.03699">
        <ele>915.3</ele>
        <time>2011-09-25T10:46:15Z</time>
      </trkpt>
      <trkpt lat="45.6805" lon="3.03719">
        <ele>914.5</ele>
        <time>2011-09-25T10:46:17Z</time>
      </trkpt>
      <trkpt lat="45.6805" lon="3.03737">
        <ele>913.3</ele>
        <time>2011-09-25T10:46:20Z</time>
      </trkpt>
      <trkpt lat="45.6805" lon="3.03756">
        <ele>911.9</ele>
        <time>2011-09-25T10:46:22Z</time>
      </trkpt>
      <trkpt lat="45.6805" lon="3.03774">
        <ele>910.5</ele>
        <time>2011-09-25T10:46:25Z</time>
      </trkpt>
      <trkpt lat="45.68048" lon="3.03791">
        <ele>909.2</ele>
        <time>2011-09-25T10:46:27Z</time>
      </trkpt>
      <trkpt lat="45.68046" lon="3.03811">
        <ele>907.8</ele>
        <time>2011-09-25T10:46:30Z</time>
      </trkpt>
      <trkpt lat="45.68046" lon="3.03829">
        <ele>906.5</ele>
        <time>2011-09-25T10:46:31Z</time>
      </trkpt>
      <trkpt lat="45.68045" lon="3.03892">
        <ele>905.3</ele>
        <time>2011-09-25T10:46:34Z</time>
      </trkpt>
      <trkpt lat="45.68037" lon="3.03904">
        <ele>903.8</ele>
        <time>2011-09-25T10:46:36Z</time>
      </trkpt>
      <trkpt lat="45.68031" lon="3.03918">
        <ele>902.4</ele>
        <time>2011-09-25T10:46:38Z</time>
      </trkpt>
      <trkpt lat="45.6803" lon="3.03932">
        <ele>900.9</ele>
        <time>2011-09-25T10:46:40Z</time>
      </trkpt>
      <trkpt lat="45.68029" lon="3.03947">
        <ele>899.7</ele>
        <time>2011-09-25T10:46:42Z</time>
      </trkpt>
      <trkpt lat="45.68028" lon="3.03964">
        <ele>899.1</ele>
        <time>2011-09-25T10:46:44Z</time>
      </trkpt>
      <trkpt lat="45.68025" lon="3.03979">
        <ele>898.7</ele>
        <time>2011-09-25T10:46:46Z</time>
      </trkpt>
      <trkpt lat="45.68023" lon="3.03995">
        <ele>898.4</ele>
        <time>2011-09-25T10:46:48Z</time>
      </trkpt>
      <trkpt lat="45.68023" lon="3.04012">
        <ele>898</ele>
        <time>2011-09-25T10:46:50Z</time>
      </trkpt>
      <trkpt lat="45.68022" lon="3.04028">
        <ele>897.6</ele>
        <time>2011-09-25T10:46:52Z</time>
      </trkpt>
      <trkpt lat="45.68022" lon="3.04045">
        <ele>897.3</ele>
        <time>2011-09-25T10:46:54Z</time>
      </trkpt>
      <trkpt lat="45.68022" lon="3.04064">
        <ele>896.7</ele>
        <time>2011-09-25T10:46:56Z</time>
      </trkpt>
      <trkpt lat="45.6802" lon="3.04077">
        <ele>896.4</ele>
        <time>2011-09-25T10:46:58Z</time>
      </trkpt>
      <trkpt lat="45.68018" lon="3.04095">
        <ele>896</ele>
        <time>2011-09-25T10:47:00Z</time>
      </trkpt>
      <trkpt lat="45.68017" lon="3.04111">
        <ele>895.6</ele>
        <time>2011-09-25T10:47:02Z</time>
      </trkpt>
      <trkpt lat="45.68019" lon="3.04129">
        <ele>895.3</ele>
        <time>2011-09-25T10:47:04Z</time>
      </trkpt>
      <trkpt lat="45.68019" lon="3.04144">
        <ele>894.7</ele>
        <time>2011-09-25T10:47:06Z</time>
      </trkpt>
      <trkpt lat="45.68021" lon="3.0416">
        <ele>894.4</ele>
        <time>2011-09-25T10:47:08Z</time>
      </trkpt>
      <trkpt lat="45.68021" lon="3.04174">
        <ele>894</ele>
        <time>2011-09-25T10:47:10Z</time>
      </trkpt>
      <trkpt lat="45.68019" lon="3.04189">
        <ele>893.6</ele>
        <time>2011-09-25T10:47:12Z</time>
      </trkpt>
      <trkpt lat="45.6802" lon="3.04203">
        <ele>893.5</ele>
        <time>2011-09-25T10:47:14Z</time>
      </trkpt>
      <trkpt lat="45.68022" lon="3.0422">
        <ele>893.5</ele>
        <time>2011-09-25T10:47:16Z</time>
      </trkpt>
      <trkpt lat="45.68025" lon="3.04236">
        <ele>893.5</ele>
        <time>2011-09-25T10:47:18Z</time>
      </trkpt>
      <trkpt lat="45.68028" lon="3.04247">
        <ele>893.6</ele>
        <time>2011-09-25T10:47:20Z</time>
      </trkpt>
      <trkpt lat="45.68038" lon="3.04254">
        <ele>893.4</ele>
        <time>2011-09-25T10:47:22Z</time>
      </trkpt>
      <trkpt lat="45.68048" lon="3.04264">
        <ele>893.1</ele>
        <time>2011-09-25T10:47:24Z</time>
      </trkpt>
      <trkpt lat="45.68057" lon="3.04273">
        <ele>892.8</ele>
        <time>2011-09-25T10:47:26Z</time>
      </trkpt>
      <trkpt lat="45.68067" lon="3.04283">
        <ele>892.7</ele>
        <time>2011-09-25T10:47:28Z</time>
      </trkpt>
      <trkpt lat="45.68074" lon="3.04292">
        <ele>892.6</ele>
        <time>2011-09-25T10:47:30Z</time>
      </trkpt>
      <trkpt lat="45.68079" lon="3.04305">
        <ele>891.8</ele>
        <time>2011-09-25T10:47:32Z</time>
      </trkpt>
      <trkpt lat="45.68083" lon="3.04319">
        <ele>891</ele>
        <time>2011-09-25T10:47:34Z</time>
      </trkpt>
      <trkpt lat="45.68085" lon="3.04335">
        <ele>889.9</ele>
        <time>2011-09-25T10:47:36Z</time>
      </trkpt>
      <trkpt lat="45.68088" lon="3.04352">
        <ele>888.8</ele>
        <time>2011-09-25T10:47:38Z</time>
      </trkpt>
      <trkpt lat="45.68092" lon="3.04372">
        <ele>887.7</ele>
        <time>2011-09-25T10:47:40Z</time>
      </trkpt>
      <trkpt lat="45.68096" lon="3.04392">
        <ele>885.9</ele>
        <time>2011-09-25T10:47:42Z</time>
      </trkpt>
      <trkpt lat="45.681" lon="3.04411">
        <ele>884.5</ele>
        <time>2011-09-25T10:47:44Z</time>
      </trkpt>
      <trkpt lat="45.68103" lon="3.04429">
        <ele>883</ele>
        <time>2011-09-25T10:47:46Z</time>
      </trkpt>
      <trkpt lat="45.68106" lon="3.04447">
        <ele>881.5</ele>
        <time>2011-09-25T10:47:48Z</time>
      </trkpt>
      <trkpt lat="45.68109" lon="3.04468">
        <ele>880.1</ele>
        <time>2011-09-25T10:47:50Z</time>
      </trkpt>
      <trkpt lat="45.68114" lon="3.04487">
        <ele>877.7</ele>
        <time>2011-09-25T10:47:52Z</time>
      </trkpt>
      <trkpt lat="45.68117" lon="3.04504">
        <ele>876.1</ele>
        <time>2011-09-25T10:47:54Z</time>
      </trkpt>
      <trkpt lat="45.68118" lon="3.04519">
        <ele>874.5</ele>
        <time>2011-09-25T10:47:55Z</time>
      </trkpt>
      <trkpt lat="45.68114" lon="3.04536">
        <ele>872.8</ele>
        <time>2011-09-25T10:47:58Z</time>
      </trkpt>
      <trkpt lat="45.68109" lon="3.04552">
        <ele>871.2</ele>
        <time>2011-09-25T10:48:00Z</time>
      </trkpt>
      <trkpt lat="45.68106" lon="3.04567">
        <ele>869.5</ele>
        <time>2011-09-25T10:48:01Z</time>
      </trkpt>
      <trkpt lat="45.68102" lon="3.04579">
        <ele>868.2</ele>
        <time>2011-09-25T10:48:04Z</time>
      </trkpt>
      <trkpt lat="45.68097" lon="3.0459">
        <ele>866.8</ele>
        <time>2011-09-25T10:48:06Z</time>
      </trkpt>
      <trkpt lat="45.68093" lon="3.04601">
        <ele>865.5</ele>
        <time>2011-09-25T10:48:08Z</time>
      </trkpt>
      <trkpt lat="45.68085" lon="3.04616">
        <ele>864.1</ele>
        <time>2011-09-25T10:48:10Z</time>
      </trkpt>
      <trkpt lat="45.68076" lon="3.04626">
        <ele>862.7</ele>
        <time>2011-09-25T10:48:11Z</time>
      </trkpt>
      <trkpt lat="45.68069" lon="3.04638">
        <ele>862.3</ele>
        <time>2011-09-25T10:48:14Z</time>
      </trkpt>
      <trkpt lat="45.68066" lon="3.04654">
        <ele>860.1</ele>
        <time>2011-09-25T10:48:16Z</time>
      </trkpt>
      <trkpt lat="45.68063" lon="3.04668">
        <ele>857.9</ele>
        <time>2011-09-25T10:48:18Z</time>
      </trkpt>
      <trkpt lat="45.68057" lon="3.04681">
        <ele>855.7</ele>
        <time>2011-09-25T10:48:20Z</time>
      </trkpt>
      <trkpt lat="45.68052" lon="3.047">
        <ele>853.5</ele>
        <time>2011-09-25T10:48:22Z</time>
      </trkpt>
      <trkpt lat="45.68048" lon="3.04717">
        <ele>852.7</ele>
        <time>2011-09-25T10:48:24Z</time>
      </trkpt>
      <trkpt lat="45.68043" lon="3.04728">
        <ele>851</ele>
        <time>2011-09-25T10:48:27Z</time>
      </trkpt>
      <trkpt lat="45.68038" lon="3.04743">
        <ele>849.5</ele>
        <time>2011-09-25T10:48:29Z</time>
      </trkpt>
      <trkpt lat="45.68038" lon="3.04759">
        <ele>848.1</ele>
        <time>2011-09-25T10:48:31Z</time>
      </trkpt>
      <trkpt lat="45.68043" lon="3.04772">
        <ele>846.6</ele>
        <time>2011-09-25T10:48:34Z</time>
      </trkpt>
      <trkpt lat="45.68049" lon="3.04783">
        <ele>845.2</ele>
        <time>2011-09-25T10:48:36Z</time>
      </trkpt>
      <trkpt lat="45.68044" lon="3.04793">
        <ele>843.7</ele>
        <time>2011-09-25T10:48:39Z</time>
      </trkpt>
      <trkpt lat="45.68035" lon="3.04803">
        <ele>844</ele>
        <time>2011-09-25T10:48:41Z</time>
      </trkpt>
      <trkpt lat="45.68027" lon="3.04813">
        <ele>844.3</ele>
        <time>2011-09-25T10:48:43Z</time>
      </trkpt>
      <trkpt lat="45.68007" lon="3.04821">
        <ele>844.5</ele>
        <time>2011-09-25T10:48:45Z</time>
      </trkpt>
      <trkpt lat="45.68002" lon="3.04834">
        <ele>844.8</ele>
        <time>2011-09-25T10:48:48Z</time>
      </trkpt>
      <trkpt lat="45.68" lon="3.04848">
        <ele>843.7</ele>
        <time>2011-09-25T10:48:51Z</time>
      </trkpt>
      <trkpt lat="45.67996" lon="3.04863">
        <ele>844</ele>
        <time>2011-09-25T10:48:54Z</time>
      </trkpt>
      <trkpt lat="45.67993" lon="3.04875">
        <ele>844</ele>
        <time>2011-09-25T10:48:55Z</time>
      </trkpt>
      <trkpt lat="45.67992" lon="3.04913">
        <ele>844</ele>
        <time>2011-09-25T10:48:58Z</time>
      </trkpt>
      <trkpt lat="45.67994" lon="3.0493">
        <ele>843.1</ele>
        <time>2011-09-25T10:49:00Z</time>
      </trkpt>
      <trkpt lat="45.68001" lon="3.04941">
        <ele>842.2</ele>
        <time>2011-09-25T10:49:02Z</time>
      </trkpt>
      <trkpt lat="45.68008" lon="3.04948">
        <ele>841.9</ele>
        <time>2011-09-25T10:49:04Z</time>
      </trkpt>
      <trkpt lat="45.68016" lon="3.04958">
        <ele>841.6</ele>
        <time>2011-09-25T10:49:05Z</time>
      </trkpt>
      <trkpt lat="45.68025" lon="3.04964">
        <ele>841.4</ele>
        <time>2011-09-25T10:49:06Z</time>
      </trkpt>
      <trkpt lat="45.68035" lon="3.04971">
        <ele>841.1</ele>
        <time>2011-09-25T10:49:08Z</time>
      </trkpt>
      <trkpt lat="45.68043" lon="3.04983">
        <ele>840.8</ele>
        <time>2011-09-25T10:49:10Z</time>
      </trkpt>
      <trkpt lat="45.68051" lon="3.04995">
        <ele>839.2</ele>
        <time>2011-09-25T10:49:12Z</time>
      </trkpt>
      <trkpt lat="45.6806" lon="3.05007">
        <ele>837.5</ele>
        <time>2011-09-25T10:49:14Z</time>
      </trkpt>
      <trkpt lat="45.68068" lon="3.05018">
        <ele>835.9</ele>
        <time>2011-09-25T10:49:16Z</time>
      </trkpt>
      <trkpt lat="45.6808" lon="3.05031">
        <ele>834.3</ele>
        <time>2011-09-25T10:49:18Z</time>
      </trkpt>
      <trkpt lat="45.68087" lon="3.05042">
        <ele>834.2</ele>
        <time>2011-09-25T10:49:21Z</time>
      </trkpt>
      <trkpt lat="45.68095" lon="3.05051">
        <ele>834.1</ele>
        <time>2011-09-25T10:49:23Z</time>
      </trkpt>
      <trkpt lat="45.68103" lon="3.05059">
        <ele>833.4</ele>
        <time>2011-09-25T10:49:26Z</time>
      </trkpt>
      <trkpt lat="45.68113" lon="3.05066">
        <ele>832.6</ele>
        <time>2011-09-25T10:49:28Z</time>
      </trkpt>
      <trkpt lat="45.68124" lon="3.05076">
        <ele>831.9</ele>
        <time>2011-09-25T10:49:30Z</time>
      </trkpt>
      <trkpt lat="45.68136" lon="3.05085">
        <ele>831.2</ele>
        <time>2011-09-25T10:49:32Z</time>
      </trkpt>
      <trkpt lat="45.68148" lon="3.0509">
        <ele>829.1</ele>
        <time>2011-09-25T10:49:34Z</time>
      </trkpt>
      <trkpt lat="45.6816" lon="3.05095">
        <ele>829.5</ele>
        <time>2011-09-25T10:49:36Z</time>
      </trkpt>
      <trkpt lat="45.68168" lon="3.05102">
        <ele>829.8</ele>
        <time>2011-09-25T10:49:37Z</time>
      </trkpt>
      <trkpt lat="45.6818" lon="3.05112">
        <ele>830.2</ele>
        <time>2011-09-25T10:49:39Z</time>
      </trkpt>
      <trkpt lat="45.68191" lon="3.05122">
        <ele>830.5</ele>
        <time>2011-09-25T10:49:41Z</time>
      </trkpt>
      <trkpt lat="45.68203" lon="3.0513">
        <ele>830.3</ele>
        <time>2011-09-25T10:49:43Z</time>
      </trkpt>
      <trkpt lat="45.68215" lon="3.05141">
        <ele>830</ele>
        <time>2011-09-25T10:49:45Z</time>
      </trkpt>
      <trkpt lat="45.6822" lon="3.05151">
        <ele>828.8</ele>
        <time>2011-09-25T10:49:46Z</time>
      </trkpt>
      <trkpt lat="45.68225" lon="3.05164">
        <ele>827.6</ele>
        <time>2011-09-25T10:49:48Z</time>
      </trkpt>
      <trkpt lat="45.68234" lon="3.05181">
        <ele>826.5</ele>
        <time>2011-09-25T10:49:50Z</time>
      </trkpt>
      <trkpt lat="45.6824" lon="3.05194">
        <ele>825.3</ele>
        <time>2011-09-25T10:49:52Z</time>
      </trkpt>
      <trkpt lat="45.6824" lon="3.0521">
        <ele>824.8</ele>
        <time>2011-09-25T10:49:54Z</time>
      </trkpt>
      <trkpt lat="45.68242" lon="3.05224">
        <ele>823.3</ele>
        <time>2011-09-25T10:49:57Z</time>
      </trkpt>
      <trkpt lat="45.68243" lon="3.05238">
        <ele>821.7</ele>
        <time>2011-09-25T10:49:58Z</time>
      </trkpt>
      <trkpt lat="45.68244" lon="3.0526">
        <ele>820.2</ele>
        <time>2011-09-25T10:50:00Z</time>
      </trkpt>
      <trkpt lat="45.68243" lon="3.05275">
        <ele>818.6</ele>
        <time>2011-09-25T10:50:02Z</time>
      </trkpt>
      <trkpt lat="45.68248" lon="3.05294">
        <ele>817.1</ele>
        <time>2011-09-25T10:50:05Z</time>
      </trkpt>
      <trkpt lat="45.68255" lon="3.0531">
        <ele>815</ele>
        <time>2011-09-25T10:50:06Z</time>
      </trkpt>
      <trkpt lat="45.6826" lon="3.05324">
        <ele>813.8</ele>
        <time>2011-09-25T10:50:07Z</time>
      </trkpt>
      <trkpt lat="45.68263" lon="3.05335">
        <ele>812.6</ele>
        <time>2011-09-25T10:50:09Z</time>
      </trkpt>
      <trkpt lat="45.68266" lon="3.05351">
        <ele>811.5</ele>
        <time>2011-09-25T10:50:11Z</time>
      </trkpt>
      <trkpt lat="45.68268" lon="3.05365">
        <ele>810.9</ele>
        <time>2011-09-25T10:50:14Z</time>
      </trkpt>
      <trkpt lat="45.68271" lon="3.05381">
        <ele>811</ele>
        <time>2011-09-25T10:50:17Z</time>
      </trkpt>
      <trkpt lat="45.68277" lon="3.05395">
        <ele>811.1</ele>
        <time>2011-09-25T10:50:19Z</time>
      </trkpt>
      <trkpt lat="45.68281" lon="3.0541">
        <ele>811.2</ele>
        <time>2011-09-25T10:50:22Z</time>
      </trkpt>
      <trkpt lat="45.68288" lon="3.05424">
        <ele>811.3</ele>
        <time>2011-09-25T10:50:24Z</time>
      </trkpt>
      <trkpt lat="45.68293" lon="3.05434">
        <ele>811.4</ele>
        <time>2011-09-25T10:50:25Z</time>
      </trkpt>
      <trkpt lat="45.68303" lon="3.05437">
        <ele>811.5</ele>
        <time>2011-09-25T10:50:27Z</time>
      </trkpt>
      <trkpt lat="45.68315" lon="3.05439">
        <ele>812.1</ele>
        <time>2011-09-25T10:50:29Z</time>
      </trkpt>
      <trkpt lat="45.68323" lon="3.05442">
        <ele>812.7</ele>
        <time>2011-09-25T10:50:31Z</time>
      </trkpt>
      <trkpt lat="45.68333" lon="3.05445">
        <ele>812.9</ele>
        <time>2011-09-25T10:50:32Z</time>
      </trkpt>
      <trkpt lat="45.68342" lon="3.05446">
        <ele>813.1</ele>
        <time>2011-09-25T10:50:34Z</time>
      </trkpt>
      <trkpt lat="45.68351" lon="3.05451">
        <ele>812.3</ele>
        <time>2011-09-25T10:50:35Z</time>
      </trkpt>
      <trkpt lat="45.68361" lon="3.05456">
        <ele>811.5</ele>
        <time>2011-09-25T10:50:37Z</time>
      </trkpt>
      <trkpt lat="45.68367" lon="3.05466">
        <ele>810.6</ele>
        <time>2011-09-25T10:50:39Z</time>
      </trkpt>
      <trkpt lat="45.68373" lon="3.05475">
        <ele>809.8</ele>
        <time>2011-09-25T10:50:41Z</time>
      </trkpt>
      <trkpt lat="45.6838" lon="3.05482">
        <ele>808.5</ele>
        <time>2011-09-25T10:50:43Z</time>
      </trkpt>
      <trkpt lat="45.68388" lon="3.05502">
        <ele>807.3</ele>
        <time>2011-09-25T10:50:44Z</time>
      </trkpt>
      <trkpt lat="45.68396" lon="3.05518">
        <ele>806</ele>
        <time>2011-09-25T10:50:47Z</time>
      </trkpt>
      <trkpt lat="45.68402" lon="3.05532">
        <ele>804.7</ele>
        <time>2011-09-25T10:50:48Z</time>
      </trkpt>
      <trkpt lat="45.68406" lon="3.0555">
        <ele>803.5</ele>
        <time>2011-09-25T10:50:50Z</time>
      </trkpt>
      <trkpt lat="45.68413" lon="3.05566">
        <ele>802.1</ele>
        <time>2011-09-25T10:50:52Z</time>
      </trkpt>
      <trkpt lat="45.68419" lon="3.0558">
        <ele>800.7</ele>
        <time>2011-09-25T10:50:54Z</time>
      </trkpt>
      <trkpt lat="45.68426" lon="3.05593">
        <ele>799.7</ele>
        <time>2011-09-25T10:50:56Z</time>
      </trkpt>
      <trkpt lat="45.68426" lon="3.05606">
        <ele>798.7</ele>
        <time>2011-09-25T10:50:58Z</time>
      </trkpt>
      <trkpt lat="45.68432" lon="3.05623">
        <ele>797.1</ele>
        <time>2011-09-25T10:51:00Z</time>
      </trkpt>
      <trkpt lat="45.68439" lon="3.05637">
        <ele>795.5</ele>
        <time>2011-09-25T10:51:02Z</time>
      </trkpt>
      <trkpt lat="45.68448" lon="3.05651">
        <ele>794.5</ele>
        <time>2011-09-25T10:51:05Z</time>
      </trkpt>
      <trkpt lat="45.68457" lon="3.05659">
        <ele>793.5</ele>
        <time>2011-09-25T10:51:08Z</time>
      </trkpt>
      <trkpt lat="45.6846" lon="3.0567">
        <ele>792.5</ele>
        <time>2011-09-25T10:51:11Z</time>
      </trkpt>
      <trkpt lat="45.68467" lon="3.05692">
        <ele>791.5</ele>
        <time>2011-09-25T10:51:14Z</time>
      </trkpt>
      <trkpt lat="45.68468" lon="3.05706">
        <ele>790.1</ele>
        <time>2011-09-25T10:51:17Z</time>
      </trkpt>
      <trkpt lat="45.68463" lon="3.05723">
        <ele>789.3</ele>
        <time>2011-09-25T10:51:20Z</time>
      </trkpt>
      <trkpt lat="45.68461" lon="3.05745">
        <ele>788.5</ele>
        <time>2011-09-25T10:51:24Z</time>
      </trkpt>
      <trkpt lat="45.68453" lon="3.0578">
        <ele>787.6</ele>
        <time>2011-09-25T10:51:25Z</time>
      </trkpt>
      <trkpt lat="45.6845" lon="3.05797">
        <ele>786.8</ele>
        <time>2011-09-25T10:51:27Z</time>
      </trkpt>
      <trkpt lat="45.68447" lon="3.05817">
        <ele>786.2</ele>
        <time>2011-09-25T10:51:28Z</time>
      </trkpt>
      <trkpt lat="45.68444" lon="3.05829">
        <ele>785.5</ele>
        <time>2011-09-25T10:51:29Z</time>
      </trkpt>
      <trkpt lat="45.68443" lon="3.05851">
        <ele>784.7</ele>
        <time>2011-09-25T10:51:31Z</time>
      </trkpt>
      <trkpt lat="45.68443" lon="3.05868">
        <ele>783.9</ele>
        <time>2011-09-25T10:51:32Z</time>
      </trkpt>
      <trkpt lat="45.68442" lon="3.05879">
        <ele>783.1</ele>
        <time>2011-09-25T10:51:33Z</time>
      </trkpt>
      <trkpt lat="45.68444" lon="3.05907">
        <ele>781.9</ele>
        <time>2011-09-25T10:51:35Z</time>
      </trkpt>
      <trkpt lat="45.68447" lon="3.0592">
        <ele>781.1</ele>
        <time>2011-09-25T10:51:36Z</time>
      </trkpt>
      <trkpt lat="45.68448" lon="3.05933">
        <ele>780.3</ele>
        <time>2011-09-25T10:51:37Z</time>
      </trkpt>
      <trkpt lat="45.6845" lon="3.05947">
        <ele>779.5</ele>
        <time>2011-09-25T10:51:38Z</time>
      </trkpt>
      <trkpt lat="45.68451" lon="3.05961">
        <ele>778.6</ele>
        <time>2011-09-25T10:51:39Z</time>
      </trkpt>
      <trkpt lat="45.68449" lon="3.05984">
        <ele>777.5</ele>
        <time>2011-09-25T10:51:41Z</time>
      </trkpt>
      <trkpt lat="45.68449" lon="3.05999">
        <ele>776.9</ele>
        <time>2011-09-25T10:51:42Z</time>
      </trkpt>
      <trkpt lat="45.68447" lon="3.06011">
        <ele>776.3</ele>
        <time>2011-09-25T10:51:43Z</time>
      </trkpt>
      <trkpt lat="45.68447" lon="3.06024">
        <ele>775.6</ele>
        <time>2011-09-25T10:51:44Z</time>
      </trkpt>
      <trkpt lat="45.68446" lon="3.06037">
        <ele>775</ele>
        <time>2011-09-25T10:51:45Z</time>
      </trkpt>
      <trkpt lat="45.68445" lon="3.06052">
        <ele>774.4</ele>
        <time>2011-09-25T10:51:46Z</time>
      </trkpt>
      <trkpt lat="45.68444" lon="3.06065">
        <ele>773.9</ele>
        <time>2011-09-25T10:51:47Z</time>
      </trkpt>
      <trkpt lat="45.68443" lon="3.06079">
        <ele>773.5</ele>
        <time>2011-09-25T10:51:48Z</time>
      </trkpt>
      <trkpt lat="45.68443" lon="3.06093">
        <ele>773</ele>
        <time>2011-09-25T10:51:49Z</time>
      </trkpt>
      <trkpt lat="45.68443" lon="3.06106">
        <ele>772.5</ele>
        <time>2011-09-25T10:51:50Z</time>
      </trkpt>
      <trkpt lat="45.68442" lon="3.06121">
        <ele>772.1</ele>
        <time>2011-09-25T10:51:51Z</time>
      </trkpt>
      <trkpt lat="45.68442" lon="3.06146">
        <ele>771.5</ele>
        <time>2011-09-25T10:51:53Z</time>
      </trkpt>
      <trkpt lat="45.68444" lon="3.06159">
        <ele>770.8</ele>
        <time>2011-09-25T10:51:54Z</time>
      </trkpt>
      <trkpt lat="45.68445" lon="3.06172">
        <ele>770.2</ele>
        <time>2011-09-25T10:51:55Z</time>
      </trkpt>
      <trkpt lat="45.68446" lon="3.06186">
        <ele>769.5</ele>
        <time>2011-09-25T10:51:56Z</time>
      </trkpt>
      <trkpt lat="45.68446" lon="3.06201">
        <ele>768.9</ele>
        <time>2011-09-25T10:51:57Z</time>
      </trkpt>
      <trkpt lat="45.68447" lon="3.06214">
        <ele>767.8</ele>
        <time>2011-09-25T10:51:58Z</time>
      </trkpt>
      <trkpt lat="45.68447" lon="3.06229">
        <ele>766.9</ele>
        <time>2011-09-25T10:51:59Z</time>
      </trkpt>
      <trkpt lat="45.6845" lon="3.06243">
        <ele>766</ele>
        <time>2011-09-25T10:52:00Z</time>
      </trkpt>
      <trkpt lat="45.6845" lon="3.06267">
        <ele>765.1</ele>
        <time>2011-09-25T10:52:02Z</time>
      </trkpt>
      <trkpt lat="45.68452" lon="3.0628">
        <ele>764.2</ele>
        <time>2011-09-25T10:52:03Z</time>
      </trkpt>
      <trkpt lat="45.68451" lon="3.06294">
        <ele>763.3</ele>
        <time>2011-09-25T10:52:04Z</time>
      </trkpt>
      <trkpt lat="45.68452" lon="3.06306">
        <ele>762.8</ele>
        <time>2011-09-25T10:52:05Z</time>
      </trkpt>
      <trkpt lat="45.68451" lon="3.06319">
        <ele>762.3</ele>
        <time>2011-09-25T10:52:06Z</time>
      </trkpt>
      <trkpt lat="45.68451" lon="3.06331">
        <ele>761.7</ele>
        <time>2011-09-25T10:52:07Z</time>
      </trkpt>
      <trkpt lat="45.68451" lon="3.06344">
        <ele>761.2</ele>
        <time>2011-09-25T10:52:08Z</time>
      </trkpt>
      <trkpt lat="45.68451" lon="3.06359">
        <ele>760.6</ele>
        <time>2011-09-25T10:52:09Z</time>
      </trkpt>
      <trkpt lat="45.68452" lon="3.06371">
        <ele>760.5</ele>
        <time>2011-09-25T10:52:10Z</time>
      </trkpt>
      <trkpt lat="45.68454" lon="3.06385">
        <ele>760.5</ele>
        <time>2011-09-25T10:52:11Z</time>
      </trkpt>
      <trkpt lat="45.68457" lon="3.06399">
        <ele>760</ele>
        <time>2011-09-25T10:52:12Z</time>
      </trkpt>
      <trkpt lat="45.68459" lon="3.06421">
        <ele>759.5</ele>
        <time>2011-09-25T10:52:14Z</time>
      </trkpt>
      <trkpt lat="45.68461" lon="3.06434">
        <ele>759.1</ele>
        <time>2011-09-25T10:52:15Z</time>
      </trkpt>
      <trkpt lat="45.68463" lon="3.06457">
        <ele>758.6</ele>
        <time>2011-09-25T10:52:17Z</time>
      </trkpt>
      <trkpt lat="45.68463" lon="3.06469">
        <ele>758.2</ele>
        <time>2011-09-25T10:52:18Z</time>
      </trkpt>
      <trkpt lat="45.68464" lon="3.06482">
        <ele>757.5</ele>
        <time>2011-09-25T10:52:19Z</time>
      </trkpt>
      <trkpt lat="45.68463" lon="3.06505">
        <ele>756.7</ele>
        <time>2011-09-25T10:52:21Z</time>
      </trkpt>
      <trkpt lat="45.68464" lon="3.06517">
        <ele>756</ele>
        <time>2011-09-25T10:52:21Z</time>
      </trkpt>
      <trkpt lat="45.68464" lon="3.0653">
        <ele>755.3</ele>
        <time>2011-09-25T10:52:23Z</time>
      </trkpt>
      <trkpt lat="45.68464" lon="3.06542">
        <ele>754.5</ele>
        <time>2011-09-25T10:52:23Z</time>
      </trkpt>
      <trkpt lat="45.68463" lon="3.06555">
        <ele>753.8</ele>
        <time>2011-09-25T10:52:25Z</time>
      </trkpt>
      <trkpt lat="45.68462" lon="3.06568">
        <ele>753.2</ele>
        <time>2011-09-25T10:52:25Z</time>
      </trkpt>
      <trkpt lat="45.68461" lon="3.06581">
        <ele>752.5</ele>
        <time>2011-09-25T10:52:26Z</time>
      </trkpt>
      <trkpt lat="45.6846" lon="3.06596">
        <ele>751.9</ele>
        <time>2011-09-25T10:52:28Z</time>
      </trkpt>
      <trkpt lat="45.68459" lon="3.0661">
        <ele>751.3</ele>
        <time>2011-09-25T10:52:28Z</time>
      </trkpt>
      <trkpt lat="45.68458" lon="3.06624">
        <ele>750.6</ele>
        <time>2011-09-25T10:52:30Z</time>
      </trkpt>
      <trkpt lat="45.68458" lon="3.06639">
        <ele>750.4</ele>
        <time>2011-09-25T10:52:30Z</time>
      </trkpt>
      <trkpt lat="45.68458" lon="3.06654">
        <ele>749.7</ele>
        <time>2011-09-25T10:52:31Z</time>
      </trkpt>
      <trkpt lat="45.68459" lon="3.06669">
        <ele>749.1</ele>
        <time>2011-09-25T10:52:33Z</time>
      </trkpt>
      <trkpt lat="45.68459" lon="3.06683">
        <ele>748.5</ele>
        <time>2011-09-25T10:52:34Z</time>
      </trkpt>
      <trkpt lat="45.68459" lon="3.06696">
        <ele>747.8</ele>
        <time>2011-09-25T10:52:34Z</time>
      </trkpt>
      <trkpt lat="45.68458" lon="3.06711">
        <ele>747.2</ele>
        <time>2011-09-25T10:52:35Z</time>
      </trkpt>
      <trkpt lat="45.68459" lon="3.06725">
        <ele>746.8</ele>
        <time>2011-09-25T10:52:37Z</time>
      </trkpt>
      <trkpt lat="45.68459" lon="3.06739">
        <ele>746.2</ele>
        <time>2011-09-25T10:52:37Z</time>
      </trkpt>
      <trkpt lat="45.68457" lon="3.06754">
        <ele>745.5</ele>
        <time>2011-09-25T10:52:38Z</time>
      </trkpt>
      <trkpt lat="45.68457" lon="3.06767">
        <ele>744.9</ele>
        <time>2011-09-25T10:52:39Z</time>
      </trkpt>
      <trkpt lat="45.68455" lon="3.0678">
        <ele>744.3</ele>
        <time>2011-09-25T10:52:40Z</time>
      </trkpt>
      <trkpt lat="45.68451" lon="3.06794">
        <ele>743.6</ele>
        <time>2011-09-25T10:52:41Z</time>
      </trkpt>
      <trkpt lat="45.68447" lon="3.06807">
        <ele>743.4</ele>
        <time>2011-09-25T10:52:42Z</time>
      </trkpt>
      <trkpt lat="45.68441" lon="3.06818">
        <ele>743.1</ele>
        <time>2011-09-25T10:52:43Z</time>
      </trkpt>
      <trkpt lat="45.68432" lon="3.06834">
        <ele>742.8</ele>
        <time>2011-09-25T10:52:45Z</time>
      </trkpt>
      <trkpt lat="45.68439" lon="3.06825">
        <ele>742.2</ele>
        <time>2011-09-25T10:52:58Z</time>
      </trkpt>
      <trkpt lat="45.68439" lon="3.06838">
        <ele>741.5</ele>
        <time>2011-09-25T10:53:04Z</time>
      </trkpt>
      <trkpt lat="45.68434" lon="3.06848">
        <ele>740.9</ele>
        <time>2011-09-25T10:53:07Z</time>
      </trkpt>
      <trkpt lat="45.68428" lon="3.06861">
        <ele>740.5</ele>
        <time>2011-09-25T10:53:09Z</time>
      </trkpt>
      <trkpt lat="45.68425" lon="3.06877">
        <ele>740.2</ele>
        <time>2011-09-25T10:53:12Z</time>
      </trkpt>
      <trkpt lat="45.68421" lon="3.06891">
        <ele>739.8</ele>
        <time>2011-09-25T10:53:14Z</time>
      </trkpt>
      <trkpt lat="45.68415" lon="3.06908">
        <ele>739.2</ele>
        <time>2011-09-25T10:53:17Z</time>
      </trkpt>
      <trkpt lat="45.68409" lon="3.06919">
        <ele>738.5</ele>
        <time>2011-09-25T10:53:20Z</time>
      </trkpt>
      <trkpt lat="45.68403" lon="3.06934">
        <ele>737.9</ele>
        <time>2011-09-25T10:53:22Z</time>
      </trkpt>
      <trkpt lat="45.68399" lon="3.06945">
        <ele>737.3</ele>
        <time>2011-09-25T10:53:25Z</time>
      </trkpt>
      <trkpt lat="45.68396" lon="3.06957">
        <ele>736.6</ele>
        <time>2011-09-25T10:53:26Z</time>
      </trkpt>
      <trkpt lat="45.68388" lon="3.06982">
        <ele>736.2</ele>
        <time>2011-09-25T10:53:28Z</time>
      </trkpt>
      <trkpt lat="45.68384" lon="3.06995">
        <ele>735.7</ele>
        <time>2011-09-25T10:53:30Z</time>
      </trkpt>
      <trkpt lat="45.68384" lon="3.0701">
        <ele>735.3</ele>
        <time>2011-09-25T10:53:32Z</time>
      </trkpt>
      <trkpt lat="45.68386" lon="3.07026">
        <ele>734.8</ele>
        <time>2011-09-25T10:53:35Z</time>
      </trkpt>
      <trkpt lat="45.68388" lon="3.07043">
        <ele>734.1</ele>
        <time>2011-09-25T10:53:37Z</time>
      </trkpt>
      <trkpt lat="45.68388" lon="3.07061">
        <ele>733.4</ele>
        <time>2011-09-25T10:53:39Z</time>
      </trkpt>
      <trkpt lat="45.68389" lon="3.07083">
        <ele>732.9</ele>
        <time>2011-09-25T10:53:41Z</time>
      </trkpt>
      <trkpt lat="45.68388" lon="3.07103">
        <ele>732.5</ele>
        <time>2011-09-25T10:53:43Z</time>
      </trkpt>
      <trkpt lat="45.68386" lon="3.0712">
        <ele>731.9</ele>
        <time>2011-09-25T10:53:45Z</time>
      </trkpt>
      <trkpt lat="45.68384" lon="3.07141">
        <ele>731.4</ele>
        <time>2011-09-25T10:53:47Z</time>
      </trkpt>
      <trkpt lat="45.68385" lon="3.07162">
        <ele>730.8</ele>
        <time>2011-09-25T10:53:49Z</time>
      </trkpt>
      <trkpt lat="45.68383" lon="3.07178">
        <ele>730.5</ele>
        <time>2011-09-25T10:53:51Z</time>
      </trkpt>
      <trkpt lat="45.68383" lon="3.07198">
        <ele>730.1</ele>
        <time>2011-09-25T10:53:53Z</time>
      </trkpt>
      <trkpt lat="45.68386" lon="3.07218">
        <ele>729.5</ele>
        <time>2011-09-25T10:53:55Z</time>
      </trkpt>
      <trkpt lat="45.68392" lon="3.07236">
        <ele>729</ele>
        <time>2011-09-25T10:53:57Z</time>
      </trkpt>
      <trkpt lat="45.68399" lon="3.07252">
        <ele>728.7</ele>
        <time>2011-09-25T10:53:59Z</time>
      </trkpt>
      <trkpt lat="45.68404" lon="3.0727">
        <ele>728.5</ele>
        <time>2011-09-25T10:54:01Z</time>
      </trkpt>
      <trkpt lat="45.68406" lon="3.0729">
        <ele>727.9</ele>
        <time>2011-09-25T10:54:03Z</time>
      </trkpt>
      <trkpt lat="45.68409" lon="3.07308">
        <ele>727.4</ele>
        <time>2011-09-25T10:54:04Z</time>
      </trkpt>
      <trkpt lat="45.6841" lon="3.07324">
        <ele>726.9</ele>
        <time>2011-09-25T10:54:06Z</time>
      </trkpt>
      <trkpt lat="45.68413" lon="3.07345">
        <ele>726.5</ele>
        <time>2011-09-25T10:54:08Z</time>
      </trkpt>
      <trkpt lat="45.68413" lon="3.07368">
        <ele>726</ele>
        <time>2011-09-25T10:54:10Z</time>
      </trkpt>
      <trkpt lat="45.68411" lon="3.07387">
        <ele>725.3</ele>
        <time>2011-09-25T10:54:12Z</time>
      </trkpt>
      <trkpt lat="45.68408" lon="3.0741">
        <ele>724.5</ele>
        <time>2011-09-25T10:54:14Z</time>
      </trkpt>
      <trkpt lat="45.68407" lon="3.07433">
        <ele>724</ele>
        <time>2011-09-25T10:54:16Z</time>
      </trkpt>
      <trkpt lat="45.68405" lon="3.07456">
        <ele>723.5</ele>
        <time>2011-09-25T10:54:18Z</time>
      </trkpt>
      <trkpt lat="45.68405" lon="3.07469">
        <ele>722.8</ele>
        <time>2011-09-25T10:54:19Z</time>
      </trkpt>
      <trkpt lat="45.68405" lon="3.07481">
        <ele>722.2</ele>
        <time>2011-09-25T10:54:20Z</time>
      </trkpt>
      <trkpt lat="45.68402" lon="3.07502">
        <ele>721.8</ele>
        <time>2011-09-25T10:54:22Z</time>
      </trkpt>
      <trkpt lat="45.68398" lon="3.07523">
        <ele>721.5</ele>
        <time>2011-09-25T10:54:24Z</time>
      </trkpt>
      <trkpt lat="45.68395" lon="3.07545">
        <ele>721.1</ele>
        <time>2011-09-25T10:54:26Z</time>
      </trkpt>
      <trkpt lat="45.68393" lon="3.07567">
        <ele>720.7</ele>
        <time>2011-09-25T10:54:28Z</time>
      </trkpt>
      <trkpt lat="45.68391" lon="3.07579">
        <ele>720.4</ele>
        <time>2011-09-25T10:54:29Z</time>
      </trkpt>
      <trkpt lat="45.68388" lon="3.0759">
        <ele>720.3</ele>
        <time>2011-09-25T10:54:30Z</time>
      </trkpt>
      <trkpt lat="45.68383" lon="3.0761">
        <ele>720.2</ele>
        <time>2011-09-25T10:54:32Z</time>
      </trkpt>
      <trkpt lat="45.68391" lon="3.07612">
        <ele>720.1</ele>
        <time>2011-09-25T10:54:43Z</time>
      </trkpt>
      <trkpt lat="45.68402" lon="3.07615">
        <ele>720</ele>
        <time>2011-09-25T10:54:46Z</time>
      </trkpt>
      <trkpt lat="45.68412" lon="3.07617">
        <ele>720</ele>
        <time>2011-09-25T10:54:48Z</time>
      </trkpt>
      <trkpt lat="45.68421" lon="3.07618">
        <ele>719.1</ele>
        <time>2011-09-25T10:54:50Z</time>
      </trkpt>
      <trkpt lat="45.68432" lon="3.07621">
        <ele>718.5</ele>
        <time>2011-09-25T10:54:53Z</time>
      </trkpt>
      <trkpt lat="45.68443" lon="3.07624">
        <ele>718</ele>
        <time>2011-09-25T10:54:56Z</time>
      </trkpt>
      <trkpt lat="45.68451" lon="3.07625">
        <ele>717.5</ele>
        <time>2011-09-25T10:55:00Z</time>
      </trkpt>
      <trkpt lat="45.68459" lon="3.0763">
        <ele>716.9</ele>
        <time>2011-09-25T10:55:05Z</time>
      </trkpt>
      <trkpt lat="45.68469" lon="3.07634">
        <ele>716.4</ele>
        <time>2011-09-25T10:55:09Z</time>
      </trkpt>
      <trkpt lat="45.68482" lon="3.07638">
        <ele>715.8</ele>
        <time>2011-09-25T10:55:11Z</time>
      </trkpt>
      <trkpt lat="45.6849" lon="3.07642">
        <ele>714.9</ele>
        <time>2011-09-25T10:55:13Z</time>
      </trkpt>
      <trkpt lat="45.685" lon="3.07644">
        <ele>714</ele>
        <time>2011-09-25T10:55:15Z</time>
      </trkpt>
      <trkpt lat="45.68511" lon="3.07646">
        <ele>713.1</ele>
        <time>2011-09-25T10:55:17Z</time>
      </trkpt>
      <trkpt lat="45.68521" lon="3.07644">
        <ele>712.2</ele>
        <time>2011-09-25T10:55:19Z</time>
      </trkpt>
      <trkpt lat="45.68531" lon="3.07641">
        <ele>710.9</ele>
        <time>2011-09-25T10:55:22Z</time>
      </trkpt>
      <trkpt lat="45.68532" lon="3.07628">
        <ele>709.3</ele>
        <time>2011-09-25T10:55:24Z</time>
      </trkpt>
      <trkpt lat="45.68537" lon="3.07615">
        <ele>707.6</ele>
        <time>2011-09-25T10:55:27Z</time>
      </trkpt>
      <trkpt lat="45.68539" lon="3.07602">
        <ele>706</ele>
        <time>2011-09-25T10:55:30Z</time>
      </trkpt>
      <trkpt lat="45.68541" lon="3.0759">
        <ele>704.6</ele>
        <time>2011-09-25T10:55:34Z</time>
      </trkpt>
      <trkpt lat="45.6855" lon="3.07581">
        <ele>703.3</ele>
        <time>2011-09-25T10:55:36Z</time>
      </trkpt>
      <trkpt lat="45.68555" lon="3.0757">
        <ele>701.9</ele>
        <time>2011-09-25T10:55:39Z</time>
      </trkpt>
      <trkpt lat="45.68563" lon="3.0756">
        <ele>700.9</ele>
        <time>2011-09-25T10:55:41Z</time>
      </trkpt>
      <trkpt lat="45.68572" lon="3.07553">
        <ele>699.9</ele>
        <time>2011-09-25T10:55:44Z</time>
      </trkpt>
      <trkpt lat="45.68579" lon="3.07544">
        <ele>698.9</ele>
        <time>2011-09-25T10:55:47Z</time>
      </trkpt>
      <trkpt lat="45.6858" lon="3.07531">
        <ele>697.9</ele>
        <time>2011-09-25T10:55:53Z</time>
      </trkpt>
      <trkpt lat="45.68586" lon="3.07522">
        <ele>698.6</ele>
        <time>2011-09-25T10:56:12Z</time>
      </trkpt>
      <trkpt lat="45.68588" lon="3.07511">
        <ele>699.4</ele>
        <time>2011-09-25T10:56:18Z</time>
      </trkpt>
      <trkpt lat="45.68585" lon="3.07499">
        <ele>700.1</ele>
        <time>2011-09-25T10:56:21Z</time>
      </trkpt>
      <trkpt lat="45.68583" lon="3.07487">
        <ele>700.8</ele>
        <time>2011-09-25T10:56:25Z</time>
      </trkpt>
      <trkpt lat="45.68581" lon="3.07475">
        <ele>701.3</ele>
        <time>2011-09-25T10:56:29Z</time>
      </trkpt>
      <trkpt lat="45.68581" lon="3.07461">
        <ele>701.7</ele>
        <time>2011-09-25T10:56:33Z</time>
      </trkpt>
      <trkpt lat="45.68584" lon="3.07446">
        <ele>702.2</ele>
        <time>2011-09-25T10:56:38Z</time>
      </trkpt>
      <trkpt lat="45.6859" lon="3.07436">
        <ele>703.1</ele>
        <time>2011-09-25T10:56:42Z</time>
      </trkpt>
      <trkpt lat="45.68589" lon="3.07422">
        <ele>704</ele>
        <time>2011-09-25T10:56:45Z</time>
      </trkpt>
      <trkpt lat="45.6859" lon="3.07408">
        <ele>704.9</ele>
        <time>2011-09-25T10:56:49Z</time>
      </trkpt>
      <trkpt lat="45.68592" lon="3.07394">
        <ele>705.8</ele>
        <time>2011-09-25T10:56:53Z</time>
      </trkpt>
      <trkpt lat="45.68595" lon="3.07383">
        <ele>706.3</ele>
        <time>2011-09-25T10:56:57Z</time>
      </trkpt>
      <trkpt lat="45.68598" lon="3.0737">
        <ele>706.7</ele>
        <time>2011-09-25T10:57:01Z</time>
      </trkpt>
      <trkpt lat="45.686" lon="3.07357">
        <ele>707.2</ele>
        <time>2011-09-25T10:57:04Z</time>
      </trkpt>
      <trkpt lat="45.68602" lon="3.07343">
        <ele>707.5</ele>
        <time>2011-09-25T10:57:07Z</time>
      </trkpt>
      <trkpt lat="45.68604" lon="3.07332">
        <ele>707.7</ele>
        <time>2011-09-25T10:57:10Z</time>
      </trkpt>
      <trkpt lat="45.68616" lon="3.07321">
        <ele>708</ele>
        <time>2011-09-25T10:57:14Z</time>
      </trkpt>
      <trkpt lat="45.68622" lon="3.07307">
        <ele>708.3</ele>
        <time>2011-09-25T10:57:17Z</time>
      </trkpt>
      <trkpt lat="45.68628" lon="3.07295">
        <ele>708.1</ele>
        <time>2011-09-25T10:57:21Z</time>
      </trkpt>
      <trkpt lat="45.68632" lon="3.07285">
        <ele>707.9</ele>
        <time>2011-09-25T10:57:24Z</time>
      </trkpt>
      <trkpt lat="45.68638" lon="3.07275">
        <ele>707.7</ele>
        <time>2011-09-25T10:57:27Z</time>
      </trkpt>
      <trkpt lat="45.68642" lon="3.07264">
        <ele>708.3</ele>
        <time>2011-09-25T10:57:30Z</time>
      </trkpt>
      <trkpt lat="45.68645" lon="3.07252">
        <ele>708.8</ele>
        <time>2011-09-25T10:57:33Z</time>
      </trkpt>
      <trkpt lat="45.68649" lon="3.07241">
        <ele>709.4</ele>
        <time>2011-09-25T10:57:37Z</time>
      </trkpt>
      <trkpt lat="45.68652" lon="3.07229">
        <ele>709.9</ele>
        <time>2011-09-25T10:57:40Z</time>
      </trkpt>
      <trkpt lat="45.68659" lon="3.07215">
        <ele>710.6</ele>
        <time>2011-09-25T10:57:45Z</time>
      </trkpt>
      <trkpt lat="45.68665" lon="3.07205">
        <ele>711.4</ele>
        <time>2011-09-25T10:57:48Z</time>
      </trkpt>
      <trkpt lat="45.68672" lon="3.07191">
        <ele>712.1</ele>
        <time>2011-09-25T10:57:52Z</time>
      </trkpt>
      <trkpt lat="45.68678" lon="3.07181">
        <ele>713.2</ele>
        <time>2011-09-25T10:57:55Z</time>
      </trkpt>
      <trkpt lat="45.68685" lon="3.07169">
        <ele>713.5</ele>
        <time>2011-09-25T10:57:59Z</time>
      </trkpt>
      <trkpt lat="45.68692" lon="3.07155">
        <ele>713.9</ele>
        <time>2011-09-25T10:58:02Z</time>
      </trkpt>
      <trkpt lat="45.68697" lon="3.07143">
        <ele>714.3</ele>
        <time>2011-09-25T10:58:04Z</time>
      </trkpt>
      <trkpt lat="45.68704" lon="3.07132">
        <ele>713.9</ele>
        <time>2011-09-25T10:58:07Z</time>
      </trkpt>
      <trkpt lat="45.6871" lon="3.0712">
        <ele>713.5</ele>
        <time>2011-09-25T10:58:10Z</time>
      </trkpt>
      <trkpt lat="45.68717" lon="3.07114">
        <ele>713.2</ele>
        <time>2011-09-25T10:58:11Z</time>
      </trkpt>
      <trkpt lat="45.68724" lon="3.07105">
        <ele>712.8</ele>
        <time>2011-09-25T10:58:15Z</time>
      </trkpt>
      <trkpt lat="45.68732" lon="3.07099">
        <ele>712.8</ele>
        <time>2011-09-25T10:58:16Z</time>
      </trkpt>
      <trkpt lat="45.6874" lon="3.07091">
        <ele>712.8</ele>
        <time>2011-09-25T10:58:18Z</time>
      </trkpt>
      <trkpt lat="45.68748" lon="3.07082">
        <ele>712.8</ele>
        <time>2011-09-25T10:58:20Z</time>
      </trkpt>
      <trkpt lat="45.68757" lon="3.07073">
        <ele>712.5</ele>
        <time>2011-09-25T10:58:23Z</time>
      </trkpt>
      <trkpt lat="45.68764" lon="3.07061">
        <ele>710.7</ele>
        <time>2011-09-25T10:58:27Z</time>
      </trkpt>
      <trkpt lat="45.68773" lon="3.07042">
        <ele>709</ele>
        <time>2011-09-25T10:58:29Z</time>
      </trkpt>
      <trkpt lat="45.6878" lon="3.07019">
        <ele>707.7</ele>
        <time>2011-09-25T10:58:32Z</time>
      </trkpt>
      <trkpt lat="45.68784" lon="3.07009">
        <ele>706.5</ele>
        <time>2011-09-25T10:58:34Z</time>
      </trkpt>
      <trkpt lat="45.6879" lon="3.06999">
        <ele>705.2</ele>
        <time>2011-09-25T10:58:36Z</time>
      </trkpt>
      <trkpt lat="45.68797" lon="3.0698">
        <ele>703.9</ele>
        <time>2011-09-25T10:58:39Z</time>
      </trkpt>
      <trkpt lat="45.68808" lon="3.0697">
        <ele>703</ele>
        <time>2011-09-25T10:58:41Z</time>
      </trkpt>
      <trkpt lat="45.68816" lon="3.06953">
        <ele>701.7</ele>
        <time>2011-09-25T10:58:42Z</time>
      </trkpt>
      <trkpt lat="45.68841" lon="3.06911">
        <ele>700.5</ele>
        <time>2011-09-25T10:58:44Z</time>
      </trkpt>
      <trkpt lat="45.68844" lon="3.069">
        <ele>699.2</ele>
        <time>2011-09-25T10:58:45Z</time>
      </trkpt>
      <trkpt lat="45.68849" lon="3.06886">
        <ele>697.9</ele>
        <time>2011-09-25T10:58:47Z</time>
      </trkpt>
      <trkpt lat="45.68853" lon="3.06876">
        <ele>697.2</ele>
        <time>2011-09-25T10:58:49Z</time>
      </trkpt>
      <trkpt lat="45.6886" lon="3.06863">
        <ele>697.1</ele>
        <time>2011-09-25T10:58:51Z</time>
      </trkpt>
      <trkpt lat="45.68868" lon="3.06842">
        <ele>696.5</ele>
        <time>2011-09-25T10:58:53Z</time>
      </trkpt>
      <trkpt lat="45.68874" lon="3.06831">
        <ele>696</ele>
        <time>2011-09-25T10:58:54Z</time>
      </trkpt>
      <trkpt lat="45.68879" lon="3.06821">
        <ele>695.5</ele>
        <time>2011-09-25T10:58:55Z</time>
      </trkpt>
      <trkpt lat="45.6889" lon="3.06807">
        <ele>694.9</ele>
        <time>2011-09-25T10:58:57Z</time>
      </trkpt>
      <trkpt lat="45.689" lon="3.06787">
        <ele>694</ele>
        <time>2011-09-25T10:58:59Z</time>
      </trkpt>
      <trkpt lat="45.68906" lon="3.06768">
        <ele>693.3</ele>
        <time>2011-09-25T10:59:01Z</time>
      </trkpt>
      <trkpt lat="45.68911" lon="3.06758">
        <ele>692.5</ele>
        <time>2011-09-25T10:59:02Z</time>
      </trkpt>
      <trkpt lat="45.68916" lon="3.06745">
        <ele>691.8</ele>
        <time>2011-09-25T10:59:03Z</time>
      </trkpt>
      <trkpt lat="45.68922" lon="3.06736">
        <ele>691.1</ele>
        <time>2011-09-25T10:59:04Z</time>
      </trkpt>
      <trkpt lat="45.68928" lon="3.06725">
        <ele>691.9</ele>
        <time>2011-09-25T10:59:05Z</time>
      </trkpt>
      <trkpt lat="45.68933" lon="3.06715">
        <ele>690.6</ele>
        <time>2011-09-25T10:59:06Z</time>
      </trkpt>
      <trkpt lat="45.6894" lon="3.06696">
        <ele>689.9</ele>
        <time>2011-09-25T10:59:08Z</time>
      </trkpt>
      <trkpt lat="45.68947" lon="3.06681">
        <ele>689.2</ele>
        <time>2011-09-25T10:59:10Z</time>
      </trkpt>
      <trkpt lat="45.68953" lon="3.06671">
        <ele>688.5</ele>
        <time>2011-09-25T10:59:12Z</time>
      </trkpt>
      <trkpt lat="45.68961" lon="3.06656">
        <ele>687.7</ele>
        <time>2011-09-25T10:59:13Z</time>
      </trkpt>
      <trkpt lat="45.68971" lon="3.06642">
        <ele>687</ele>
        <time>2011-09-25T10:59:16Z</time>
      </trkpt>
      <trkpt lat="45.68973" lon="3.06629">
        <ele>686.1</ele>
        <time>2011-09-25T10:59:18Z</time>
      </trkpt>
      <trkpt lat="45.68976" lon="3.06619">
        <ele>685.2</ele>
        <time>2011-09-25T10:59:24Z</time>
      </trkpt>
      <trkpt lat="45.68984" lon="3.06611">
        <ele>684.3</ele>
        <time>2011-09-25T10:59:34Z</time>
      </trkpt>
      <trkpt lat="45.68996" lon="3.06606">
        <ele>683.4</ele>
        <time>2011-09-25T10:59:49Z</time>
      </trkpt>
      <trkpt lat="45.69004" lon="3.06604">
        <ele>681.3</ele>
        <time>2011-09-25T10:59:52Z</time>
      </trkpt>
      <trkpt lat="45.69017" lon="3.06604">
        <ele>680.6</ele>
        <time>2011-09-25T10:59:55Z</time>
      </trkpt>
      <trkpt lat="45.69028" lon="3.066">
        <ele>679.5</ele>
        <time>2011-09-25T10:59:57Z</time>
      </trkpt>
      <trkpt lat="45.69036" lon="3.06595">
        <ele>678.3</ele>
        <time>2011-09-25T10:59:59Z</time>
      </trkpt>
      <trkpt lat="45.69042" lon="3.06587">
        <ele>678.3</ele>
        <time>2011-09-25T11:00:00Z</time>
      </trkpt>
      <trkpt lat="45.69049" lon="3.0658">
        <ele>678.3</ele>
        <time>2011-09-25T11:00:02Z</time>
      </trkpt>
      <trkpt lat="45.69058" lon="3.06575">
        <ele>678.3</ele>
        <time>2011-09-25T11:00:04Z</time>
      </trkpt>
      <trkpt lat="45.69066" lon="3.06571">
        <ele>678.3</ele>
        <time>2011-09-25T11:00:06Z</time>
      </trkpt>
      <trkpt lat="45.69073" lon="3.06557">
        <ele>678.3</ele>
        <time>2011-09-25T11:00:08Z</time>
      </trkpt>
      <trkpt lat="45.6908" lon="3.06546">
        <ele>677.2</ele>
        <time>2011-09-25T11:00:10Z</time>
      </trkpt>
      <trkpt lat="45.69091" lon="3.0653">
        <ele>676.1</ele>
        <time>2011-09-25T11:00:12Z</time>
      </trkpt>
      <trkpt lat="45.69101" lon="3.0652">
        <ele>676.2</ele>
        <time>2011-09-25T11:00:14Z</time>
      </trkpt>
      <trkpt lat="45.69108" lon="3.06512">
        <ele>676.3</ele>
        <time>2011-09-25T11:00:16Z</time>
      </trkpt>
      <trkpt lat="45.69117" lon="3.06505">
        <ele>676.4</ele>
        <time>2011-09-25T11:00:18Z</time>
      </trkpt>
      <trkpt lat="45.69132" lon="3.06498">
        <ele>676.5</ele>
        <time>2011-09-25T11:00:21Z</time>
      </trkpt>
      <trkpt lat="45.69144" lon="3.06498">
        <ele>675.4</ele>
        <time>2011-09-25T11:00:23Z</time>
      </trkpt>
      <trkpt lat="45.69157" lon="3.06498">
        <ele>674.3</ele>
        <time>2011-09-25T11:00:24Z</time>
      </trkpt>
      <trkpt lat="45.69167" lon="3.06498">
        <ele>671.8</ele>
        <time>2011-09-25T11:00:26Z</time>
      </trkpt>
      <trkpt lat="45.69175" lon="3.06498">
        <ele>669.4</ele>
        <time>2011-09-25T11:00:28Z</time>
      </trkpt>
      <trkpt lat="45.69186" lon="3.06501">
        <ele>666.9</ele>
        <time>2011-09-25T11:00:30Z</time>
      </trkpt>
      <trkpt lat="45.69196" lon="3.06501">
        <ele>665.5</ele>
        <time>2011-09-25T11:00:32Z</time>
      </trkpt>
      <trkpt lat="45.69204" lon="3.06505">
        <ele>664.2</ele>
        <time>2011-09-25T11:00:34Z</time>
      </trkpt>
      <trkpt lat="45.69214" lon="3.0651">
        <ele>662.8</ele>
        <time>2011-09-25T11:00:37Z</time>
      </trkpt>
      <trkpt lat="45.69222" lon="3.06512">
        <ele>661.5</ele>
        <time>2011-09-25T11:00:40Z</time>
      </trkpt>
      <trkpt lat="45.69231" lon="3.06514">
        <ele>660.1</ele>
        <time>2011-09-25T11:00:42Z</time>
      </trkpt>
      <trkpt lat="45.6924" lon="3.06516">
        <ele>658.7</ele>
        <time>2011-09-25T11:00:45Z</time>
      </trkpt>
      <trkpt lat="45.69251" lon="3.06519">
        <ele>655</ele>
        <time>2011-09-25T11:00:48Z</time>
      </trkpt>
      <trkpt lat="45.6926" lon="3.06516">
        <ele>651.3</ele>
        <time>2011-09-25T11:00:51Z</time>
      </trkpt>
      <trkpt lat="45.69269" lon="3.06518">
        <ele>648.9</ele>
        <time>2011-09-25T11:00:54Z</time>
      </trkpt>
      <trkpt lat="45.69277" lon="3.06521">
        <ele>646.5</ele>
        <time>2011-09-25T11:00:57Z</time>
      </trkpt>
      <trkpt lat="45.69286" lon="3.06522">
        <ele>644.2</ele>
        <time>2011-09-25T11:00:59Z</time>
      </trkpt>
      <trkpt lat="45.69294" lon="3.06518">
        <ele>641.8</ele>
        <time>2011-09-25T11:01:01Z</time>
      </trkpt>
      <trkpt lat="45.69303" lon="3.06515">
        <ele>639.5</ele>
        <time>2011-09-25T11:01:03Z</time>
      </trkpt>
      <trkpt lat="45.69313" lon="3.06513">
        <ele>637.1</ele>
        <time>2011-09-25T11:01:05Z</time>
      </trkpt>
      <trkpt lat="45.69325" lon="3.06507">
        <ele>634.7</ele>
        <time>2011-09-25T11:01:07Z</time>
      </trkpt>
      <trkpt lat="45.69334" lon="3.06502">
        <ele>633.8</ele>
        <time>2011-09-25T11:01:09Z</time>
      </trkpt>
      <trkpt lat="45.69341" lon="3.06494">
        <ele>632.9</ele>
        <time>2011-09-25T11:01:12Z</time>
      </trkpt>
      <trkpt lat="45.69348" lon="3.06486">
        <ele>634.4</ele>
        <time>2011-09-25T11:01:16Z</time>
      </trkpt>
      <trkpt lat="45.69356" lon="3.06479">
        <ele>635.8</ele>
        <time>2011-09-25T11:01:21Z</time>
      </trkpt>
      <trkpt lat="45.69363" lon="3.06472">
        <ele>634.4</ele>
        <time>2011-09-25T11:01:26Z</time>
      </trkpt>
      <trkpt lat="45.69368" lon="3.06463">
        <ele>632.9</ele>
        <time>2011-09-25T11:01:31Z</time>
      </trkpt>
      <trkpt lat="45.69375" lon="3.06455">
        <ele>631.5</ele>
        <time>2011-09-25T11:01:36Z</time>
      </trkpt>
      <trkpt lat="45.69375" lon="3.06443">
        <ele>630</ele>
        <time>2011-09-25T11:01:38Z</time>
      </trkpt>
      <trkpt lat="45.69381" lon="3.0643">
        <ele>628.5</ele>
        <time>2011-09-25T11:01:41Z</time>
      </trkpt>
      <trkpt lat="45.69387" lon="3.06422">
        <ele>627.1</ele>
        <time>2011-09-25T11:01:45Z</time>
      </trkpt>
      <trkpt lat="45.69394" lon="3.06413">
        <ele>624.9</ele>
        <time>2011-09-25T11:01:51Z</time>
      </trkpt>
      <trkpt lat="45.69404" lon="3.0642">
        <ele>621.3</ele>
        <time>2011-09-25T11:01:56Z</time>
      </trkpt>
      <trkpt lat="45.69403" lon="3.06436">
        <ele>617.6</ele>
        <time>2011-09-25T11:01:58Z</time>
      </trkpt>
      <trkpt lat="45.69409" lon="3.06449">
        <ele>614</ele>
        <time>2011-09-25T11:02:00Z</time>
      </trkpt>
      <trkpt lat="45.69414" lon="3.06461">
        <ele>610.4</ele>
        <time>2011-09-25T11:02:03Z</time>
      </trkpt>
      <trkpt lat="45.69415" lon="3.06477">
        <ele>609.1</ele>
        <time>2011-09-25T11:02:05Z</time>
      </trkpt>
      <trkpt lat="45.69417" lon="3.06493">
        <ele>607.8</ele>
        <time>2011-09-25T11:02:07Z</time>
      </trkpt>
      <trkpt lat="45.69418" lon="3.06512">
        <ele>606.5</ele>
        <time>2011-09-25T11:02:09Z</time>
      </trkpt>
      <trkpt lat="45.69417" lon="3.06532">
        <ele>605.3</ele>
        <time>2011-09-25T11:02:11Z</time>
      </trkpt>
      <trkpt lat="45.69416" lon="3.06551">
        <ele>604</ele>
        <time>2011-09-25T11:02:14Z</time>
      </trkpt>
      <trkpt lat="45.69413" lon="3.06563">
        <ele>602.7</ele>
        <time>2011-09-25T11:02:16Z</time>
      </trkpt>
      <trkpt lat="45.69411" lon="3.06577">
        <ele>601.8</ele>
        <time>2011-09-25T11:02:20Z</time>
      </trkpt>
      <trkpt lat="45.69415" lon="3.06588">
        <ele>600.9</ele>
        <time>2011-09-25T11:02:31Z</time>
      </trkpt>
      <trkpt lat="45.69415" lon="3.06607">
        <ele>600</ele>
        <time>2011-09-25T11:02:38Z</time>
      </trkpt>
      <trkpt lat="45.69416" lon="3.06619">
        <ele>599.1</ele>
        <time>2011-09-25T11:02:40Z</time>
      </trkpt>
      <trkpt lat="45.69422" lon="3.0663">
        <ele>598.4</ele>
        <time>2011-09-25T11:02:42Z</time>
      </trkpt>
      <trkpt lat="45.69429" lon="3.06639">
        <ele>598.2</ele>
        <time>2011-09-25T11:02:44Z</time>
      </trkpt>
      <trkpt lat="45.69442" lon="3.06639">
        <ele>598</ele>
        <time>2011-09-25T11:02:46Z</time>
      </trkpt>
      <trkpt lat="45.69454" lon="3.06641">
        <ele>597.8</ele>
        <time>2011-09-25T11:02:49Z</time>
      </trkpt>
      <trkpt lat="45.69463" lon="3.06645">
        <ele>597.6</ele>
        <time>2011-09-25T11:02:52Z</time>
      </trkpt>
      <trkpt lat="45.69472" lon="3.06648">
        <ele>597.5</ele>
        <time>2011-09-25T11:02:55Z</time>
      </trkpt>
      <trkpt lat="45.69483" lon="3.06652">
        <ele>597.3</ele>
        <time>2011-09-25T11:02:59Z</time>
      </trkpt>
      <trkpt lat="45.69491" lon="3.06658">
        <ele>597.5</ele>
        <time>2011-09-25T11:03:02Z</time>
      </trkpt>
      <trkpt lat="45.69494" lon="3.06671">
        <ele>597.6</ele>
        <time>2011-09-25T11:03:05Z</time>
      </trkpt>
      <trkpt lat="45.69495" lon="3.06688">
        <ele>597.8</ele>
        <time>2011-09-25T11:03:08Z</time>
      </trkpt>
      <trkpt lat="45.6949" lon="3.06704">
        <ele>597.6</ele>
        <time>2011-09-25T11:03:11Z</time>
      </trkpt>
      <trkpt lat="45.69484" lon="3.06719">
        <ele>597.3</ele>
        <time>2011-09-25T11:03:13Z</time>
      </trkpt>
      <trkpt lat="45.69477" lon="3.06735">
        <ele>597</ele>
        <time>2011-09-25T11:03:15Z</time>
      </trkpt>
      <trkpt lat="45.69473" lon="3.0675">
        <ele>596.7</ele>
        <time>2011-09-25T11:03:17Z</time>
      </trkpt>
      <trkpt lat="45.69468" lon="3.06767">
        <ele>596.5</ele>
        <time>2011-09-25T11:03:19Z</time>
      </trkpt>
      <trkpt lat="45.69461" lon="3.06783">
        <ele>596.2</ele>
        <time>2011-09-25T11:03:21Z</time>
      </trkpt>
      <trkpt lat="45.69454" lon="3.06799">
        <ele>595.8</ele>
        <time>2011-09-25T11:03:23Z</time>
      </trkpt>
      <trkpt lat="45.69448" lon="3.06818">
        <ele>595.5</ele>
        <time>2011-09-25T11:03:25Z</time>
      </trkpt>
      <trkpt lat="45.69443" lon="3.06838">
        <ele>595.1</ele>
        <time>2011-09-25T11:03:27Z</time>
      </trkpt>
      <trkpt lat="45.69436" lon="3.06854">
        <ele>594.7</ele>
        <time>2011-09-25T11:03:29Z</time>
      </trkpt>
      <trkpt lat="45.69431" lon="3.06871">
        <ele>594.4</ele>
        <time>2011-09-25T11:03:31Z</time>
      </trkpt>
      <trkpt lat="45.69427" lon="3.06888">
        <ele>594.3</ele>
        <time>2011-09-25T11:03:33Z</time>
      </trkpt>
      <trkpt lat="45.69423" lon="3.06904">
        <ele>594.2</ele>
        <time>2011-09-25T11:03:35Z</time>
      </trkpt>
      <trkpt lat="45.6942" lon="3.06921">
        <ele>594</ele>
        <time>2011-09-25T11:03:37Z</time>
      </trkpt>
      <trkpt lat="45.69418" lon="3.06936">
        <ele>593.8</ele>
        <time>2011-09-25T11:03:39Z</time>
      </trkpt>
      <trkpt lat="45.69417" lon="3.06953">
        <ele>593.6</ele>
        <time>2011-09-25T11:03:41Z</time>
      </trkpt>
      <trkpt lat="45.69416" lon="3.06969">
        <ele>593.5</ele>
        <time>2011-09-25T11:03:43Z</time>
      </trkpt>
      <trkpt lat="45.69417" lon="3.06984">
        <ele>593</ele>
        <time>2011-09-25T11:03:45Z</time>
      </trkpt>
      <trkpt lat="45.6941" lon="3.06999">
        <ele>592.5</ele>
        <time>2011-09-25T11:03:47Z</time>
      </trkpt>
      <trkpt lat="45.69405" lon="3.07013">
        <ele>592.1</ele>
        <time>2011-09-25T11:03:49Z</time>
      </trkpt>
      <trkpt lat="45.69399" lon="3.0703">
        <ele>591.6</ele>
        <time>2011-09-25T11:03:51Z</time>
      </trkpt>
      <trkpt lat="45.69398" lon="3.07042">
        <ele>591.2</ele>
        <time>2011-09-25T11:03:52Z</time>
      </trkpt>
      <trkpt lat="45.69397" lon="3.07064">
        <ele>590.7</ele>
        <time>2011-09-25T11:03:54Z</time>
      </trkpt>
      <trkpt lat="45.69397" lon="3.07077">
        <ele>590.3</ele>
        <time>2011-09-25T11:03:54Z</time>
      </trkpt>
      <trkpt lat="45.69397" lon="3.0709">
        <ele>589.8</ele>
        <time>2011-09-25T11:03:55Z</time>
      </trkpt>
      <trkpt lat="45.69396" lon="3.07103">
        <ele>589.4</ele>
        <time>2011-09-25T11:03:56Z</time>
      </trkpt>
      <trkpt lat="45.69396" lon="3.07116">
        <ele>588.9</ele>
        <time>2011-09-25T11:03:57Z</time>
      </trkpt>
      <trkpt lat="45.69397" lon="3.07129">
        <ele>588.5</ele>
        <time>2011-09-25T11:03:58Z</time>
      </trkpt>
      <trkpt lat="45.69398" lon="3.07143">
        <ele>588.4</ele>
        <time>2011-09-25T11:04:00Z</time>
      </trkpt>
      <trkpt lat="45.69398" lon="3.07157">
        <ele>588.3</ele>
        <time>2011-09-25T11:04:01Z</time>
      </trkpt>
      <trkpt lat="45.69398" lon="3.07172">
        <ele>588.2</ele>
        <time>2011-09-25T11:04:02Z</time>
      </trkpt>
      <trkpt lat="45.69399" lon="3.07186">
        <ele>588.1</ele>
        <time>2011-09-25T11:04:03Z</time>
      </trkpt>
      <trkpt lat="45.69399" lon="3.07201">
        <ele>588</ele>
        <time>2011-09-25T11:04:04Z</time>
      </trkpt>
      <trkpt lat="45.69399" lon="3.07215">
        <ele>588</ele>
        <time>2011-09-25T11:04:04Z</time>
      </trkpt>
      <trkpt lat="45.69399" lon="3.07228">
        <ele>587.8</ele>
        <time>2011-09-25T11:04:06Z</time>
      </trkpt>
      <trkpt lat="45.69399" lon="3.07243">
        <ele>587.6</ele>
        <time>2011-09-25T11:04:07Z</time>
      </trkpt>
      <trkpt lat="45.69399" lon="3.07256">
        <ele>587.5</ele>
        <time>2011-09-25T11:04:07Z</time>
      </trkpt>
      <trkpt lat="45.69399" lon="3.0727">
        <ele>587.3</ele>
        <time>2011-09-25T11:04:08Z</time>
      </trkpt>
      <trkpt lat="45.69399" lon="3.07283">
        <ele>587.1</ele>
        <time>2011-09-25T11:04:09Z</time>
      </trkpt>
      <trkpt lat="45.69399" lon="3.07297">
        <ele>586.9</ele>
        <time>2011-09-25T11:04:10Z</time>
      </trkpt>
      <trkpt lat="45.69399" lon="3.07309">
        <ele>586.7</ele>
        <time>2011-09-25T11:04:12Z</time>
      </trkpt>
      <trkpt lat="45.69399" lon="3.07322">
        <ele>586.2</ele>
        <time>2011-09-25T11:04:12Z</time>
      </trkpt>
      <trkpt lat="45.69399" lon="3.07335">
        <ele>585.6</ele>
        <time>2011-09-25T11:04:14Z</time>
      </trkpt>
      <trkpt lat="45.69399" lon="3.07348">
        <ele>585.1</ele>
        <time>2011-09-25T11:04:14Z</time>
      </trkpt>
      <trkpt lat="45.69399" lon="3.0736">
        <ele>584.5</ele>
        <time>2011-09-25T11:04:15Z</time>
      </trkpt>
      <trkpt lat="45.69398" lon="3.07373">
        <ele>584.2</ele>
        <time>2011-09-25T11:04:16Z</time>
      </trkpt>
      <trkpt lat="45.69398" lon="3.07385">
        <ele>583.8</ele>
        <time>2011-09-25T11:04:17Z</time>
      </trkpt>
      <trkpt lat="45.69398" lon="3.07398">
        <ele>583.5</ele>
        <time>2011-09-25T11:04:18Z</time>
      </trkpt>
      <trkpt lat="45.69398" lon="3.07411">
        <ele>583</ele>
        <time>2011-09-25T11:04:20Z</time>
      </trkpt>
      <trkpt lat="45.69398" lon="3.07423">
        <ele>582.5</ele>
        <time>2011-09-25T11:04:20Z</time>
      </trkpt>
      <trkpt lat="45.69397" lon="3.07436">
        <ele>582.1</ele>
        <time>2011-09-25T11:04:21Z</time>
      </trkpt>
      <trkpt lat="45.69398" lon="3.07449">
        <ele>581.6</ele>
        <time>2011-09-25T11:04:23Z</time>
      </trkpt>
      <trkpt lat="45.69399" lon="3.07462">
        <ele>581.5</ele>
        <time>2011-09-25T11:04:24Z</time>
      </trkpt>
      <trkpt lat="45.69399" lon="3.07475">
        <ele>581.5</ele>
        <time>2011-09-25T11:04:25Z</time>
      </trkpt>
      <trkpt lat="45.69398" lon="3.07487">
        <ele>581.3</ele>
        <time>2011-09-25T11:04:26Z</time>
      </trkpt>
      <trkpt lat="45.69399" lon="3.07512">
        <ele>581.1</ele>
        <time>2011-09-25T11:04:29Z</time>
      </trkpt>
      <trkpt lat="45.69399" lon="3.07525">
        <ele>580.9</ele>
        <time>2011-09-25T11:04:31Z</time>
      </trkpt>
      <trkpt lat="45.694" lon="3.07537">
        <ele>580.7</ele>
        <time>2011-09-25T11:04:33Z</time>
      </trkpt>
      <trkpt lat="45.69399" lon="3.0755">
        <ele>580.5</ele>
        <time>2011-09-25T11:04:36Z</time>
      </trkpt>
      <trkpt lat="45.69399" lon="3.07562">
        <ele>580.6</ele>
        <time>2011-09-25T11:04:38Z</time>
      </trkpt>
      <trkpt lat="45.69397" lon="3.07585">
        <ele>580.7</ele>
        <time>2011-09-25T11:04:40Z</time>
      </trkpt>
      <trkpt lat="45.69395" lon="3.07605">
        <ele>580.8</ele>
        <time>2011-09-25T11:04:42Z</time>
      </trkpt>
      <trkpt lat="45.69393" lon="3.07621">
        <ele>580.9</ele>
        <time>2011-09-25T11:04:45Z</time>
      </trkpt>
      <trkpt lat="45.6939" lon="3.07632">
        <ele>581</ele>
        <time>2011-09-25T11:04:47Z</time>
      </trkpt>
      <trkpt lat="45.69397" lon="3.07641">
        <ele>581.1</ele>
        <time>2011-09-25T11:04:49Z</time>
      </trkpt>
      <trkpt lat="45.69405" lon="3.07641">
        <ele>581.3</ele>
        <time>2011-09-25T11:04:52Z</time>
      </trkpt>
      <trkpt lat="45.69415" lon="3.07646">
        <ele>581.5</ele>
        <time>2011-09-25T11:04:56Z</time>
      </trkpt>
      <trkpt lat="45.69424" lon="3.0765">
        <ele>582.6</ele>
        <time>2011-09-25T11:04:59Z</time>
      </trkpt>
      <trkpt lat="45.69432" lon="3.07656">
        <ele>583.8</ele>
        <time>2011-09-25T11:05:03Z</time>
      </trkpt>
      <trkpt lat="45.6944" lon="3.07664">
        <ele>585</ele>
        <time>2011-09-25T11:05:07Z</time>
      </trkpt>
      <trkpt lat="45.69448" lon="3.07668">
        <ele>586</ele>
        <time>2011-09-25T11:05:11Z</time>
      </trkpt>
      <trkpt lat="45.69457" lon="3.07671">
        <ele>587</ele>
        <time>2011-09-25T11:05:15Z</time>
      </trkpt>
      <trkpt lat="45.69466" lon="3.07676">
        <ele>588</ele>
        <time>2011-09-25T11:05:19Z</time>
      </trkpt>
      <trkpt lat="45.69473" lon="3.07682">
        <ele>589</ele>
        <time>2011-09-25T11:05:24Z</time>
      </trkpt>
      <trkpt lat="45.69481" lon="3.07689">
        <ele>590</ele>
        <time>2011-09-25T11:05:29Z</time>
      </trkpt>
      <trkpt lat="45.69491" lon="3.07694">
        <ele>591.2</ele>
        <time>2011-09-25T11:05:34Z</time>
      </trkpt>
      <trkpt lat="45.695" lon="3.077">
        <ele>592.4</ele>
        <time>2011-09-25T11:05:39Z</time>
      </trkpt>
      <trkpt lat="45.69507" lon="3.07707">
        <ele>594.4</ele>
        <time>2011-09-25T11:05:44Z</time>
      </trkpt>
      <trkpt lat="45.69514" lon="3.07713">
        <ele>595.4</ele>
        <time>2011-09-25T11:05:48Z</time>
      </trkpt>
      <trkpt lat="45.69522" lon="3.07717">
        <ele>596.4</ele>
        <time>2011-09-25T11:05:53Z</time>
      </trkpt>
      <trkpt lat="45.6953" lon="3.07723">
        <ele>597.4</ele>
        <time>2011-09-25T11:05:58Z</time>
      </trkpt>
      <trkpt lat="45.69538" lon="3.07728">
        <ele>598.4</ele>
        <time>2011-09-25T11:06:03Z</time>
      </trkpt>
      <trkpt lat="45.69547" lon="3.07733">
        <ele>599.4</ele>
        <time>2011-09-25T11:06:08Z</time>
      </trkpt>
      <trkpt lat="45.69555" lon="3.0774">
        <ele>600.4</ele>
        <time>2011-09-25T11:06:13Z</time>
      </trkpt>
      <trkpt lat="45.69563" lon="3.07746">
        <ele>601.4</ele>
        <time>2011-09-25T11:06:19Z</time>
      </trkpt>
      <trkpt lat="45.69571" lon="3.07754">
        <ele>602.4</ele>
        <time>2011-09-25T11:06:23Z</time>
      </trkpt>
      <trkpt lat="45.6958" lon="3.07759">
        <ele>603.2</ele>
        <time>2011-09-25T11:06:29Z</time>
      </trkpt>
      <trkpt lat="45.69588" lon="3.07762">
        <ele>604</ele>
        <time>2011-09-25T11:06:35Z</time>
      </trkpt>
      <trkpt lat="45.69596" lon="3.07767">
        <ele>605.4</ele>
        <time>2011-09-25T11:06:40Z</time>
      </trkpt>
      <trkpt lat="45.69605" lon="3.07772">
        <ele>607.1</ele>
        <time>2011-09-25T11:06:44Z</time>
      </trkpt>
      <trkpt lat="45.69612" lon="3.07778">
        <ele>608.8</ele>
        <time>2011-09-25T11:06:50Z</time>
      </trkpt>
      <trkpt lat="45.6962" lon="3.07782">
        <ele>610.5</ele>
        <time>2011-09-25T11:06:55Z</time>
      </trkpt>
      <trkpt lat="45.69628" lon="3.07788">
        <ele>612.3</ele>
        <time>2011-09-25T11:07:02Z</time>
      </trkpt>
      <trkpt lat="45.69635" lon="3.07795">
        <ele>614</ele>
        <time>2011-09-25T11:07:06Z</time>
      </trkpt>
      <trkpt lat="45.69642" lon="3.07802">
        <ele>615.7</ele>
        <time>2011-09-25T11:07:11Z</time>
      </trkpt>
      <trkpt lat="45.6965" lon="3.07807">
        <ele>617.5</ele>
        <time>2011-09-25T11:07:16Z</time>
      </trkpt>
      <trkpt lat="45.69657" lon="3.07812">
        <ele>619.2</ele>
        <time>2011-09-25T11:07:23Z</time>
      </trkpt>
      <trkpt lat="45.69666" lon="3.07815">
        <ele>620.9</ele>
        <time>2011-09-25T11:07:30Z</time>
      </trkpt>
      <trkpt lat="45.69674" lon="3.07819">
        <ele>623.7</ele>
        <time>2011-09-25T11:07:34Z</time>
      </trkpt>
      <trkpt lat="45.69682" lon="3.07822">
        <ele>625.2</ele>
        <time>2011-09-25T11:07:39Z</time>
      </trkpt>
      <trkpt lat="45.69688" lon="3.07829">
        <ele>626.3</ele>
        <time>2011-09-25T11:07:43Z</time>
      </trkpt>
      <trkpt lat="45.69697" lon="3.07833">
        <ele>627.4</ele>
        <time>2011-09-25T11:07:48Z</time>
      </trkpt>
      <trkpt lat="45.69706" lon="3.07839">
        <ele>628.5</ele>
        <time>2011-09-25T11:07:55Z</time>
      </trkpt>
      <trkpt lat="45.69714" lon="3.07845">
        <ele>629.5</ele>
        <time>2011-09-25T11:08:00Z</time>
      </trkpt>
      <trkpt lat="45.69722" lon="3.07847">
        <ele>630.6</ele>
        <time>2011-09-25T11:08:05Z</time>
      </trkpt>
      <trkpt lat="45.6973" lon="3.07851">
        <ele>632.1</ele>
        <time>2011-09-25T11:08:10Z</time>
      </trkpt>
      <trkpt lat="45.69739" lon="3.07856">
        <ele>633.5</ele>
        <time>2011-09-25T11:08:15Z</time>
      </trkpt>
      <trkpt lat="45.69748" lon="3.07861">
        <ele>635</ele>
        <time>2011-09-25T11:08:20Z</time>
      </trkpt>
      <trkpt lat="45.69755" lon="3.07868">
        <ele>636.5</ele>
        <time>2011-09-25T11:08:27Z</time>
      </trkpt>
      <trkpt lat="45.69763" lon="3.07875">
        <ele>637.4</ele>
        <time>2011-09-25T11:08:32Z</time>
      </trkpt>
      <trkpt lat="45.6977" lon="3.07883">
        <ele>638.3</ele>
        <time>2011-09-25T11:08:37Z</time>
      </trkpt>
      <trkpt lat="45.69776" lon="3.0789">
        <ele>639.2</ele>
        <time>2011-09-25T11:08:43Z</time>
      </trkpt>
      <trkpt lat="45.69783" lon="3.07899">
        <ele>640.1</ele>
        <time>2011-09-25T11:08:49Z</time>
      </trkpt>
      <trkpt lat="45.69789" lon="3.07908">
        <ele>641</ele>
        <time>2011-09-25T11:08:57Z</time>
      </trkpt>
      <trkpt lat="45.69795" lon="3.07917">
        <ele>641.9</ele>
        <time>2011-09-25T11:09:03Z</time>
      </trkpt>
      <trkpt lat="45.69802" lon="3.07925">
        <ele>643.3</ele>
        <time>2011-09-25T11:09:09Z</time>
      </trkpt>
      <trkpt lat="45.69807" lon="3.07934">
        <ele>644.3</ele>
        <time>2011-09-25T11:09:14Z</time>
      </trkpt>
      <trkpt lat="45.69813" lon="3.07943">
        <ele>645.3</ele>
        <time>2011-09-25T11:09:18Z</time>
      </trkpt>
      <trkpt lat="45.69817" lon="3.07954">
        <ele>646.3</ele>
        <time>2011-09-25T11:09:22Z</time>
      </trkpt>
      <trkpt lat="45.69824" lon="3.07961">
        <ele>647.3</ele>
        <time>2011-09-25T11:09:27Z</time>
      </trkpt>
      <trkpt lat="45.69828" lon="3.07972">
        <ele>647.7</ele>
        <time>2011-09-25T11:09:32Z</time>
      </trkpt>
      <trkpt lat="45.69835" lon="3.0798">
        <ele>648.2</ele>
        <time>2011-09-25T11:09:37Z</time>
      </trkpt>
      <trkpt lat="45.69841" lon="3.0799">
        <ele>648.6</ele>
        <time>2011-09-25T11:09:42Z</time>
      </trkpt>
      <trkpt lat="45.69847" lon="3.08001">
        <ele>649.1</ele>
        <time>2011-09-25T11:09:46Z</time>
      </trkpt>
      <trkpt lat="45.69855" lon="3.0801">
        <ele>650.1</ele>
        <time>2011-09-25T11:09:51Z</time>
      </trkpt>
      <trkpt lat="45.69861" lon="3.08022">
        <ele>651.1</ele>
        <time>2011-09-25T11:09:57Z</time>
      </trkpt>
      <trkpt lat="45.69871" lon="3.08018">
        <ele>651.6</ele>
        <time>2011-09-25T11:09:58Z</time>
      </trkpt>
      <trkpt lat="45.69868" lon="3.08031">
        <ele>652.2</ele>
        <time>2011-09-25T11:10:02Z</time>
      </trkpt>
      <trkpt lat="45.69868" lon="3.08043">
        <ele>652.7</ele>
        <time>2011-09-25T11:10:05Z</time>
      </trkpt>
      <trkpt lat="45.69866" lon="3.08057">
        <ele>653.3</ele>
        <time>2011-09-25T11:10:08Z</time>
      </trkpt>
      <trkpt lat="45.69864" lon="3.0807">
        <ele>654</ele>
        <time>2011-09-25T11:10:11Z</time>
      </trkpt>
      <trkpt lat="45.69859" lon="3.08082">
        <ele>654.7</ele>
        <time>2011-09-25T11:10:14Z</time>
      </trkpt>
      <trkpt lat="45.69853" lon="3.08095">
        <ele>655.5</ele>
        <time>2011-09-25T11:10:17Z</time>
      </trkpt>
      <trkpt lat="45.69849" lon="3.0811">
        <ele>656.2</ele>
        <time>2011-09-25T11:10:21Z</time>
      </trkpt>
      <trkpt lat="45.69846" lon="3.08123">
        <ele>656.9</ele>
        <time>2011-09-25T11:10:23Z</time>
      </trkpt>
      <trkpt lat="45.69841" lon="3.08138">
        <ele>657.1</ele>
        <time>2011-09-25T11:10:26Z</time>
      </trkpt>
      <trkpt lat="45.69838" lon="3.08151">
        <ele>657.5</ele>
        <time>2011-09-25T11:10:28Z</time>
      </trkpt>
      <trkpt lat="45.69835" lon="3.08162">
        <ele>658</ele>
        <time>2011-09-25T11:10:30Z</time>
      </trkpt>
      <trkpt lat="45.69832" lon="3.08177">
        <ele>658.5</ele>
        <time>2011-09-25T11:10:33Z</time>
      </trkpt>
      <trkpt lat="45.69828" lon="3.08191">
        <ele>658.9</ele>
        <time>2011-09-25T11:10:35Z</time>
      </trkpt>
      <trkpt lat="45.69825" lon="3.08205">
        <ele>659.4</ele>
        <time>2011-09-25T11:10:37Z</time>
      </trkpt>
      <trkpt lat="45.69824" lon="3.08217">
        <ele>659.6</ele>
        <time>2011-09-25T11:10:39Z</time>
      </trkpt>
      <trkpt lat="45.69821" lon="3.08229">
        <ele>659.7</ele>
        <time>2011-09-25T11:10:41Z</time>
      </trkpt>
      <trkpt lat="45.69819" lon="3.08243">
        <ele>659.8</ele>
        <time>2011-09-25T11:10:42Z</time>
      </trkpt>
      <trkpt lat="45.69816" lon="3.08258">
        <ele>659.9</ele>
        <time>2011-09-25T11:10:44Z</time>
      </trkpt>
      <trkpt lat="45.69813" lon="3.08274">
        <ele>660</ele>
        <time>2011-09-25T11:10:46Z</time>
      </trkpt>
      <trkpt lat="45.69811" lon="3.08293">
        <ele>659.7</ele>
        <time>2011-09-25T11:10:49Z</time>
      </trkpt>
      <trkpt lat="45.69801" lon="3.08303">
        <ele>659.2</ele>
        <time>2011-09-25T11:10:50Z</time>
      </trkpt>
      <trkpt lat="45.69802" lon="3.08317">
        <ele>658.6</ele>
        <time>2011-09-25T11:10:51Z</time>
      </trkpt>
      <trkpt lat="45.69802" lon="3.08333">
        <ele>658.1</ele>
        <time>2011-09-25T11:10:53Z</time>
      </trkpt>
      <trkpt lat="45.698" lon="3.08354">
        <ele>657.5</ele>
        <time>2011-09-25T11:10:55Z</time>
      </trkpt>
      <trkpt lat="45.698" lon="3.08376">
        <ele>657</ele>
        <time>2011-09-25T11:10:57Z</time>
      </trkpt>
      <trkpt lat="45.69799" lon="3.08395">
        <ele>656.5</ele>
        <time>2011-09-25T11:10:59Z</time>
      </trkpt>
      <trkpt lat="45.69802" lon="3.08407">
        <ele>656.1</ele>
        <time>2011-09-25T11:11:02Z</time>
      </trkpt>
      <trkpt lat="45.6981" lon="3.0842">
        <ele>654.8</ele>
        <time>2011-09-25T11:11:05Z</time>
      </trkpt>
      <trkpt lat="45.69819" lon="3.08432">
        <ele>653.5</ele>
        <time>2011-09-25T11:11:07Z</time>
      </trkpt>
      <trkpt lat="45.69826" lon="3.08443">
        <ele>652.3</ele>
        <time>2011-09-25T11:11:09Z</time>
      </trkpt>
      <trkpt lat="45.69834" lon="3.08454">
        <ele>651.4</ele>
        <time>2011-09-25T11:11:11Z</time>
      </trkpt>
      <trkpt lat="45.69842" lon="3.08466">
        <ele>651.8</ele>
        <time>2011-09-25T11:11:13Z</time>
      </trkpt>
      <trkpt lat="45.6985" lon="3.0848">
        <ele>652.3</ele>
        <time>2011-09-25T11:11:15Z</time>
      </trkpt>
      <trkpt lat="45.69861" lon="3.08496">
        <ele>651.5</ele>
        <time>2011-09-25T11:11:17Z</time>
      </trkpt>
      <trkpt lat="45.69871" lon="3.08513">
        <ele>650.6</ele>
        <time>2011-09-25T11:11:19Z</time>
      </trkpt>
      <trkpt lat="45.69879" lon="3.08528">
        <ele>649.8</ele>
        <time>2011-09-25T11:11:21Z</time>
      </trkpt>
      <trkpt lat="45.69887" lon="3.08541">
        <ele>649</ele>
        <time>2011-09-25T11:11:23Z</time>
      </trkpt>
      <trkpt lat="45.69894" lon="3.08553">
        <ele>648.2</ele>
        <time>2011-09-25T11:11:26Z</time>
      </trkpt>
      <trkpt lat="45.69902" lon="3.08565">
        <ele>648.3</ele>
        <time>2011-09-25T11:11:28Z</time>
      </trkpt>
      <trkpt lat="45.6991" lon="3.08577">
        <ele>647.5</ele>
        <time>2011-09-25T11:11:32Z</time>
      </trkpt>
      <trkpt lat="45.69916" lon="3.08587">
        <ele>646.6</ele>
        <time>2011-09-25T11:11:34Z</time>
      </trkpt>
      <trkpt lat="45.69927" lon="3.08602">
        <ele>645.8</ele>
        <time>2011-09-25T11:11:36Z</time>
      </trkpt>
      <trkpt lat="45.69935" lon="3.08611">
        <ele>643.6</ele>
        <time>2011-09-25T11:11:39Z</time>
      </trkpt>
      <trkpt lat="45.69943" lon="3.08618">
        <ele>642.5</ele>
        <time>2011-09-25T11:11:40Z</time>
      </trkpt>
      <trkpt lat="45.70019" lon="3.08682">
        <ele>642.7</ele>
        <time>2011-09-25T11:11:43Z</time>
      </trkpt>
      <trkpt lat="45.70027" lon="3.08689">
        <ele>642.9</ele>
        <time>2011-09-25T11:11:44Z</time>
      </trkpt>
      <trkpt lat="45.70034" lon="3.08695">
        <ele>641.4</ele>
        <time>2011-09-25T11:11:45Z</time>
      </trkpt>
      <trkpt lat="45.70042" lon="3.087">
        <ele>639.8</ele>
        <time>2011-09-25T11:11:46Z</time>
      </trkpt>
      <trkpt lat="45.70049" lon="3.08707">
        <ele>638.3</ele>
        <time>2011-09-25T11:11:47Z</time>
      </trkpt>
      <trkpt lat="45.70057" lon="3.08712">
        <ele>636.7</ele>
        <time>2011-09-25T11:11:48Z</time>
      </trkpt>
      <trkpt lat="45.70065" lon="3.08718">
        <ele>636.1</ele>
        <time>2011-09-25T11:11:49Z</time>
      </trkpt>
      <trkpt lat="45.70073" lon="3.08723">
        <ele>635.5</ele>
        <time>2011-09-25T11:11:50Z</time>
      </trkpt>
      <trkpt lat="45.7008" lon="3.0873">
        <ele>635.7</ele>
        <time>2011-09-25T11:11:51Z</time>
      </trkpt>
      <trkpt lat="45.70088" lon="3.08736">
        <ele>636</ele>
        <time>2011-09-25T11:11:52Z</time>
      </trkpt>
      <trkpt lat="45.70096" lon="3.08742">
        <ele>635.2</ele>
        <time>2011-09-25T11:11:53Z</time>
      </trkpt>
      <trkpt lat="45.70109" lon="3.0875">
        <ele>634.4</ele>
        <time>2011-09-25T11:11:55Z</time>
      </trkpt>
      <trkpt lat="45.70118" lon="3.08753">
        <ele>633.5</ele>
        <time>2011-09-25T11:11:56Z</time>
      </trkpt>
      <trkpt lat="45.70128" lon="3.08757">
        <ele>634.5</ele>
        <time>2011-09-25T11:11:57Z</time>
      </trkpt>
      <trkpt lat="45.70142" lon="3.08762">
        <ele>634</ele>
        <time>2011-09-25T11:11:59Z</time>
      </trkpt>
      <trkpt lat="45.70153" lon="3.08769">
        <ele>634.6</ele>
        <time>2011-09-25T11:12:00Z</time>
      </trkpt>
      <trkpt lat="45.70167" lon="3.08776">
        <ele>635.3</ele>
        <time>2011-09-25T11:12:02Z</time>
      </trkpt>
      <trkpt lat="45.7018" lon="3.08785">
        <ele>635.9</ele>
        <time>2011-09-25T11:12:04Z</time>
      </trkpt>
      <trkpt lat="45.70192" lon="3.08792">
        <ele>636.5</ele>
        <time>2011-09-25T11:12:06Z</time>
      </trkpt>
      <trkpt lat="45.70204" lon="3.08802">
        <ele>636.3</ele>
        <time>2011-09-25T11:12:08Z</time>
      </trkpt>
      <trkpt lat="45.70215" lon="3.08811">
        <ele>636</ele>
        <time>2011-09-25T11:12:10Z</time>
      </trkpt>
      <trkpt lat="45.70225" lon="3.08821">
        <ele>634.9</ele>
        <time>2011-09-25T11:12:12Z</time>
      </trkpt>
      <trkpt lat="45.70233" lon="3.08834">
        <ele>633.8</ele>
        <time>2011-09-25T11:12:14Z</time>
      </trkpt>
      <trkpt lat="45.7024" lon="3.08851">
        <ele>632.7</ele>
        <time>2011-09-25T11:12:16Z</time>
      </trkpt>
      <trkpt lat="45.70246" lon="3.08863">
        <ele>631.6</ele>
        <time>2011-09-25T11:12:17Z</time>
      </trkpt>
      <trkpt lat="45.70246" lon="3.08875">
        <ele>631.9</ele>
        <time>2011-09-25T11:12:19Z</time>
      </trkpt>
      <trkpt lat="45.7025" lon="3.08888">
        <ele>631.1</ele>
        <time>2011-09-25T11:12:20Z</time>
      </trkpt>
      <trkpt lat="45.70254" lon="3.08899">
        <ele>630.3</ele>
        <time>2011-09-25T11:12:22Z</time>
      </trkpt>
      <trkpt lat="45.70261" lon="3.08915">
        <ele>630</ele>
        <time>2011-09-25T11:12:24Z</time>
      </trkpt>
      <trkpt lat="45.70269" lon="3.08931">
        <ele>629.7</ele>
        <time>2011-09-25T11:12:27Z</time>
      </trkpt>
      <trkpt lat="45.70277" lon="3.08934">
        <ele>629.5</ele>
        <time>2011-09-25T11:12:28Z</time>
      </trkpt>
      <trkpt lat="45.70284" lon="3.08942">
        <ele>629.2</ele>
        <time>2011-09-25T11:12:29Z</time>
      </trkpt>
      <trkpt lat="45.70293" lon="3.08946">
        <ele>629.7</ele>
        <time>2011-09-25T11:12:33Z</time>
      </trkpt>
      <trkpt lat="45.70301" lon="3.08949">
        <ele>630.3</ele>
        <time>2011-09-25T11:12:35Z</time>
      </trkpt>
      <trkpt lat="45.70313" lon="3.08949">
        <ele>630.8</ele>
        <time>2011-09-25T11:12:37Z</time>
      </trkpt>
      <trkpt lat="45.70325" lon="3.08949">
        <ele>631.4</ele>
        <time>2011-09-25T11:12:40Z</time>
      </trkpt>
      <trkpt lat="45.70335" lon="3.08952">
        <ele>631.4</ele>
        <time>2011-09-25T11:12:42Z</time>
      </trkpt>
      <trkpt lat="45.70349" lon="3.08952">
        <ele>632</ele>
        <time>2011-09-25T11:12:46Z</time>
      </trkpt>
      <trkpt lat="45.70357" lon="3.08947">
        <ele>632.6</ele>
        <time>2011-09-25T11:12:49Z</time>
      </trkpt>
      <trkpt lat="45.70369" lon="3.08952">
        <ele>632.7</ele>
        <time>2011-09-25T11:12:51Z</time>
      </trkpt>
      <trkpt lat="45.70376" lon="3.08959">
        <ele>632.8</ele>
        <time>2011-09-25T11:12:52Z</time>
      </trkpt>
      <trkpt lat="45.70382" lon="3.08967">
        <ele>632.9</ele>
        <time>2011-09-25T11:12:54Z</time>
      </trkpt>
      <trkpt lat="45.70389" lon="3.08973">
        <ele>633</ele>
        <time>2011-09-25T11:12:56Z</time>
      </trkpt>
      <trkpt lat="45.70399" lon="3.08979">
        <ele>633.1</ele>
        <time>2011-09-25T11:12:59Z</time>
      </trkpt>
      <trkpt lat="45.70409" lon="3.08987">
        <ele>633.2</ele>
        <time>2011-09-25T11:13:02Z</time>
      </trkpt>
      <trkpt lat="45.70417" lon="3.08993">
        <ele>633.3</ele>
        <time>2011-09-25T11:13:05Z</time>
      </trkpt>
      <trkpt lat="45.70426" lon="3.09001">
        <ele>634.8</ele>
        <time>2011-09-25T11:13:10Z</time>
      </trkpt>
      <trkpt lat="45.70436" lon="3.09003">
        <ele>636.9</ele>
        <time>2011-09-25T11:13:15Z</time>
      </trkpt>
      <trkpt lat="45.70444" lon="3.0901">
        <ele>638.4</ele>
        <time>2011-09-25T11:13:18Z</time>
      </trkpt>
      <trkpt lat="45.70452" lon="3.09017">
        <ele>639.8</ele>
        <time>2011-09-25T11:13:22Z</time>
      </trkpt>
      <trkpt lat="45.70461" lon="3.09023">
        <ele>641.3</ele>
        <time>2011-09-25T11:13:27Z</time>
      </trkpt>
      <trkpt lat="45.70469" lon="3.0903">
        <ele>642.7</ele>
        <time>2011-09-25T11:13:30Z</time>
      </trkpt>
      <trkpt lat="45.70479" lon="3.09035">
        <ele>644.2</ele>
        <time>2011-09-25T11:13:34Z</time>
      </trkpt>
      <trkpt lat="45.70488" lon="3.09036">
        <ele>645.6</ele>
        <time>2011-09-25T11:13:38Z</time>
      </trkpt>
      <trkpt lat="45.70497" lon="3.09037">
        <ele>647.1</ele>
        <time>2011-09-25T11:13:42Z</time>
      </trkpt>
      <trkpt lat="45.70506" lon="3.09036">
        <ele>649.5</ele>
        <time>2011-09-25T11:13:46Z</time>
      </trkpt>
      <trkpt lat="45.70515" lon="3.09038">
        <ele>652</ele>
        <time>2011-09-25T11:13:51Z</time>
      </trkpt>
      <trkpt lat="45.70524" lon="3.09037">
        <ele>653</ele>
        <time>2011-09-25T11:13:54Z</time>
      </trkpt>
      <trkpt lat="45.70533" lon="3.09035">
        <ele>654</ele>
        <time>2011-09-25T11:13:58Z</time>
      </trkpt>
      <trkpt lat="45.70541" lon="3.09033">
        <ele>655</ele>
        <time>2011-09-25T11:14:02Z</time>
      </trkpt>
      <trkpt lat="45.70551" lon="3.0903">
        <ele>656</ele>
        <time>2011-09-25T11:14:06Z</time>
      </trkpt>
      <trkpt lat="45.7056" lon="3.09029">
        <ele>657</ele>
        <time>2011-09-25T11:14:10Z</time>
      </trkpt>
      <trkpt lat="45.7057" lon="3.09028">
        <ele>658</ele>
        <time>2011-09-25T11:14:14Z</time>
      </trkpt>
      <trkpt lat="45.70578" lon="3.09028">
        <ele>659</ele>
        <time>2011-09-25T11:14:18Z</time>
      </trkpt>
      <trkpt lat="45.70587" lon="3.09028">
        <ele>660.5</ele>
        <time>2011-09-25T11:14:22Z</time>
      </trkpt>
      <trkpt lat="45.70597" lon="3.09031">
        <ele>662.1</ele>
        <time>2011-09-25T11:14:27Z</time>
      </trkpt>
      <trkpt lat="45.70607" lon="3.09034">
        <ele>662.6</ele>
        <time>2011-09-25T11:14:32Z</time>
      </trkpt>
      <trkpt lat="45.70616" lon="3.09035">
        <ele>662.5</ele>
        <time>2011-09-25T11:14:36Z</time>
      </trkpt>
      <trkpt lat="45.70627" lon="3.09035">
        <ele>662.3</ele>
        <time>2011-09-25T11:14:40Z</time>
      </trkpt>
      <trkpt lat="45.70636" lon="3.09034">
        <ele>662.1</ele>
        <time>2011-09-25T11:14:44Z</time>
      </trkpt>
      <trkpt lat="45.70646" lon="3.09035">
        <ele>661.9</ele>
        <time>2011-09-25T11:14:48Z</time>
      </trkpt>
      <trkpt lat="45.70654" lon="3.09039">
        <ele>661.7</ele>
        <time>2011-09-25T11:14:52Z</time>
      </trkpt>
      <trkpt lat="45.7066" lon="3.09053">
        <ele>661.5</ele>
        <time>2011-09-25T11:14:56Z</time>
      </trkpt>
      <trkpt lat="45.70661" lon="3.09066">
        <ele>661.4</ele>
        <time>2011-09-25T11:14:58Z</time>
      </trkpt>
      <trkpt lat="45.70663" lon="3.09084">
        <ele>661.2</ele>
        <time>2011-09-25T11:15:00Z</time>
      </trkpt>
      <trkpt lat="45.70667" lon="3.09097">
        <ele>660.7</ele>
        <time>2011-09-25T11:15:02Z</time>
      </trkpt>
      <trkpt lat="45.70675" lon="3.09109">
        <ele>660.3</ele>
        <time>2011-09-25T11:15:04Z</time>
      </trkpt>
      <trkpt lat="45.70683" lon="3.0911">
        <ele>659.8</ele>
        <time>2011-09-25T11:15:07Z</time>
      </trkpt>
      <trkpt lat="45.70695" lon="3.09109">
        <ele>660.1</ele>
        <time>2011-09-25T11:15:11Z</time>
      </trkpt>
      <trkpt lat="45.70704" lon="3.09102">
        <ele>660.4</ele>
        <time>2011-09-25T11:15:13Z</time>
      </trkpt>
      <trkpt lat="45.70713" lon="3.09099">
        <ele>660.6</ele>
        <time>2011-09-25T11:15:16Z</time>
      </trkpt>
      <trkpt lat="45.70721" lon="3.09088">
        <ele>660.9</ele>
        <time>2011-09-25T11:15:20Z</time>
      </trkpt>
      <trkpt lat="45.70732" lon="3.09084">
        <ele>661.2</ele>
        <time>2011-09-25T11:15:23Z</time>
      </trkpt>
      <trkpt lat="45.70741" lon="3.0908">
        <ele>661.5</ele>
        <time>2011-09-25T11:15:25Z</time>
      </trkpt>
      <trkpt lat="45.70745" lon="3.0907">
        <ele>662.4</ele>
        <time>2011-09-25T11:15:27Z</time>
      </trkpt>
      <trkpt lat="45.70759" lon="3.0907">
        <ele>663.3</ele>
        <time>2011-09-25T11:15:29Z</time>
      </trkpt>
      <trkpt lat="45.70769" lon="3.09068">
        <ele>663.9</ele>
        <time>2011-09-25T11:15:31Z</time>
      </trkpt>
      <trkpt lat="45.70776" lon="3.09059">
        <ele>664.1</ele>
        <time>2011-09-25T11:15:35Z</time>
      </trkpt>
      <trkpt lat="45.70776" lon="3.09047">
        <ele>664.3</ele>
        <time>2011-09-25T11:15:38Z</time>
      </trkpt>
      <trkpt lat="45.70774" lon="3.09031">
        <ele>664.5</ele>
        <time>2011-09-25T11:15:41Z</time>
      </trkpt>
      <trkpt lat="45.7078" lon="3.09021">
        <ele>664.6</ele>
        <time>2011-09-25T11:15:45Z</time>
      </trkpt>
      <trkpt lat="45.70792" lon="3.09016">
        <ele>664.8</ele>
        <time>2011-09-25T11:15:47Z</time>
      </trkpt>
      <trkpt lat="45.70803" lon="3.09012">
        <ele>665</ele>
        <time>2011-09-25T11:15:49Z</time>
      </trkpt>
      <trkpt lat="45.70814" lon="3.09011">
        <ele>665.2</ele>
        <time>2011-09-25T11:15:51Z</time>
      </trkpt>
      <trkpt lat="45.70823" lon="3.09011">
        <ele>664.9</ele>
        <time>2011-09-25T11:15:52Z</time>
      </trkpt>
      <trkpt lat="45.70837" lon="3.09011">
        <ele>664</ele>
        <time>2011-09-25T11:15:58Z</time>
      </trkpt>
      <trkpt lat="45.7085" lon="3.09009">
        <ele>663.1</ele>
        <time>2011-09-25T11:16:01Z</time>
      </trkpt>
      <trkpt lat="45.70865" lon="3.09007">
        <ele>662.1</ele>
        <time>2011-09-25T11:16:03Z</time>
      </trkpt>
      <trkpt lat="45.70881" lon="3.09003">
        <ele>661.5</ele>
        <time>2011-09-25T11:16:05Z</time>
      </trkpt>
      <trkpt lat="45.7089" lon="3.09002">
        <ele>661</ele>
        <time>2011-09-25T11:16:06Z</time>
      </trkpt>
      <trkpt lat="45.70898" lon="3.09002">
        <ele>660.5</ele>
        <time>2011-09-25T11:16:07Z</time>
      </trkpt>
      <trkpt lat="45.70914" lon="3.08999">
        <ele>659.9</ele>
        <time>2011-09-25T11:16:08Z</time>
      </trkpt>
      <trkpt lat="45.70977" lon="3.08988">
        <ele>659.3</ele>
        <time>2011-09-25T11:16:11Z</time>
      </trkpt>
      <trkpt lat="45.70993" lon="3.08985">
        <ele>658.6</ele>
        <time>2011-09-25T11:16:13Z</time>
      </trkpt>
      <trkpt lat="45.71007" lon="3.08983">
        <ele>658</ele>
        <time>2011-09-25T11:16:15Z</time>
      </trkpt>
      <trkpt lat="45.71021" lon="3.0898">
        <ele>657.8</ele>
        <time>2011-09-25T11:16:17Z</time>
      </trkpt>
      <trkpt lat="45.71034" lon="3.08977">
        <ele>657.6</ele>
        <time>2011-09-25T11:16:19Z</time>
      </trkpt>
      <trkpt lat="45.71046" lon="3.08976">
        <ele>657.5</ele>
        <time>2011-09-25T11:16:21Z</time>
      </trkpt>
      <trkpt lat="45.71058" lon="3.08974">
        <ele>657.4</ele>
        <time>2011-09-25T11:16:23Z</time>
      </trkpt>
      <trkpt lat="45.71069" lon="3.08977">
        <ele>657.5</ele>
        <time>2011-09-25T11:16:25Z</time>
      </trkpt>
      <trkpt lat="45.71079" lon="3.08987">
        <ele>657.5</ele>
        <time>2011-09-25T11:16:27Z</time>
      </trkpt>
      <trkpt lat="45.71084" lon="3.09004">
        <ele>657.6</ele>
        <time>2011-09-25T11:16:29Z</time>
      </trkpt>
      <trkpt lat="45.71086" lon="3.09023">
        <ele>657.7</ele>
        <time>2011-09-25T11:16:31Z</time>
      </trkpt>
      <trkpt lat="45.71088" lon="3.09043">
        <ele>657.9</ele>
        <time>2011-09-25T11:16:33Z</time>
      </trkpt>
      <trkpt lat="45.71089" lon="3.09062">
        <ele>658.1</ele>
        <time>2011-09-25T11:16:35Z</time>
      </trkpt>
      <trkpt lat="45.71092" lon="3.0908">
        <ele>658.4</ele>
        <time>2011-09-25T11:16:37Z</time>
      </trkpt>
      <trkpt lat="45.71101" lon="3.0909">
        <ele>658.6</ele>
        <time>2011-09-25T11:16:39Z</time>
      </trkpt>
      <trkpt lat="45.71112" lon="3.09096">
        <ele>658.9</ele>
        <time>2011-09-25T11:16:41Z</time>
      </trkpt>
      <trkpt lat="45.71121" lon="3.09106">
        <ele>659.2</ele>
        <time>2011-09-25T11:16:43Z</time>
      </trkpt>
      <trkpt lat="45.71124" lon="3.09119">
        <ele>659.5</ele>
        <time>2011-09-25T11:16:47Z</time>
      </trkpt>
      <trkpt lat="45.71131" lon="3.09131">
        <ele>659.5</ele>
        <time>2011-09-25T11:16:49Z</time>
      </trkpt>
      <trkpt lat="45.71139" lon="3.09142">
        <ele>659.6</ele>
        <time>2011-09-25T11:16:50Z</time>
      </trkpt>
      <trkpt lat="45.71148" lon="3.09156">
        <ele>660.4</ele>
        <time>2011-09-25T11:16:52Z</time>
      </trkpt>
      <trkpt lat="45.71156" lon="3.09169">
        <ele>661.1</ele>
        <time>2011-09-25T11:16:53Z</time>
      </trkpt>
      <trkpt lat="45.71163" lon="3.09182">
        <ele>661.8</ele>
        <time>2011-09-25T11:16:55Z</time>
      </trkpt>
      <trkpt lat="45.71169" lon="3.09192">
        <ele>662.5</ele>
        <time>2011-09-25T11:16:57Z</time>
      </trkpt>
      <trkpt lat="45.71175" lon="3.09202">
        <ele>663.2</ele>
        <time>2011-09-25T11:16:59Z</time>
      </trkpt>
      <trkpt lat="45.71181" lon="3.09214">
        <ele>663.2</ele>
        <time>2011-09-25T11:17:01Z</time>
      </trkpt>
      <trkpt lat="45.71187" lon="3.09223">
        <ele>663.2</ele>
        <time>2011-09-25T11:17:03Z</time>
      </trkpt>
      <trkpt lat="45.71194" lon="3.09234">
        <ele>663.2</ele>
        <time>2011-09-25T11:17:05Z</time>
      </trkpt>
      <trkpt lat="45.712" lon="3.09244">
        <ele>663.2</ele>
        <time>2011-09-25T11:17:07Z</time>
      </trkpt>
      <trkpt lat="45.71206" lon="3.09253">
        <ele>663.8</ele>
        <time>2011-09-25T11:17:09Z</time>
      </trkpt>
      <trkpt lat="45.71211" lon="3.09263">
        <ele>664.5</ele>
        <time>2011-09-25T11:17:11Z</time>
      </trkpt>
      <trkpt lat="45.71217" lon="3.09272">
        <ele>664.5</ele>
        <time>2011-09-25T11:17:13Z</time>
      </trkpt>
      <trkpt lat="45.71223" lon="3.09281">
        <ele>664.5</ele>
        <time>2011-09-25T11:17:15Z</time>
      </trkpt>
      <trkpt lat="45.71231" lon="3.09293">
        <ele>664.5</ele>
        <time>2011-09-25T11:17:18Z</time>
      </trkpt>
      <trkpt lat="45.71238" lon="3.09301">
        <ele>664.5</ele>
        <time>2011-09-25T11:17:20Z</time>
      </trkpt>
      <trkpt lat="45.71247" lon="3.0931">
        <ele>664.5</ele>
        <time>2011-09-25T11:17:23Z</time>
      </trkpt>
      <trkpt lat="45.71254" lon="3.09318">
        <ele>665.1</ele>
        <time>2011-09-25T11:17:25Z</time>
      </trkpt>
      <trkpt lat="45.71261" lon="3.09326">
        <ele>665.9</ele>
        <time>2011-09-25T11:17:27Z</time>
      </trkpt>
      <trkpt lat="45.71267" lon="3.09335">
        <ele>666.7</ele>
        <time>2011-09-25T11:17:29Z</time>
      </trkpt>
      <trkpt lat="45.71274" lon="3.09347">
        <ele>667.5</ele>
        <time>2011-09-25T11:17:32Z</time>
      </trkpt>
      <trkpt lat="45.71279" lon="3.09357">
        <ele>667.7</ele>
        <time>2011-09-25T11:17:34Z</time>
      </trkpt>
      <trkpt lat="45.71286" lon="3.0937">
        <ele>667.9</ele>
        <time>2011-09-25T11:17:37Z</time>
      </trkpt>
      <trkpt lat="45.71294" lon="3.09381">
        <ele>668.1</ele>
        <time>2011-09-25T11:17:40Z</time>
      </trkpt>
      <trkpt lat="45.71299" lon="3.0939">
        <ele>668.3</ele>
        <time>2011-09-25T11:17:43Z</time>
      </trkpt>
      <trkpt lat="45.71306" lon="3.09401">
        <ele>668.5</ele>
        <time>2011-09-25T11:17:47Z</time>
      </trkpt>
      <trkpt lat="45.71314" lon="3.09412">
        <ele>668.6</ele>
        <time>2011-09-25T11:17:50Z</time>
      </trkpt>
      <trkpt lat="45.71319" lon="3.09422">
        <ele>670</ele>
        <time>2011-09-25T11:17:53Z</time>
      </trkpt>
      <trkpt lat="45.71325" lon="3.09432">
        <ele>671.4</ele>
        <time>2011-09-25T11:17:57Z</time>
      </trkpt>
      <trkpt lat="45.71329" lon="3.09442">
        <ele>672.5</ele>
        <time>2011-09-25T11:17:59Z</time>
      </trkpt>
      <trkpt lat="45.71336" lon="3.09455">
        <ele>673.7</ele>
        <time>2011-09-25T11:18:03Z</time>
      </trkpt>
      <trkpt lat="45.71342" lon="3.09467">
        <ele>674.9</ele>
        <time>2011-09-25T11:18:07Z</time>
      </trkpt>
      <trkpt lat="45.71347" lon="3.09479">
        <ele>676.1</ele>
        <time>2011-09-25T11:18:11Z</time>
      </trkpt>
      <trkpt lat="45.71352" lon="3.09492">
        <ele>678.5</ele>
        <time>2011-09-25T11:18:15Z</time>
      </trkpt>
      <trkpt lat="45.71357" lon="3.09506">
        <ele>680.8</ele>
        <time>2011-09-25T11:18:19Z</time>
      </trkpt>
      <trkpt lat="45.7136" lon="3.09517">
        <ele>683.2</ele>
        <time>2011-09-25T11:18:22Z</time>
      </trkpt>
      <trkpt lat="45.71364" lon="3.09529">
        <ele>685.5</ele>
        <time>2011-09-25T11:18:25Z</time>
      </trkpt>
      <trkpt lat="45.71366" lon="3.09542">
        <ele>687.9</ele>
        <time>2011-09-25T11:18:29Z</time>
      </trkpt>
      <trkpt lat="45.71367" lon="3.09556">
        <ele>689.1</ele>
        <time>2011-09-25T11:18:32Z</time>
      </trkpt>
      <trkpt lat="45.71366" lon="3.09571">
        <ele>691.2</ele>
        <time>2011-09-25T11:18:36Z</time>
      </trkpt>
      <trkpt lat="45.71365" lon="3.09585">
        <ele>693.3</ele>
        <time>2011-09-25T11:18:40Z</time>
      </trkpt>
      <trkpt lat="45.71362" lon="3.09598">
        <ele>695.4</ele>
        <time>2011-09-25T11:18:43Z</time>
      </trkpt>
      <trkpt lat="45.71359" lon="3.0961">
        <ele>697.5</ele>
        <time>2011-09-25T11:18:46Z</time>
      </trkpt>
      <trkpt lat="45.71356" lon="3.09627">
        <ele>699.5</ele>
        <time>2011-09-25T11:18:50Z</time>
      </trkpt>
      <trkpt lat="45.71354" lon="3.09643">
        <ele>701.3</ele>
        <time>2011-09-25T11:18:53Z</time>
      </trkpt>
      <trkpt lat="45.71354" lon="3.09657">
        <ele>703</ele>
        <time>2011-09-25T11:18:56Z</time>
      </trkpt>
      <trkpt lat="45.71359" lon="3.09677">
        <ele>702</ele>
        <time>2011-09-25T11:18:59Z</time>
      </trkpt>
      <trkpt lat="45.71362" lon="3.09688">
        <ele>701</ele>
        <time>2011-09-25T11:19:01Z</time>
      </trkpt>
      <trkpt lat="45.71366" lon="3.09702">
        <ele>700</ele>
        <time>2011-09-25T11:19:03Z</time>
      </trkpt>
      <trkpt lat="45.71372" lon="3.09718">
        <ele>699</ele>
        <time>2011-09-25T11:19:05Z</time>
      </trkpt>
      <trkpt lat="45.71379" lon="3.09734">
        <ele>697.8</ele>
        <time>2011-09-25T11:19:07Z</time>
      </trkpt>
      <trkpt lat="45.71385" lon="3.09748">
        <ele>696.6</ele>
        <time>2011-09-25T11:19:09Z</time>
      </trkpt>
      <trkpt lat="45.7139" lon="3.09758">
        <ele>695.5</ele>
        <time>2011-09-25T11:19:10Z</time>
      </trkpt>
      <trkpt lat="45.71395" lon="3.09779">
        <ele>694.3</ele>
        <time>2011-09-25T11:19:12Z</time>
      </trkpt>
      <trkpt lat="45.71399" lon="3.09797">
        <ele>693.1</ele>
        <time>2011-09-25T11:19:14Z</time>
      </trkpt>
      <trkpt lat="45.71402" lon="3.09817">
        <ele>691.7</ele>
        <time>2011-09-25T11:19:17Z</time>
      </trkpt>
      <trkpt lat="45.71403" lon="3.09833">
        <ele>690.4</ele>
        <time>2011-09-25T11:19:19Z</time>
      </trkpt>
      <trkpt lat="45.71405" lon="3.0985">
        <ele>691.7</ele>
        <time>2011-09-25T11:19:22Z</time>
      </trkpt>
      <trkpt lat="45.71407" lon="3.09865">
        <ele>693.1</ele>
        <time>2011-09-25T11:19:24Z</time>
      </trkpt>
      <trkpt lat="45.71411" lon="3.09876">
        <ele>694.5</ele>
        <time>2011-09-25T11:19:26Z</time>
      </trkpt>
      <trkpt lat="45.71415" lon="3.09889">
        <ele>695.8</ele>
        <time>2011-09-25T11:19:29Z</time>
      </trkpt>
      <trkpt lat="45.71421" lon="3.09899">
        <ele>694.9</ele>
        <time>2011-09-25T11:19:30Z</time>
      </trkpt>
      <trkpt lat="45.71428" lon="3.09907">
        <ele>694</ele>
        <time>2011-09-25T11:19:32Z</time>
      </trkpt>
      <trkpt lat="45.71439" lon="3.0992">
        <ele>694.1</ele>
        <time>2011-09-25T11:19:34Z</time>
      </trkpt>
      <trkpt lat="45.71448" lon="3.09929">
        <ele>694.2</ele>
        <time>2011-09-25T11:19:36Z</time>
      </trkpt>
      <trkpt lat="45.71456" lon="3.09939">
        <ele>694.3</ele>
        <time>2011-09-25T11:19:38Z</time>
      </trkpt>
      <trkpt lat="45.71466" lon="3.09954">
        <ele>693.7</ele>
        <time>2011-09-25T11:19:41Z</time>
      </trkpt>
      <trkpt lat="45.71475" lon="3.09963">
        <ele>693.2</ele>
        <time>2011-09-25T11:19:43Z</time>
      </trkpt>
      <trkpt lat="45.71485" lon="3.09972">
        <ele>692.6</ele>
        <time>2011-09-25T11:19:45Z</time>
      </trkpt>
      <trkpt lat="45.71494" lon="3.09981">
        <ele>692.1</ele>
        <time>2011-09-25T11:19:47Z</time>
      </trkpt>
      <trkpt lat="45.71505" lon="3.0999">
        <ele>690.8</ele>
        <time>2011-09-25T11:19:49Z</time>
      </trkpt>
      <trkpt lat="45.71514" lon="3.09996">
        <ele>689.5</ele>
        <time>2011-09-25T11:19:51Z</time>
      </trkpt>
      <trkpt lat="45.71523" lon="3.10002">
        <ele>689.8</ele>
        <time>2011-09-25T11:19:53Z</time>
      </trkpt>
      <trkpt lat="45.71533" lon="3.10008">
        <ele>690.1</ele>
        <time>2011-09-25T11:19:55Z</time>
      </trkpt>
      <trkpt lat="45.71541" lon="3.10014">
        <ele>690.4</ele>
        <time>2011-09-25T11:19:57Z</time>
      </trkpt>
      <trkpt lat="45.71551" lon="3.10019">
        <ele>690.6</ele>
        <time>2011-09-25T11:19:59Z</time>
      </trkpt>
      <trkpt lat="45.7156" lon="3.10026">
        <ele>690.9</ele>
        <time>2011-09-25T11:20:01Z</time>
      </trkpt>
      <trkpt lat="45.71571" lon="3.10037">
        <ele>691.2</ele>
        <time>2011-09-25T11:20:04Z</time>
      </trkpt>
      <trkpt lat="45.71578" lon="3.10045">
        <ele>691.5</ele>
        <time>2011-09-25T11:20:07Z</time>
      </trkpt>
      <trkpt lat="45.71588" lon="3.10052">
        <ele>691.7</ele>
        <time>2011-09-25T11:20:09Z</time>
      </trkpt>
      <trkpt lat="45.71596" lon="3.1006">
        <ele>692</ele>
        <time>2011-09-25T11:20:11Z</time>
      </trkpt>
      <trkpt lat="45.71604" lon="3.10067">
        <ele>693.5</ele>
        <time>2011-09-25T11:20:13Z</time>
      </trkpt>
      <trkpt lat="45.71608" lon="3.10078">
        <ele>694.9</ele>
        <time>2011-09-25T11:20:14Z</time>
      </trkpt>
      <trkpt lat="45.71612" lon="3.10091">
        <ele>696.4</ele>
        <time>2011-09-25T11:20:16Z</time>
      </trkpt>
      <trkpt lat="45.71613" lon="3.10109">
        <ele>697.8</ele>
        <time>2011-09-25T11:20:20Z</time>
      </trkpt>
      <trkpt lat="45.71613" lon="3.10121">
        <ele>698.3</ele>
        <time>2011-09-25T11:20:21Z</time>
      </trkpt>
      <trkpt lat="45.71611" lon="3.10135">
        <ele>698.7</ele>
        <time>2011-09-25T11:20:23Z</time>
      </trkpt>
      <trkpt lat="45.71608" lon="3.10147">
        <ele>699.3</ele>
        <time>2011-09-25T11:20:25Z</time>
      </trkpt>
      <trkpt lat="45.71606" lon="3.1016">
        <ele>699.8</ele>
        <time>2011-09-25T11:20:27Z</time>
      </trkpt>
      <trkpt lat="45.71604" lon="3.10172">
        <ele>700.4</ele>
        <time>2011-09-25T11:20:29Z</time>
      </trkpt>
      <trkpt lat="45.71603" lon="3.10189">
        <ele>700.9</ele>
        <time>2011-09-25T11:20:32Z</time>
      </trkpt>
      <trkpt lat="45.71602" lon="3.10201">
        <ele>701.5</ele>
        <time>2011-09-25T11:20:35Z</time>
      </trkpt>
      <trkpt lat="45.71601" lon="3.10216">
        <ele>700.9</ele>
        <time>2011-09-25T11:20:36Z</time>
      </trkpt>
      <trkpt lat="45.71601" lon="3.10228">
        <ele>700.4</ele>
        <time>2011-09-25T11:20:38Z</time>
      </trkpt>
      <trkpt lat="45.71611" lon="3.1024">
        <ele>699.8</ele>
        <time>2011-09-25T11:20:40Z</time>
      </trkpt>
      <trkpt lat="45.71618" lon="3.10249">
        <ele>699.3</ele>
        <time>2011-09-25T11:20:42Z</time>
      </trkpt>
      <trkpt lat="45.71627" lon="3.10254">
        <ele>698.7</ele>
        <time>2011-09-25T11:20:44Z</time>
      </trkpt>
      <trkpt lat="45.71636" lon="3.1026">
        <ele>698.2</ele>
        <time>2011-09-25T11:20:46Z</time>
      </trkpt>
      <trkpt lat="45.71644" lon="3.10265">
        <ele>697.5</ele>
        <time>2011-09-25T11:20:48Z</time>
      </trkpt>
      <trkpt lat="45.71655" lon="3.1027">
        <ele>696.9</ele>
        <time>2011-09-25T11:20:50Z</time>
      </trkpt>
      <trkpt lat="45.71663" lon="3.10275">
        <ele>696.3</ele>
        <time>2011-09-25T11:20:52Z</time>
      </trkpt>
      <trkpt lat="45.71671" lon="3.10279">
        <ele>696.1</ele>
        <time>2011-09-25T11:20:54Z</time>
      </trkpt>
      <trkpt lat="45.71681" lon="3.10286">
        <ele>696.1</ele>
        <time>2011-09-25T11:20:57Z</time>
      </trkpt>
      <trkpt lat="45.71689" lon="3.10287">
        <ele>696.7</ele>
        <time>2011-09-25T11:20:59Z</time>
      </trkpt>
      <trkpt lat="45.71698" lon="3.10285">
        <ele>697.4</ele>
        <time>2011-09-25T11:21:03Z</time>
      </trkpt>
      <trkpt lat="45.71705" lon="3.10293">
        <ele>698</ele>
        <time>2011-09-25T11:21:06Z</time>
      </trkpt>
      <trkpt lat="45.7171" lon="3.10304">
        <ele>698.6</ele>
        <time>2011-09-25T11:21:13Z</time>
      </trkpt>
      <trkpt lat="45.71716" lon="3.10313">
        <ele>699.3</ele>
        <time>2011-09-25T11:21:16Z</time>
      </trkpt>
      <trkpt lat="45.71724" lon="3.10321">
        <ele>699.9</ele>
        <time>2011-09-25T11:21:21Z</time>
      </trkpt>
      <trkpt lat="45.71731" lon="3.10328">
        <ele>700.5</ele>
        <time>2011-09-25T11:21:26Z</time>
      </trkpt>
      <trkpt lat="45.71737" lon="3.10335">
        <ele>701.2</ele>
        <time>2011-09-25T11:21:33Z</time>
      </trkpt>
      <trkpt lat="45.71746" lon="3.10333">
        <ele>701.8</ele>
        <time>2011-09-25T11:22:06Z</time>
      </trkpt>
      <trkpt lat="45.71755" lon="3.10331">
        <ele>699.9</ele>
        <time>2011-09-25T11:22:11Z</time>
      </trkpt>
      <trkpt lat="45.71762" lon="3.10322">
        <ele>697.8</ele>
        <time>2011-09-25T11:22:13Z</time>
      </trkpt>
      <trkpt lat="45.71768" lon="3.10311">
        <ele>695.7</ele>
        <time>2011-09-25T11:22:18Z</time>
      </trkpt>
      <trkpt lat="45.71777" lon="3.10306">
        <ele>693.6</ele>
        <time>2011-09-25T11:22:21Z</time>
      </trkpt>
      <trkpt lat="45.71788" lon="3.10313">
        <ele>691.5</ele>
        <time>2011-09-25T11:22:25Z</time>
      </trkpt>
      <trkpt lat="45.71799" lon="3.10308">
        <ele>691.5</ele>
        <time>2011-09-25T11:22:27Z</time>
      </trkpt>
      <trkpt lat="45.71808" lon="3.10303">
        <ele>691.5</ele>
        <time>2011-09-25T11:22:32Z</time>
      </trkpt>
      <trkpt lat="45.71802" lon="3.10315">
        <ele>691.1</ele>
        <time>2011-09-25T11:22:46Z</time>
      </trkpt>
      <trkpt lat="45.71799" lon="3.10326">
        <ele>690.6</ele>
        <time>2011-09-25T11:22:49Z</time>
      </trkpt>
      <trkpt lat="45.71795" lon="3.1034">
        <ele>690.2</ele>
        <time>2011-09-25T11:22:52Z</time>
      </trkpt>
      <trkpt lat="45.71788" lon="3.10357">
        <ele>689.7</ele>
        <time>2011-09-25T11:22:56Z</time>
      </trkpt>
      <trkpt lat="45.71782" lon="3.10366">
        <ele>691.4</ele>
        <time>2011-09-25T11:22:58Z</time>
      </trkpt>
      <trkpt lat="45.7178" lon="3.1038">
        <ele>693</ele>
        <time>2011-09-25T11:23:01Z</time>
      </trkpt>
      <trkpt lat="45.71774" lon="3.10394">
        <ele>694.6</ele>
        <time>2011-09-25T11:23:04Z</time>
      </trkpt>
      <trkpt lat="45.71768" lon="3.10404">
        <ele>696.3</ele>
        <time>2011-09-25T11:23:06Z</time>
      </trkpt>
      <trkpt lat="45.71762" lon="3.10418">
        <ele>697.9</ele>
        <time>2011-09-25T11:23:09Z</time>
      </trkpt>
      <trkpt lat="45.7176" lon="3.1043">
        <ele>696.5</ele>
        <time>2011-09-25T11:23:11Z</time>
      </trkpt>
      <trkpt lat="45.71755" lon="3.10442">
        <ele>695.2</ele>
        <time>2011-09-25T11:23:17Z</time>
      </trkpt>
      <trkpt lat="45.71752" lon="3.10453">
        <ele>694.3</ele>
        <time>2011-09-25T11:23:20Z</time>
      </trkpt>
      <trkpt lat="45.71758" lon="3.10461">
        <ele>691.5</ele>
        <time>2011-09-25T11:23:29Z</time>
      </trkpt>
      <trkpt lat="45.71767" lon="3.10467">
        <ele>688.6</ele>
        <time>2011-09-25T11:23:40Z</time>
      </trkpt>
      <trkpt lat="45.71768" lon="3.10478">
        <ele>685.8</ele>
        <time>2011-09-25T11:23:59Z</time>
      </trkpt>
      <trkpt lat="45.71776" lon="3.10479">
        <ele>683</ele>
        <time>2011-09-25T11:24:02Z</time>
      </trkpt>
      <trkpt lat="45.71787" lon="3.10478">
        <ele>680.2</ele>
        <time>2011-09-25T11:24:05Z</time>
      </trkpt>
      <trkpt lat="45.71796" lon="3.10469">
        <ele>677.4</ele>
        <time>2011-09-25T11:24:08Z</time>
      </trkpt>
      <trkpt lat="45.71801" lon="3.10458">
        <ele>674.5</ele>
        <time>2011-09-25T11:24:10Z</time>
      </trkpt>
      <trkpt lat="45.71807" lon="3.10449">
        <ele>671.7</ele>
        <time>2011-09-25T11:24:13Z</time>
      </trkpt>
      <trkpt lat="45.71815" lon="3.10437">
        <ele>669.8</ele>
        <time>2011-09-25T11:24:16Z</time>
      </trkpt>
      <trkpt lat="45.71821" lon="3.10427">
        <ele>667.9</ele>
        <time>2011-09-25T11:24:19Z</time>
      </trkpt>
      <trkpt lat="45.71825" lon="3.10418">
        <ele>666</ele>
        <time>2011-09-25T11:24:21Z</time>
      </trkpt>
      <trkpt lat="45.7183" lon="3.10407">
        <ele>666</ele>
        <time>2011-09-25T11:24:23Z</time>
      </trkpt>
      <trkpt lat="45.71833" lon="3.10419">
        <ele>666</ele>
        <time>2011-09-25T11:24:29Z</time>
      </trkpt>
      <trkpt lat="45.7184" lon="3.10431">
        <ele>663.5</ele>
        <time>2011-09-25T11:24:34Z</time>
      </trkpt>
      <trkpt lat="45.71853" lon="3.10432">
        <ele>660.9</ele>
        <time>2011-09-25T11:24:41Z</time>
      </trkpt>
      <trkpt lat="45.71859" lon="3.10425">
        <ele>658.4</ele>
        <time>2011-09-25T11:24:43Z</time>
      </trkpt>
      <trkpt lat="45.71868" lon="3.10412">
        <ele>655.8</ele>
        <time>2011-09-25T11:24:46Z</time>
      </trkpt>
      <trkpt lat="45.71881" lon="3.10407">
        <ele>653.3</ele>
        <time>2011-09-25T11:24:48Z</time>
      </trkpt>
      <trkpt lat="45.71895" lon="3.10399">
        <ele>652.3</ele>
        <time>2011-09-25T11:24:50Z</time>
      </trkpt>
      <trkpt lat="45.71903" lon="3.10396">
        <ele>651.3</ele>
        <time>2011-09-25T11:24:51Z</time>
      </trkpt>
      <trkpt lat="45.71916" lon="3.10389">
        <ele>650.3</ele>
        <time>2011-09-25T11:24:52Z</time>
      </trkpt>
      <trkpt lat="45.71924" lon="3.10383">
        <ele>647.2</ele>
        <time>2011-09-25T11:24:54Z</time>
      </trkpt>
      <trkpt lat="45.71931" lon="3.10377">
        <ele>644.1</ele>
        <time>2011-09-25T11:24:56Z</time>
      </trkpt>
      <trkpt lat="45.71937" lon="3.10368">
        <ele>641</ele>
        <time>2011-09-25T11:24:58Z</time>
      </trkpt>
      <trkpt lat="45.71947" lon="3.10361">
        <ele>640.5</ele>
        <time>2011-09-25T11:25:01Z</time>
      </trkpt>
      <trkpt lat="45.71958" lon="3.10362">
        <ele>639.9</ele>
        <time>2011-09-25T11:25:03Z</time>
      </trkpt>
      <trkpt lat="45.71971" lon="3.10348">
        <ele>639.4</ele>
        <time>2011-09-25T11:25:05Z</time>
      </trkpt>
      <trkpt lat="45.71983" lon="3.10339">
        <ele>638.8</ele>
        <time>2011-09-25T11:25:07Z</time>
      </trkpt>
      <trkpt lat="45.71992" lon="3.10331">
        <ele>640.3</ele>
        <time>2011-09-25T11:25:08Z</time>
      </trkpt>
      <trkpt lat="45.72" lon="3.10321">
        <ele>640.2</ele>
        <time>2011-09-25T11:25:10Z</time>
      </trkpt>
      <trkpt lat="45.72007" lon="3.10311">
        <ele>637.9</ele>
        <time>2011-09-25T11:25:12Z</time>
      </trkpt>
      <trkpt lat="45.72018" lon="3.10306">
        <ele>635.6</ele>
        <time>2011-09-25T11:25:15Z</time>
      </trkpt>
      <trkpt lat="45.72027" lon="3.10298">
        <ele>635.5</ele>
        <time>2011-09-25T11:25:17Z</time>
      </trkpt>
      <trkpt lat="45.72036" lon="3.10292">
        <ele>635.3</ele>
        <time>2011-09-25T11:25:19Z</time>
      </trkpt>
      <trkpt lat="45.72043" lon="3.10285">
        <ele>635.1</ele>
        <time>2011-09-25T11:25:35Z</time>
      </trkpt>
      <trkpt lat="45.72052" lon="3.1028">
        <ele>634.9</ele>
        <time>2011-09-25T11:25:41Z</time>
      </trkpt>
      <trkpt lat="45.7206" lon="3.10276">
        <ele>634.7</ele>
        <time>2011-09-25T11:25:43Z</time>
      </trkpt>
      <trkpt lat="45.7207" lon="3.10272">
        <ele>634.5</ele>
        <time>2011-09-25T11:25:44Z</time>
      </trkpt>
      <trkpt lat="45.72078" lon="3.10264">
        <ele>634.4</ele>
        <time>2011-09-25T11:25:48Z</time>
      </trkpt>
      <trkpt lat="45.72085" lon="3.10258">
        <ele>632.2</ele>
        <time>2011-09-25T11:25:50Z</time>
      </trkpt>
      <trkpt lat="45.72094" lon="3.10254">
        <ele>630.6</ele>
        <time>2011-09-25T11:25:54Z</time>
      </trkpt>
      <trkpt lat="45.72104" lon="3.10248">
        <ele>628.1</ele>
        <time>2011-09-25T11:25:56Z</time>
      </trkpt>
      <trkpt lat="45.72114" lon="3.10239">
        <ele>625.5</ele>
        <time>2011-09-25T11:26:00Z</time>
      </trkpt>
      <trkpt lat="45.7212" lon="3.10228">
        <ele>623</ele>
        <time>2011-09-25T11:26:04Z</time>
      </trkpt>
      <trkpt lat="45.72124" lon="3.10217">
        <ele>623.6</ele>
        <time>2011-09-25T11:26:07Z</time>
      </trkpt>
      <trkpt lat="45.72127" lon="3.10207">
        <ele>624.3</ele>
        <time>2011-09-25T11:26:10Z</time>
      </trkpt>
      <trkpt lat="45.72129" lon="3.10195">
        <ele>624.9</ele>
        <time>2011-09-25T11:26:18Z</time>
      </trkpt>
      <trkpt lat="45.72132" lon="3.10184">
        <ele>625.5</ele>
        <time>2011-09-25T11:26:24Z</time>
      </trkpt>
      <trkpt lat="45.72129" lon="3.10172">
        <ele>625</ele>
        <time>2011-09-25T11:26:29Z</time>
      </trkpt>
      <trkpt lat="45.72125" lon="3.10162">
        <ele>621.5</ele>
        <time>2011-09-25T11:26:37Z</time>
      </trkpt>
      <trkpt lat="45.72123" lon="3.1015">
        <ele>617.9</ele>
        <time>2011-09-25T11:26:42Z</time>
      </trkpt>
      <trkpt lat="45.72116" lon="3.10144">
        <ele>613.7</ele>
        <time>2011-09-25T11:27:13Z</time>
      </trkpt>
      <trkpt lat="45.72117" lon="3.1013">
        <ele>612.7</ele>
        <time>2011-09-25T11:27:48Z</time>
      </trkpt>
      <trkpt lat="45.72124" lon="3.10124">
        <ele>611.7</ele>
        <time>2011-09-25T11:27:49Z</time>
      </trkpt>
      <trkpt lat="45.72134" lon="3.10113">
        <ele>610.7</ele>
        <time>2011-09-25T11:27:51Z</time>
      </trkpt>
      <trkpt lat="45.72141" lon="3.10104">
        <ele>606.5</ele>
        <time>2011-09-25T11:27:56Z</time>
      </trkpt>
      <trkpt lat="45.7215" lon="3.10098">
        <ele>602.4</ele>
        <time>2011-09-25T11:27:59Z</time>
      </trkpt>
      <trkpt lat="45.72161" lon="3.10101">
        <ele>598.2</ele>
        <time>2011-09-25T11:28:03Z</time>
      </trkpt>
      <trkpt lat="45.72172" lon="3.10097">
        <ele>594</ele>
        <time>2011-09-25T11:28:18Z</time>
      </trkpt>
      <trkpt lat="45.72178" lon="3.10089">
        <ele>590.1</ele>
        <time>2011-09-25T11:28:28Z</time>
      </trkpt>
      <trkpt lat="45.72185" lon="3.10084">
        <ele>586.8</ele>
        <time>2011-09-25T11:28:31Z</time>
      </trkpt>
      <trkpt lat="45.72191" lon="3.10075">
        <ele>583.5</ele>
        <time>2011-09-25T11:28:45Z</time>
      </trkpt>
      <trkpt lat="45.72199" lon="3.10063">
        <ele>582.6</ele>
        <time>2011-09-25T11:28:50Z</time>
      </trkpt>
      <trkpt lat="45.72204" lon="3.1005">
        <ele>581.7</ele>
        <time>2011-09-25T11:28:54Z</time>
      </trkpt>
      <trkpt lat="45.72205" lon="3.10034">
        <ele>580.8</ele>
        <time>2011-09-25T11:29:00Z</time>
      </trkpt>
      <trkpt lat="45.72211" lon="3.10025">
        <ele>579.1</ele>
        <time>2011-09-25T11:29:06Z</time>
      </trkpt>
      <trkpt lat="45.72214" lon="3.10012">
        <ele>577.4</ele>
        <time>2011-09-25T11:29:10Z</time>
      </trkpt>
      <trkpt lat="45.72207" lon="3.09999">
        <ele>575.6</ele>
        <time>2011-09-25T11:29:13Z</time>
      </trkpt>
      <trkpt lat="45.72203" lon="3.09986">
        <ele>573.9</ele>
        <time>2011-09-25T11:29:15Z</time>
      </trkpt>
      <trkpt lat="45.722" lon="3.09975">
        <ele>572.2</ele>
        <time>2011-09-25T11:29:19Z</time>
      </trkpt>
      <trkpt lat="45.72194" lon="3.09961">
        <ele>571.4</ele>
        <time>2011-09-25T11:29:21Z</time>
      </trkpt>
      <trkpt lat="45.72188" lon="3.09949">
        <ele>571.3</ele>
        <time>2011-09-25T11:29:24Z</time>
      </trkpt>
      <trkpt lat="45.72186" lon="3.09937">
        <ele>571.2</ele>
        <time>2011-09-25T11:29:28Z</time>
      </trkpt>
      <trkpt lat="45.72189" lon="3.09923">
        <ele>568.7</ele>
        <time>2011-09-25T11:29:37Z</time>
      </trkpt>
      <trkpt lat="45.72198" lon="3.09922">
        <ele>566.3</ele>
        <time>2011-09-25T11:29:39Z</time>
      </trkpt>
      <trkpt lat="45.7221" lon="3.09921">
        <ele>563.8</ele>
        <time>2011-09-25T11:29:40Z</time>
      </trkpt>
      <trkpt lat="45.7222" lon="3.09922">
        <ele>562.2</ele>
        <time>2011-09-25T11:29:42Z</time>
      </trkpt>
      <trkpt lat="45.72231" lon="3.0992">
        <ele>560.5</ele>
        <time>2011-09-25T11:29:43Z</time>
      </trkpt>
      <trkpt lat="45.72241" lon="3.09922">
        <ele>558.9</ele>
        <time>2011-09-25T11:29:46Z</time>
      </trkpt>
      <trkpt lat="45.72253" lon="3.0992">
        <ele>556.5</ele>
        <time>2011-09-25T11:29:48Z</time>
      </trkpt>
      <trkpt lat="45.72261" lon="3.09916">
        <ele>554.2</ele>
        <time>2011-09-25T11:29:51Z</time>
      </trkpt>
      <trkpt lat="45.72272" lon="3.09912">
        <ele>551.8</ele>
        <time>2011-09-25T11:29:52Z</time>
      </trkpt>
      <trkpt lat="45.72282" lon="3.09911">
        <ele>551.1</ele>
        <time>2011-09-25T11:29:54Z</time>
      </trkpt>
      <trkpt lat="45.72291" lon="3.09915">
        <ele>550.4</ele>
        <time>2011-09-25T11:29:56Z</time>
      </trkpt>
      <trkpt lat="45.72309" lon="3.09915">
        <ele>549.6</ele>
        <time>2011-09-25T11:29:57Z</time>
      </trkpt>
      <trkpt lat="45.72319" lon="3.09914">
        <ele>548.9</ele>
        <time>2011-09-25T11:29:59Z</time>
      </trkpt>
      <trkpt lat="45.72334" lon="3.09913">
        <ele>547.2</ele>
        <time>2011-09-25T11:29:59Z</time>
      </trkpt>
      <trkpt lat="45.72344" lon="3.09913">
        <ele>545.5</ele>
        <time>2011-09-25T11:30:00Z</time>
      </trkpt>
      <trkpt lat="45.72358" lon="3.09912">
        <ele>543.7</ele>
        <time>2011-09-25T11:30:02Z</time>
      </trkpt>
      <trkpt lat="45.72367" lon="3.09913">
        <ele>541.6</ele>
        <time>2011-09-25T11:30:03Z</time>
      </trkpt>
      <trkpt lat="45.72378" lon="3.09915">
        <ele>540.3</ele>
        <time>2011-09-25T11:30:05Z</time>
      </trkpt>
      <trkpt lat="45.72384" lon="3.09925">
        <ele>538.9</ele>
        <time>2011-09-25T11:30:10Z</time>
      </trkpt>
      <trkpt lat="45.72388" lon="3.09942">
        <ele>537.5</ele>
        <time>2011-09-25T11:30:11Z</time>
      </trkpt>
      <trkpt lat="45.72391" lon="3.09959">
        <ele>536.2</ele>
        <time>2011-09-25T11:30:13Z</time>
      </trkpt>
      <trkpt lat="45.72394" lon="3.09975">
        <ele>534.4</ele>
        <time>2011-09-25T11:30:15Z</time>
      </trkpt>
      <trkpt lat="45.72395" lon="3.09991">
        <ele>532.5</ele>
        <time>2011-09-25T11:30:17Z</time>
      </trkpt>
      <trkpt lat="45.72396" lon="3.1001">
        <ele>530.7</ele>
        <time>2011-09-25T11:30:19Z</time>
      </trkpt>
      <trkpt lat="45.72397" lon="3.10028">
        <ele>529.9</ele>
        <time>2011-09-25T11:30:21Z</time>
      </trkpt>
      <trkpt lat="45.72394" lon="3.10043">
        <ele>529.1</ele>
        <time>2011-09-25T11:30:24Z</time>
      </trkpt>
      <trkpt lat="45.72389" lon="3.10056">
        <ele>528.3</ele>
        <time>2011-09-25T11:30:27Z</time>
      </trkpt>
      <trkpt lat="45.72391" lon="3.10068">
        <ele>527.9</ele>
        <time>2011-09-25T11:30:29Z</time>
      </trkpt>
      <trkpt lat="45.72392" lon="3.1008">
        <ele>527.5</ele>
        <time>2011-09-25T11:30:31Z</time>
      </trkpt>
      <trkpt lat="45.72393" lon="3.10095">
        <ele>527.2</ele>
        <time>2011-09-25T11:30:34Z</time>
      </trkpt>
      <trkpt lat="45.72395" lon="3.10109">
        <ele>526.8</ele>
        <time>2011-09-25T11:30:37Z</time>
      </trkpt>
      <trkpt lat="45.72398" lon="3.10121">
        <ele>526.5</ele>
        <time>2011-09-25T11:30:41Z</time>
      </trkpt>
      <trkpt lat="45.72398" lon="3.10135">
        <ele>526.5</ele>
        <time>2011-09-25T11:30:45Z</time>
      </trkpt>
      <trkpt lat="45.72403" lon="3.10145">
        <ele>526.6</ele>
        <time>2011-09-25T11:30:47Z</time>
      </trkpt>
      <trkpt lat="45.72403" lon="3.10161">
        <ele>527.3</ele>
        <time>2011-09-25T11:30:51Z</time>
      </trkpt>
      <trkpt lat="45.72405" lon="3.10173">
        <ele>527.9</ele>
        <time>2011-09-25T11:30:55Z</time>
      </trkpt>
      <trkpt lat="45.7241" lon="3.10185">
        <ele>528.5</ele>
        <time>2011-09-25T11:30:58Z</time>
      </trkpt>
      <trkpt lat="45.72412" lon="3.10199">
        <ele>528.1</ele>
        <time>2011-09-25T11:31:00Z</time>
      </trkpt>
      <trkpt lat="45.72417" lon="3.1021">
        <ele>527</ele>
        <time>2011-09-25T11:31:02Z</time>
      </trkpt>
      <trkpt lat="45.72423" lon="3.10217">
        <ele>525.9</ele>
        <time>2011-09-25T11:31:07Z</time>
      </trkpt>
      <trkpt lat="45.7244" lon="3.1022">
        <ele>524.8</ele>
        <time>2011-09-25T11:31:09Z</time>
      </trkpt>
      <trkpt lat="45.72451" lon="3.10215">
        <ele>523.7</ele>
        <time>2011-09-25T11:31:11Z</time>
      </trkpt>
      <trkpt lat="45.72464" lon="3.10212">
        <ele>522.6</ele>
        <time>2011-09-25T11:31:13Z</time>
      </trkpt>
      <trkpt lat="45.7248" lon="3.10205">
        <ele>521.5</ele>
        <time>2011-09-25T11:31:15Z</time>
      </trkpt>
      <trkpt lat="45.72489" lon="3.10201">
        <ele>520.5</ele>
        <time>2011-09-25T11:31:16Z</time>
      </trkpt>
      <trkpt lat="45.72497" lon="3.10196">
        <ele>518.8</ele>
        <time>2011-09-25T11:31:17Z</time>
      </trkpt>
      <trkpt lat="45.72505" lon="3.10191">
        <ele>517.2</ele>
        <time>2011-09-25T11:31:18Z</time>
      </trkpt>
      <trkpt lat="45.72513" lon="3.10185">
        <ele>514.5</ele>
        <time>2011-09-25T11:31:19Z</time>
      </trkpt>
      <trkpt lat="45.72519" lon="3.10177">
        <ele>513</ele>
        <time>2011-09-25T11:31:20Z</time>
      </trkpt>
      <trkpt lat="45.72532" lon="3.10164">
        <ele>512</ele>
        <time>2011-09-25T11:31:22Z</time>
      </trkpt>
      <trkpt lat="45.72539" lon="3.10158">
        <ele>511</ele>
        <time>2011-09-25T11:31:24Z</time>
      </trkpt>
      <trkpt lat="45.72545" lon="3.10149">
        <ele>510</ele>
        <time>2011-09-25T11:31:26Z</time>
      </trkpt>
      <trkpt lat="45.72556" lon="3.10143">
        <ele>509</ele>
        <time>2011-09-25T11:31:28Z</time>
      </trkpt>
      <trkpt lat="45.7257" lon="3.1014">
        <ele>508</ele>
        <time>2011-09-25T11:31:30Z</time>
      </trkpt>
      <trkpt lat="45.72581" lon="3.10142">
        <ele>507</ele>
        <time>2011-09-25T11:31:32Z</time>
      </trkpt>
      <trkpt lat="45.72586" lon="3.10152">
        <ele>506</ele>
        <time>2011-09-25T11:31:35Z</time>
      </trkpt>
      <trkpt lat="45.72588" lon="3.10166">
        <ele>505.6</ele>
        <time>2011-09-25T11:31:36Z</time>
      </trkpt>
      <trkpt lat="45.72588" lon="3.10179">
        <ele>504.6</ele>
        <time>2011-09-25T11:31:38Z</time>
      </trkpt>
      <trkpt lat="45.72594" lon="3.10194">
        <ele>504.6</ele>
        <time>2011-09-25T11:31:41Z</time>
      </trkpt>
      <trkpt lat="45.72602" lon="3.10203">
        <ele>504.6</ele>
        <time>2011-09-25T11:31:43Z</time>
      </trkpt>
      <trkpt lat="45.72611" lon="3.10209">
        <ele>504.6</ele>
        <time>2011-09-25T11:31:46Z</time>
      </trkpt>
      <trkpt lat="45.72622" lon="3.10215">
        <ele>504.6</ele>
        <time>2011-09-25T11:31:48Z</time>
      </trkpt>
      <trkpt lat="45.72635" lon="3.10218">
        <ele>503.7</ele>
        <time>2011-09-25T11:31:51Z</time>
      </trkpt>
      <trkpt lat="45.72649" lon="3.10222">
        <ele>503.3</ele>
        <time>2011-09-25T11:31:53Z</time>
      </trkpt>
      <trkpt lat="45.72664" lon="3.10229">
        <ele>502.8</ele>
        <time>2011-09-25T11:31:56Z</time>
      </trkpt>
      <trkpt lat="45.72678" lon="3.10236">
        <ele>502.4</ele>
        <time>2011-09-25T11:31:58Z</time>
      </trkpt>
      <trkpt lat="45.72691" lon="3.10245">
        <ele>501.9</ele>
        <time>2011-09-25T11:31:59Z</time>
      </trkpt>
      <trkpt lat="45.7272" lon="3.10283">
        <ele>500.8</ele>
        <time>2011-09-25T11:32:02Z</time>
      </trkpt>
      <trkpt lat="45.72728" lon="3.10297">
        <ele>500.4</ele>
        <time>2011-09-25T11:32:04Z</time>
      </trkpt>
      <trkpt lat="45.72734" lon="3.10311">
        <ele>500.5</ele>
        <time>2011-09-25T11:32:06Z</time>
      </trkpt>
      <trkpt lat="45.72742" lon="3.10326">
        <ele>500.7</ele>
        <time>2011-09-25T11:32:08Z</time>
      </trkpt>
      <trkpt lat="45.72748" lon="3.10341">
        <ele>500.9</ele>
        <time>2011-09-25T11:32:11Z</time>
      </trkpt>
      <trkpt lat="45.72756" lon="3.10357">
        <ele>501.1</ele>
        <time>2011-09-25T11:32:13Z</time>
      </trkpt>
      <trkpt lat="45.72761" lon="3.1037">
        <ele>502.2</ele>
        <time>2011-09-25T11:32:14Z</time>
      </trkpt>
      <trkpt lat="45.72766" lon="3.10383">
        <ele>502.8</ele>
        <time>2011-09-25T11:32:16Z</time>
      </trkpt>
      <trkpt lat="45.72769" lon="3.104">
        <ele>503.5</ele>
        <time>2011-09-25T11:32:18Z</time>
      </trkpt>
      <trkpt lat="45.72769" lon="3.10416">
        <ele>504.1</ele>
        <time>2011-09-25T11:32:20Z</time>
      </trkpt>
      <trkpt lat="45.72768" lon="3.10432">
        <ele>504.7</ele>
        <time>2011-09-25T11:32:22Z</time>
      </trkpt>
      <trkpt lat="45.72768" lon="3.10447">
        <ele>504.3</ele>
        <time>2011-09-25T11:32:24Z</time>
      </trkpt>
      <trkpt lat="45.72767" lon="3.10459">
        <ele>503.8</ele>
        <time>2011-09-25T11:32:26Z</time>
      </trkpt>
      <trkpt lat="45.72775" lon="3.10456">
        <ele>502.7</ele>
        <time>2011-09-25T11:32:31Z</time>
      </trkpt>
      <trkpt lat="45.72781" lon="3.10446">
        <ele>501.6</ele>
        <time>2011-09-25T11:32:33Z</time>
      </trkpt>
      <trkpt lat="45.72789" lon="3.10436">
        <ele>500.5</ele>
        <time>2011-09-25T11:32:35Z</time>
      </trkpt>
      <trkpt lat="45.72794" lon="3.10427">
        <ele>499.5</ele>
        <time>2011-09-25T11:32:38Z</time>
      </trkpt>
      <trkpt lat="45.72802" lon="3.10418">
        <ele>498</ele>
        <time>2011-09-25T11:32:42Z</time>
      </trkpt>
      <trkpt lat="45.72809" lon="3.10414">
        <ele>496.5</ele>
        <time>2011-09-25T11:32:43Z</time>
      </trkpt>
      <trkpt lat="45.72819" lon="3.10405">
        <ele>495.1</ele>
        <time>2011-09-25T11:32:45Z</time>
      </trkpt>
      <trkpt lat="45.72827" lon="3.10392">
        <ele>493.6</ele>
        <time>2011-09-25T11:32:48Z</time>
      </trkpt>
      <trkpt lat="45.72837" lon="3.1038">
        <ele>492.2</ele>
        <time>2011-09-25T11:32:51Z</time>
      </trkpt>
      <trkpt lat="45.72844" lon="3.10372">
        <ele>491.2</ele>
        <time>2011-09-25T11:32:53Z</time>
      </trkpt>
      <trkpt lat="45.72851" lon="3.10362">
        <ele>490.2</ele>
        <time>2011-09-25T11:32:55Z</time>
      </trkpt>
      <trkpt lat="45.72859" lon="3.10353">
        <ele>489.5</ele>
        <time>2011-09-25T11:32:57Z</time>
      </trkpt>
      <trkpt lat="45.72865" lon="3.10343">
        <ele>488.9</ele>
        <time>2011-09-25T11:33:00Z</time>
      </trkpt>
      <trkpt lat="45.72876" lon="3.10346">
        <ele>488.3</ele>
        <time>2011-09-25T11:33:07Z</time>
      </trkpt>
      <trkpt lat="45.72886" lon="3.1036">
        <ele>487.6</ele>
        <time>2011-09-25T11:33:10Z</time>
      </trkpt>
      <trkpt lat="45.72895" lon="3.10371">
        <ele>487.4</ele>
        <time>2011-09-25T11:33:12Z</time>
      </trkpt>
      <trkpt lat="45.72904" lon="3.10384">
        <ele>487.1</ele>
        <time>2011-09-25T11:33:14Z</time>
      </trkpt>
      <trkpt lat="45.72913" lon="3.10397">
        <ele>486.8</ele>
        <time>2011-09-25T11:33:16Z</time>
      </trkpt>
      <trkpt lat="45.72924" lon="3.10408">
        <ele>485.7</ele>
        <time>2011-09-25T11:33:18Z</time>
      </trkpt>
      <trkpt lat="45.72933" lon="3.10421">
        <ele>484.6</ele>
        <time>2011-09-25T11:33:20Z</time>
      </trkpt>
      <trkpt lat="45.72942" lon="3.10434">
        <ele>484.2</ele>
        <time>2011-09-25T11:33:22Z</time>
      </trkpt>
      <trkpt lat="45.72952" lon="3.10446">
        <ele>483.7</ele>
        <time>2011-09-25T11:33:24Z</time>
      </trkpt>
      <trkpt lat="45.72963" lon="3.10448">
        <ele>482.9</ele>
        <time>2011-09-25T11:33:26Z</time>
      </trkpt>
      <trkpt lat="45.72977" lon="3.10439">
        <ele>481.9</ele>
        <time>2011-09-25T11:33:28Z</time>
      </trkpt>
      <trkpt lat="45.7299" lon="3.10424">
        <ele>480.9</ele>
        <time>2011-09-25T11:33:30Z</time>
      </trkpt>
      <trkpt lat="45.73004" lon="3.10411">
        <ele>479.4</ele>
        <time>2011-09-25T11:33:33Z</time>
      </trkpt>
      <trkpt lat="45.73019" lon="3.10393">
        <ele>477.8</ele>
        <time>2011-09-25T11:33:35Z</time>
      </trkpt>
      <trkpt lat="45.73025" lon="3.10381">
        <ele>476.2</ele>
        <time>2011-09-25T11:33:37Z</time>
      </trkpt>
      <trkpt lat="45.73033" lon="3.10369">
        <ele>474.5</ele>
        <time>2011-09-25T11:33:39Z</time>
      </trkpt>
      <trkpt lat="45.73042" lon="3.10359">
        <ele>473.7</ele>
        <time>2011-09-25T11:33:40Z</time>
      </trkpt>
      <trkpt lat="45.73051" lon="3.1035">
        <ele>472.9</ele>
        <time>2011-09-25T11:33:41Z</time>
      </trkpt>
      <trkpt lat="45.73061" lon="3.10364">
        <ele>472.1</ele>
        <time>2011-09-25T11:33:44Z</time>
      </trkpt>
      <trkpt lat="45.73066" lon="3.10379">
        <ele>471.3</ele>
        <time>2011-09-25T11:33:47Z</time>
      </trkpt>
      <trkpt lat="45.73072" lon="3.10398">
        <ele>470.6</ele>
        <time>2011-09-25T11:33:50Z</time>
      </trkpt>
      <trkpt lat="45.73083" lon="3.10415">
        <ele>470</ele>
        <time>2011-09-25T11:33:52Z</time>
      </trkpt>
      <trkpt lat="45.73091" lon="3.10417">
        <ele>469.2</ele>
        <time>2011-09-25T11:33:54Z</time>
      </trkpt>
      <trkpt lat="45.73097" lon="3.10406">
        <ele>469.1</ele>
        <time>2011-09-25T11:33:55Z</time>
      </trkpt>
      <trkpt lat="45.73099" lon="3.10394">
        <ele>469</ele>
        <time>2011-09-25T11:33:57Z</time>
      </trkpt>
    </trkseg>
  </trk>
</gpx>